<?xml version="1.0" encoding="UTF-8" standalone="no" ?>
<gpx xmlns="http://www.topografix.com/GPX/1/1" xmlns:xsi="http://www.w3.org/2001/XMLSchema-instance" xsi:schemaLocation="http://www.topografix.com/GPX/1/1 http://www.topografix.com/GPX/1/1/gpx.xsd" version="1.1" creator="VisuGPX - https://www.visugpx.com">
  <metadata>
    <name>Circuit Noir n°14 les Sept Clochers</name>
  </metadata>
  <trk>
    <name><![CDATA[Circuit Noir n°14 les Sept Clochers]]></name>
    <trkseg>
      <trkpt lat="44.34784" lon="4.76993">
        <ele>98.3</ele>
        <time>2018-04-24T08:11:25Z</time>
      </trkpt>
      <trkpt lat="44.34784" lon="4.76991">
        <ele>98.3</ele>
        <time>2018-04-24T08:11:26Z</time>
      </trkpt>
      <trkpt lat="44.34788" lon="4.7698">
        <ele>98.5</ele>
        <time>2018-04-24T08:11:33Z</time>
      </trkpt>
      <trkpt lat="44.34792" lon="4.76968">
        <ele>98.9</ele>
        <time>2018-04-24T08:11:39Z</time>
      </trkpt>
      <trkpt lat="44.34802" lon="4.76966">
        <ele>99.3</ele>
        <time>2018-04-24T08:11:47Z</time>
      </trkpt>
      <trkpt lat="44.3481" lon="4.76973">
        <ele>99.5</ele>
        <time>2018-04-24T08:11:54Z</time>
      </trkpt>
      <trkpt lat="44.34815" lon="4.76984">
        <ele>99.7</ele>
        <time>2018-04-24T08:11:58Z</time>
      </trkpt>
      <trkpt lat="44.34821" lon="4.76995">
        <ele>100.3</ele>
        <time>2018-04-24T08:12:03Z</time>
      </trkpt>
      <trkpt lat="44.34828" lon="4.77005">
        <ele>100.4</ele>
        <time>2018-04-24T08:12:06Z</time>
      </trkpt>
      <trkpt lat="44.34837" lon="4.77018">
        <ele>100.5</ele>
        <time>2018-04-24T08:12:10Z</time>
      </trkpt>
      <trkpt lat="44.34844" lon="4.77031">
        <ele>100.7</ele>
        <time>2018-04-24T08:12:13Z</time>
      </trkpt>
      <trkpt lat="44.3485" lon="4.77046">
        <ele>100.9</ele>
        <time>2018-04-24T08:12:16Z</time>
      </trkpt>
      <trkpt lat="44.34855" lon="4.77061">
        <ele>101</ele>
        <time>2018-04-24T08:12:19Z</time>
      </trkpt>
      <trkpt lat="44.34866" lon="4.77066">
        <ele>100.9</ele>
        <time>2018-04-24T08:12:22Z</time>
      </trkpt>
      <trkpt lat="44.34874" lon="4.77067">
        <ele>100.6</ele>
        <time>2018-04-24T08:12:24Z</time>
      </trkpt>
      <trkpt lat="44.34887" lon="4.77069">
        <ele>100.7</ele>
        <time>2018-04-24T08:12:27Z</time>
      </trkpt>
      <trkpt lat="44.34896" lon="4.77071">
        <ele>100.6</ele>
        <time>2018-04-24T08:12:29Z</time>
      </trkpt>
      <trkpt lat="44.34906" lon="4.77072">
        <ele>100.6</ele>
        <time>2018-04-24T08:12:31Z</time>
      </trkpt>
      <trkpt lat="44.34916" lon="4.77077">
        <ele>100.7</ele>
        <time>2018-04-24T08:12:34Z</time>
      </trkpt>
      <trkpt lat="44.34916" lon="4.77093">
        <ele>101</ele>
        <time>2018-04-24T08:12:37Z</time>
      </trkpt>
      <trkpt lat="44.34917" lon="4.77109">
        <ele>101.1</ele>
        <time>2018-04-24T08:12:40Z</time>
      </trkpt>
      <trkpt lat="44.34928" lon="4.77113">
        <ele>100.8</ele>
        <time>2018-04-24T08:12:43Z</time>
      </trkpt>
      <trkpt lat="44.34939" lon="4.77115">
        <ele>100.2</ele>
        <time>2018-04-24T08:12:46Z</time>
      </trkpt>
      <trkpt lat="44.34947" lon="4.77123">
        <ele>99.8</ele>
        <time>2018-04-24T08:12:48Z</time>
      </trkpt>
      <trkpt lat="44.34954" lon="4.77136">
        <ele>99.2</ele>
        <time>2018-04-24T08:12:51Z</time>
      </trkpt>
      <trkpt lat="44.34957" lon="4.7715">
        <ele>98.4</ele>
        <time>2018-04-24T08:12:55Z</time>
      </trkpt>
      <trkpt lat="44.34953" lon="4.77163">
        <ele>97.8</ele>
        <time>2018-04-24T08:12:58Z</time>
      </trkpt>
      <trkpt lat="44.34957" lon="4.77174">
        <ele>97.3</ele>
        <time>2018-04-24T08:13:02Z</time>
      </trkpt>
      <trkpt lat="44.34968" lon="4.77182">
        <ele>96.9</ele>
        <time>2018-04-24T08:13:05Z</time>
      </trkpt>
      <trkpt lat="44.34975" lon="4.7719">
        <ele>96.6</ele>
        <time>2018-04-24T08:13:07Z</time>
      </trkpt>
      <trkpt lat="44.34983" lon="4.77198">
        <ele>96.3</ele>
        <time>2018-04-24T08:13:09Z</time>
      </trkpt>
      <trkpt lat="44.3499" lon="4.77207">
        <ele>96.1</ele>
        <time>2018-04-24T08:13:11Z</time>
      </trkpt>
      <trkpt lat="44.34999" lon="4.77217">
        <ele>95.9</ele>
        <time>2018-04-24T08:13:14Z</time>
      </trkpt>
      <trkpt lat="44.34998" lon="4.7723">
        <ele>95.9</ele>
        <time>2018-04-24T08:13:20Z</time>
      </trkpt>
      <trkpt lat="44.3499" lon="4.77239">
        <ele>95.9</ele>
        <time>2018-04-24T08:13:23Z</time>
      </trkpt>
      <trkpt lat="44.34982" lon="4.7725">
        <ele>95.9</ele>
        <time>2018-04-24T08:13:26Z</time>
      </trkpt>
      <trkpt lat="44.34981" lon="4.77267">
        <ele>95.9</ele>
        <time>2018-04-24T08:13:29Z</time>
      </trkpt>
      <trkpt lat="44.34981" lon="4.77284">
        <ele>95.9</ele>
        <time>2018-04-24T08:13:32Z</time>
      </trkpt>
      <trkpt lat="44.34983" lon="4.77299">
        <ele>96</ele>
        <time>2018-04-24T08:13:35Z</time>
      </trkpt>
      <trkpt lat="44.34982" lon="4.77318">
        <ele>96.1</ele>
        <time>2018-04-24T08:13:38Z</time>
      </trkpt>
      <trkpt lat="44.34981" lon="4.77331">
        <ele>96.4</ele>
        <time>2018-04-24T08:13:40Z</time>
      </trkpt>
      <trkpt lat="44.34979" lon="4.77348">
        <ele>96.6</ele>
        <time>2018-04-24T08:13:43Z</time>
      </trkpt>
      <trkpt lat="44.34978" lon="4.77362">
        <ele>97.3</ele>
        <time>2018-04-24T08:13:48Z</time>
      </trkpt>
      <trkpt lat="44.34969" lon="4.77366">
        <ele>97.4</ele>
        <time>2018-04-24T08:13:51Z</time>
      </trkpt>
      <trkpt lat="44.34961" lon="4.77376">
        <ele>97.5</ele>
        <time>2018-04-24T08:13:54Z</time>
      </trkpt>
      <trkpt lat="44.34956" lon="4.7739">
        <ele>97.3</ele>
        <time>2018-04-24T08:13:57Z</time>
      </trkpt>
      <trkpt lat="44.34951" lon="4.77404">
        <ele>97.2</ele>
        <time>2018-04-24T08:13:59Z</time>
      </trkpt>
      <trkpt lat="44.34947" lon="4.77416">
        <ele>97.1</ele>
        <time>2018-04-24T08:14:01Z</time>
      </trkpt>
      <trkpt lat="44.34941" lon="4.77432">
        <ele>97.4</ele>
        <time>2018-04-24T08:14:04Z</time>
      </trkpt>
      <trkpt lat="44.34931" lon="4.77445">
        <ele>97.8</ele>
        <time>2018-04-24T08:14:07Z</time>
      </trkpt>
      <trkpt lat="44.34923" lon="4.77454">
        <ele>98</ele>
        <time>2018-04-24T08:14:09Z</time>
      </trkpt>
      <trkpt lat="44.34914" lon="4.77464">
        <ele>98.4</ele>
        <time>2018-04-24T08:14:12Z</time>
      </trkpt>
      <trkpt lat="44.34909" lon="4.77476">
        <ele>99.1</ele>
        <time>2018-04-24T08:14:16Z</time>
      </trkpt>
      <trkpt lat="44.34903" lon="4.7749">
        <ele>99.5</ele>
        <time>2018-04-24T08:14:19Z</time>
      </trkpt>
      <trkpt lat="44.34891" lon="4.775">
        <ele>99.6</ele>
        <time>2018-04-24T08:14:22Z</time>
      </trkpt>
      <trkpt lat="44.34884" lon="4.77508">
        <ele>99.6</ele>
        <time>2018-04-24T08:14:24Z</time>
      </trkpt>
      <trkpt lat="44.34876" lon="4.77517">
        <ele>99.7</ele>
        <time>2018-04-24T08:14:26Z</time>
      </trkpt>
      <trkpt lat="44.34869" lon="4.77528">
        <ele>99.7</ele>
        <time>2018-04-24T08:14:28Z</time>
      </trkpt>
      <trkpt lat="44.34862" lon="4.77539">
        <ele>99.6</ele>
        <time>2018-04-24T08:14:30Z</time>
      </trkpt>
      <trkpt lat="44.34855" lon="4.7755">
        <ele>99.6</ele>
        <time>2018-04-24T08:14:32Z</time>
      </trkpt>
      <trkpt lat="44.34848" lon="4.77561">
        <ele>99.7</ele>
        <time>2018-04-24T08:14:34Z</time>
      </trkpt>
      <trkpt lat="44.34841" lon="4.77573">
        <ele>99.6</ele>
        <time>2018-04-24T08:14:36Z</time>
      </trkpt>
      <trkpt lat="44.34834" lon="4.77584">
        <ele>99.8</ele>
        <time>2018-04-24T08:14:38Z</time>
      </trkpt>
      <trkpt lat="44.34829" lon="4.77597">
        <ele>99.9</ele>
        <time>2018-04-24T08:14:40Z</time>
      </trkpt>
      <trkpt lat="44.34825" lon="4.77611">
        <ele>100.1</ele>
        <time>2018-04-24T08:14:42Z</time>
      </trkpt>
      <trkpt lat="44.34822" lon="4.77627">
        <ele>100.2</ele>
        <time>2018-04-24T08:14:44Z</time>
      </trkpt>
      <trkpt lat="44.34821" lon="4.77643">
        <ele>100.2</ele>
        <time>2018-04-24T08:14:46Z</time>
      </trkpt>
      <trkpt lat="44.3482" lon="4.77658">
        <ele>100.2</ele>
        <time>2018-04-24T08:14:48Z</time>
      </trkpt>
      <trkpt lat="44.34818" lon="4.77674">
        <ele>100.2</ele>
        <time>2018-04-24T08:14:50Z</time>
      </trkpt>
      <trkpt lat="44.34817" lon="4.77689">
        <ele>100.2</ele>
        <time>2018-04-24T08:14:52Z</time>
      </trkpt>
      <trkpt lat="44.34816" lon="4.77705">
        <ele>100.2</ele>
        <time>2018-04-24T08:14:54Z</time>
      </trkpt>
      <trkpt lat="44.34815" lon="4.77721">
        <ele>100.5</ele>
        <time>2018-04-24T08:14:56Z</time>
      </trkpt>
      <trkpt lat="44.34815" lon="4.77736">
        <ele>100.8</ele>
        <time>2018-04-24T08:14:58Z</time>
      </trkpt>
      <trkpt lat="44.34815" lon="4.77752">
        <ele>100.8</ele>
        <time>2018-04-24T08:15:00Z</time>
      </trkpt>
      <trkpt lat="44.34814" lon="4.77768">
        <ele>101</ele>
        <time>2018-04-24T08:15:02Z</time>
      </trkpt>
      <trkpt lat="44.34815" lon="4.77783">
        <ele>101.3</ele>
        <time>2018-04-24T08:15:04Z</time>
      </trkpt>
      <trkpt lat="44.34816" lon="4.77797">
        <ele>101.4</ele>
        <time>2018-04-24T08:15:06Z</time>
      </trkpt>
      <trkpt lat="44.34817" lon="4.77812">
        <ele>101.6</ele>
        <time>2018-04-24T08:15:08Z</time>
      </trkpt>
      <trkpt lat="44.34817" lon="4.77827">
        <ele>101.8</ele>
        <time>2018-04-24T08:15:10Z</time>
      </trkpt>
      <trkpt lat="44.34818" lon="4.77841">
        <ele>101.8</ele>
        <time>2018-04-24T08:15:12Z</time>
      </trkpt>
      <trkpt lat="44.34817" lon="4.77856">
        <ele>101.8</ele>
        <time>2018-04-24T08:15:14Z</time>
      </trkpt>
      <trkpt lat="44.34816" lon="4.77871">
        <ele>102</ele>
        <time>2018-04-24T08:15:16Z</time>
      </trkpt>
      <trkpt lat="44.34814" lon="4.77885">
        <ele>102.3</ele>
        <time>2018-04-24T08:15:18Z</time>
      </trkpt>
      <trkpt lat="44.34811" lon="4.779">
        <ele>102.6</ele>
        <time>2018-04-24T08:15:20Z</time>
      </trkpt>
      <trkpt lat="44.34809" lon="4.77915">
        <ele>102.8</ele>
        <time>2018-04-24T08:15:22Z</time>
      </trkpt>
      <trkpt lat="44.34806" lon="4.7793">
        <ele>103</ele>
        <time>2018-04-24T08:15:24Z</time>
      </trkpt>
      <trkpt lat="44.34802" lon="4.77945">
        <ele>103.1</ele>
        <time>2018-04-24T08:15:26Z</time>
      </trkpt>
      <trkpt lat="44.34799" lon="4.7796">
        <ele>103.2</ele>
        <time>2018-04-24T08:15:28Z</time>
      </trkpt>
      <trkpt lat="44.34796" lon="4.77974">
        <ele>103.4</ele>
        <time>2018-04-24T08:15:30Z</time>
      </trkpt>
      <trkpt lat="44.34793" lon="4.77989">
        <ele>103.6</ele>
        <time>2018-04-24T08:15:32Z</time>
      </trkpt>
      <trkpt lat="44.3479" lon="4.78003">
        <ele>103.9</ele>
        <time>2018-04-24T08:15:34Z</time>
      </trkpt>
      <trkpt lat="44.34787" lon="4.78017">
        <ele>104.1</ele>
        <time>2018-04-24T08:15:36Z</time>
      </trkpt>
      <trkpt lat="44.34784" lon="4.78032">
        <ele>104.1</ele>
        <time>2018-04-24T08:15:38Z</time>
      </trkpt>
      <trkpt lat="44.34781" lon="4.78047">
        <ele>104.3</ele>
        <time>2018-04-24T08:15:40Z</time>
      </trkpt>
      <trkpt lat="44.34778" lon="4.78062">
        <ele>104.4</ele>
        <time>2018-04-24T08:15:42Z</time>
      </trkpt>
      <trkpt lat="44.34774" lon="4.78077">
        <ele>104.5</ele>
        <time>2018-04-24T08:15:44Z</time>
      </trkpt>
      <trkpt lat="44.34771" lon="4.78092">
        <ele>104.6</ele>
        <time>2018-04-24T08:15:46Z</time>
      </trkpt>
      <trkpt lat="44.34767" lon="4.78107">
        <ele>104.7</ele>
        <time>2018-04-24T08:15:48Z</time>
      </trkpt>
      <trkpt lat="44.34764" lon="4.78122">
        <ele>104.6</ele>
        <time>2018-04-24T08:15:50Z</time>
      </trkpt>
      <trkpt lat="44.34761" lon="4.78138">
        <ele>104.7</ele>
        <time>2018-04-24T08:15:52Z</time>
      </trkpt>
      <trkpt lat="44.34758" lon="4.78153">
        <ele>104.8</ele>
        <time>2018-04-24T08:15:54Z</time>
      </trkpt>
      <trkpt lat="44.34754" lon="4.78169">
        <ele>105</ele>
        <time>2018-04-24T08:15:56Z</time>
      </trkpt>
      <trkpt lat="44.34751" lon="4.78185">
        <ele>105.3</ele>
        <time>2018-04-24T08:15:58Z</time>
      </trkpt>
      <trkpt lat="44.34749" lon="4.78201">
        <ele>105.3</ele>
        <time>2018-04-24T08:16:00Z</time>
      </trkpt>
      <trkpt lat="44.3475" lon="4.78218">
        <ele>105.2</ele>
        <time>2018-04-24T08:16:02Z</time>
      </trkpt>
      <trkpt lat="44.34752" lon="4.78234">
        <ele>105.2</ele>
        <time>2018-04-24T08:16:04Z</time>
      </trkpt>
      <trkpt lat="44.34755" lon="4.7825">
        <ele>105.2</ele>
        <time>2018-04-24T08:16:06Z</time>
      </trkpt>
      <trkpt lat="44.34758" lon="4.78265">
        <ele>105.3</ele>
        <time>2018-04-24T08:16:08Z</time>
      </trkpt>
      <trkpt lat="44.34761" lon="4.78281">
        <ele>105.5</ele>
        <time>2018-04-24T08:16:10Z</time>
      </trkpt>
      <trkpt lat="44.34764" lon="4.78297">
        <ele>105.8</ele>
        <time>2018-04-24T08:16:12Z</time>
      </trkpt>
      <trkpt lat="44.34767" lon="4.78313">
        <ele>106.1</ele>
        <time>2018-04-24T08:16:14Z</time>
      </trkpt>
      <trkpt lat="44.3477" lon="4.78329">
        <ele>106.4</ele>
        <time>2018-04-24T08:16:16Z</time>
      </trkpt>
      <trkpt lat="44.34772" lon="4.78345">
        <ele>106.7</ele>
        <time>2018-04-24T08:16:18Z</time>
      </trkpt>
      <trkpt lat="44.34775" lon="4.78361">
        <ele>106.9</ele>
        <time>2018-04-24T08:16:20Z</time>
      </trkpt>
      <trkpt lat="44.34777" lon="4.78377">
        <ele>107</ele>
        <time>2018-04-24T08:16:22Z</time>
      </trkpt>
      <trkpt lat="44.34777" lon="4.78393">
        <ele>107.2</ele>
        <time>2018-04-24T08:16:24Z</time>
      </trkpt>
      <trkpt lat="44.34778" lon="4.78409">
        <ele>107.4</ele>
        <time>2018-04-24T08:16:26Z</time>
      </trkpt>
      <trkpt lat="44.34779" lon="4.78424">
        <ele>107.9</ele>
        <time>2018-04-24T08:16:28Z</time>
      </trkpt>
      <trkpt lat="44.34782" lon="4.78439">
        <ele>108.2</ele>
        <time>2018-04-24T08:16:30Z</time>
      </trkpt>
      <trkpt lat="44.34786" lon="4.78453">
        <ele>108.4</ele>
        <time>2018-04-24T08:16:32Z</time>
      </trkpt>
      <trkpt lat="44.3479" lon="4.78467">
        <ele>108.3</ele>
        <time>2018-04-24T08:16:34Z</time>
      </trkpt>
      <trkpt lat="44.34796" lon="4.7848">
        <ele>108.6</ele>
        <time>2018-04-24T08:16:36Z</time>
      </trkpt>
      <trkpt lat="44.34803" lon="4.78492">
        <ele>108.8</ele>
        <time>2018-04-24T08:16:38Z</time>
      </trkpt>
      <trkpt lat="44.34809" lon="4.78504">
        <ele>109</ele>
        <time>2018-04-24T08:16:40Z</time>
      </trkpt>
      <trkpt lat="44.34815" lon="4.78516">
        <ele>109.2</ele>
        <time>2018-04-24T08:16:42Z</time>
      </trkpt>
      <trkpt lat="44.34822" lon="4.78527">
        <ele>109.6</ele>
        <time>2018-04-24T08:16:44Z</time>
      </trkpt>
      <trkpt lat="44.34829" lon="4.7854">
        <ele>109.9</ele>
        <time>2018-04-24T08:16:46Z</time>
      </trkpt>
      <trkpt lat="44.34834" lon="4.78553">
        <ele>110</ele>
        <time>2018-04-24T08:16:48Z</time>
      </trkpt>
      <trkpt lat="44.34839" lon="4.78566">
        <ele>110.2</ele>
        <time>2018-04-24T08:16:50Z</time>
      </trkpt>
      <trkpt lat="44.34845" lon="4.78577">
        <ele>110.4</ele>
        <time>2018-04-24T08:16:52Z</time>
      </trkpt>
      <trkpt lat="44.34849" lon="4.78594">
        <ele>110.9</ele>
        <time>2018-04-24T08:16:55Z</time>
      </trkpt>
      <trkpt lat="44.3484" lon="4.78607">
        <ele>111.3</ele>
        <time>2018-04-24T08:16:58Z</time>
      </trkpt>
      <trkpt lat="44.34831" lon="4.78615">
        <ele>111.4</ele>
        <time>2018-04-24T08:17:00Z</time>
      </trkpt>
      <trkpt lat="44.34821" lon="4.78625">
        <ele>111.4</ele>
        <time>2018-04-24T08:17:02Z</time>
      </trkpt>
      <trkpt lat="44.34811" lon="4.78634">
        <ele>111.3</ele>
        <time>2018-04-24T08:17:04Z</time>
      </trkpt>
      <trkpt lat="44.348" lon="4.78643">
        <ele>110.9</ele>
        <time>2018-04-24T08:17:06Z</time>
      </trkpt>
      <trkpt lat="44.34789" lon="4.78653">
        <ele>110.7</ele>
        <time>2018-04-24T08:17:08Z</time>
      </trkpt>
      <trkpt lat="44.34778" lon="4.78663">
        <ele>110.4</ele>
        <time>2018-04-24T08:17:10Z</time>
      </trkpt>
      <trkpt lat="44.34767" lon="4.78674">
        <ele>110.1</ele>
        <time>2018-04-24T08:17:12Z</time>
      </trkpt>
      <trkpt lat="44.34756" lon="4.78684">
        <ele>109.9</ele>
        <time>2018-04-24T08:17:14Z</time>
      </trkpt>
      <trkpt lat="44.34744" lon="4.78694">
        <ele>109.8</ele>
        <time>2018-04-24T08:17:16Z</time>
      </trkpt>
      <trkpt lat="44.34731" lon="4.78703">
        <ele>109.4</ele>
        <time>2018-04-24T08:17:18Z</time>
      </trkpt>
      <trkpt lat="44.34718" lon="4.78711">
        <ele>109.2</ele>
        <time>2018-04-24T08:17:20Z</time>
      </trkpt>
      <trkpt lat="44.34705" lon="4.78721">
        <ele>109</ele>
        <time>2018-04-24T08:17:22Z</time>
      </trkpt>
      <trkpt lat="44.34696" lon="4.78737">
        <ele>108.9</ele>
        <time>2018-04-24T08:17:24Z</time>
      </trkpt>
      <trkpt lat="44.34688" lon="4.78755">
        <ele>108.7</ele>
        <time>2018-04-24T08:17:26Z</time>
      </trkpt>
      <trkpt lat="44.34681" lon="4.78774">
        <ele>108.6</ele>
        <time>2018-04-24T08:17:28Z</time>
      </trkpt>
      <trkpt lat="44.34674" lon="4.78793">
        <ele>108.4</ele>
        <time>2018-04-24T08:17:30Z</time>
      </trkpt>
      <trkpt lat="44.34667" lon="4.78811">
        <ele>108.2</ele>
        <time>2018-04-24T08:17:32Z</time>
      </trkpt>
      <trkpt lat="44.34661" lon="4.7883">
        <ele>108.1</ele>
        <time>2018-04-24T08:17:34Z</time>
      </trkpt>
      <trkpt lat="44.34655" lon="4.78848">
        <ele>108</ele>
        <time>2018-04-24T08:17:36Z</time>
      </trkpt>
      <trkpt lat="44.34651" lon="4.78865">
        <ele>107.9</ele>
        <time>2018-04-24T08:17:38Z</time>
      </trkpt>
      <trkpt lat="44.34646" lon="4.78882">
        <ele>107.8</ele>
        <time>2018-04-24T08:17:40Z</time>
      </trkpt>
      <trkpt lat="44.34641" lon="4.78897">
        <ele>107.8</ele>
        <time>2018-04-24T08:17:42Z</time>
      </trkpt>
      <trkpt lat="44.34636" lon="4.78912">
        <ele>107.8</ele>
        <time>2018-04-24T08:17:44Z</time>
      </trkpt>
      <trkpt lat="44.34632" lon="4.78927">
        <ele>108.1</ele>
        <time>2018-04-24T08:17:46Z</time>
      </trkpt>
      <trkpt lat="44.34627" lon="4.7894">
        <ele>108.5</ele>
        <time>2018-04-24T08:17:48Z</time>
      </trkpt>
      <trkpt lat="44.34619" lon="4.78949">
        <ele>108.9</ele>
        <time>2018-04-24T08:17:50Z</time>
      </trkpt>
      <trkpt lat="44.34607" lon="4.78949">
        <ele>109.4</ele>
        <time>2018-04-24T08:17:52Z</time>
      </trkpt>
      <trkpt lat="44.34595" lon="4.78944">
        <ele>109.9</ele>
        <time>2018-04-24T08:17:54Z</time>
      </trkpt>
      <trkpt lat="44.34583" lon="4.7894">
        <ele>110.4</ele>
        <time>2018-04-24T08:17:56Z</time>
      </trkpt>
      <trkpt lat="44.3457" lon="4.78936">
        <ele>110.7</ele>
        <time>2018-04-24T08:17:58Z</time>
      </trkpt>
      <trkpt lat="44.34557" lon="4.78932">
        <ele>110.9</ele>
        <time>2018-04-24T08:18:00Z</time>
      </trkpt>
      <trkpt lat="44.34544" lon="4.78928">
        <ele>111.1</ele>
        <time>2018-04-24T08:18:02Z</time>
      </trkpt>
      <trkpt lat="44.3453" lon="4.78923">
        <ele>111.2</ele>
        <time>2018-04-24T08:18:04Z</time>
      </trkpt>
      <trkpt lat="44.34517" lon="4.78918">
        <ele>111.3</ele>
        <time>2018-04-24T08:18:06Z</time>
      </trkpt>
      <trkpt lat="44.34503" lon="4.78913">
        <ele>111.2</ele>
        <time>2018-04-24T08:18:08Z</time>
      </trkpt>
      <trkpt lat="44.34489" lon="4.78909">
        <ele>110.9</ele>
        <time>2018-04-24T08:18:10Z</time>
      </trkpt>
      <trkpt lat="44.34475" lon="4.78904">
        <ele>110.7</ele>
        <time>2018-04-24T08:18:12Z</time>
      </trkpt>
      <trkpt lat="44.34461" lon="4.78899">
        <ele>110.6</ele>
        <time>2018-04-24T08:18:14Z</time>
      </trkpt>
      <trkpt lat="44.34447" lon="4.78896">
        <ele>110.6</ele>
        <time>2018-04-24T08:18:16Z</time>
      </trkpt>
      <trkpt lat="44.34433" lon="4.78894">
        <ele>110.5</ele>
        <time>2018-04-24T08:18:18Z</time>
      </trkpt>
      <trkpt lat="44.34419" lon="4.78895">
        <ele>110.4</ele>
        <time>2018-04-24T08:18:20Z</time>
      </trkpt>
      <trkpt lat="44.34405" lon="4.78896">
        <ele>110.1</ele>
        <time>2018-04-24T08:18:22Z</time>
      </trkpt>
      <trkpt lat="44.34393" lon="4.78899">
        <ele>110</ele>
        <time>2018-04-24T08:18:24Z</time>
      </trkpt>
      <trkpt lat="44.34381" lon="4.78901">
        <ele>110</ele>
        <time>2018-04-24T08:18:26Z</time>
      </trkpt>
      <trkpt lat="44.34368" lon="4.78905">
        <ele>109.9</ele>
        <time>2018-04-24T08:18:28Z</time>
      </trkpt>
      <trkpt lat="44.34353" lon="4.78912">
        <ele>109.8</ele>
        <time>2018-04-24T08:18:30Z</time>
      </trkpt>
      <trkpt lat="44.3434" lon="4.78919">
        <ele>109.7</ele>
        <time>2018-04-24T08:18:32Z</time>
      </trkpt>
      <trkpt lat="44.34327" lon="4.78925">
        <ele>109.8</ele>
        <time>2018-04-24T08:18:34Z</time>
      </trkpt>
      <trkpt lat="44.34314" lon="4.78932">
        <ele>109.9</ele>
        <time>2018-04-24T08:18:36Z</time>
      </trkpt>
      <trkpt lat="44.34301" lon="4.78938">
        <ele>109.9</ele>
        <time>2018-04-24T08:18:38Z</time>
      </trkpt>
      <trkpt lat="44.34287" lon="4.78945">
        <ele>110.1</ele>
        <time>2018-04-24T08:18:40Z</time>
      </trkpt>
      <trkpt lat="44.34275" lon="4.78952">
        <ele>110.2</ele>
        <time>2018-04-24T08:18:42Z</time>
      </trkpt>
      <trkpt lat="44.34262" lon="4.78959">
        <ele>110.5</ele>
        <time>2018-04-24T08:18:44Z</time>
      </trkpt>
      <trkpt lat="44.34251" lon="4.78967">
        <ele>110.8</ele>
        <time>2018-04-24T08:18:46Z</time>
      </trkpt>
      <trkpt lat="44.34241" lon="4.78975">
        <ele>111.2</ele>
        <time>2018-04-24T08:18:48Z</time>
      </trkpt>
      <trkpt lat="44.34232" lon="4.78985">
        <ele>111.5</ele>
        <time>2018-04-24T08:18:50Z</time>
      </trkpt>
      <trkpt lat="44.34224" lon="4.78994">
        <ele>111.8</ele>
        <time>2018-04-24T08:18:52Z</time>
      </trkpt>
      <trkpt lat="44.34217" lon="4.79006">
        <ele>112.1</ele>
        <time>2018-04-24T08:18:54Z</time>
      </trkpt>
      <trkpt lat="44.34211" lon="4.79017">
        <ele>112.4</ele>
        <time>2018-04-24T08:18:56Z</time>
      </trkpt>
      <trkpt lat="44.34205" lon="4.79029">
        <ele>112.6</ele>
        <time>2018-04-24T08:18:58Z</time>
      </trkpt>
      <trkpt lat="44.34194" lon="4.79036">
        <ele>112.7</ele>
        <time>2018-04-24T08:19:00Z</time>
      </trkpt>
      <trkpt lat="44.34184" lon="4.79047">
        <ele>112.4</ele>
        <time>2018-04-24T08:19:02Z</time>
      </trkpt>
      <trkpt lat="44.3418" lon="4.79063">
        <ele>112</ele>
        <time>2018-04-24T08:19:04Z</time>
      </trkpt>
      <trkpt lat="44.34181" lon="4.79081">
        <ele>111.7</ele>
        <time>2018-04-24T08:19:06Z</time>
      </trkpt>
      <trkpt lat="44.34183" lon="4.79099">
        <ele>111.4</ele>
        <time>2018-04-24T08:19:08Z</time>
      </trkpt>
      <trkpt lat="44.34184" lon="4.79117">
        <ele>111.3</ele>
        <time>2018-04-24T08:19:10Z</time>
      </trkpt>
      <trkpt lat="44.34186" lon="4.79134">
        <ele>111.3</ele>
        <time>2018-04-24T08:19:12Z</time>
      </trkpt>
      <trkpt lat="44.34186" lon="4.79151">
        <ele>111.1</ele>
        <time>2018-04-24T08:19:14Z</time>
      </trkpt>
      <trkpt lat="44.34188" lon="4.79168">
        <ele>110.8</ele>
        <time>2018-04-24T08:19:16Z</time>
      </trkpt>
      <trkpt lat="44.34189" lon="4.79185">
        <ele>110.7</ele>
        <time>2018-04-24T08:19:18Z</time>
      </trkpt>
      <trkpt lat="44.34191" lon="4.79201">
        <ele>110.8</ele>
        <time>2018-04-24T08:19:20Z</time>
      </trkpt>
      <trkpt lat="44.34194" lon="4.79217">
        <ele>110.8</ele>
        <time>2018-04-24T08:19:22Z</time>
      </trkpt>
      <trkpt lat="44.34196" lon="4.79234">
        <ele>110.7</ele>
        <time>2018-04-24T08:19:24Z</time>
      </trkpt>
      <trkpt lat="44.342" lon="4.79248">
        <ele>110.7</ele>
        <time>2018-04-24T08:19:26Z</time>
      </trkpt>
      <trkpt lat="44.34202" lon="4.79264">
        <ele>110.7</ele>
        <time>2018-04-24T08:19:28Z</time>
      </trkpt>
      <trkpt lat="44.34204" lon="4.7928">
        <ele>111</ele>
        <time>2018-04-24T08:19:30Z</time>
      </trkpt>
      <trkpt lat="44.34207" lon="4.79296">
        <ele>111.3</ele>
        <time>2018-04-24T08:19:32Z</time>
      </trkpt>
      <trkpt lat="44.34209" lon="4.79312">
        <ele>111.6</ele>
        <time>2018-04-24T08:19:34Z</time>
      </trkpt>
      <trkpt lat="44.34211" lon="4.79328">
        <ele>111.6</ele>
        <time>2018-04-24T08:19:36Z</time>
      </trkpt>
      <trkpt lat="44.34213" lon="4.79343">
        <ele>111.8</ele>
        <time>2018-04-24T08:19:38Z</time>
      </trkpt>
      <trkpt lat="44.34214" lon="4.79358">
        <ele>112</ele>
        <time>2018-04-24T08:19:40Z</time>
      </trkpt>
      <trkpt lat="44.34216" lon="4.79373">
        <ele>112.4</ele>
        <time>2018-04-24T08:19:42Z</time>
      </trkpt>
      <trkpt lat="44.34217" lon="4.79388">
        <ele>112.6</ele>
        <time>2018-04-24T08:19:44Z</time>
      </trkpt>
      <trkpt lat="44.34218" lon="4.79403">
        <ele>112.8</ele>
        <time>2018-04-24T08:19:46Z</time>
      </trkpt>
      <trkpt lat="44.3422" lon="4.79418">
        <ele>113.1</ele>
        <time>2018-04-24T08:19:48Z</time>
      </trkpt>
      <trkpt lat="44.34221" lon="4.79433">
        <ele>113.6</ele>
        <time>2018-04-24T08:19:50Z</time>
      </trkpt>
      <trkpt lat="44.34223" lon="4.79449">
        <ele>113.9</ele>
        <time>2018-04-24T08:19:52Z</time>
      </trkpt>
      <trkpt lat="44.34225" lon="4.79464">
        <ele>114.1</ele>
        <time>2018-04-24T08:19:54Z</time>
      </trkpt>
      <trkpt lat="44.34228" lon="4.79479">
        <ele>114.2</ele>
        <time>2018-04-24T08:19:56Z</time>
      </trkpt>
      <trkpt lat="44.3423" lon="4.79494">
        <ele>114.2</ele>
        <time>2018-04-24T08:19:58Z</time>
      </trkpt>
      <trkpt lat="44.34232" lon="4.79509">
        <ele>114.4</ele>
        <time>2018-04-24T08:20:00Z</time>
      </trkpt>
      <trkpt lat="44.34233" lon="4.79523">
        <ele>114.5</ele>
        <time>2018-04-24T08:20:02Z</time>
      </trkpt>
      <trkpt lat="44.34235" lon="4.79538">
        <ele>114.5</ele>
        <time>2018-04-24T08:20:04Z</time>
      </trkpt>
      <trkpt lat="44.34237" lon="4.79552">
        <ele>114.5</ele>
        <time>2018-04-24T08:20:06Z</time>
      </trkpt>
      <trkpt lat="44.34239" lon="4.79567">
        <ele>114.4</ele>
        <time>2018-04-24T08:20:08Z</time>
      </trkpt>
      <trkpt lat="44.34241" lon="4.79582">
        <ele>114.6</ele>
        <time>2018-04-24T08:20:10Z</time>
      </trkpt>
      <trkpt lat="44.34243" lon="4.79597">
        <ele>114.9</ele>
        <time>2018-04-24T08:20:12Z</time>
      </trkpt>
      <trkpt lat="44.34245" lon="4.79611">
        <ele>114.9</ele>
        <time>2018-04-24T08:20:14Z</time>
      </trkpt>
      <trkpt lat="44.34246" lon="4.79625">
        <ele>115.1</ele>
        <time>2018-04-24T08:20:16Z</time>
      </trkpt>
      <trkpt lat="44.34248" lon="4.7964">
        <ele>115.4</ele>
        <time>2018-04-24T08:20:18Z</time>
      </trkpt>
      <trkpt lat="44.3425" lon="4.79654">
        <ele>115.6</ele>
        <time>2018-04-24T08:20:20Z</time>
      </trkpt>
      <trkpt lat="44.34252" lon="4.79668">
        <ele>115.8</ele>
        <time>2018-04-24T08:20:22Z</time>
      </trkpt>
      <trkpt lat="44.34254" lon="4.79681">
        <ele>115.9</ele>
        <time>2018-04-24T08:20:24Z</time>
      </trkpt>
      <trkpt lat="44.34256" lon="4.79694">
        <ele>115.8</ele>
        <time>2018-04-24T08:20:26Z</time>
      </trkpt>
      <trkpt lat="44.34259" lon="4.79707">
        <ele>115.8</ele>
        <time>2018-04-24T08:20:28Z</time>
      </trkpt>
      <trkpt lat="44.34261" lon="4.7972">
        <ele>115.9</ele>
        <time>2018-04-24T08:20:30Z</time>
      </trkpt>
      <trkpt lat="44.34263" lon="4.79737">
        <ele>116</ele>
        <time>2018-04-24T08:20:33Z</time>
      </trkpt>
      <trkpt lat="44.34264" lon="4.79752">
        <ele>116.2</ele>
        <time>2018-04-24T08:20:36Z</time>
      </trkpt>
      <trkpt lat="44.34265" lon="4.7977">
        <ele>116.4</ele>
        <time>2018-04-24T08:20:39Z</time>
      </trkpt>
      <trkpt lat="44.34267" lon="4.79783">
        <ele>116.7</ele>
        <time>2018-04-24T08:20:41Z</time>
      </trkpt>
      <trkpt lat="44.34269" lon="4.79796">
        <ele>116.8</ele>
        <time>2018-04-24T08:20:43Z</time>
      </trkpt>
      <trkpt lat="44.34271" lon="4.79809">
        <ele>117.1</ele>
        <time>2018-04-24T08:20:45Z</time>
      </trkpt>
      <trkpt lat="44.34272" lon="4.79822">
        <ele>117.1</ele>
        <time>2018-04-24T08:20:47Z</time>
      </trkpt>
      <trkpt lat="44.34274" lon="4.79835">
        <ele>117.2</ele>
        <time>2018-04-24T08:20:49Z</time>
      </trkpt>
      <trkpt lat="44.34276" lon="4.79848">
        <ele>117.1</ele>
        <time>2018-04-24T08:20:51Z</time>
      </trkpt>
      <trkpt lat="44.34278" lon="4.79862">
        <ele>117.4</ele>
        <time>2018-04-24T08:20:53Z</time>
      </trkpt>
      <trkpt lat="44.3428" lon="4.79874">
        <ele>117.6</ele>
        <time>2018-04-24T08:20:55Z</time>
      </trkpt>
      <trkpt lat="44.34281" lon="4.79887">
        <ele>117.8</ele>
        <time>2018-04-24T08:20:57Z</time>
      </trkpt>
      <trkpt lat="44.34279" lon="4.79905">
        <ele>117.8</ele>
        <time>2018-04-24T08:21:00Z</time>
      </trkpt>
      <trkpt lat="44.34276" lon="4.79922">
        <ele>118.1</ele>
        <time>2018-04-24T08:21:03Z</time>
      </trkpt>
      <trkpt lat="44.34278" lon="4.79934">
        <ele>118.2</ele>
        <time>2018-04-24T08:21:05Z</time>
      </trkpt>
      <trkpt lat="44.3428" lon="4.79948">
        <ele>118.4</ele>
        <time>2018-04-24T08:21:07Z</time>
      </trkpt>
      <trkpt lat="44.34282" lon="4.79964">
        <ele>118.4</ele>
        <time>2018-04-24T08:21:09Z</time>
      </trkpt>
      <trkpt lat="44.34284" lon="4.7998">
        <ele>118.4</ele>
        <time>2018-04-24T08:21:11Z</time>
      </trkpt>
      <trkpt lat="44.34286" lon="4.79997">
        <ele>118.4</ele>
        <time>2018-04-24T08:21:13Z</time>
      </trkpt>
      <trkpt lat="44.34288" lon="4.80015">
        <ele>118.5</ele>
        <time>2018-04-24T08:21:15Z</time>
      </trkpt>
      <trkpt lat="44.3429" lon="4.80032">
        <ele>118.5</ele>
        <time>2018-04-24T08:21:17Z</time>
      </trkpt>
      <trkpt lat="44.34293" lon="4.8005">
        <ele>118.4</ele>
        <time>2018-04-24T08:21:19Z</time>
      </trkpt>
      <trkpt lat="44.34295" lon="4.80067">
        <ele>118.4</ele>
        <time>2018-04-24T08:21:21Z</time>
      </trkpt>
      <trkpt lat="44.34298" lon="4.80084">
        <ele>118.3</ele>
        <time>2018-04-24T08:21:23Z</time>
      </trkpt>
      <trkpt lat="44.343" lon="4.80102">
        <ele>118.2</ele>
        <time>2018-04-24T08:21:25Z</time>
      </trkpt>
      <trkpt lat="44.34302" lon="4.8012">
        <ele>118.2</ele>
        <time>2018-04-24T08:21:27Z</time>
      </trkpt>
      <trkpt lat="44.34304" lon="4.80137">
        <ele>118.2</ele>
        <time>2018-04-24T08:21:29Z</time>
      </trkpt>
      <trkpt lat="44.34306" lon="4.80155">
        <ele>118.2</ele>
        <time>2018-04-24T08:21:31Z</time>
      </trkpt>
      <trkpt lat="44.34308" lon="4.80172">
        <ele>118.2</ele>
        <time>2018-04-24T08:21:33Z</time>
      </trkpt>
      <trkpt lat="44.3431" lon="4.8019">
        <ele>118.2</ele>
        <time>2018-04-24T08:21:35Z</time>
      </trkpt>
      <trkpt lat="44.34313" lon="4.80206">
        <ele>118.3</ele>
        <time>2018-04-24T08:21:37Z</time>
      </trkpt>
      <trkpt lat="44.34315" lon="4.80223">
        <ele>118.3</ele>
        <time>2018-04-24T08:21:39Z</time>
      </trkpt>
      <trkpt lat="44.34317" lon="4.80239">
        <ele>118.3</ele>
        <time>2018-04-24T08:21:41Z</time>
      </trkpt>
      <trkpt lat="44.34319" lon="4.80256">
        <ele>118.4</ele>
        <time>2018-04-24T08:21:43Z</time>
      </trkpt>
      <trkpt lat="44.34321" lon="4.80272">
        <ele>118.4</ele>
        <time>2018-04-24T08:21:45Z</time>
      </trkpt>
      <trkpt lat="44.34323" lon="4.80289">
        <ele>118.5</ele>
        <time>2018-04-24T08:21:47Z</time>
      </trkpt>
      <trkpt lat="44.34325" lon="4.80306">
        <ele>118.6</ele>
        <time>2018-04-24T08:21:49Z</time>
      </trkpt>
      <trkpt lat="44.34328" lon="4.80322">
        <ele>118.7</ele>
        <time>2018-04-24T08:21:51Z</time>
      </trkpt>
      <trkpt lat="44.3433" lon="4.80338">
        <ele>118.7</ele>
        <time>2018-04-24T08:21:53Z</time>
      </trkpt>
      <trkpt lat="44.34332" lon="4.80354">
        <ele>118.9</ele>
        <time>2018-04-24T08:21:55Z</time>
      </trkpt>
      <trkpt lat="44.34334" lon="4.8037">
        <ele>119.2</ele>
        <time>2018-04-24T08:21:57Z</time>
      </trkpt>
      <trkpt lat="44.34336" lon="4.80387">
        <ele>119.4</ele>
        <time>2018-04-24T08:21:59Z</time>
      </trkpt>
      <trkpt lat="44.34337" lon="4.80404">
        <ele>119.6</ele>
        <time>2018-04-24T08:22:01Z</time>
      </trkpt>
      <trkpt lat="44.34338" lon="4.8042">
        <ele>119.7</ele>
        <time>2018-04-24T08:22:03Z</time>
      </trkpt>
      <trkpt lat="44.34339" lon="4.80436">
        <ele>119.8</ele>
        <time>2018-04-24T08:22:05Z</time>
      </trkpt>
      <trkpt lat="44.3434" lon="4.80452">
        <ele>120</ele>
        <time>2018-04-24T08:22:07Z</time>
      </trkpt>
      <trkpt lat="44.34341" lon="4.80468">
        <ele>120</ele>
        <time>2018-04-24T08:22:09Z</time>
      </trkpt>
      <trkpt lat="44.34343" lon="4.80484">
        <ele>119.9</ele>
        <time>2018-04-24T08:22:11Z</time>
      </trkpt>
      <trkpt lat="44.34346" lon="4.805">
        <ele>119.8</ele>
        <time>2018-04-24T08:22:13Z</time>
      </trkpt>
      <trkpt lat="44.34347" lon="4.80516">
        <ele>119.9</ele>
        <time>2018-04-24T08:22:15Z</time>
      </trkpt>
      <trkpt lat="44.34349" lon="4.80531">
        <ele>119.8</ele>
        <time>2018-04-24T08:22:17Z</time>
      </trkpt>
      <trkpt lat="44.3435" lon="4.80548">
        <ele>119.7</ele>
        <time>2018-04-24T08:22:19Z</time>
      </trkpt>
      <trkpt lat="44.34351" lon="4.80565">
        <ele>119.8</ele>
        <time>2018-04-24T08:22:21Z</time>
      </trkpt>
      <trkpt lat="44.34352" lon="4.8058">
        <ele>119.9</ele>
        <time>2018-04-24T08:22:23Z</time>
      </trkpt>
      <trkpt lat="44.34352" lon="4.80596">
        <ele>119.9</ele>
        <time>2018-04-24T08:22:25Z</time>
      </trkpt>
      <trkpt lat="44.34352" lon="4.80612">
        <ele>119.9</ele>
        <time>2018-04-24T08:22:27Z</time>
      </trkpt>
      <trkpt lat="44.34352" lon="4.80629">
        <ele>119.9</ele>
        <time>2018-04-24T08:22:29Z</time>
      </trkpt>
      <trkpt lat="44.34354" lon="4.80645">
        <ele>120</ele>
        <time>2018-04-24T08:22:31Z</time>
      </trkpt>
      <trkpt lat="44.34356" lon="4.8066">
        <ele>120.2</ele>
        <time>2018-04-24T08:22:33Z</time>
      </trkpt>
      <trkpt lat="44.3436" lon="4.80675">
        <ele>120.4</ele>
        <time>2018-04-24T08:22:35Z</time>
      </trkpt>
      <trkpt lat="44.34365" lon="4.8069">
        <ele>120.6</ele>
        <time>2018-04-24T08:22:37Z</time>
      </trkpt>
      <trkpt lat="44.34369" lon="4.80705">
        <ele>120.8</ele>
        <time>2018-04-24T08:22:39Z</time>
      </trkpt>
      <trkpt lat="44.34374" lon="4.8072">
        <ele>120.8</ele>
        <time>2018-04-24T08:22:41Z</time>
      </trkpt>
      <trkpt lat="44.34379" lon="4.80735">
        <ele>120.8</ele>
        <time>2018-04-24T08:22:43Z</time>
      </trkpt>
      <trkpt lat="44.34385" lon="4.80749">
        <ele>120.9</ele>
        <time>2018-04-24T08:22:45Z</time>
      </trkpt>
      <trkpt lat="44.3439" lon="4.80764">
        <ele>121</ele>
        <time>2018-04-24T08:22:47Z</time>
      </trkpt>
      <trkpt lat="44.34396" lon="4.80778">
        <ele>120.9</ele>
        <time>2018-04-24T08:22:49Z</time>
      </trkpt>
      <trkpt lat="44.34401" lon="4.80792">
        <ele>121.1</ele>
        <time>2018-04-24T08:22:51Z</time>
      </trkpt>
      <trkpt lat="44.34407" lon="4.80806">
        <ele>121.1</ele>
        <time>2018-04-24T08:22:53Z</time>
      </trkpt>
      <trkpt lat="44.34412" lon="4.80819">
        <ele>121.3</ele>
        <time>2018-04-24T08:22:55Z</time>
      </trkpt>
      <trkpt lat="44.34418" lon="4.80833">
        <ele>121.3</ele>
        <time>2018-04-24T08:22:57Z</time>
      </trkpt>
      <trkpt lat="44.34424" lon="4.80846">
        <ele>121.4</ele>
        <time>2018-04-24T08:22:59Z</time>
      </trkpt>
      <trkpt lat="44.34428" lon="4.8086">
        <ele>121.7</ele>
        <time>2018-04-24T08:23:01Z</time>
      </trkpt>
      <trkpt lat="44.34434" lon="4.80875">
        <ele>121.9</ele>
        <time>2018-04-24T08:23:03Z</time>
      </trkpt>
      <trkpt lat="44.3444" lon="4.80891">
        <ele>122.2</ele>
        <time>2018-04-24T08:23:05Z</time>
      </trkpt>
      <trkpt lat="44.34446" lon="4.80907">
        <ele>122.3</ele>
        <time>2018-04-24T08:23:07Z</time>
      </trkpt>
      <trkpt lat="44.34452" lon="4.80923">
        <ele>122.2</ele>
        <time>2018-04-24T08:23:09Z</time>
      </trkpt>
      <trkpt lat="44.34458" lon="4.80939">
        <ele>122.2</ele>
        <time>2018-04-24T08:23:11Z</time>
      </trkpt>
      <trkpt lat="44.34464" lon="4.80954">
        <ele>122.1</ele>
        <time>2018-04-24T08:23:13Z</time>
      </trkpt>
      <trkpt lat="44.34469" lon="4.80969">
        <ele>122.3</ele>
        <time>2018-04-24T08:23:15Z</time>
      </trkpt>
      <trkpt lat="44.34475" lon="4.80983">
        <ele>122.3</ele>
        <time>2018-04-24T08:23:17Z</time>
      </trkpt>
      <trkpt lat="44.34478" lon="4.80998">
        <ele>122.5</ele>
        <time>2018-04-24T08:23:19Z</time>
      </trkpt>
      <trkpt lat="44.34481" lon="4.81013">
        <ele>122.6</ele>
        <time>2018-04-24T08:23:21Z</time>
      </trkpt>
      <trkpt lat="44.34483" lon="4.81028">
        <ele>122.6</ele>
        <time>2018-04-24T08:23:23Z</time>
      </trkpt>
      <trkpt lat="44.34486" lon="4.81042">
        <ele>122.9</ele>
        <time>2018-04-24T08:23:25Z</time>
      </trkpt>
      <trkpt lat="44.3449" lon="4.81057">
        <ele>123</ele>
        <time>2018-04-24T08:23:27Z</time>
      </trkpt>
      <trkpt lat="44.34493" lon="4.81073">
        <ele>123.2</ele>
        <time>2018-04-24T08:23:29Z</time>
      </trkpt>
      <trkpt lat="44.34495" lon="4.81087">
        <ele>123.3</ele>
        <time>2018-04-24T08:23:31Z</time>
      </trkpt>
      <trkpt lat="44.34499" lon="4.81102">
        <ele>123.3</ele>
        <time>2018-04-24T08:23:33Z</time>
      </trkpt>
      <trkpt lat="44.34504" lon="4.81114">
        <ele>123.4</ele>
        <time>2018-04-24T08:23:35Z</time>
      </trkpt>
      <trkpt lat="44.34507" lon="4.81129">
        <ele>123.4</ele>
        <time>2018-04-24T08:23:37Z</time>
      </trkpt>
      <trkpt lat="44.34509" lon="4.81145">
        <ele>123.4</ele>
        <time>2018-04-24T08:23:39Z</time>
      </trkpt>
      <trkpt lat="44.34512" lon="4.8116">
        <ele>123.3</ele>
        <time>2018-04-24T08:23:41Z</time>
      </trkpt>
      <trkpt lat="44.34515" lon="4.81176">
        <ele>123.3</ele>
        <time>2018-04-24T08:23:43Z</time>
      </trkpt>
      <trkpt lat="44.34518" lon="4.81192">
        <ele>123.4</ele>
        <time>2018-04-24T08:23:45Z</time>
      </trkpt>
      <trkpt lat="44.34521" lon="4.81208">
        <ele>123.5</ele>
        <time>2018-04-24T08:23:47Z</time>
      </trkpt>
      <trkpt lat="44.34524" lon="4.81223">
        <ele>123.7</ele>
        <time>2018-04-24T08:23:49Z</time>
      </trkpt>
      <trkpt lat="44.34526" lon="4.8124">
        <ele>123.6</ele>
        <time>2018-04-24T08:23:51Z</time>
      </trkpt>
      <trkpt lat="44.34529" lon="4.81256">
        <ele>123.6</ele>
        <time>2018-04-24T08:23:53Z</time>
      </trkpt>
      <trkpt lat="44.34533" lon="4.81272">
        <ele>123.4</ele>
        <time>2018-04-24T08:23:55Z</time>
      </trkpt>
      <trkpt lat="44.34538" lon="4.81287">
        <ele>123.3</ele>
        <time>2018-04-24T08:23:57Z</time>
      </trkpt>
      <trkpt lat="44.34546" lon="4.81298">
        <ele>123.2</ele>
        <time>2018-04-24T08:23:59Z</time>
      </trkpt>
      <trkpt lat="44.34555" lon="4.81306">
        <ele>123.1</ele>
        <time>2018-04-24T08:24:01Z</time>
      </trkpt>
      <trkpt lat="44.34567" lon="4.81315">
        <ele>122.9</ele>
        <time>2018-04-24T08:24:04Z</time>
      </trkpt>
      <trkpt lat="44.34574" lon="4.81324">
        <ele>123</ele>
        <time>2018-04-24T08:24:06Z</time>
      </trkpt>
      <trkpt lat="44.34584" lon="4.81331">
        <ele>122.9</ele>
        <time>2018-04-24T08:24:09Z</time>
      </trkpt>
      <trkpt lat="44.34591" lon="4.81339">
        <ele>123.2</ele>
        <time>2018-04-24T08:24:12Z</time>
      </trkpt>
      <trkpt lat="44.34597" lon="4.8135">
        <ele>123.5</ele>
        <time>2018-04-24T08:24:15Z</time>
      </trkpt>
      <trkpt lat="44.34606" lon="4.8136">
        <ele>124.2</ele>
        <time>2018-04-24T08:24:18Z</time>
      </trkpt>
      <trkpt lat="44.34613" lon="4.81373">
        <ele>124.9</ele>
        <time>2018-04-24T08:24:21Z</time>
      </trkpt>
      <trkpt lat="44.34618" lon="4.81384">
        <ele>125.2</ele>
        <time>2018-04-24T08:24:23Z</time>
      </trkpt>
      <trkpt lat="44.34623" lon="4.81396">
        <ele>125.6</ele>
        <time>2018-04-24T08:24:25Z</time>
      </trkpt>
      <trkpt lat="44.34627" lon="4.8141">
        <ele>125.9</ele>
        <time>2018-04-24T08:24:27Z</time>
      </trkpt>
      <trkpt lat="44.34632" lon="4.81423">
        <ele>126.1</ele>
        <time>2018-04-24T08:24:29Z</time>
      </trkpt>
      <trkpt lat="44.34637" lon="4.81435">
        <ele>126.2</ele>
        <time>2018-04-24T08:24:31Z</time>
      </trkpt>
      <trkpt lat="44.34642" lon="4.81448">
        <ele>126.2</ele>
        <time>2018-04-24T08:24:33Z</time>
      </trkpt>
      <trkpt lat="44.34646" lon="4.81462">
        <ele>126</ele>
        <time>2018-04-24T08:24:35Z</time>
      </trkpt>
      <trkpt lat="44.3465" lon="4.81476">
        <ele>126.1</ele>
        <time>2018-04-24T08:24:37Z</time>
      </trkpt>
      <trkpt lat="44.34655" lon="4.8149">
        <ele>126.2</ele>
        <time>2018-04-24T08:24:39Z</time>
      </trkpt>
      <trkpt lat="44.34659" lon="4.81503">
        <ele>126.5</ele>
        <time>2018-04-24T08:24:41Z</time>
      </trkpt>
      <trkpt lat="44.34664" lon="4.81515">
        <ele>126.6</ele>
        <time>2018-04-24T08:24:43Z</time>
      </trkpt>
      <trkpt lat="44.3467" lon="4.81527">
        <ele>126.6</ele>
        <time>2018-04-24T08:24:45Z</time>
      </trkpt>
      <trkpt lat="44.34674" lon="4.8154">
        <ele>126.8</ele>
        <time>2018-04-24T08:24:47Z</time>
      </trkpt>
      <trkpt lat="44.34678" lon="4.81552">
        <ele>126.5</ele>
        <time>2018-04-24T08:24:49Z</time>
      </trkpt>
      <trkpt lat="44.34682" lon="4.81564">
        <ele>126.8</ele>
        <time>2018-04-24T08:24:51Z</time>
      </trkpt>
      <trkpt lat="44.34686" lon="4.81576">
        <ele>126.8</ele>
        <time>2018-04-24T08:24:53Z</time>
      </trkpt>
      <trkpt lat="44.34691" lon="4.81588">
        <ele>126.8</ele>
        <time>2018-04-24T08:24:55Z</time>
      </trkpt>
      <trkpt lat="44.34695" lon="4.816">
        <ele>126.4</ele>
        <time>2018-04-24T08:24:57Z</time>
      </trkpt>
      <trkpt lat="44.347" lon="4.81613">
        <ele>126.4</ele>
        <time>2018-04-24T08:24:59Z</time>
      </trkpt>
      <trkpt lat="44.34705" lon="4.81625">
        <ele>126.5</ele>
        <time>2018-04-24T08:25:01Z</time>
      </trkpt>
      <trkpt lat="44.34709" lon="4.81638">
        <ele>126.7</ele>
        <time>2018-04-24T08:25:03Z</time>
      </trkpt>
      <trkpt lat="44.34714" lon="4.81651">
        <ele>126.9</ele>
        <time>2018-04-24T08:25:05Z</time>
      </trkpt>
      <trkpt lat="44.34719" lon="4.81665">
        <ele>127</ele>
        <time>2018-04-24T08:25:07Z</time>
      </trkpt>
      <trkpt lat="44.34723" lon="4.81679">
        <ele>126.9</ele>
        <time>2018-04-24T08:25:09Z</time>
      </trkpt>
      <trkpt lat="44.34727" lon="4.81692">
        <ele>127</ele>
        <time>2018-04-24T08:25:11Z</time>
      </trkpt>
      <trkpt lat="44.3473" lon="4.81705">
        <ele>127</ele>
        <time>2018-04-24T08:25:13Z</time>
      </trkpt>
      <trkpt lat="44.34734" lon="4.81717">
        <ele>127.1</ele>
        <time>2018-04-24T08:25:15Z</time>
      </trkpt>
      <trkpt lat="44.34733" lon="4.81731">
        <ele>127.2</ele>
        <time>2018-04-24T08:25:18Z</time>
      </trkpt>
      <trkpt lat="44.34734" lon="4.81746">
        <ele>127</ele>
        <time>2018-04-24T08:25:21Z</time>
      </trkpt>
      <trkpt lat="44.34745" lon="4.81755">
        <ele>127</ele>
        <time>2018-04-24T08:25:24Z</time>
      </trkpt>
      <trkpt lat="44.34754" lon="4.81757">
        <ele>127</ele>
        <time>2018-04-24T08:25:26Z</time>
      </trkpt>
      <trkpt lat="44.34764" lon="4.81759">
        <ele>127</ele>
        <time>2018-04-24T08:25:28Z</time>
      </trkpt>
      <trkpt lat="44.34773" lon="4.81762">
        <ele>126.9</ele>
        <time>2018-04-24T08:25:30Z</time>
      </trkpt>
      <trkpt lat="44.34782" lon="4.81768">
        <ele>126.8</ele>
        <time>2018-04-24T08:25:32Z</time>
      </trkpt>
      <trkpt lat="44.34791" lon="4.81774">
        <ele>126.5</ele>
        <time>2018-04-24T08:25:34Z</time>
      </trkpt>
      <trkpt lat="44.34803" lon="4.81783">
        <ele>126.3</ele>
        <time>2018-04-24T08:25:37Z</time>
      </trkpt>
      <trkpt lat="44.34812" lon="4.81791">
        <ele>126.2</ele>
        <time>2018-04-24T08:25:39Z</time>
      </trkpt>
      <trkpt lat="44.34822" lon="4.81798">
        <ele>126.2</ele>
        <time>2018-04-24T08:25:41Z</time>
      </trkpt>
      <trkpt lat="44.34833" lon="4.81806">
        <ele>126.1</ele>
        <time>2018-04-24T08:25:43Z</time>
      </trkpt>
      <trkpt lat="44.34843" lon="4.81814">
        <ele>126.2</ele>
        <time>2018-04-24T08:25:45Z</time>
      </trkpt>
      <trkpt lat="44.34854" lon="4.81822">
        <ele>126.5</ele>
        <time>2018-04-24T08:25:47Z</time>
      </trkpt>
      <trkpt lat="44.34864" lon="4.81829">
        <ele>126.6</ele>
        <time>2018-04-24T08:25:49Z</time>
      </trkpt>
      <trkpt lat="44.34874" lon="4.81837">
        <ele>126.6</ele>
        <time>2018-04-24T08:25:51Z</time>
      </trkpt>
      <trkpt lat="44.34883" lon="4.81844">
        <ele>126.6</ele>
        <time>2018-04-24T08:25:53Z</time>
      </trkpt>
      <trkpt lat="44.34891" lon="4.81851">
        <ele>126.5</ele>
        <time>2018-04-24T08:25:55Z</time>
      </trkpt>
      <trkpt lat="44.34901" lon="4.8186">
        <ele>126.4</ele>
        <time>2018-04-24T08:25:57Z</time>
      </trkpt>
      <trkpt lat="44.34909" lon="4.81868">
        <ele>126.3</ele>
        <time>2018-04-24T08:25:59Z</time>
      </trkpt>
      <trkpt lat="44.34918" lon="4.81877">
        <ele>126.1</ele>
        <time>2018-04-24T08:26:01Z</time>
      </trkpt>
      <trkpt lat="44.34924" lon="4.81888">
        <ele>126.1</ele>
        <time>2018-04-24T08:26:03Z</time>
      </trkpt>
      <trkpt lat="44.34927" lon="4.81903">
        <ele>126.3</ele>
        <time>2018-04-24T08:26:05Z</time>
      </trkpt>
      <trkpt lat="44.34927" lon="4.81917">
        <ele>126.4</ele>
        <time>2018-04-24T08:26:07Z</time>
      </trkpt>
      <trkpt lat="44.34926" lon="4.81932">
        <ele>126.4</ele>
        <time>2018-04-24T08:26:09Z</time>
      </trkpt>
      <trkpt lat="44.34926" lon="4.81945">
        <ele>126.5</ele>
        <time>2018-04-24T08:26:11Z</time>
      </trkpt>
      <trkpt lat="44.34926" lon="4.81963">
        <ele>126.7</ele>
        <time>2018-04-24T08:26:14Z</time>
      </trkpt>
      <trkpt lat="44.34924" lon="4.81978">
        <ele>126.8</ele>
        <time>2018-04-24T08:26:16Z</time>
      </trkpt>
      <trkpt lat="44.34923" lon="4.81993">
        <ele>127</ele>
        <time>2018-04-24T08:26:18Z</time>
      </trkpt>
      <trkpt lat="44.34923" lon="4.82007">
        <ele>127.2</ele>
        <time>2018-04-24T08:26:20Z</time>
      </trkpt>
      <trkpt lat="44.34922" lon="4.82026">
        <ele>127.6</ele>
        <time>2018-04-24T08:26:23Z</time>
      </trkpt>
      <trkpt lat="44.34919" lon="4.8204">
        <ele>127.8</ele>
        <time>2018-04-24T08:26:25Z</time>
      </trkpt>
      <trkpt lat="44.34919" lon="4.82054">
        <ele>127.9</ele>
        <time>2018-04-24T08:26:27Z</time>
      </trkpt>
      <trkpt lat="44.34919" lon="4.82067">
        <ele>128</ele>
        <time>2018-04-24T08:26:29Z</time>
      </trkpt>
      <trkpt lat="44.34923" lon="4.82079">
        <ele>128.2</ele>
        <time>2018-04-24T08:26:31Z</time>
      </trkpt>
      <trkpt lat="44.34925" lon="4.82093">
        <ele>128.6</ele>
        <time>2018-04-24T08:26:33Z</time>
      </trkpt>
      <trkpt lat="44.34927" lon="4.82112">
        <ele>129</ele>
        <time>2018-04-24T08:26:36Z</time>
      </trkpt>
      <trkpt lat="44.34929" lon="4.82126">
        <ele>129</ele>
        <time>2018-04-24T08:26:38Z</time>
      </trkpt>
      <trkpt lat="44.34932" lon="4.82139">
        <ele>128.7</ele>
        <time>2018-04-24T08:26:40Z</time>
      </trkpt>
      <trkpt lat="44.34936" lon="4.82153">
        <ele>128.6</ele>
        <time>2018-04-24T08:26:42Z</time>
      </trkpt>
      <trkpt lat="44.34941" lon="4.82166">
        <ele>128.4</ele>
        <time>2018-04-24T08:26:44Z</time>
      </trkpt>
      <trkpt lat="44.34944" lon="4.82178">
        <ele>128.4</ele>
        <time>2018-04-24T08:26:46Z</time>
      </trkpt>
      <trkpt lat="44.34948" lon="4.82191">
        <ele>128.5</ele>
        <time>2018-04-24T08:26:48Z</time>
      </trkpt>
      <trkpt lat="44.34949" lon="4.82205">
        <ele>128.5</ele>
        <time>2018-04-24T08:26:50Z</time>
      </trkpt>
      <trkpt lat="44.34952" lon="4.82218">
        <ele>128.7</ele>
        <time>2018-04-24T08:26:52Z</time>
      </trkpt>
      <trkpt lat="44.34953" lon="4.82233">
        <ele>129.1</ele>
        <time>2018-04-24T08:26:54Z</time>
      </trkpt>
      <trkpt lat="44.34953" lon="4.82249">
        <ele>129.4</ele>
        <time>2018-04-24T08:26:56Z</time>
      </trkpt>
      <trkpt lat="44.34951" lon="4.82267">
        <ele>129.7</ele>
        <time>2018-04-24T08:26:58Z</time>
      </trkpt>
      <trkpt lat="44.34951" lon="4.82285">
        <ele>129.8</ele>
        <time>2018-04-24T08:27:00Z</time>
      </trkpt>
      <trkpt lat="44.3495" lon="4.82302">
        <ele>129.8</ele>
        <time>2018-04-24T08:27:02Z</time>
      </trkpt>
      <trkpt lat="44.3495" lon="4.82319">
        <ele>129.9</ele>
        <time>2018-04-24T08:27:04Z</time>
      </trkpt>
      <trkpt lat="44.34949" lon="4.82336">
        <ele>130.2</ele>
        <time>2018-04-24T08:27:06Z</time>
      </trkpt>
      <trkpt lat="44.34949" lon="4.82354">
        <ele>130.4</ele>
        <time>2018-04-24T08:27:08Z</time>
      </trkpt>
      <trkpt lat="44.34948" lon="4.82371">
        <ele>130.3</ele>
        <time>2018-04-24T08:27:10Z</time>
      </trkpt>
      <trkpt lat="44.34948" lon="4.82389">
        <ele>130.3</ele>
        <time>2018-04-24T08:27:12Z</time>
      </trkpt>
      <trkpt lat="44.34946" lon="4.82405">
        <ele>130.2</ele>
        <time>2018-04-24T08:27:14Z</time>
      </trkpt>
      <trkpt lat="44.34946" lon="4.82423">
        <ele>130.1</ele>
        <time>2018-04-24T08:27:16Z</time>
      </trkpt>
      <trkpt lat="44.34945" lon="4.82441">
        <ele>130</ele>
        <time>2018-04-24T08:27:18Z</time>
      </trkpt>
      <trkpt lat="44.34946" lon="4.8246">
        <ele>130.1</ele>
        <time>2018-04-24T08:27:20Z</time>
      </trkpt>
      <trkpt lat="44.34947" lon="4.82478">
        <ele>130.3</ele>
        <time>2018-04-24T08:27:22Z</time>
      </trkpt>
      <trkpt lat="44.34947" lon="4.82495">
        <ele>130.2</ele>
        <time>2018-04-24T08:27:24Z</time>
      </trkpt>
      <trkpt lat="44.34948" lon="4.82512">
        <ele>130</ele>
        <time>2018-04-24T08:27:26Z</time>
      </trkpt>
      <trkpt lat="44.34948" lon="4.8253">
        <ele>129.6</ele>
        <time>2018-04-24T08:27:28Z</time>
      </trkpt>
      <trkpt lat="44.34949" lon="4.82547">
        <ele>129.2</ele>
        <time>2018-04-24T08:27:30Z</time>
      </trkpt>
      <trkpt lat="44.3495" lon="4.82563">
        <ele>128.9</ele>
        <time>2018-04-24T08:27:32Z</time>
      </trkpt>
      <trkpt lat="44.34951" lon="4.82578">
        <ele>128.6</ele>
        <time>2018-04-24T08:27:34Z</time>
      </trkpt>
      <trkpt lat="44.34953" lon="4.82593">
        <ele>128.4</ele>
        <time>2018-04-24T08:27:36Z</time>
      </trkpt>
      <trkpt lat="44.34955" lon="4.82608">
        <ele>128.3</ele>
        <time>2018-04-24T08:27:38Z</time>
      </trkpt>
      <trkpt lat="44.34958" lon="4.82622">
        <ele>128.2</ele>
        <time>2018-04-24T08:27:40Z</time>
      </trkpt>
      <trkpt lat="44.34961" lon="4.82636">
        <ele>128.3</ele>
        <time>2018-04-24T08:27:42Z</time>
      </trkpt>
      <trkpt lat="44.34964" lon="4.8265">
        <ele>128.6</ele>
        <time>2018-04-24T08:27:44Z</time>
      </trkpt>
      <trkpt lat="44.34967" lon="4.82662">
        <ele>129.1</ele>
        <time>2018-04-24T08:27:46Z</time>
      </trkpt>
      <trkpt lat="44.34971" lon="4.82676">
        <ele>129.6</ele>
        <time>2018-04-24T08:27:49Z</time>
      </trkpt>
      <trkpt lat="44.34961" lon="4.82677">
        <ele>130.3</ele>
        <time>2018-04-24T08:27:53Z</time>
      </trkpt>
      <trkpt lat="44.34953" lon="4.82671">
        <ele>130.6</ele>
        <time>2018-04-24T08:27:55Z</time>
      </trkpt>
      <trkpt lat="44.34942" lon="4.82662">
        <ele>130.9</ele>
        <time>2018-04-24T08:27:58Z</time>
      </trkpt>
      <trkpt lat="44.34933" lon="4.82653">
        <ele>131</ele>
        <time>2018-04-24T08:28:00Z</time>
      </trkpt>
      <trkpt lat="44.34925" lon="4.82643">
        <ele>130.9</ele>
        <time>2018-04-24T08:28:02Z</time>
      </trkpt>
      <trkpt lat="44.34917" lon="4.82634">
        <ele>130.7</ele>
        <time>2018-04-24T08:28:04Z</time>
      </trkpt>
      <trkpt lat="44.34907" lon="4.82623">
        <ele>130.7</ele>
        <time>2018-04-24T08:28:06Z</time>
      </trkpt>
      <trkpt lat="44.34897" lon="4.82609">
        <ele>130.6</ele>
        <time>2018-04-24T08:28:08Z</time>
      </trkpt>
      <trkpt lat="44.34883" lon="4.82594">
        <ele>130.5</ele>
        <time>2018-04-24T08:28:10Z</time>
      </trkpt>
      <trkpt lat="44.34873" lon="4.8258">
        <ele>130.5</ele>
        <time>2018-04-24T08:28:12Z</time>
      </trkpt>
      <trkpt lat="44.34863" lon="4.82567">
        <ele>130.1</ele>
        <time>2018-04-24T08:28:14Z</time>
      </trkpt>
      <trkpt lat="44.3485" lon="4.82561">
        <ele>129.9</ele>
        <time>2018-04-24T08:28:16Z</time>
      </trkpt>
      <trkpt lat="44.34837" lon="4.82562">
        <ele>129.5</ele>
        <time>2018-04-24T08:28:18Z</time>
      </trkpt>
      <trkpt lat="44.34826" lon="4.82561">
        <ele>129.5</ele>
        <time>2018-04-24T08:28:20Z</time>
      </trkpt>
      <trkpt lat="44.34816" lon="4.82555">
        <ele>129.3</ele>
        <time>2018-04-24T08:28:22Z</time>
      </trkpt>
      <trkpt lat="44.34811" lon="4.8254">
        <ele>129.4</ele>
        <time>2018-04-24T08:28:24Z</time>
      </trkpt>
      <trkpt lat="44.34811" lon="4.82525">
        <ele>129.1</ele>
        <time>2018-04-24T08:28:26Z</time>
      </trkpt>
      <trkpt lat="44.34807" lon="4.82508">
        <ele>128.9</ele>
        <time>2018-04-24T08:28:28Z</time>
      </trkpt>
      <trkpt lat="44.34801" lon="4.82493">
        <ele>128.7</ele>
        <time>2018-04-24T08:28:30Z</time>
      </trkpt>
      <trkpt lat="44.34792" lon="4.82478">
        <ele>128.4</ele>
        <time>2018-04-24T08:28:32Z</time>
      </trkpt>
      <trkpt lat="44.34778" lon="4.82466">
        <ele>128.4</ele>
        <time>2018-04-24T08:28:34Z</time>
      </trkpt>
      <trkpt lat="44.34765" lon="4.82464">
        <ele>128.2</ele>
        <time>2018-04-24T08:28:36Z</time>
      </trkpt>
      <trkpt lat="44.34751" lon="4.82464">
        <ele>128</ele>
        <time>2018-04-24T08:28:38Z</time>
      </trkpt>
      <trkpt lat="44.34736" lon="4.82463">
        <ele>127.9</ele>
        <time>2018-04-24T08:28:40Z</time>
      </trkpt>
      <trkpt lat="44.34721" lon="4.82463">
        <ele>127.6</ele>
        <time>2018-04-24T08:28:42Z</time>
      </trkpt>
      <trkpt lat="44.34706" lon="4.82463">
        <ele>127.3</ele>
        <time>2018-04-24T08:28:44Z</time>
      </trkpt>
      <trkpt lat="44.34692" lon="4.8246">
        <ele>126.9</ele>
        <time>2018-04-24T08:28:46Z</time>
      </trkpt>
      <trkpt lat="44.34677" lon="4.82456">
        <ele>126.5</ele>
        <time>2018-04-24T08:28:48Z</time>
      </trkpt>
      <trkpt lat="44.34663" lon="4.82453">
        <ele>126.2</ele>
        <time>2018-04-24T08:28:50Z</time>
      </trkpt>
      <trkpt lat="44.34651" lon="4.82446">
        <ele>126.1</ele>
        <time>2018-04-24T08:28:52Z</time>
      </trkpt>
      <trkpt lat="44.34639" lon="4.82441">
        <ele>125.8</ele>
        <time>2018-04-24T08:28:54Z</time>
      </trkpt>
      <trkpt lat="44.34625" lon="4.82434">
        <ele>125.5</ele>
        <time>2018-04-24T08:28:56Z</time>
      </trkpt>
      <trkpt lat="44.34614" lon="4.82423">
        <ele>125.4</ele>
        <time>2018-04-24T08:28:58Z</time>
      </trkpt>
      <trkpt lat="44.34605" lon="4.82411">
        <ele>125.2</ele>
        <time>2018-04-24T08:29:00Z</time>
      </trkpt>
      <trkpt lat="44.34596" lon="4.82398">
        <ele>125.1</ele>
        <time>2018-04-24T08:29:02Z</time>
      </trkpt>
      <trkpt lat="44.34586" lon="4.82389">
        <ele>125.1</ele>
        <time>2018-04-24T08:29:04Z</time>
      </trkpt>
      <trkpt lat="44.34578" lon="4.82399">
        <ele>124.9</ele>
        <time>2018-04-24T08:29:08Z</time>
      </trkpt>
      <trkpt lat="44.34576" lon="4.82415">
        <ele>124.8</ele>
        <time>2018-04-24T08:29:11Z</time>
      </trkpt>
      <trkpt lat="44.34573" lon="4.82429">
        <ele>124.8</ele>
        <time>2018-04-24T08:29:14Z</time>
      </trkpt>
      <trkpt lat="44.34572" lon="4.82443">
        <ele>124.7</ele>
        <time>2018-04-24T08:29:18Z</time>
      </trkpt>
      <trkpt lat="44.34571" lon="4.82461">
        <ele>124.4</ele>
        <time>2018-04-24T08:29:21Z</time>
      </trkpt>
      <trkpt lat="44.3457" lon="4.82479">
        <ele>124</ele>
        <time>2018-04-24T08:29:24Z</time>
      </trkpt>
      <trkpt lat="44.3457" lon="4.82492">
        <ele>124</ele>
        <time>2018-04-24T08:29:26Z</time>
      </trkpt>
      <trkpt lat="44.34564" lon="4.82505">
        <ele>123.9</ele>
        <time>2018-04-24T08:29:29Z</time>
      </trkpt>
      <trkpt lat="44.34554" lon="4.82506">
        <ele>123.8</ele>
        <time>2018-04-24T08:29:31Z</time>
      </trkpt>
      <trkpt lat="44.34542" lon="4.82505">
        <ele>123.7</ele>
        <time>2018-04-24T08:29:33Z</time>
      </trkpt>
      <trkpt lat="44.34529" lon="4.82503">
        <ele>123.2</ele>
        <time>2018-04-24T08:29:35Z</time>
      </trkpt>
      <trkpt lat="44.34516" lon="4.82505">
        <ele>122.9</ele>
        <time>2018-04-24T08:29:37Z</time>
      </trkpt>
      <trkpt lat="44.34504" lon="4.82515">
        <ele>122.4</ele>
        <time>2018-04-24T08:29:39Z</time>
      </trkpt>
      <trkpt lat="44.34497" lon="4.82533">
        <ele>122</ele>
        <time>2018-04-24T08:29:41Z</time>
      </trkpt>
      <trkpt lat="44.3449" lon="4.82551">
        <ele>121.7</ele>
        <time>2018-04-24T08:29:43Z</time>
      </trkpt>
      <trkpt lat="44.34484" lon="4.8257">
        <ele>121</ele>
        <time>2018-04-24T08:29:45Z</time>
      </trkpt>
      <trkpt lat="44.34477" lon="4.82589">
        <ele>120.7</ele>
        <time>2018-04-24T08:29:47Z</time>
      </trkpt>
      <trkpt lat="44.3447" lon="4.82607">
        <ele>120.5</ele>
        <time>2018-04-24T08:29:49Z</time>
      </trkpt>
      <trkpt lat="44.34463" lon="4.82624">
        <ele>120.3</ele>
        <time>2018-04-24T08:29:51Z</time>
      </trkpt>
      <trkpt lat="44.34456" lon="4.82642">
        <ele>120.1</ele>
        <time>2018-04-24T08:29:53Z</time>
      </trkpt>
      <trkpt lat="44.3445" lon="4.8266">
        <ele>119.8</ele>
        <time>2018-04-24T08:29:55Z</time>
      </trkpt>
      <trkpt lat="44.34443" lon="4.82678">
        <ele>119.5</ele>
        <time>2018-04-24T08:29:57Z</time>
      </trkpt>
      <trkpt lat="44.34436" lon="4.82696">
        <ele>119.3</ele>
        <time>2018-04-24T08:29:59Z</time>
      </trkpt>
      <trkpt lat="44.3443" lon="4.82714">
        <ele>118.9</ele>
        <time>2018-04-24T08:30:01Z</time>
      </trkpt>
      <trkpt lat="44.34424" lon="4.82731">
        <ele>118.8</ele>
        <time>2018-04-24T08:30:03Z</time>
      </trkpt>
      <trkpt lat="44.34417" lon="4.82748">
        <ele>118.4</ele>
        <time>2018-04-24T08:30:05Z</time>
      </trkpt>
      <trkpt lat="44.34411" lon="4.82765">
        <ele>118.3</ele>
        <time>2018-04-24T08:30:07Z</time>
      </trkpt>
      <trkpt lat="44.34405" lon="4.82781">
        <ele>118.3</ele>
        <time>2018-04-24T08:30:09Z</time>
      </trkpt>
      <trkpt lat="44.34399" lon="4.82794">
        <ele>118.4</ele>
        <time>2018-04-24T08:30:11Z</time>
      </trkpt>
      <trkpt lat="44.34394" lon="4.82805">
        <ele>118.4</ele>
        <time>2018-04-24T08:30:13Z</time>
      </trkpt>
      <trkpt lat="44.34384" lon="4.82817">
        <ele>118.6</ele>
        <time>2018-04-24T08:30:16Z</time>
      </trkpt>
      <trkpt lat="44.34375" lon="4.82824">
        <ele>118.9</ele>
        <time>2018-04-24T08:30:18Z</time>
      </trkpt>
      <trkpt lat="44.34366" lon="4.8283">
        <ele>119.1</ele>
        <time>2018-04-24T08:30:20Z</time>
      </trkpt>
      <trkpt lat="44.34357" lon="4.82834">
        <ele>119.1</ele>
        <time>2018-04-24T08:30:23Z</time>
      </trkpt>
      <trkpt lat="44.34347" lon="4.82836">
        <ele>118.2</ele>
        <time>2018-04-24T08:31:02Z</time>
      </trkpt>
      <trkpt lat="44.3434" lon="4.82843">
        <ele>116.9</ele>
        <time>2018-04-24T08:31:35Z</time>
      </trkpt>
      <trkpt lat="44.34332" lon="4.82856">
        <ele>117</ele>
        <time>2018-04-24T08:31:44Z</time>
      </trkpt>
      <trkpt lat="44.34326" lon="4.82872">
        <ele>116.6</ele>
        <time>2018-04-24T08:31:47Z</time>
      </trkpt>
      <trkpt lat="44.34321" lon="4.82886">
        <ele>116.4</ele>
        <time>2018-04-24T08:31:49Z</time>
      </trkpt>
      <trkpt lat="44.34316" lon="4.82901">
        <ele>116.1</ele>
        <time>2018-04-24T08:31:51Z</time>
      </trkpt>
      <trkpt lat="44.34311" lon="4.82917">
        <ele>115.7</ele>
        <time>2018-04-24T08:31:53Z</time>
      </trkpt>
      <trkpt lat="44.34305" lon="4.82934">
        <ele>115.2</ele>
        <time>2018-04-24T08:31:55Z</time>
      </trkpt>
      <trkpt lat="44.343" lon="4.82951">
        <ele>115</ele>
        <time>2018-04-24T08:31:57Z</time>
      </trkpt>
      <trkpt lat="44.34293" lon="4.82969">
        <ele>114.9</ele>
        <time>2018-04-24T08:31:59Z</time>
      </trkpt>
      <trkpt lat="44.34287" lon="4.82987">
        <ele>114.8</ele>
        <time>2018-04-24T08:32:01Z</time>
      </trkpt>
      <trkpt lat="44.34279" lon="4.83003">
        <ele>114.4</ele>
        <time>2018-04-24T08:32:03Z</time>
      </trkpt>
      <trkpt lat="44.34273" lon="4.83019">
        <ele>113.9</ele>
        <time>2018-04-24T08:32:05Z</time>
      </trkpt>
      <trkpt lat="44.34274" lon="4.83036">
        <ele>113.5</ele>
        <time>2018-04-24T08:32:07Z</time>
      </trkpt>
      <trkpt lat="44.34277" lon="4.83052">
        <ele>113.2</ele>
        <time>2018-04-24T08:32:09Z</time>
      </trkpt>
      <trkpt lat="44.34281" lon="4.83068">
        <ele>112.9</ele>
        <time>2018-04-24T08:32:11Z</time>
      </trkpt>
      <trkpt lat="44.34286" lon="4.83083">
        <ele>112.6</ele>
        <time>2018-04-24T08:32:13Z</time>
      </trkpt>
      <trkpt lat="44.34291" lon="4.83096">
        <ele>113.1</ele>
        <time>2018-04-24T08:32:15Z</time>
      </trkpt>
      <trkpt lat="44.34295" lon="4.83109">
        <ele>113.2</ele>
        <time>2018-04-24T08:32:17Z</time>
      </trkpt>
      <trkpt lat="44.34299" lon="4.83122">
        <ele>113.1</ele>
        <time>2018-04-24T08:32:19Z</time>
      </trkpt>
      <trkpt lat="44.34302" lon="4.83136">
        <ele>113.1</ele>
        <time>2018-04-24T08:32:21Z</time>
      </trkpt>
      <trkpt lat="44.34304" lon="4.8315">
        <ele>113.5</ele>
        <time>2018-04-24T08:32:23Z</time>
      </trkpt>
      <trkpt lat="44.34296" lon="4.83161">
        <ele>114</ele>
        <time>2018-04-24T08:32:26Z</time>
      </trkpt>
      <trkpt lat="44.34283" lon="4.8316">
        <ele>114.4</ele>
        <time>2018-04-24T08:32:29Z</time>
      </trkpt>
      <trkpt lat="44.34274" lon="4.83157">
        <ele>114.9</ele>
        <time>2018-04-24T08:32:32Z</time>
      </trkpt>
      <trkpt lat="44.34269" lon="4.83169">
        <ele>115.4</ele>
        <time>2018-04-24T08:34:35Z</time>
      </trkpt>
      <trkpt lat="44.3427" lon="4.83183">
        <ele>115.7</ele>
        <time>2018-04-24T08:34:40Z</time>
      </trkpt>
      <trkpt lat="44.34273" lon="4.83196">
        <ele>115.5</ele>
        <time>2018-04-24T08:34:43Z</time>
      </trkpt>
      <trkpt lat="44.34276" lon="4.83211">
        <ele>115.6</ele>
        <time>2018-04-24T08:34:46Z</time>
      </trkpt>
      <trkpt lat="44.34279" lon="4.83228">
        <ele>115.6</ele>
        <time>2018-04-24T08:34:49Z</time>
      </trkpt>
      <trkpt lat="44.34282" lon="4.83245">
        <ele>115.6</ele>
        <time>2018-04-24T08:34:52Z</time>
      </trkpt>
      <trkpt lat="44.34286" lon="4.83263">
        <ele>115.9</ele>
        <time>2018-04-24T08:34:55Z</time>
      </trkpt>
      <trkpt lat="44.34289" lon="4.83281">
        <ele>116.2</ele>
        <time>2018-04-24T08:34:58Z</time>
      </trkpt>
      <trkpt lat="44.34291" lon="4.833">
        <ele>116.6</ele>
        <time>2018-04-24T08:35:01Z</time>
      </trkpt>
      <trkpt lat="44.34293" lon="4.83312">
        <ele>116.8</ele>
        <time>2018-04-24T08:35:03Z</time>
      </trkpt>
      <trkpt lat="44.34297" lon="4.8333">
        <ele>117.3</ele>
        <time>2018-04-24T08:35:06Z</time>
      </trkpt>
      <trkpt lat="44.34298" lon="4.83347">
        <ele>118.3</ele>
        <time>2018-04-24T08:35:09Z</time>
      </trkpt>
      <trkpt lat="44.343" lon="4.83363">
        <ele>119.1</ele>
        <time>2018-04-24T08:35:12Z</time>
      </trkpt>
      <trkpt lat="44.343" lon="4.83377">
        <ele>119.8</ele>
        <time>2018-04-24T08:35:15Z</time>
      </trkpt>
      <trkpt lat="44.34301" lon="4.83395">
        <ele>121.2</ele>
        <time>2018-04-24T08:35:19Z</time>
      </trkpt>
      <trkpt lat="44.34302" lon="4.83413">
        <ele>122.2</ele>
        <time>2018-04-24T08:35:23Z</time>
      </trkpt>
      <trkpt lat="44.34304" lon="4.83429">
        <ele>123.5</ele>
        <time>2018-04-24T08:35:27Z</time>
      </trkpt>
      <trkpt lat="44.34306" lon="4.83442">
        <ele>124.8</ele>
        <time>2018-04-24T08:35:30Z</time>
      </trkpt>
      <trkpt lat="44.34308" lon="4.83458">
        <ele>126</ele>
        <time>2018-04-24T08:35:33Z</time>
      </trkpt>
      <trkpt lat="44.34311" lon="4.83475">
        <ele>126.7</ele>
        <time>2018-04-24T08:35:36Z</time>
      </trkpt>
      <trkpt lat="44.34313" lon="4.83491">
        <ele>127.4</ele>
        <time>2018-04-24T08:35:39Z</time>
      </trkpt>
      <trkpt lat="44.34313" lon="4.83504">
        <ele>127.9</ele>
        <time>2018-04-24T08:35:41Z</time>
      </trkpt>
      <trkpt lat="44.34312" lon="4.8352">
        <ele>128.7</ele>
        <time>2018-04-24T08:35:44Z</time>
      </trkpt>
      <trkpt lat="44.34311" lon="4.83535">
        <ele>129.7</ele>
        <time>2018-04-24T08:35:47Z</time>
      </trkpt>
      <trkpt lat="44.34304" lon="4.83548">
        <ele>130.5</ele>
        <time>2018-04-24T08:35:50Z</time>
      </trkpt>
      <trkpt lat="44.34298" lon="4.83562">
        <ele>131.3</ele>
        <time>2018-04-24T08:35:53Z</time>
      </trkpt>
      <trkpt lat="44.34294" lon="4.83577">
        <ele>131.6</ele>
        <time>2018-04-24T08:35:56Z</time>
      </trkpt>
      <trkpt lat="44.34294" lon="4.83589">
        <ele>131.8</ele>
        <time>2018-04-24T08:35:58Z</time>
      </trkpt>
      <trkpt lat="44.34293" lon="4.83602">
        <ele>132.1</ele>
        <time>2018-04-24T08:36:00Z</time>
      </trkpt>
      <trkpt lat="44.34292" lon="4.83617">
        <ele>132.3</ele>
        <time>2018-04-24T08:36:02Z</time>
      </trkpt>
      <trkpt lat="44.34292" lon="4.8363">
        <ele>132.3</ele>
        <time>2018-04-24T08:36:04Z</time>
      </trkpt>
      <trkpt lat="44.3429" lon="4.83645">
        <ele>132.4</ele>
        <time>2018-04-24T08:36:06Z</time>
      </trkpt>
      <trkpt lat="44.34288" lon="4.83659">
        <ele>132.4</ele>
        <time>2018-04-24T08:36:08Z</time>
      </trkpt>
      <trkpt lat="44.34287" lon="4.83672">
        <ele>132.6</ele>
        <time>2018-04-24T08:36:10Z</time>
      </trkpt>
      <trkpt lat="44.34284" lon="4.83689">
        <ele>132.6</ele>
        <time>2018-04-24T08:36:13Z</time>
      </trkpt>
      <trkpt lat="44.34273" lon="4.83696">
        <ele>133.4</ele>
        <time>2018-04-24T08:36:17Z</time>
      </trkpt>
      <trkpt lat="44.34262" lon="4.83697">
        <ele>133.5</ele>
        <time>2018-04-24T08:36:20Z</time>
      </trkpt>
      <trkpt lat="44.34249" lon="4.83693">
        <ele>133.6</ele>
        <time>2018-04-24T08:36:23Z</time>
      </trkpt>
      <trkpt lat="44.34235" lon="4.83689">
        <ele>133.7</ele>
        <time>2018-04-24T08:36:26Z</time>
      </trkpt>
      <trkpt lat="44.34224" lon="4.83685">
        <ele>133.7</ele>
        <time>2018-04-24T08:36:28Z</time>
      </trkpt>
      <trkpt lat="44.34212" lon="4.83684">
        <ele>133.8</ele>
        <time>2018-04-24T08:36:30Z</time>
      </trkpt>
      <trkpt lat="44.342" lon="4.83683">
        <ele>133.9</ele>
        <time>2018-04-24T08:36:32Z</time>
      </trkpt>
      <trkpt lat="44.34189" lon="4.83682">
        <ele>133.9</ele>
        <time>2018-04-24T08:36:34Z</time>
      </trkpt>
      <trkpt lat="44.34177" lon="4.83682">
        <ele>134.1</ele>
        <time>2018-04-24T08:36:36Z</time>
      </trkpt>
      <trkpt lat="44.34165" lon="4.83682">
        <ele>134.2</ele>
        <time>2018-04-24T08:36:38Z</time>
      </trkpt>
      <trkpt lat="44.34153" lon="4.8368">
        <ele>134.1</ele>
        <time>2018-04-24T08:36:40Z</time>
      </trkpt>
      <trkpt lat="44.34142" lon="4.83679">
        <ele>134</ele>
        <time>2018-04-24T08:36:42Z</time>
      </trkpt>
      <trkpt lat="44.34132" lon="4.8368">
        <ele>133.7</ele>
        <time>2018-04-24T08:36:44Z</time>
      </trkpt>
      <trkpt lat="44.34121" lon="4.83679">
        <ele>133.5</ele>
        <time>2018-04-24T08:36:47Z</time>
      </trkpt>
      <trkpt lat="44.34111" lon="4.83678">
        <ele>133.5</ele>
        <time>2018-04-24T08:36:50Z</time>
      </trkpt>
      <trkpt lat="44.34102" lon="4.83677">
        <ele>133.4</ele>
        <time>2018-04-24T08:36:52Z</time>
      </trkpt>
      <trkpt lat="44.34092" lon="4.83676">
        <ele>133.2</ele>
        <time>2018-04-24T08:36:54Z</time>
      </trkpt>
      <trkpt lat="44.34081" lon="4.83675">
        <ele>133.1</ele>
        <time>2018-04-24T08:36:56Z</time>
      </trkpt>
      <trkpt lat="44.3407" lon="4.83674">
        <ele>132.9</ele>
        <time>2018-04-24T08:36:58Z</time>
      </trkpt>
      <trkpt lat="44.34059" lon="4.83673">
        <ele>132.7</ele>
        <time>2018-04-24T08:37:00Z</time>
      </trkpt>
      <trkpt lat="44.34048" lon="4.83673">
        <ele>132.6</ele>
        <time>2018-04-24T08:37:02Z</time>
      </trkpt>
      <trkpt lat="44.34037" lon="4.83673">
        <ele>132.8</ele>
        <time>2018-04-24T08:37:04Z</time>
      </trkpt>
      <trkpt lat="44.34025" lon="4.83673">
        <ele>132.8</ele>
        <time>2018-04-24T08:37:06Z</time>
      </trkpt>
      <trkpt lat="44.34014" lon="4.83673">
        <ele>132.7</ele>
        <time>2018-04-24T08:37:08Z</time>
      </trkpt>
      <trkpt lat="44.34001" lon="4.83673">
        <ele>132.5</ele>
        <time>2018-04-24T08:37:10Z</time>
      </trkpt>
      <trkpt lat="44.33989" lon="4.83674">
        <ele>132.5</ele>
        <time>2018-04-24T08:37:12Z</time>
      </trkpt>
      <trkpt lat="44.33977" lon="4.83674">
        <ele>132.5</ele>
        <time>2018-04-24T08:37:14Z</time>
      </trkpt>
      <trkpt lat="44.33965" lon="4.83675">
        <ele>132.7</ele>
        <time>2018-04-24T08:37:16Z</time>
      </trkpt>
      <trkpt lat="44.33953" lon="4.83676">
        <ele>132.8</ele>
        <time>2018-04-24T08:37:18Z</time>
      </trkpt>
      <trkpt lat="44.3394" lon="4.83677">
        <ele>133.1</ele>
        <time>2018-04-24T08:37:20Z</time>
      </trkpt>
      <trkpt lat="44.33928" lon="4.83678">
        <ele>133</ele>
        <time>2018-04-24T08:37:22Z</time>
      </trkpt>
      <trkpt lat="44.33915" lon="4.83678">
        <ele>133.2</ele>
        <time>2018-04-24T08:37:24Z</time>
      </trkpt>
      <trkpt lat="44.33903" lon="4.83675">
        <ele>133.3</ele>
        <time>2018-04-24T08:37:26Z</time>
      </trkpt>
      <trkpt lat="44.33893" lon="4.83676">
        <ele>133.3</ele>
        <time>2018-04-24T08:37:28Z</time>
      </trkpt>
      <trkpt lat="44.33882" lon="4.83676">
        <ele>133.3</ele>
        <time>2018-04-24T08:37:30Z</time>
      </trkpt>
      <trkpt lat="44.3387" lon="4.83678">
        <ele>133.7</ele>
        <time>2018-04-24T08:37:32Z</time>
      </trkpt>
      <trkpt lat="44.33858" lon="4.83679">
        <ele>134</ele>
        <time>2018-04-24T08:37:34Z</time>
      </trkpt>
      <trkpt lat="44.33846" lon="4.83679">
        <ele>134.5</ele>
        <time>2018-04-24T08:37:36Z</time>
      </trkpt>
      <trkpt lat="44.33835" lon="4.83681">
        <ele>134.9</ele>
        <time>2018-04-24T08:37:38Z</time>
      </trkpt>
      <trkpt lat="44.33824" lon="4.83683">
        <ele>135.3</ele>
        <time>2018-04-24T08:37:40Z</time>
      </trkpt>
      <trkpt lat="44.33814" lon="4.83684">
        <ele>135.8</ele>
        <time>2018-04-24T08:37:42Z</time>
      </trkpt>
      <trkpt lat="44.33801" lon="4.83689">
        <ele>136.5</ele>
        <time>2018-04-24T08:37:45Z</time>
      </trkpt>
      <trkpt lat="44.3379" lon="4.83689">
        <ele>136.9</ele>
        <time>2018-04-24T08:37:47Z</time>
      </trkpt>
      <trkpt lat="44.33778" lon="4.83691">
        <ele>137.3</ele>
        <time>2018-04-24T08:37:49Z</time>
      </trkpt>
      <trkpt lat="44.33765" lon="4.83696">
        <ele>137.4</ele>
        <time>2018-04-24T08:37:51Z</time>
      </trkpt>
      <trkpt lat="44.33755" lon="4.83701">
        <ele>137.8</ele>
        <time>2018-04-24T08:37:53Z</time>
      </trkpt>
      <trkpt lat="44.33745" lon="4.83706">
        <ele>138.2</ele>
        <time>2018-04-24T08:37:55Z</time>
      </trkpt>
      <trkpt lat="44.33733" lon="4.83709">
        <ele>138.3</ele>
        <time>2018-04-24T08:37:57Z</time>
      </trkpt>
      <trkpt lat="44.33722" lon="4.83711">
        <ele>138.5</ele>
        <time>2018-04-24T08:37:59Z</time>
      </trkpt>
      <trkpt lat="44.3371" lon="4.83714">
        <ele>138.7</ele>
        <time>2018-04-24T08:38:01Z</time>
      </trkpt>
      <trkpt lat="44.33698" lon="4.83717">
        <ele>138.7</ele>
        <time>2018-04-24T08:38:03Z</time>
      </trkpt>
      <trkpt lat="44.33687" lon="4.8372">
        <ele>138.7</ele>
        <time>2018-04-24T08:38:05Z</time>
      </trkpt>
      <trkpt lat="44.33677" lon="4.83723">
        <ele>138.8</ele>
        <time>2018-04-24T08:38:07Z</time>
      </trkpt>
      <trkpt lat="44.33666" lon="4.83727">
        <ele>139.2</ele>
        <time>2018-04-24T08:38:09Z</time>
      </trkpt>
      <trkpt lat="44.33656" lon="4.83728">
        <ele>139.1</ele>
        <time>2018-04-24T08:38:11Z</time>
      </trkpt>
      <trkpt lat="44.33643" lon="4.83732">
        <ele>139.3</ele>
        <time>2018-04-24T08:38:14Z</time>
      </trkpt>
      <trkpt lat="44.3363" lon="4.83739">
        <ele>139.8</ele>
        <time>2018-04-24T08:38:17Z</time>
      </trkpt>
      <trkpt lat="44.33618" lon="4.83746">
        <ele>140.4</ele>
        <time>2018-04-24T08:38:20Z</time>
      </trkpt>
      <trkpt lat="44.33609" lon="4.83751">
        <ele>140.4</ele>
        <time>2018-04-24T08:38:22Z</time>
      </trkpt>
      <trkpt lat="44.336" lon="4.83755">
        <ele>140.6</ele>
        <time>2018-04-24T08:38:24Z</time>
      </trkpt>
      <trkpt lat="44.33591" lon="4.8376">
        <ele>141.1</ele>
        <time>2018-04-24T08:38:26Z</time>
      </trkpt>
      <trkpt lat="44.33583" lon="4.83764">
        <ele>141.7</ele>
        <time>2018-04-24T08:38:28Z</time>
      </trkpt>
      <trkpt lat="44.33574" lon="4.83769">
        <ele>142.1</ele>
        <time>2018-04-24T08:38:30Z</time>
      </trkpt>
      <trkpt lat="44.33566" lon="4.83774">
        <ele>142.3</ele>
        <time>2018-04-24T08:38:32Z</time>
      </trkpt>
      <trkpt lat="44.33553" lon="4.83779">
        <ele>142.7</ele>
        <time>2018-04-24T08:38:35Z</time>
      </trkpt>
      <trkpt lat="44.33541" lon="4.83782">
        <ele>143.4</ele>
        <time>2018-04-24T08:38:38Z</time>
      </trkpt>
      <trkpt lat="44.33529" lon="4.83785">
        <ele>144.1</ele>
        <time>2018-04-24T08:38:41Z</time>
      </trkpt>
      <trkpt lat="44.33515" lon="4.83786">
        <ele>144.5</ele>
        <time>2018-04-24T08:38:44Z</time>
      </trkpt>
      <trkpt lat="44.33503" lon="4.83787">
        <ele>145.5</ele>
        <time>2018-04-24T08:38:47Z</time>
      </trkpt>
      <trkpt lat="44.3349" lon="4.8379">
        <ele>146.1</ele>
        <time>2018-04-24T08:38:50Z</time>
      </trkpt>
      <trkpt lat="44.33479" lon="4.83793">
        <ele>146.8</ele>
        <time>2018-04-24T08:38:53Z</time>
      </trkpt>
      <trkpt lat="44.33467" lon="4.83794">
        <ele>147.2</ele>
        <time>2018-04-24T08:38:56Z</time>
      </trkpt>
      <trkpt lat="44.33457" lon="4.83795">
        <ele>147.3</ele>
        <time>2018-04-24T08:38:58Z</time>
      </trkpt>
      <trkpt lat="44.33446" lon="4.83798">
        <ele>147.5</ele>
        <time>2018-04-24T08:39:01Z</time>
      </trkpt>
      <trkpt lat="44.33435" lon="4.838">
        <ele>147.3</ele>
        <time>2018-04-24T08:39:03Z</time>
      </trkpt>
      <trkpt lat="44.33425" lon="4.83801">
        <ele>147.3</ele>
        <time>2018-04-24T08:39:05Z</time>
      </trkpt>
      <trkpt lat="44.33416" lon="4.83801">
        <ele>147.4</ele>
        <time>2018-04-24T08:39:07Z</time>
      </trkpt>
      <trkpt lat="44.33407" lon="4.83803">
        <ele>147.5</ele>
        <time>2018-04-24T08:39:09Z</time>
      </trkpt>
      <trkpt lat="44.33397" lon="4.83808">
        <ele>147.5</ele>
        <time>2018-04-24T08:39:11Z</time>
      </trkpt>
      <trkpt lat="44.33387" lon="4.83814">
        <ele>147.4</ele>
        <time>2018-04-24T08:39:13Z</time>
      </trkpt>
      <trkpt lat="44.33377" lon="4.8382">
        <ele>146.8</ele>
        <time>2018-04-24T08:39:15Z</time>
      </trkpt>
      <trkpt lat="44.33365" lon="4.83825">
        <ele>146.4</ele>
        <time>2018-04-24T08:39:17Z</time>
      </trkpt>
      <trkpt lat="44.33353" lon="4.83831">
        <ele>145.9</ele>
        <time>2018-04-24T08:39:19Z</time>
      </trkpt>
      <trkpt lat="44.3334" lon="4.83834">
        <ele>145.6</ele>
        <time>2018-04-24T08:39:21Z</time>
      </trkpt>
      <trkpt lat="44.33328" lon="4.83828">
        <ele>144.6</ele>
        <time>2018-04-24T08:39:24Z</time>
      </trkpt>
      <trkpt lat="44.33325" lon="4.83813">
        <ele>143.7</ele>
        <time>2018-04-24T08:39:27Z</time>
      </trkpt>
      <trkpt lat="44.33322" lon="4.83796">
        <ele>143</ele>
        <time>2018-04-24T08:39:30Z</time>
      </trkpt>
      <trkpt lat="44.3332" lon="4.83783">
        <ele>142.8</ele>
        <time>2018-04-24T08:39:32Z</time>
      </trkpt>
      <trkpt lat="44.3332" lon="4.83765">
        <ele>142.5</ele>
        <time>2018-04-24T08:39:35Z</time>
      </trkpt>
      <trkpt lat="44.33319" lon="4.83746">
        <ele>142.8</ele>
        <time>2018-04-24T08:39:38Z</time>
      </trkpt>
      <trkpt lat="44.33318" lon="4.83729">
        <ele>142.7</ele>
        <time>2018-04-24T08:39:41Z</time>
      </trkpt>
      <trkpt lat="44.33317" lon="4.83716">
        <ele>142.8</ele>
        <time>2018-04-24T08:39:44Z</time>
      </trkpt>
      <trkpt lat="44.33314" lon="4.83703">
        <ele>141.8</ele>
        <time>2018-04-24T08:40:46Z</time>
      </trkpt>
      <trkpt lat="44.33313" lon="4.83689">
        <ele>141.9</ele>
        <time>2018-04-24T08:41:10Z</time>
      </trkpt>
      <trkpt lat="44.33311" lon="4.83676">
        <ele>141.7</ele>
        <time>2018-04-24T08:41:13Z</time>
      </trkpt>
      <trkpt lat="44.33311" lon="4.83661">
        <ele>141.6</ele>
        <time>2018-04-24T08:41:16Z</time>
      </trkpt>
      <trkpt lat="44.33308" lon="4.83645">
        <ele>141.7</ele>
        <time>2018-04-24T08:41:19Z</time>
      </trkpt>
      <trkpt lat="44.33306" lon="4.83628">
        <ele>141.9</ele>
        <time>2018-04-24T08:41:22Z</time>
      </trkpt>
      <trkpt lat="44.33305" lon="4.83611">
        <ele>142</ele>
        <time>2018-04-24T08:41:25Z</time>
      </trkpt>
      <trkpt lat="44.33305" lon="4.83592">
        <ele>142.4</ele>
        <time>2018-04-24T08:41:28Z</time>
      </trkpt>
      <trkpt lat="44.33303" lon="4.83577">
        <ele>142.9</ele>
        <time>2018-04-24T08:41:31Z</time>
      </trkpt>
      <trkpt lat="44.3329" lon="4.83576">
        <ele>143.1</ele>
        <time>2018-04-24T08:41:34Z</time>
      </trkpt>
      <trkpt lat="44.33278" lon="4.83573">
        <ele>143.1</ele>
        <time>2018-04-24T08:41:37Z</time>
      </trkpt>
      <trkpt lat="44.3327" lon="4.83565">
        <ele>143.3</ele>
        <time>2018-04-24T08:41:39Z</time>
      </trkpt>
      <trkpt lat="44.33262" lon="4.83554">
        <ele>143.4</ele>
        <time>2018-04-24T08:41:41Z</time>
      </trkpt>
      <trkpt lat="44.33252" lon="4.83543">
        <ele>143.2</ele>
        <time>2018-04-24T08:41:43Z</time>
      </trkpt>
      <trkpt lat="44.33242" lon="4.83531">
        <ele>143.1</ele>
        <time>2018-04-24T08:41:45Z</time>
      </trkpt>
      <trkpt lat="44.33232" lon="4.83522">
        <ele>142.8</ele>
        <time>2018-04-24T08:41:47Z</time>
      </trkpt>
      <trkpt lat="44.33222" lon="4.83511">
        <ele>142.6</ele>
        <time>2018-04-24T08:41:49Z</time>
      </trkpt>
      <trkpt lat="44.33215" lon="4.83498">
        <ele>142.4</ele>
        <time>2018-04-24T08:41:51Z</time>
      </trkpt>
      <trkpt lat="44.33211" lon="4.83483">
        <ele>142.2</ele>
        <time>2018-04-24T08:41:53Z</time>
      </trkpt>
      <trkpt lat="44.33208" lon="4.83469">
        <ele>141.8</ele>
        <time>2018-04-24T08:41:55Z</time>
      </trkpt>
      <trkpt lat="44.33207" lon="4.83454">
        <ele>141.7</ele>
        <time>2018-04-24T08:41:57Z</time>
      </trkpt>
      <trkpt lat="44.33202" lon="4.83443">
        <ele>141.7</ele>
        <time>2018-04-24T08:41:58Z</time>
      </trkpt>
      <trkpt lat="44.33199" lon="4.83429">
        <ele>141.7</ele>
        <time>2018-04-24T08:42:00Z</time>
      </trkpt>
      <trkpt lat="44.33196" lon="4.83414">
        <ele>141.6</ele>
        <time>2018-04-24T08:42:02Z</time>
      </trkpt>
      <trkpt lat="44.33195" lon="4.83398">
        <ele>141.7</ele>
        <time>2018-04-24T08:42:04Z</time>
      </trkpt>
      <trkpt lat="44.33198" lon="4.83383">
        <ele>141.1</ele>
        <time>2018-04-24T08:42:06Z</time>
      </trkpt>
      <trkpt lat="44.33202" lon="4.83367">
        <ele>141.3</ele>
        <time>2018-04-24T08:42:08Z</time>
      </trkpt>
      <trkpt lat="44.33204" lon="4.83351">
        <ele>141.7</ele>
        <time>2018-04-24T08:42:10Z</time>
      </trkpt>
      <trkpt lat="44.33205" lon="4.83334">
        <ele>142</ele>
        <time>2018-04-24T08:42:12Z</time>
      </trkpt>
      <trkpt lat="44.33203" lon="4.83318">
        <ele>142.4</ele>
        <time>2018-04-24T08:42:14Z</time>
      </trkpt>
      <trkpt lat="44.33202" lon="4.83301">
        <ele>143.1</ele>
        <time>2018-04-24T08:42:16Z</time>
      </trkpt>
      <trkpt lat="44.33206" lon="4.83287">
        <ele>143.4</ele>
        <time>2018-04-24T08:42:18Z</time>
      </trkpt>
      <trkpt lat="44.33209" lon="4.83272">
        <ele>143.9</ele>
        <time>2018-04-24T08:42:20Z</time>
      </trkpt>
      <trkpt lat="44.33213" lon="4.8326">
        <ele>144.4</ele>
        <time>2018-04-24T08:42:22Z</time>
      </trkpt>
      <trkpt lat="44.3322" lon="4.83251">
        <ele>144.7</ele>
        <time>2018-04-24T08:42:24Z</time>
      </trkpt>
      <trkpt lat="44.33228" lon="4.8324">
        <ele>145.4</ele>
        <time>2018-04-24T08:42:27Z</time>
      </trkpt>
      <trkpt lat="44.33232" lon="4.83223">
        <ele>146.3</ele>
        <time>2018-04-24T08:42:30Z</time>
      </trkpt>
      <trkpt lat="44.33233" lon="4.8321">
        <ele>146.6</ele>
        <time>2018-04-24T08:42:32Z</time>
      </trkpt>
      <trkpt lat="44.33234" lon="4.83196">
        <ele>146.9</ele>
        <time>2018-04-24T08:42:34Z</time>
      </trkpt>
      <trkpt lat="44.33237" lon="4.83182">
        <ele>147</ele>
        <time>2018-04-24T08:42:36Z</time>
      </trkpt>
      <trkpt lat="44.33239" lon="4.83167">
        <ele>147</ele>
        <time>2018-04-24T08:42:38Z</time>
      </trkpt>
      <trkpt lat="44.33243" lon="4.83152">
        <ele>147.1</ele>
        <time>2018-04-24T08:42:40Z</time>
      </trkpt>
      <trkpt lat="44.33244" lon="4.83136">
        <ele>147.4</ele>
        <time>2018-04-24T08:42:42Z</time>
      </trkpt>
      <trkpt lat="44.33246" lon="4.83122">
        <ele>147.4</ele>
        <time>2018-04-24T08:42:44Z</time>
      </trkpt>
      <trkpt lat="44.33247" lon="4.83107">
        <ele>147.4</ele>
        <time>2018-04-24T08:42:46Z</time>
      </trkpt>
      <trkpt lat="44.3325" lon="4.83093">
        <ele>147.4</ele>
        <time>2018-04-24T08:42:48Z</time>
      </trkpt>
      <trkpt lat="44.33252" lon="4.83078">
        <ele>147.4</ele>
        <time>2018-04-24T08:42:50Z</time>
      </trkpt>
      <trkpt lat="44.33254" lon="4.83061">
        <ele>147.6</ele>
        <time>2018-04-24T08:42:52Z</time>
      </trkpt>
      <trkpt lat="44.33252" lon="4.83044">
        <ele>147.7</ele>
        <time>2018-04-24T08:42:54Z</time>
      </trkpt>
      <trkpt lat="44.33252" lon="4.83027">
        <ele>147.6</ele>
        <time>2018-04-24T08:42:56Z</time>
      </trkpt>
      <trkpt lat="44.33249" lon="4.83008">
        <ele>147.7</ele>
        <time>2018-04-24T08:42:58Z</time>
      </trkpt>
      <trkpt lat="44.33248" lon="4.8299">
        <ele>147.5</ele>
        <time>2018-04-24T08:43:00Z</time>
      </trkpt>
      <trkpt lat="44.33247" lon="4.82971">
        <ele>147.7</ele>
        <time>2018-04-24T08:43:02Z</time>
      </trkpt>
      <trkpt lat="44.33249" lon="4.82953">
        <ele>147.9</ele>
        <time>2018-04-24T08:43:04Z</time>
      </trkpt>
      <trkpt lat="44.33252" lon="4.82935">
        <ele>148.1</ele>
        <time>2018-04-24T08:43:06Z</time>
      </trkpt>
      <trkpt lat="44.33255" lon="4.82917">
        <ele>148.1</ele>
        <time>2018-04-24T08:43:08Z</time>
      </trkpt>
      <trkpt lat="44.33259" lon="4.82899">
        <ele>147.8</ele>
        <time>2018-04-24T08:43:10Z</time>
      </trkpt>
      <trkpt lat="44.33262" lon="4.8288">
        <ele>147.7</ele>
        <time>2018-04-24T08:43:12Z</time>
      </trkpt>
      <trkpt lat="44.33264" lon="4.8286">
        <ele>147.6</ele>
        <time>2018-04-24T08:43:14Z</time>
      </trkpt>
      <trkpt lat="44.33265" lon="4.82838">
        <ele>147.9</ele>
        <time>2018-04-24T08:43:16Z</time>
      </trkpt>
      <trkpt lat="44.33267" lon="4.82819">
        <ele>147.4</ele>
        <time>2018-04-24T08:43:18Z</time>
      </trkpt>
      <trkpt lat="44.33267" lon="4.82799">
        <ele>147.3</ele>
        <time>2018-04-24T08:43:20Z</time>
      </trkpt>
      <trkpt lat="44.33269" lon="4.8278">
        <ele>146.9</ele>
        <time>2018-04-24T08:43:22Z</time>
      </trkpt>
      <trkpt lat="44.33268" lon="4.82762">
        <ele>146.6</ele>
        <time>2018-04-24T08:43:24Z</time>
      </trkpt>
      <trkpt lat="44.33263" lon="4.82743">
        <ele>146.1</ele>
        <time>2018-04-24T08:43:26Z</time>
      </trkpt>
      <trkpt lat="44.3326" lon="4.82724">
        <ele>145.6</ele>
        <time>2018-04-24T08:43:28Z</time>
      </trkpt>
      <trkpt lat="44.3326" lon="4.82708">
        <ele>145.4</ele>
        <time>2018-04-24T08:43:30Z</time>
      </trkpt>
      <trkpt lat="44.33262" lon="4.8269">
        <ele>144.8</ele>
        <time>2018-04-24T08:43:32Z</time>
      </trkpt>
      <trkpt lat="44.33263" lon="4.82672">
        <ele>144.3</ele>
        <time>2018-04-24T08:43:34Z</time>
      </trkpt>
      <trkpt lat="44.33267" lon="4.82655">
        <ele>143.8</ele>
        <time>2018-04-24T08:43:36Z</time>
      </trkpt>
      <trkpt lat="44.33262" lon="4.82632">
        <ele>143.4</ele>
        <time>2018-04-24T08:43:38Z</time>
      </trkpt>
      <trkpt lat="44.33262" lon="4.82612">
        <ele>142.7</ele>
        <time>2018-04-24T08:43:40Z</time>
      </trkpt>
      <trkpt lat="44.33263" lon="4.82594">
        <ele>141.9</ele>
        <time>2018-04-24T08:43:42Z</time>
      </trkpt>
      <trkpt lat="44.33266" lon="4.82576">
        <ele>141.6</ele>
        <time>2018-04-24T08:43:44Z</time>
      </trkpt>
      <trkpt lat="44.33268" lon="4.82558">
        <ele>141.1</ele>
        <time>2018-04-24T08:43:46Z</time>
      </trkpt>
      <trkpt lat="44.33269" lon="4.8254">
        <ele>140.5</ele>
        <time>2018-04-24T08:43:48Z</time>
      </trkpt>
      <trkpt lat="44.33271" lon="4.82522">
        <ele>140</ele>
        <time>2018-04-24T08:43:50Z</time>
      </trkpt>
      <trkpt lat="44.33274" lon="4.82506">
        <ele>139.5</ele>
        <time>2018-04-24T08:43:52Z</time>
      </trkpt>
      <trkpt lat="44.33276" lon="4.82492">
        <ele>139</ele>
        <time>2018-04-24T08:43:54Z</time>
      </trkpt>
      <trkpt lat="44.33268" lon="4.82485">
        <ele>137.7</ele>
        <time>2018-04-24T08:43:58Z</time>
      </trkpt>
      <trkpt lat="44.33256" lon="4.82486">
        <ele>137.1</ele>
        <time>2018-04-24T08:44:01Z</time>
      </trkpt>
      <trkpt lat="44.33244" lon="4.82486">
        <ele>136.5</ele>
        <time>2018-04-24T08:44:04Z</time>
      </trkpt>
      <trkpt lat="44.33233" lon="4.82493">
        <ele>136.1</ele>
        <time>2018-04-24T08:44:07Z</time>
      </trkpt>
      <trkpt lat="44.33223" lon="4.82502">
        <ele>135.8</ele>
        <time>2018-04-24T08:44:10Z</time>
      </trkpt>
      <trkpt lat="44.33217" lon="4.82514">
        <ele>135.3</ele>
        <time>2018-04-24T08:44:13Z</time>
      </trkpt>
      <trkpt lat="44.33215" lon="4.82529">
        <ele>135.7</ele>
        <time>2018-04-24T08:44:16Z</time>
      </trkpt>
      <trkpt lat="44.33212" lon="4.82545">
        <ele>135.8</ele>
        <time>2018-04-24T08:44:19Z</time>
      </trkpt>
      <trkpt lat="44.33211" lon="4.82561">
        <ele>136.1</ele>
        <time>2018-04-24T08:44:22Z</time>
      </trkpt>
      <trkpt lat="44.3321" lon="4.82574">
        <ele>136.3</ele>
        <time>2018-04-24T08:44:25Z</time>
      </trkpt>
      <trkpt lat="44.33208" lon="4.82591">
        <ele>136.5</ele>
        <time>2018-04-24T08:44:28Z</time>
      </trkpt>
      <trkpt lat="44.33207" lon="4.82608">
        <ele>136.8</ele>
        <time>2018-04-24T08:44:31Z</time>
      </trkpt>
      <trkpt lat="44.33208" lon="4.82625">
        <ele>137.2</ele>
        <time>2018-04-24T08:44:34Z</time>
      </trkpt>
      <trkpt lat="44.33205" lon="4.82639">
        <ele>137.5</ele>
        <time>2018-04-24T08:44:37Z</time>
      </trkpt>
      <trkpt lat="44.33203" lon="4.82652">
        <ele>138.1</ele>
        <time>2018-04-24T08:44:41Z</time>
      </trkpt>
      <trkpt lat="44.33204" lon="4.82666">
        <ele>138.7</ele>
        <time>2018-04-24T08:44:44Z</time>
      </trkpt>
      <trkpt lat="44.332" lon="4.82679">
        <ele>139.1</ele>
        <time>2018-04-24T08:44:47Z</time>
      </trkpt>
      <trkpt lat="44.332" lon="4.82695">
        <ele>139.5</ele>
        <time>2018-04-24T08:44:50Z</time>
      </trkpt>
      <trkpt lat="44.33198" lon="4.82711">
        <ele>139.8</ele>
        <time>2018-04-24T08:44:53Z</time>
      </trkpt>
      <trkpt lat="44.33195" lon="4.82728">
        <ele>140.1</ele>
        <time>2018-04-24T08:44:56Z</time>
      </trkpt>
      <trkpt lat="44.3319" lon="4.82743">
        <ele>140.4</ele>
        <time>2018-04-24T08:44:59Z</time>
      </trkpt>
      <trkpt lat="44.33187" lon="4.82759">
        <ele>140.4</ele>
        <time>2018-04-24T08:45:02Z</time>
      </trkpt>
      <trkpt lat="44.33189" lon="4.82773">
        <ele>140.7</ele>
        <time>2018-04-24T08:45:05Z</time>
      </trkpt>
      <trkpt lat="44.33182" lon="4.82782">
        <ele>141.6</ele>
        <time>2018-04-24T08:45:10Z</time>
      </trkpt>
      <trkpt lat="44.33176" lon="4.82795">
        <ele>142.7</ele>
        <time>2018-04-24T08:45:14Z</time>
      </trkpt>
      <trkpt lat="44.33174" lon="4.82809">
        <ele>143</ele>
        <time>2018-04-24T08:45:17Z</time>
      </trkpt>
      <trkpt lat="44.3317" lon="4.82824">
        <ele>143</ele>
        <time>2018-04-24T08:45:20Z</time>
      </trkpt>
      <trkpt lat="44.33166" lon="4.82839">
        <ele>143.3</ele>
        <time>2018-04-24T08:45:23Z</time>
      </trkpt>
      <trkpt lat="44.3316" lon="4.82854">
        <ele>143.7</ele>
        <time>2018-04-24T08:45:26Z</time>
      </trkpt>
      <trkpt lat="44.33154" lon="4.82864">
        <ele>143.8</ele>
        <time>2018-04-24T08:45:28Z</time>
      </trkpt>
      <trkpt lat="44.3315" lon="4.82876">
        <ele>144.1</ele>
        <time>2018-04-24T08:45:30Z</time>
      </trkpt>
      <trkpt lat="44.33145" lon="4.82894">
        <ele>144.4</ele>
        <time>2018-04-24T08:45:33Z</time>
      </trkpt>
      <trkpt lat="44.33143" lon="4.82909">
        <ele>144.5</ele>
        <time>2018-04-24T08:45:35Z</time>
      </trkpt>
      <trkpt lat="44.3314" lon="4.82923">
        <ele>144.6</ele>
        <time>2018-04-24T08:45:37Z</time>
      </trkpt>
      <trkpt lat="44.33138" lon="4.82937">
        <ele>144.6</ele>
        <time>2018-04-24T08:45:39Z</time>
      </trkpt>
      <trkpt lat="44.33133" lon="4.82957">
        <ele>144.7</ele>
        <time>2018-04-24T08:45:42Z</time>
      </trkpt>
      <trkpt lat="44.33128" lon="4.82969">
        <ele>144.8</ele>
        <time>2018-04-24T08:45:44Z</time>
      </trkpt>
      <trkpt lat="44.33124" lon="4.82984">
        <ele>144.9</ele>
        <time>2018-04-24T08:45:46Z</time>
      </trkpt>
      <trkpt lat="44.33122" lon="4.83">
        <ele>144.8</ele>
        <time>2018-04-24T08:45:48Z</time>
      </trkpt>
      <trkpt lat="44.33118" lon="4.83012">
        <ele>144.8</ele>
        <time>2018-04-24T08:45:50Z</time>
      </trkpt>
      <trkpt lat="44.33113" lon="4.83023">
        <ele>144.9</ele>
        <time>2018-04-24T08:45:52Z</time>
      </trkpt>
      <trkpt lat="44.33108" lon="4.83038">
        <ele>145</ele>
        <time>2018-04-24T08:45:54Z</time>
      </trkpt>
      <trkpt lat="44.33105" lon="4.83053">
        <ele>145.1</ele>
        <time>2018-04-24T08:45:56Z</time>
      </trkpt>
      <trkpt lat="44.33102" lon="4.83067">
        <ele>145.3</ele>
        <time>2018-04-24T08:45:58Z</time>
      </trkpt>
      <trkpt lat="44.33096" lon="4.83079">
        <ele>145.2</ele>
        <time>2018-04-24T08:46:00Z</time>
      </trkpt>
      <trkpt lat="44.33089" lon="4.83092">
        <ele>145.2</ele>
        <time>2018-04-24T08:46:02Z</time>
      </trkpt>
      <trkpt lat="44.33082" lon="4.83103">
        <ele>145</ele>
        <time>2018-04-24T08:46:04Z</time>
      </trkpt>
      <trkpt lat="44.33073" lon="4.83111">
        <ele>144.8</ele>
        <time>2018-04-24T08:46:06Z</time>
      </trkpt>
      <trkpt lat="44.33068" lon="4.83124">
        <ele>145</ele>
        <time>2018-04-24T08:46:08Z</time>
      </trkpt>
      <trkpt lat="44.33066" lon="4.83143">
        <ele>144.5</ele>
        <time>2018-04-24T08:46:11Z</time>
      </trkpt>
      <trkpt lat="44.33065" lon="4.83158">
        <ele>144.3</ele>
        <time>2018-04-24T08:46:13Z</time>
      </trkpt>
      <trkpt lat="44.33065" lon="4.83175">
        <ele>144.2</ele>
        <time>2018-04-24T08:46:15Z</time>
      </trkpt>
      <trkpt lat="44.33065" lon="4.83192">
        <ele>143.8</ele>
        <time>2018-04-24T08:46:17Z</time>
      </trkpt>
      <trkpt lat="44.33062" lon="4.83208">
        <ele>143.5</ele>
        <time>2018-04-24T08:46:19Z</time>
      </trkpt>
      <trkpt lat="44.33058" lon="4.83222">
        <ele>143.2</ele>
        <time>2018-04-24T08:46:21Z</time>
      </trkpt>
      <trkpt lat="44.33051" lon="4.83235">
        <ele>143</ele>
        <time>2018-04-24T08:46:23Z</time>
      </trkpt>
      <trkpt lat="44.33044" lon="4.83247">
        <ele>142.5</ele>
        <time>2018-04-24T08:46:25Z</time>
      </trkpt>
      <trkpt lat="44.33036" lon="4.8326">
        <ele>142.3</ele>
        <time>2018-04-24T08:46:27Z</time>
      </trkpt>
      <trkpt lat="44.33027" lon="4.83271">
        <ele>142</ele>
        <time>2018-04-24T08:46:29Z</time>
      </trkpt>
      <trkpt lat="44.33019" lon="4.83282">
        <ele>141.9</ele>
        <time>2018-04-24T08:46:31Z</time>
      </trkpt>
      <trkpt lat="44.33012" lon="4.83295">
        <ele>141.6</ele>
        <time>2018-04-24T08:46:33Z</time>
      </trkpt>
      <trkpt lat="44.33006" lon="4.83307">
        <ele>141.5</ele>
        <time>2018-04-24T08:46:35Z</time>
      </trkpt>
      <trkpt lat="44.33001" lon="4.83319">
        <ele>141.3</ele>
        <time>2018-04-24T08:46:37Z</time>
      </trkpt>
      <trkpt lat="44.32995" lon="4.83331">
        <ele>141.2</ele>
        <time>2018-04-24T08:46:39Z</time>
      </trkpt>
      <trkpt lat="44.32988" lon="4.83343">
        <ele>140.8</ele>
        <time>2018-04-24T08:46:41Z</time>
      </trkpt>
      <trkpt lat="44.32982" lon="4.83356">
        <ele>140.8</ele>
        <time>2018-04-24T08:46:43Z</time>
      </trkpt>
      <trkpt lat="44.32975" lon="4.83369">
        <ele>140.4</ele>
        <time>2018-04-24T08:46:45Z</time>
      </trkpt>
      <trkpt lat="44.32973" lon="4.83383">
        <ele>140.2</ele>
        <time>2018-04-24T08:46:48Z</time>
      </trkpt>
      <trkpt lat="44.32971" lon="4.83397">
        <ele>135.6</ele>
        <time>2018-04-24T08:48:18Z</time>
      </trkpt>
      <trkpt lat="44.32975" lon="4.83412">
        <ele>135.4</ele>
        <time>2018-04-24T08:48:22Z</time>
      </trkpt>
      <trkpt lat="44.32974" lon="4.83427">
        <ele>135.1</ele>
        <time>2018-04-24T08:48:25Z</time>
      </trkpt>
      <trkpt lat="44.32968" lon="4.83438">
        <ele>134.9</ele>
        <time>2018-04-24T08:48:27Z</time>
      </trkpt>
      <trkpt lat="44.32963" lon="4.83451">
        <ele>134.7</ele>
        <time>2018-04-24T08:48:29Z</time>
      </trkpt>
      <trkpt lat="44.32961" lon="4.83466">
        <ele>134.3</ele>
        <time>2018-04-24T08:48:31Z</time>
      </trkpt>
      <trkpt lat="44.32955" lon="4.83477">
        <ele>134.1</ele>
        <time>2018-04-24T08:48:33Z</time>
      </trkpt>
      <trkpt lat="44.32949" lon="4.83488">
        <ele>133.9</ele>
        <time>2018-04-24T08:48:35Z</time>
      </trkpt>
      <trkpt lat="44.32945" lon="4.83501">
        <ele>133.7</ele>
        <time>2018-04-24T08:48:37Z</time>
      </trkpt>
      <trkpt lat="44.32942" lon="4.83516">
        <ele>133.8</ele>
        <time>2018-04-24T08:48:39Z</time>
      </trkpt>
      <trkpt lat="44.3294" lon="4.83531">
        <ele>133.2</ele>
        <time>2018-04-24T08:48:41Z</time>
      </trkpt>
      <trkpt lat="44.3294" lon="4.83547">
        <ele>132.7</ele>
        <time>2018-04-24T08:48:43Z</time>
      </trkpt>
      <trkpt lat="44.32946" lon="4.8356">
        <ele>132.4</ele>
        <time>2018-04-24T08:48:45Z</time>
      </trkpt>
      <trkpt lat="44.3295" lon="4.83573">
        <ele>132.2</ele>
        <time>2018-04-24T08:48:47Z</time>
      </trkpt>
      <trkpt lat="44.3295" lon="4.83588">
        <ele>131.8</ele>
        <time>2018-04-24T08:48:49Z</time>
      </trkpt>
      <trkpt lat="44.32947" lon="4.83604">
        <ele>131.5</ele>
        <time>2018-04-24T08:48:51Z</time>
      </trkpt>
      <trkpt lat="44.32944" lon="4.8362">
        <ele>131.2</ele>
        <time>2018-04-24T08:48:53Z</time>
      </trkpt>
      <trkpt lat="44.32939" lon="4.83636">
        <ele>130.8</ele>
        <time>2018-04-24T08:48:55Z</time>
      </trkpt>
      <trkpt lat="44.32933" lon="4.83651">
        <ele>130.7</ele>
        <time>2018-04-24T08:48:57Z</time>
      </trkpt>
      <trkpt lat="44.32927" lon="4.83665">
        <ele>130.4</ele>
        <time>2018-04-24T08:48:59Z</time>
      </trkpt>
      <trkpt lat="44.32919" lon="4.83678">
        <ele>130</ele>
        <time>2018-04-24T08:49:01Z</time>
      </trkpt>
      <trkpt lat="44.32911" lon="4.8369">
        <ele>129.7</ele>
        <time>2018-04-24T08:49:03Z</time>
      </trkpt>
      <trkpt lat="44.32905" lon="4.83703">
        <ele>129.4</ele>
        <time>2018-04-24T08:49:05Z</time>
      </trkpt>
      <trkpt lat="44.32898" lon="4.83717">
        <ele>129</ele>
        <time>2018-04-24T08:49:07Z</time>
      </trkpt>
      <trkpt lat="44.3289" lon="4.8373">
        <ele>128.5</ele>
        <time>2018-04-24T08:49:09Z</time>
      </trkpt>
      <trkpt lat="44.32883" lon="4.83743">
        <ele>128.3</ele>
        <time>2018-04-24T08:49:11Z</time>
      </trkpt>
      <trkpt lat="44.32879" lon="4.83757">
        <ele>128.4</ele>
        <time>2018-04-24T08:49:13Z</time>
      </trkpt>
      <trkpt lat="44.32874" lon="4.8377">
        <ele>128.2</ele>
        <time>2018-04-24T08:49:15Z</time>
      </trkpt>
      <trkpt lat="44.32868" lon="4.83783">
        <ele>128.1</ele>
        <time>2018-04-24T08:49:17Z</time>
      </trkpt>
      <trkpt lat="44.32863" lon="4.83797">
        <ele>127.7</ele>
        <time>2018-04-24T08:49:20Z</time>
      </trkpt>
      <trkpt lat="44.32851" lon="4.83804">
        <ele>127.3</ele>
        <time>2018-04-24T08:49:23Z</time>
      </trkpt>
      <trkpt lat="44.32842" lon="4.83805">
        <ele>127.3</ele>
        <time>2018-04-24T08:49:25Z</time>
      </trkpt>
      <trkpt lat="44.32832" lon="4.83809">
        <ele>127.3</ele>
        <time>2018-04-24T08:49:27Z</time>
      </trkpt>
      <trkpt lat="44.32822" lon="4.83816">
        <ele>127.1</ele>
        <time>2018-04-24T08:49:29Z</time>
      </trkpt>
      <trkpt lat="44.3281" lon="4.8382">
        <ele>126.9</ele>
        <time>2018-04-24T08:49:31Z</time>
      </trkpt>
      <trkpt lat="44.32799" lon="4.83818">
        <ele>126.8</ele>
        <time>2018-04-24T08:49:33Z</time>
      </trkpt>
      <trkpt lat="44.32788" lon="4.83813">
        <ele>126.7</ele>
        <time>2018-04-24T08:49:35Z</time>
      </trkpt>
      <trkpt lat="44.32778" lon="4.83807">
        <ele>126.5</ele>
        <time>2018-04-24T08:49:37Z</time>
      </trkpt>
      <trkpt lat="44.32768" lon="4.83808">
        <ele>126.3</ele>
        <time>2018-04-24T08:49:39Z</time>
      </trkpt>
      <trkpt lat="44.32756" lon="4.83815">
        <ele>125.9</ele>
        <time>2018-04-24T08:49:42Z</time>
      </trkpt>
      <trkpt lat="44.32746" lon="4.83816">
        <ele>125.6</ele>
        <time>2018-04-24T08:49:44Z</time>
      </trkpt>
      <trkpt lat="44.32737" lon="4.83814">
        <ele>125.4</ele>
        <time>2018-04-24T08:49:46Z</time>
      </trkpt>
      <trkpt lat="44.32723" lon="4.83812">
        <ele>125.3</ele>
        <time>2018-04-24T08:49:49Z</time>
      </trkpt>
      <trkpt lat="44.32713" lon="4.83809">
        <ele>125.3</ele>
        <time>2018-04-24T08:49:51Z</time>
      </trkpt>
      <trkpt lat="44.32702" lon="4.83808">
        <ele>125.2</ele>
        <time>2018-04-24T08:49:53Z</time>
      </trkpt>
      <trkpt lat="44.32692" lon="4.83805">
        <ele>125.3</ele>
        <time>2018-04-24T08:49:55Z</time>
      </trkpt>
      <trkpt lat="44.32681" lon="4.83802">
        <ele>125.3</ele>
        <time>2018-04-24T08:49:57Z</time>
      </trkpt>
      <trkpt lat="44.32672" lon="4.83797">
        <ele>125.1</ele>
        <time>2018-04-24T08:49:59Z</time>
      </trkpt>
      <trkpt lat="44.32661" lon="4.83789">
        <ele>125</ele>
        <time>2018-04-24T08:50:01Z</time>
      </trkpt>
      <trkpt lat="44.32651" lon="4.83781">
        <ele>125.2</ele>
        <time>2018-04-24T08:50:03Z</time>
      </trkpt>
      <trkpt lat="44.32643" lon="4.83773">
        <ele>125.3</ele>
        <time>2018-04-24T08:50:05Z</time>
      </trkpt>
      <trkpt lat="44.32631" lon="4.83764">
        <ele>125.3</ele>
        <time>2018-04-24T08:50:08Z</time>
      </trkpt>
      <trkpt lat="44.32616" lon="4.83756">
        <ele>125.2</ele>
        <time>2018-04-24T08:50:10Z</time>
      </trkpt>
      <trkpt lat="44.32605" lon="4.83747">
        <ele>124.9</ele>
        <time>2018-04-24T08:50:12Z</time>
      </trkpt>
      <trkpt lat="44.32593" lon="4.83738">
        <ele>124.7</ele>
        <time>2018-04-24T08:50:14Z</time>
      </trkpt>
      <trkpt lat="44.3258" lon="4.83731">
        <ele>124.6</ele>
        <time>2018-04-24T08:50:16Z</time>
      </trkpt>
      <trkpt lat="44.32568" lon="4.83728">
        <ele>124.8</ele>
        <time>2018-04-24T08:50:18Z</time>
      </trkpt>
      <trkpt lat="44.32555" lon="4.83725">
        <ele>124.5</ele>
        <time>2018-04-24T08:50:20Z</time>
      </trkpt>
      <trkpt lat="44.32545" lon="4.83721">
        <ele>124.3</ele>
        <time>2018-04-24T08:50:22Z</time>
      </trkpt>
      <trkpt lat="44.32535" lon="4.83718">
        <ele>124.2</ele>
        <time>2018-04-24T08:50:24Z</time>
      </trkpt>
      <trkpt lat="44.32525" lon="4.83718">
        <ele>124.1</ele>
        <time>2018-04-24T08:50:26Z</time>
      </trkpt>
      <trkpt lat="44.32514" lon="4.83722">
        <ele>123.8</ele>
        <time>2018-04-24T08:50:29Z</time>
      </trkpt>
      <trkpt lat="44.32504" lon="4.83724">
        <ele>123.4</ele>
        <time>2018-04-24T08:50:32Z</time>
      </trkpt>
      <trkpt lat="44.32496" lon="4.83717">
        <ele>123.6</ele>
        <time>2018-04-24T08:50:36Z</time>
      </trkpt>
      <trkpt lat="44.32489" lon="4.83708">
        <ele>123.6</ele>
        <time>2018-04-24T08:50:39Z</time>
      </trkpt>
      <trkpt lat="44.3248" lon="4.83704">
        <ele>123.6</ele>
        <time>2018-04-24T08:50:42Z</time>
      </trkpt>
      <trkpt lat="44.32475" lon="4.83693">
        <ele>123.7</ele>
        <time>2018-04-24T08:50:45Z</time>
      </trkpt>
      <trkpt lat="44.32467" lon="4.83684">
        <ele>123.6</ele>
        <time>2018-04-24T08:50:47Z</time>
      </trkpt>
      <trkpt lat="44.32461" lon="4.83674">
        <ele>123.6</ele>
        <time>2018-04-24T08:50:49Z</time>
      </trkpt>
      <trkpt lat="44.32453" lon="4.8366">
        <ele>123.5</ele>
        <time>2018-04-24T08:50:52Z</time>
      </trkpt>
      <trkpt lat="44.32446" lon="4.8365">
        <ele>123.4</ele>
        <time>2018-04-24T08:50:54Z</time>
      </trkpt>
      <trkpt lat="44.32434" lon="4.83636">
        <ele>123.2</ele>
        <time>2018-04-24T08:50:57Z</time>
      </trkpt>
      <trkpt lat="44.32426" lon="4.83627">
        <ele>122.8</ele>
        <time>2018-04-24T08:50:59Z</time>
      </trkpt>
      <trkpt lat="44.32416" lon="4.8361">
        <ele>122.4</ele>
        <time>2018-04-24T08:51:02Z</time>
      </trkpt>
      <trkpt lat="44.32408" lon="4.83602">
        <ele>122.4</ele>
        <time>2018-04-24T08:51:03Z</time>
      </trkpt>
      <trkpt lat="44.32398" lon="4.83591">
        <ele>122</ele>
        <time>2018-04-24T08:51:05Z</time>
      </trkpt>
      <trkpt lat="44.32389" lon="4.83579">
        <ele>121.8</ele>
        <time>2018-04-24T08:51:07Z</time>
      </trkpt>
      <trkpt lat="44.32382" lon="4.83567">
        <ele>121.6</ele>
        <time>2018-04-24T08:51:09Z</time>
      </trkpt>
      <trkpt lat="44.32371" lon="4.83553">
        <ele>121.3</ele>
        <time>2018-04-24T08:51:11Z</time>
      </trkpt>
      <trkpt lat="44.32363" lon="4.8354">
        <ele>120.9</ele>
        <time>2018-04-24T08:51:13Z</time>
      </trkpt>
      <trkpt lat="44.32354" lon="4.83533">
        <ele>120.5</ele>
        <time>2018-04-24T08:51:15Z</time>
      </trkpt>
      <trkpt lat="44.32346" lon="4.83523">
        <ele>120.3</ele>
        <time>2018-04-24T08:51:17Z</time>
      </trkpt>
      <trkpt lat="44.32331" lon="4.83515">
        <ele>119.9</ele>
        <time>2018-04-24T08:51:19Z</time>
      </trkpt>
      <trkpt lat="44.32322" lon="4.83518">
        <ele>119.7</ele>
        <time>2018-04-24T08:51:21Z</time>
      </trkpt>
      <trkpt lat="44.32313" lon="4.83522">
        <ele>119.4</ele>
        <time>2018-04-24T08:51:23Z</time>
      </trkpt>
      <trkpt lat="44.323" lon="4.83523">
        <ele>119.3</ele>
        <time>2018-04-24T08:51:25Z</time>
      </trkpt>
      <trkpt lat="44.32288" lon="4.83526">
        <ele>118.8</ele>
        <time>2018-04-24T08:51:27Z</time>
      </trkpt>
      <trkpt lat="44.32281" lon="4.83537">
        <ele>118.4</ele>
        <time>2018-04-24T08:51:29Z</time>
      </trkpt>
      <trkpt lat="44.32276" lon="4.83549">
        <ele>118</ele>
        <time>2018-04-24T08:51:31Z</time>
      </trkpt>
      <trkpt lat="44.32269" lon="4.8356">
        <ele>117.8</ele>
        <time>2018-04-24T08:51:33Z</time>
      </trkpt>
      <trkpt lat="44.32259" lon="4.8357">
        <ele>117.5</ele>
        <time>2018-04-24T08:51:36Z</time>
      </trkpt>
      <trkpt lat="44.32245" lon="4.83573">
        <ele>117.3</ele>
        <time>2018-04-24T08:51:39Z</time>
      </trkpt>
      <trkpt lat="44.32236" lon="4.83572">
        <ele>117</ele>
        <time>2018-04-24T08:51:41Z</time>
      </trkpt>
      <trkpt lat="44.32226" lon="4.83566">
        <ele>116.4</ele>
        <time>2018-04-24T08:51:44Z</time>
      </trkpt>
      <trkpt lat="44.32216" lon="4.83561">
        <ele>116.1</ele>
        <time>2018-04-24T08:51:46Z</time>
      </trkpt>
      <trkpt lat="44.32205" lon="4.83557">
        <ele>115.8</ele>
        <time>2018-04-24T08:51:48Z</time>
      </trkpt>
      <trkpt lat="44.32195" lon="4.83552">
        <ele>115.5</ele>
        <time>2018-04-24T08:51:50Z</time>
      </trkpt>
      <trkpt lat="44.32184" lon="4.83542">
        <ele>114.9</ele>
        <time>2018-04-24T08:51:53Z</time>
      </trkpt>
      <trkpt lat="44.32173" lon="4.83539">
        <ele>114.6</ele>
        <time>2018-04-24T08:51:55Z</time>
      </trkpt>
      <trkpt lat="44.32164" lon="4.83533">
        <ele>114.5</ele>
        <time>2018-04-24T08:51:57Z</time>
      </trkpt>
      <trkpt lat="44.32155" lon="4.83527">
        <ele>114.2</ele>
        <time>2018-04-24T08:51:59Z</time>
      </trkpt>
      <trkpt lat="44.32146" lon="4.83521">
        <ele>114.1</ele>
        <time>2018-04-24T08:52:01Z</time>
      </trkpt>
      <trkpt lat="44.32135" lon="4.83518">
        <ele>113.8</ele>
        <time>2018-04-24T08:52:04Z</time>
      </trkpt>
      <trkpt lat="44.32128" lon="4.83527">
        <ele>113.4</ele>
        <time>2018-04-24T08:52:08Z</time>
      </trkpt>
      <trkpt lat="44.32123" lon="4.83541">
        <ele>110.7</ele>
        <time>2018-04-24T08:53:43Z</time>
      </trkpt>
      <trkpt lat="44.32114" lon="4.83543">
        <ele>111</ele>
        <time>2018-04-24T08:53:47Z</time>
      </trkpt>
      <trkpt lat="44.32103" lon="4.83548">
        <ele>111</ele>
        <time>2018-04-24T08:53:51Z</time>
      </trkpt>
      <trkpt lat="44.32098" lon="4.83558">
        <ele>111.3</ele>
        <time>2018-04-24T08:53:54Z</time>
      </trkpt>
      <trkpt lat="44.32092" lon="4.83571">
        <ele>111.7</ele>
        <time>2018-04-24T08:53:57Z</time>
      </trkpt>
      <trkpt lat="44.32085" lon="4.83584">
        <ele>112.9</ele>
        <time>2018-04-24T08:54:01Z</time>
      </trkpt>
      <trkpt lat="44.3208" lon="4.83597">
        <ele>113.9</ele>
        <time>2018-04-24T08:54:05Z</time>
      </trkpt>
      <trkpt lat="44.32074" lon="4.83609">
        <ele>115.5</ele>
        <time>2018-04-24T08:54:09Z</time>
      </trkpt>
      <trkpt lat="44.32067" lon="4.83618">
        <ele>116.4</ele>
        <time>2018-04-24T08:54:12Z</time>
      </trkpt>
      <trkpt lat="44.32059" lon="4.83628">
        <ele>117.5</ele>
        <time>2018-04-24T08:54:15Z</time>
      </trkpt>
      <trkpt lat="44.3205" lon="4.83637">
        <ele>118.4</ele>
        <time>2018-04-24T08:54:19Z</time>
      </trkpt>
      <trkpt lat="44.32041" lon="4.83647">
        <ele>119.2</ele>
        <time>2018-04-24T08:54:23Z</time>
      </trkpt>
      <trkpt lat="44.32033" lon="4.83654">
        <ele>120.2</ele>
        <time>2018-04-24T08:54:26Z</time>
      </trkpt>
      <trkpt lat="44.32025" lon="4.83661">
        <ele>120.6</ele>
        <time>2018-04-24T08:54:29Z</time>
      </trkpt>
      <trkpt lat="44.32018" lon="4.83669">
        <ele>121.2</ele>
        <time>2018-04-24T08:54:32Z</time>
      </trkpt>
      <trkpt lat="44.32008" lon="4.83679">
        <ele>121.8</ele>
        <time>2018-04-24T08:54:35Z</time>
      </trkpt>
      <trkpt lat="44.31996" lon="4.83681">
        <ele>122.6</ele>
        <time>2018-04-24T08:54:40Z</time>
      </trkpt>
      <trkpt lat="44.31987" lon="4.83682">
        <ele>123.1</ele>
        <time>2018-04-24T08:54:43Z</time>
      </trkpt>
      <trkpt lat="44.31976" lon="4.83682">
        <ele>124.2</ele>
        <time>2018-04-24T08:54:48Z</time>
      </trkpt>
      <trkpt lat="44.31965" lon="4.83679">
        <ele>125.2</ele>
        <time>2018-04-24T08:54:52Z</time>
      </trkpt>
      <trkpt lat="44.31953" lon="4.83675">
        <ele>126</ele>
        <time>2018-04-24T08:54:56Z</time>
      </trkpt>
      <trkpt lat="44.3194" lon="4.83671">
        <ele>126.6</ele>
        <time>2018-04-24T08:54:59Z</time>
      </trkpt>
      <trkpt lat="44.3193" lon="4.83666">
        <ele>127.4</ele>
        <time>2018-04-24T08:55:03Z</time>
      </trkpt>
      <trkpt lat="44.31918" lon="4.83662">
        <ele>128</ele>
        <time>2018-04-24T08:55:06Z</time>
      </trkpt>
      <trkpt lat="44.3191" lon="4.83657">
        <ele>128.2</ele>
        <time>2018-04-24T08:55:08Z</time>
      </trkpt>
      <trkpt lat="44.31901" lon="4.83651">
        <ele>128.3</ele>
        <time>2018-04-24T08:55:10Z</time>
      </trkpt>
      <trkpt lat="44.31893" lon="4.83644">
        <ele>128.6</ele>
        <time>2018-04-24T08:55:12Z</time>
      </trkpt>
      <trkpt lat="44.31878" lon="4.83637">
        <ele>128.7</ele>
        <time>2018-04-24T08:55:15Z</time>
      </trkpt>
      <trkpt lat="44.31869" lon="4.83633">
        <ele>128.7</ele>
        <time>2018-04-24T08:55:17Z</time>
      </trkpt>
      <trkpt lat="44.31859" lon="4.8363">
        <ele>128.7</ele>
        <time>2018-04-24T08:55:19Z</time>
      </trkpt>
      <trkpt lat="44.31848" lon="4.83629">
        <ele>128.6</ele>
        <time>2018-04-24T08:55:22Z</time>
      </trkpt>
      <trkpt lat="44.31838" lon="4.83628">
        <ele>128.6</ele>
        <time>2018-04-24T08:55:24Z</time>
      </trkpt>
      <trkpt lat="44.31826" lon="4.8363">
        <ele>128.7</ele>
        <time>2018-04-24T08:55:26Z</time>
      </trkpt>
      <trkpt lat="44.31817" lon="4.83637">
        <ele>128.5</ele>
        <time>2018-04-24T08:55:28Z</time>
      </trkpt>
      <trkpt lat="44.31811" lon="4.83646">
        <ele>128.6</ele>
        <time>2018-04-24T08:55:30Z</time>
      </trkpt>
      <trkpt lat="44.31802" lon="4.83653">
        <ele>128.6</ele>
        <time>2018-04-24T08:55:32Z</time>
      </trkpt>
      <trkpt lat="44.31794" lon="4.83659">
        <ele>128.9</ele>
        <time>2018-04-24T08:55:34Z</time>
      </trkpt>
      <trkpt lat="44.31785" lon="4.83663">
        <ele>129</ele>
        <time>2018-04-24T08:55:36Z</time>
      </trkpt>
      <trkpt lat="44.31775" lon="4.83668">
        <ele>129</ele>
        <time>2018-04-24T08:55:38Z</time>
      </trkpt>
      <trkpt lat="44.31767" lon="4.83675">
        <ele>129.1</ele>
        <time>2018-04-24T08:55:40Z</time>
      </trkpt>
      <trkpt lat="44.31756" lon="4.83682">
        <ele>129.2</ele>
        <time>2018-04-24T08:55:42Z</time>
      </trkpt>
      <trkpt lat="44.31746" lon="4.83688">
        <ele>129.4</ele>
        <time>2018-04-24T08:55:44Z</time>
      </trkpt>
      <trkpt lat="44.31737" lon="4.83694">
        <ele>129.1</ele>
        <time>2018-04-24T08:55:46Z</time>
      </trkpt>
      <trkpt lat="44.31726" lon="4.83706">
        <ele>128.6</ele>
        <time>2018-04-24T08:55:48Z</time>
      </trkpt>
      <trkpt lat="44.31715" lon="4.83715">
        <ele>128.4</ele>
        <time>2018-04-24T08:55:50Z</time>
      </trkpt>
      <trkpt lat="44.31703" lon="4.83724">
        <ele>127.9</ele>
        <time>2018-04-24T08:55:52Z</time>
      </trkpt>
      <trkpt lat="44.31693" lon="4.83727">
        <ele>127</ele>
        <time>2018-04-24T08:55:54Z</time>
      </trkpt>
      <trkpt lat="44.31681" lon="4.83729">
        <ele>126.5</ele>
        <time>2018-04-24T08:55:56Z</time>
      </trkpt>
      <trkpt lat="44.31669" lon="4.8373">
        <ele>126.2</ele>
        <time>2018-04-24T08:55:58Z</time>
      </trkpt>
      <trkpt lat="44.31658" lon="4.83734">
        <ele>125.9</ele>
        <time>2018-04-24T08:56:00Z</time>
      </trkpt>
      <trkpt lat="44.31644" lon="4.83737">
        <ele>125.6</ele>
        <time>2018-04-24T08:56:03Z</time>
      </trkpt>
      <trkpt lat="44.31628" lon="4.83739">
        <ele>125.7</ele>
        <time>2018-04-24T08:56:05Z</time>
      </trkpt>
      <trkpt lat="44.31615" lon="4.83739">
        <ele>125.7</ele>
        <time>2018-04-24T08:56:07Z</time>
      </trkpt>
      <trkpt lat="44.31602" lon="4.83742">
        <ele>125.7</ele>
        <time>2018-04-24T08:56:09Z</time>
      </trkpt>
      <trkpt lat="44.31587" lon="4.83744">
        <ele>125.5</ele>
        <time>2018-04-24T08:56:11Z</time>
      </trkpt>
      <trkpt lat="44.31573" lon="4.83747">
        <ele>125.4</ele>
        <time>2018-04-24T08:56:13Z</time>
      </trkpt>
      <trkpt lat="44.31559" lon="4.83746">
        <ele>125.2</ele>
        <time>2018-04-24T08:56:15Z</time>
      </trkpt>
      <trkpt lat="44.31545" lon="4.83746">
        <ele>124.9</ele>
        <time>2018-04-24T08:56:17Z</time>
      </trkpt>
      <trkpt lat="44.31535" lon="4.83745">
        <ele>124.7</ele>
        <time>2018-04-24T08:56:19Z</time>
      </trkpt>
      <trkpt lat="44.31521" lon="4.83743">
        <ele>124.4</ele>
        <time>2018-04-24T08:56:21Z</time>
      </trkpt>
      <trkpt lat="44.31503" lon="4.83735">
        <ele>124.1</ele>
        <time>2018-04-24T08:56:23Z</time>
      </trkpt>
      <trkpt lat="44.31494" lon="4.83728">
        <ele>123.8</ele>
        <time>2018-04-24T08:56:25Z</time>
      </trkpt>
      <trkpt lat="44.31489" lon="4.83717">
        <ele>123.4</ele>
        <time>2018-04-24T08:56:28Z</time>
      </trkpt>
      <trkpt lat="44.31489" lon="4.83704">
        <ele>123.1</ele>
        <time>2018-04-24T08:56:35Z</time>
      </trkpt>
      <trkpt lat="44.31497" lon="4.83698">
        <ele>123.7</ele>
        <time>2018-04-24T08:56:39Z</time>
      </trkpt>
      <trkpt lat="44.31508" lon="4.83697">
        <ele>125.2</ele>
        <time>2018-04-24T08:56:45Z</time>
      </trkpt>
      <trkpt lat="44.31518" lon="4.83704">
        <ele>127.2</ele>
        <time>2018-04-24T08:56:51Z</time>
      </trkpt>
      <trkpt lat="44.31528" lon="4.83707">
        <ele>128.7</ele>
        <time>2018-04-24T08:56:56Z</time>
      </trkpt>
      <trkpt lat="44.31538" lon="4.83708">
        <ele>129.9</ele>
        <time>2018-04-24T08:57:01Z</time>
      </trkpt>
      <trkpt lat="44.3155" lon="4.8371">
        <ele>130.6</ele>
        <time>2018-04-24T08:57:06Z</time>
      </trkpt>
      <trkpt lat="44.31559" lon="4.83708">
        <ele>131.2</ele>
        <time>2018-04-24T08:57:09Z</time>
      </trkpt>
      <trkpt lat="44.31572" lon="4.83707">
        <ele>131.7</ele>
        <time>2018-04-24T08:57:12Z</time>
      </trkpt>
      <trkpt lat="44.31582" lon="4.83703">
        <ele>132.2</ele>
        <time>2018-04-24T08:57:15Z</time>
      </trkpt>
      <trkpt lat="44.31592" lon="4.83699">
        <ele>132.8</ele>
        <time>2018-04-24T08:57:19Z</time>
      </trkpt>
      <trkpt lat="44.31601" lon="4.83694">
        <ele>133.5</ele>
        <time>2018-04-24T08:57:22Z</time>
      </trkpt>
      <trkpt lat="44.31608" lon="4.83684">
        <ele>134.3</ele>
        <time>2018-04-24T08:57:25Z</time>
      </trkpt>
      <trkpt lat="44.31613" lon="4.83672">
        <ele>135.4</ele>
        <time>2018-04-24T08:57:30Z</time>
      </trkpt>
      <trkpt lat="44.31624" lon="4.83665">
        <ele>137.2</ele>
        <time>2018-04-24T08:57:35Z</time>
      </trkpt>
      <trkpt lat="44.31634" lon="4.83661">
        <ele>138.1</ele>
        <time>2018-04-24T08:57:38Z</time>
      </trkpt>
      <trkpt lat="44.31644" lon="4.83656">
        <ele>139.7</ele>
        <time>2018-04-24T08:57:42Z</time>
      </trkpt>
      <trkpt lat="44.31654" lon="4.83651">
        <ele>141</ele>
        <time>2018-04-24T08:57:46Z</time>
      </trkpt>
      <trkpt lat="44.31663" lon="4.83646">
        <ele>141.9</ele>
        <time>2018-04-24T08:57:50Z</time>
      </trkpt>
      <trkpt lat="44.31674" lon="4.83641">
        <ele>142.1</ele>
        <time>2018-04-24T08:57:53Z</time>
      </trkpt>
      <trkpt lat="44.31685" lon="4.8364">
        <ele>141.9</ele>
        <time>2018-04-24T08:57:56Z</time>
      </trkpt>
      <trkpt lat="44.31695" lon="4.83629">
        <ele>140.8</ele>
        <time>2018-04-24T08:58:00Z</time>
      </trkpt>
      <trkpt lat="44.31699" lon="4.83613">
        <ele>139.4</ele>
        <time>2018-04-24T08:58:03Z</time>
      </trkpt>
      <trkpt lat="44.31693" lon="4.83598">
        <ele>138.2</ele>
        <time>2018-04-24T08:58:06Z</time>
      </trkpt>
      <trkpt lat="44.31685" lon="4.83585">
        <ele>137.6</ele>
        <time>2018-04-24T08:58:08Z</time>
      </trkpt>
      <trkpt lat="44.31679" lon="4.83573">
        <ele>136.6</ele>
        <time>2018-04-24T08:58:10Z</time>
      </trkpt>
      <trkpt lat="44.31671" lon="4.83564">
        <ele>135.7</ele>
        <time>2018-04-24T08:58:12Z</time>
      </trkpt>
      <trkpt lat="44.31663" lon="4.83555">
        <ele>134.8</ele>
        <time>2018-04-24T08:58:14Z</time>
      </trkpt>
      <trkpt lat="44.3165" lon="4.83546">
        <ele>133.9</ele>
        <time>2018-04-24T08:58:16Z</time>
      </trkpt>
      <trkpt lat="44.31637" lon="4.83537">
        <ele>133.1</ele>
        <time>2018-04-24T08:58:18Z</time>
      </trkpt>
      <trkpt lat="44.31623" lon="4.83528">
        <ele>132.5</ele>
        <time>2018-04-24T08:58:20Z</time>
      </trkpt>
      <trkpt lat="44.31615" lon="4.83522">
        <ele>132.3</ele>
        <time>2018-04-24T08:58:21Z</time>
      </trkpt>
      <trkpt lat="44.31603" lon="4.83514">
        <ele>131.4</ele>
        <time>2018-04-24T08:58:23Z</time>
      </trkpt>
      <trkpt lat="44.31589" lon="4.83507">
        <ele>130.8</ele>
        <time>2018-04-24T08:58:25Z</time>
      </trkpt>
      <trkpt lat="44.31574" lon="4.83501">
        <ele>129.8</ele>
        <time>2018-04-24T08:58:27Z</time>
      </trkpt>
      <trkpt lat="44.31562" lon="4.83507">
        <ele>129.3</ele>
        <time>2018-04-24T08:58:29Z</time>
      </trkpt>
      <trkpt lat="44.31551" lon="4.83512">
        <ele>128.8</ele>
        <time>2018-04-24T08:58:31Z</time>
      </trkpt>
      <trkpt lat="44.31535" lon="4.83517">
        <ele>128.2</ele>
        <time>2018-04-24T08:58:33Z</time>
      </trkpt>
      <trkpt lat="44.31524" lon="4.83524">
        <ele>127.8</ele>
        <time>2018-04-24T08:58:35Z</time>
      </trkpt>
      <trkpt lat="44.31511" lon="4.83531">
        <ele>127.3</ele>
        <time>2018-04-24T08:58:37Z</time>
      </trkpt>
      <trkpt lat="44.31497" lon="4.83539">
        <ele>127.1</ele>
        <time>2018-04-24T08:58:39Z</time>
      </trkpt>
      <trkpt lat="44.31488" lon="4.8355">
        <ele>126.3</ele>
        <time>2018-04-24T08:58:42Z</time>
      </trkpt>
      <trkpt lat="44.31483" lon="4.83562">
        <ele>125.6</ele>
        <time>2018-04-24T08:58:45Z</time>
      </trkpt>
      <trkpt lat="44.31478" lon="4.83578">
        <ele>125</ele>
        <time>2018-04-24T08:58:48Z</time>
      </trkpt>
      <trkpt lat="44.31475" lon="4.83594">
        <ele>124.6</ele>
        <time>2018-04-24T08:58:51Z</time>
      </trkpt>
      <trkpt lat="44.31472" lon="4.83609">
        <ele>124.1</ele>
        <time>2018-04-24T08:58:54Z</time>
      </trkpt>
      <trkpt lat="44.3147" lon="4.83624">
        <ele>123.9</ele>
        <time>2018-04-24T08:58:57Z</time>
      </trkpt>
      <trkpt lat="44.31465" lon="4.83639">
        <ele>123.6</ele>
        <time>2018-04-24T08:59:00Z</time>
      </trkpt>
      <trkpt lat="44.31457" lon="4.83653">
        <ele>123.1</ele>
        <time>2018-04-24T08:59:03Z</time>
      </trkpt>
      <trkpt lat="44.31446" lon="4.83662">
        <ele>122.7</ele>
        <time>2018-04-24T08:59:06Z</time>
      </trkpt>
      <trkpt lat="44.31437" lon="4.83674">
        <ele>122.2</ele>
        <time>2018-04-24T08:59:09Z</time>
      </trkpt>
      <trkpt lat="44.31434" lon="4.8369">
        <ele>121.9</ele>
        <time>2018-04-24T08:59:12Z</time>
      </trkpt>
      <trkpt lat="44.31437" lon="4.83707">
        <ele>121.6</ele>
        <time>2018-04-24T08:59:15Z</time>
      </trkpt>
      <trkpt lat="44.31443" lon="4.8372">
        <ele>121.1</ele>
        <time>2018-04-24T08:59:18Z</time>
      </trkpt>
      <trkpt lat="44.31453" lon="4.8373">
        <ele>120.5</ele>
        <time>2018-04-24T08:59:21Z</time>
      </trkpt>
      <trkpt lat="44.31457" lon="4.83743">
        <ele>120.3</ele>
        <time>2018-04-24T08:59:25Z</time>
      </trkpt>
      <trkpt lat="44.31454" lon="4.83755">
        <ele>119.8</ele>
        <time>2018-04-24T08:59:31Z</time>
      </trkpt>
      <trkpt lat="44.31446" lon="4.83762">
        <ele>120</ele>
        <time>2018-04-24T08:59:35Z</time>
      </trkpt>
      <trkpt lat="44.31438" lon="4.83768">
        <ele>120.5</ele>
        <time>2018-04-24T08:59:40Z</time>
      </trkpt>
      <trkpt lat="44.3143" lon="4.83774">
        <ele>121.2</ele>
        <time>2018-04-24T08:59:43Z</time>
      </trkpt>
      <trkpt lat="44.31421" lon="4.83779">
        <ele>122.3</ele>
        <time>2018-04-24T08:59:47Z</time>
      </trkpt>
      <trkpt lat="44.31419" lon="4.83792">
        <ele>123.5</ele>
        <time>2018-04-24T08:59:51Z</time>
      </trkpt>
      <trkpt lat="44.31414" lon="4.83806">
        <ele>124.7</ele>
        <time>2018-04-24T08:59:55Z</time>
      </trkpt>
      <trkpt lat="44.31408" lon="4.83818">
        <ele>125.4</ele>
        <time>2018-04-24T08:59:58Z</time>
      </trkpt>
      <trkpt lat="44.31397" lon="4.83828">
        <ele>125.7</ele>
        <time>2018-04-24T09:00:01Z</time>
      </trkpt>
      <trkpt lat="44.31388" lon="4.83833">
        <ele>125.8</ele>
        <time>2018-04-24T09:00:03Z</time>
      </trkpt>
      <trkpt lat="44.31378" lon="4.83837">
        <ele>126</ele>
        <time>2018-04-24T09:00:05Z</time>
      </trkpt>
      <trkpt lat="44.31367" lon="4.83846">
        <ele>125.9</ele>
        <time>2018-04-24T09:00:08Z</time>
      </trkpt>
      <trkpt lat="44.31358" lon="4.83853">
        <ele>126</ele>
        <time>2018-04-24T09:00:10Z</time>
      </trkpt>
      <trkpt lat="44.3135" lon="4.83861">
        <ele>126</ele>
        <time>2018-04-24T09:00:12Z</time>
      </trkpt>
      <trkpt lat="44.31339" lon="4.83869">
        <ele>126</ele>
        <time>2018-04-24T09:00:14Z</time>
      </trkpt>
      <trkpt lat="44.3133" lon="4.83877">
        <ele>125.8</ele>
        <time>2018-04-24T09:00:16Z</time>
      </trkpt>
      <trkpt lat="44.3132" lon="4.83887">
        <ele>125.5</ele>
        <time>2018-04-24T09:00:18Z</time>
      </trkpt>
      <trkpt lat="44.31313" lon="4.83896">
        <ele>125.1</ele>
        <time>2018-04-24T09:00:20Z</time>
      </trkpt>
      <trkpt lat="44.31305" lon="4.83905">
        <ele>125</ele>
        <time>2018-04-24T09:00:22Z</time>
      </trkpt>
      <trkpt lat="44.31297" lon="4.83913">
        <ele>124.8</ele>
        <time>2018-04-24T09:00:24Z</time>
      </trkpt>
      <trkpt lat="44.31289" lon="4.83919">
        <ele>124.4</ele>
        <time>2018-04-24T09:00:26Z</time>
      </trkpt>
      <trkpt lat="44.31277" lon="4.83923">
        <ele>124.2</ele>
        <time>2018-04-24T09:00:29Z</time>
      </trkpt>
      <trkpt lat="44.31264" lon="4.83926">
        <ele>123.8</ele>
        <time>2018-04-24T09:00:32Z</time>
      </trkpt>
      <trkpt lat="44.31252" lon="4.83927">
        <ele>123.6</ele>
        <time>2018-04-24T09:00:35Z</time>
      </trkpt>
      <trkpt lat="44.31241" lon="4.83924">
        <ele>123.3</ele>
        <time>2018-04-24T09:00:37Z</time>
      </trkpt>
      <trkpt lat="44.31231" lon="4.83918">
        <ele>123.2</ele>
        <time>2018-04-24T09:00:39Z</time>
      </trkpt>
      <trkpt lat="44.31218" lon="4.83915">
        <ele>123</ele>
        <time>2018-04-24T09:00:42Z</time>
      </trkpt>
      <trkpt lat="44.31206" lon="4.83915">
        <ele>122.7</ele>
        <time>2018-04-24T09:00:45Z</time>
      </trkpt>
      <trkpt lat="44.31193" lon="4.83918">
        <ele>122</ele>
        <time>2018-04-24T09:00:48Z</time>
      </trkpt>
      <trkpt lat="44.31181" lon="4.83919">
        <ele>121.5</ele>
        <time>2018-04-24T09:00:51Z</time>
      </trkpt>
      <trkpt lat="44.31169" lon="4.83919">
        <ele>121.4</ele>
        <time>2018-04-24T09:00:54Z</time>
      </trkpt>
      <trkpt lat="44.31157" lon="4.83915">
        <ele>121.4</ele>
        <time>2018-04-24T09:00:57Z</time>
      </trkpt>
      <trkpt lat="44.31148" lon="4.83912">
        <ele>121.4</ele>
        <time>2018-04-24T09:00:59Z</time>
      </trkpt>
      <trkpt lat="44.31137" lon="4.83914">
        <ele>120.7</ele>
        <time>2018-04-24T09:01:02Z</time>
      </trkpt>
      <trkpt lat="44.31128" lon="4.83917">
        <ele>118.4</ele>
        <time>2018-04-24T09:01:30Z</time>
      </trkpt>
      <trkpt lat="44.31118" lon="4.83921">
        <ele>118.6</ele>
        <time>2018-04-24T09:02:37Z</time>
      </trkpt>
      <trkpt lat="44.31107" lon="4.8392">
        <ele>118.5</ele>
        <time>2018-04-24T09:02:43Z</time>
      </trkpt>
      <trkpt lat="44.31098" lon="4.8392">
        <ele>118.3</ele>
        <time>2018-04-24T09:02:46Z</time>
      </trkpt>
      <trkpt lat="44.31084" lon="4.83913">
        <ele>117.8</ele>
        <time>2018-04-24T09:02:49Z</time>
      </trkpt>
      <trkpt lat="44.31075" lon="4.83906">
        <ele>117.5</ele>
        <time>2018-04-24T09:02:51Z</time>
      </trkpt>
      <trkpt lat="44.31063" lon="4.839">
        <ele>117.2</ele>
        <time>2018-04-24T09:02:53Z</time>
      </trkpt>
      <trkpt lat="44.31053" lon="4.83898">
        <ele>117.2</ele>
        <time>2018-04-24T09:02:55Z</time>
      </trkpt>
      <trkpt lat="44.31042" lon="4.83894">
        <ele>117.2</ele>
        <time>2018-04-24T09:02:57Z</time>
      </trkpt>
      <trkpt lat="44.31032" lon="4.8389">
        <ele>117</ele>
        <time>2018-04-24T09:02:59Z</time>
      </trkpt>
      <trkpt lat="44.31023" lon="4.83891">
        <ele>116.9</ele>
        <time>2018-04-24T09:03:01Z</time>
      </trkpt>
      <trkpt lat="44.31013" lon="4.83903">
        <ele>116.9</ele>
        <time>2018-04-24T09:03:04Z</time>
      </trkpt>
      <trkpt lat="44.31006" lon="4.83913">
        <ele>117.1</ele>
        <time>2018-04-24T09:03:08Z</time>
      </trkpt>
      <trkpt lat="44.30997" lon="4.83917">
        <ele>117.7</ele>
        <time>2018-04-24T09:03:12Z</time>
      </trkpt>
      <trkpt lat="44.30986" lon="4.83914">
        <ele>118.3</ele>
        <time>2018-04-24T09:03:15Z</time>
      </trkpt>
      <trkpt lat="44.30974" lon="4.83913">
        <ele>119</ele>
        <time>2018-04-24T09:03:19Z</time>
      </trkpt>
      <trkpt lat="44.30965" lon="4.8391">
        <ele>119.4</ele>
        <time>2018-04-24T09:03:21Z</time>
      </trkpt>
      <trkpt lat="44.30955" lon="4.83906">
        <ele>119.7</ele>
        <time>2018-04-24T09:03:23Z</time>
      </trkpt>
      <trkpt lat="44.30943" lon="4.83904">
        <ele>120.1</ele>
        <time>2018-04-24T09:03:26Z</time>
      </trkpt>
      <trkpt lat="44.30931" lon="4.83903">
        <ele>120.5</ele>
        <time>2018-04-24T09:03:29Z</time>
      </trkpt>
      <trkpt lat="44.30919" lon="4.83901">
        <ele>120.7</ele>
        <time>2018-04-24T09:03:32Z</time>
      </trkpt>
      <trkpt lat="44.30906" lon="4.83899">
        <ele>121</ele>
        <time>2018-04-24T09:03:34Z</time>
      </trkpt>
      <trkpt lat="44.30894" lon="4.83896">
        <ele>121.2</ele>
        <time>2018-04-24T09:03:36Z</time>
      </trkpt>
      <trkpt lat="44.30885" lon="4.83893">
        <ele>121.2</ele>
        <time>2018-04-24T09:03:38Z</time>
      </trkpt>
      <trkpt lat="44.30874" lon="4.8389">
        <ele>121.3</ele>
        <time>2018-04-24T09:03:40Z</time>
      </trkpt>
      <trkpt lat="44.30859" lon="4.83884">
        <ele>121.5</ele>
        <time>2018-04-24T09:03:42Z</time>
      </trkpt>
      <trkpt lat="44.30846" lon="4.83879">
        <ele>121.7</ele>
        <time>2018-04-24T09:03:44Z</time>
      </trkpt>
      <trkpt lat="44.30835" lon="4.83875">
        <ele>121.8</ele>
        <time>2018-04-24T09:03:46Z</time>
      </trkpt>
      <trkpt lat="44.30824" lon="4.83872">
        <ele>122.2</ele>
        <time>2018-04-24T09:03:49Z</time>
      </trkpt>
      <trkpt lat="44.30815" lon="4.8387">
        <ele>122.6</ele>
        <time>2018-04-24T09:03:51Z</time>
      </trkpt>
      <trkpt lat="44.30801" lon="4.83871">
        <ele>122.9</ele>
        <time>2018-04-24T09:03:54Z</time>
      </trkpt>
      <trkpt lat="44.30792" lon="4.83873">
        <ele>123.1</ele>
        <time>2018-04-24T09:03:56Z</time>
      </trkpt>
      <trkpt lat="44.30778" lon="4.83877">
        <ele>123.5</ele>
        <time>2018-04-24T09:03:59Z</time>
      </trkpt>
      <trkpt lat="44.30768" lon="4.83878">
        <ele>123.5</ele>
        <time>2018-04-24T09:04:01Z</time>
      </trkpt>
      <trkpt lat="44.30758" lon="4.83876">
        <ele>123.5</ele>
        <time>2018-04-24T09:04:03Z</time>
      </trkpt>
      <trkpt lat="44.30746" lon="4.83873">
        <ele>123.6</ele>
        <time>2018-04-24T09:04:05Z</time>
      </trkpt>
      <trkpt lat="44.30734" lon="4.83869">
        <ele>123.7</ele>
        <time>2018-04-24T09:04:07Z</time>
      </trkpt>
      <trkpt lat="44.30723" lon="4.83869">
        <ele>123.2</ele>
        <time>2018-04-24T09:04:09Z</time>
      </trkpt>
      <trkpt lat="44.30713" lon="4.83881">
        <ele>123</ele>
        <time>2018-04-24T09:04:12Z</time>
      </trkpt>
      <trkpt lat="44.30707" lon="4.83891">
        <ele>122.8</ele>
        <time>2018-04-24T09:04:14Z</time>
      </trkpt>
      <trkpt lat="44.30702" lon="4.83902">
        <ele>122.6</ele>
        <time>2018-04-24T09:04:16Z</time>
      </trkpt>
      <trkpt lat="44.30699" lon="4.83916">
        <ele>122.3</ele>
        <time>2018-04-24T09:04:18Z</time>
      </trkpt>
      <trkpt lat="44.30695" lon="4.83929">
        <ele>122.2</ele>
        <time>2018-04-24T09:04:20Z</time>
      </trkpt>
      <trkpt lat="44.30691" lon="4.83943">
        <ele>122</ele>
        <time>2018-04-24T09:04:22Z</time>
      </trkpt>
      <trkpt lat="44.30685" lon="4.83956">
        <ele>121.9</ele>
        <time>2018-04-24T09:04:24Z</time>
      </trkpt>
      <trkpt lat="44.3068" lon="4.83968">
        <ele>121.7</ele>
        <time>2018-04-24T09:04:26Z</time>
      </trkpt>
      <trkpt lat="44.30675" lon="4.83982">
        <ele>121.6</ele>
        <time>2018-04-24T09:04:28Z</time>
      </trkpt>
      <trkpt lat="44.30669" lon="4.83996">
        <ele>121.2</ele>
        <time>2018-04-24T09:04:30Z</time>
      </trkpt>
      <trkpt lat="44.30662" lon="4.8401">
        <ele>120.9</ele>
        <time>2018-04-24T09:04:32Z</time>
      </trkpt>
      <trkpt lat="44.30654" lon="4.84019">
        <ele>119.8</ele>
        <time>2018-04-24T09:04:36Z</time>
      </trkpt>
      <trkpt lat="44.30644" lon="4.84024">
        <ele>119.1</ele>
        <time>2018-04-24T09:04:40Z</time>
      </trkpt>
      <trkpt lat="44.30632" lon="4.84022">
        <ele>118.6</ele>
        <time>2018-04-24T09:04:44Z</time>
      </trkpt>
      <trkpt lat="44.30618" lon="4.84021">
        <ele>118.2</ele>
        <time>2018-04-24T09:04:47Z</time>
      </trkpt>
      <trkpt lat="44.30607" lon="4.8402">
        <ele>117.6</ele>
        <time>2018-04-24T09:04:49Z</time>
      </trkpt>
      <trkpt lat="44.30598" lon="4.8402">
        <ele>116.7</ele>
        <time>2018-04-24T09:04:52Z</time>
      </trkpt>
      <trkpt lat="44.30589" lon="4.8403">
        <ele>116</ele>
        <time>2018-04-24T09:04:56Z</time>
      </trkpt>
      <trkpt lat="44.30588" lon="4.84049">
        <ele>115.4</ele>
        <time>2018-04-24T09:04:59Z</time>
      </trkpt>
      <trkpt lat="44.30586" lon="4.84063">
        <ele>114.9</ele>
        <time>2018-04-24T09:05:01Z</time>
      </trkpt>
      <trkpt lat="44.30586" lon="4.8408">
        <ele>114.4</ele>
        <time>2018-04-24T09:05:03Z</time>
      </trkpt>
      <trkpt lat="44.30585" lon="4.84095">
        <ele>113.9</ele>
        <time>2018-04-24T09:05:05Z</time>
      </trkpt>
      <trkpt lat="44.30586" lon="4.84107">
        <ele>112.9</ele>
        <time>2018-04-24T09:05:09Z</time>
      </trkpt>
      <trkpt lat="44.30594" lon="4.8412">
        <ele>112.1</ele>
        <time>2018-04-24T09:05:13Z</time>
      </trkpt>
      <trkpt lat="44.30597" lon="4.84133">
        <ele>111.7</ele>
        <time>2018-04-24T09:05:16Z</time>
      </trkpt>
      <trkpt lat="44.30595" lon="4.84151">
        <ele>111</ele>
        <time>2018-04-24T09:05:19Z</time>
      </trkpt>
      <trkpt lat="44.30592" lon="4.84164">
        <ele>110.6</ele>
        <time>2018-04-24T09:05:21Z</time>
      </trkpt>
      <trkpt lat="44.30582" lon="4.84175">
        <ele>109.9</ele>
        <time>2018-04-24T09:05:24Z</time>
      </trkpt>
      <trkpt lat="44.30572" lon="4.84176">
        <ele>109.3</ele>
        <time>2018-04-24T09:05:26Z</time>
      </trkpt>
      <trkpt lat="44.30561" lon="4.8417">
        <ele>108.8</ele>
        <time>2018-04-24T09:05:28Z</time>
      </trkpt>
      <trkpt lat="44.30551" lon="4.84163">
        <ele>108.3</ele>
        <time>2018-04-24T09:05:30Z</time>
      </trkpt>
      <trkpt lat="44.30541" lon="4.84154">
        <ele>107.9</ele>
        <time>2018-04-24T09:05:32Z</time>
      </trkpt>
      <trkpt lat="44.30531" lon="4.84146">
        <ele>107.5</ele>
        <time>2018-04-24T09:05:34Z</time>
      </trkpt>
      <trkpt lat="44.3052" lon="4.84138">
        <ele>107.1</ele>
        <time>2018-04-24T09:05:36Z</time>
      </trkpt>
      <trkpt lat="44.30509" lon="4.84132">
        <ele>106.9</ele>
        <time>2018-04-24T09:05:38Z</time>
      </trkpt>
      <trkpt lat="44.30497" lon="4.84126">
        <ele>107</ele>
        <time>2018-04-24T09:05:40Z</time>
      </trkpt>
      <trkpt lat="44.30486" lon="4.84119">
        <ele>106.8</ele>
        <time>2018-04-24T09:05:42Z</time>
      </trkpt>
      <trkpt lat="44.30475" lon="4.84113">
        <ele>106.5</ele>
        <time>2018-04-24T09:05:44Z</time>
      </trkpt>
      <trkpt lat="44.30463" lon="4.84106">
        <ele>106.2</ele>
        <time>2018-04-24T09:05:46Z</time>
      </trkpt>
      <trkpt lat="44.30452" lon="4.841">
        <ele>106</ele>
        <time>2018-04-24T09:05:48Z</time>
      </trkpt>
      <trkpt lat="44.3044" lon="4.84093">
        <ele>106</ele>
        <time>2018-04-24T09:05:50Z</time>
      </trkpt>
      <trkpt lat="44.30427" lon="4.84086">
        <ele>105.9</ele>
        <time>2018-04-24T09:05:52Z</time>
      </trkpt>
      <trkpt lat="44.30415" lon="4.84079">
        <ele>106</ele>
        <time>2018-04-24T09:05:54Z</time>
      </trkpt>
      <trkpt lat="44.30403" lon="4.84072">
        <ele>105.9</ele>
        <time>2018-04-24T09:05:56Z</time>
      </trkpt>
      <trkpt lat="44.3039" lon="4.84066">
        <ele>105.8</ele>
        <time>2018-04-24T09:05:58Z</time>
      </trkpt>
      <trkpt lat="44.30376" lon="4.84059">
        <ele>105.7</ele>
        <time>2018-04-24T09:06:00Z</time>
      </trkpt>
      <trkpt lat="44.30363" lon="4.84053">
        <ele>105.5</ele>
        <time>2018-04-24T09:06:02Z</time>
      </trkpt>
      <trkpt lat="44.30349" lon="4.84046">
        <ele>105.5</ele>
        <time>2018-04-24T09:06:04Z</time>
      </trkpt>
      <trkpt lat="44.30337" lon="4.84038">
        <ele>105.6</ele>
        <time>2018-04-24T09:06:06Z</time>
      </trkpt>
      <trkpt lat="44.30324" lon="4.84031">
        <ele>105.8</ele>
        <time>2018-04-24T09:06:08Z</time>
      </trkpt>
      <trkpt lat="44.30312" lon="4.84023">
        <ele>106.3</ele>
        <time>2018-04-24T09:06:10Z</time>
      </trkpt>
      <trkpt lat="44.303" lon="4.84016">
        <ele>106.6</ele>
        <time>2018-04-24T09:06:12Z</time>
      </trkpt>
      <trkpt lat="44.30288" lon="4.84009">
        <ele>106.9</ele>
        <time>2018-04-24T09:06:14Z</time>
      </trkpt>
      <trkpt lat="44.30277" lon="4.84001">
        <ele>107.1</ele>
        <time>2018-04-24T09:06:16Z</time>
      </trkpt>
      <trkpt lat="44.30267" lon="4.83992">
        <ele>107.3</ele>
        <time>2018-04-24T09:06:18Z</time>
      </trkpt>
      <trkpt lat="44.30257" lon="4.83982">
        <ele>107.4</ele>
        <time>2018-04-24T09:06:20Z</time>
      </trkpt>
      <trkpt lat="44.30247" lon="4.83973">
        <ele>107.4</ele>
        <time>2018-04-24T09:06:22Z</time>
      </trkpt>
      <trkpt lat="44.30238" lon="4.83965">
        <ele>107.5</ele>
        <time>2018-04-24T09:06:24Z</time>
      </trkpt>
      <trkpt lat="44.30228" lon="4.83958">
        <ele>107.6</ele>
        <time>2018-04-24T09:06:26Z</time>
      </trkpt>
      <trkpt lat="44.30217" lon="4.83955">
        <ele>108</ele>
        <time>2018-04-24T09:06:28Z</time>
      </trkpt>
      <trkpt lat="44.30206" lon="4.83953">
        <ele>108.1</ele>
        <time>2018-04-24T09:06:30Z</time>
      </trkpt>
      <trkpt lat="44.30195" lon="4.83952">
        <ele>108.2</ele>
        <time>2018-04-24T09:06:32Z</time>
      </trkpt>
      <trkpt lat="44.30183" lon="4.83952">
        <ele>108.3</ele>
        <time>2018-04-24T09:06:34Z</time>
      </trkpt>
      <trkpt lat="44.30173" lon="4.83952">
        <ele>108.5</ele>
        <time>2018-04-24T09:06:36Z</time>
      </trkpt>
      <trkpt lat="44.30161" lon="4.83951">
        <ele>109</ele>
        <time>2018-04-24T09:06:38Z</time>
      </trkpt>
      <trkpt lat="44.3015" lon="4.83949">
        <ele>109.2</ele>
        <time>2018-04-24T09:06:40Z</time>
      </trkpt>
      <trkpt lat="44.3014" lon="4.83948">
        <ele>109.8</ele>
        <time>2018-04-24T09:06:42Z</time>
      </trkpt>
      <trkpt lat="44.3013" lon="4.83947">
        <ele>110.1</ele>
        <time>2018-04-24T09:06:44Z</time>
      </trkpt>
      <trkpt lat="44.30119" lon="4.83946">
        <ele>110.4</ele>
        <time>2018-04-24T09:06:46Z</time>
      </trkpt>
      <trkpt lat="44.30109" lon="4.83944">
        <ele>110.6</ele>
        <time>2018-04-24T09:06:48Z</time>
      </trkpt>
      <trkpt lat="44.30099" lon="4.83942">
        <ele>111</ele>
        <time>2018-04-24T09:06:50Z</time>
      </trkpt>
      <trkpt lat="44.3009" lon="4.83938">
        <ele>111.3</ele>
        <time>2018-04-24T09:06:52Z</time>
      </trkpt>
      <trkpt lat="44.30081" lon="4.83935">
        <ele>111.6</ele>
        <time>2018-04-24T09:06:54Z</time>
      </trkpt>
      <trkpt lat="44.30069" lon="4.83932">
        <ele>112.2</ele>
        <time>2018-04-24T09:06:57Z</time>
      </trkpt>
      <trkpt lat="44.30059" lon="4.83927">
        <ele>113</ele>
        <time>2018-04-24T09:07:00Z</time>
      </trkpt>
      <trkpt lat="44.30049" lon="4.83917">
        <ele>114.6</ele>
        <time>2018-04-24T09:07:04Z</time>
      </trkpt>
      <trkpt lat="44.30039" lon="4.8391">
        <ele>115.4</ele>
        <time>2018-04-24T09:07:07Z</time>
      </trkpt>
      <trkpt lat="44.30029" lon="4.83905">
        <ele>116.5</ele>
        <time>2018-04-24T09:07:10Z</time>
      </trkpt>
      <trkpt lat="44.3002" lon="4.839">
        <ele>117.2</ele>
        <time>2018-04-24T09:07:13Z</time>
      </trkpt>
      <trkpt lat="44.30015" lon="4.83889">
        <ele>118.4</ele>
        <time>2018-04-24T09:07:17Z</time>
      </trkpt>
      <trkpt lat="44.30015" lon="4.83873">
        <ele>119.3</ele>
        <time>2018-04-24T09:07:21Z</time>
      </trkpt>
      <trkpt lat="44.30017" lon="4.83859">
        <ele>120.5</ele>
        <time>2018-04-24T09:07:25Z</time>
      </trkpt>
      <trkpt lat="44.30016" lon="4.83843">
        <ele>121.5</ele>
        <time>2018-04-24T09:07:29Z</time>
      </trkpt>
      <trkpt lat="44.30014" lon="4.83829">
        <ele>122.5</ele>
        <time>2018-04-24T09:07:32Z</time>
      </trkpt>
      <trkpt lat="44.30014" lon="4.83814">
        <ele>123.3</ele>
        <time>2018-04-24T09:07:35Z</time>
      </trkpt>
      <trkpt lat="44.30017" lon="4.838">
        <ele>124.1</ele>
        <time>2018-04-24T09:07:38Z</time>
      </trkpt>
      <trkpt lat="44.30018" lon="4.83787">
        <ele>124.6</ele>
        <time>2018-04-24T09:07:41Z</time>
      </trkpt>
      <trkpt lat="44.30019" lon="4.83774">
        <ele>125.2</ele>
        <time>2018-04-24T09:07:44Z</time>
      </trkpt>
      <trkpt lat="44.30008" lon="4.83767">
        <ele>125.5</ele>
        <time>2018-04-24T09:07:47Z</time>
      </trkpt>
      <trkpt lat="44.29998" lon="4.83766">
        <ele>125.9</ele>
        <time>2018-04-24T09:07:50Z</time>
      </trkpt>
      <trkpt lat="44.29987" lon="4.83763">
        <ele>126</ele>
        <time>2018-04-24T09:07:52Z</time>
      </trkpt>
      <trkpt lat="44.29977" lon="4.8376">
        <ele>126.1</ele>
        <time>2018-04-24T09:07:54Z</time>
      </trkpt>
      <trkpt lat="44.29964" lon="4.83758">
        <ele>126.3</ele>
        <time>2018-04-24T09:07:57Z</time>
      </trkpt>
      <trkpt lat="44.29955" lon="4.83756">
        <ele>126.4</ele>
        <time>2018-04-24T09:07:59Z</time>
      </trkpt>
      <trkpt lat="44.29941" lon="4.83753">
        <ele>126.6</ele>
        <time>2018-04-24T09:08:01Z</time>
      </trkpt>
      <trkpt lat="44.2993" lon="4.8375">
        <ele>126.7</ele>
        <time>2018-04-24T09:08:03Z</time>
      </trkpt>
      <trkpt lat="44.29919" lon="4.83748">
        <ele>126.6</ele>
        <time>2018-04-24T09:08:05Z</time>
      </trkpt>
      <trkpt lat="44.29907" lon="4.83747">
        <ele>126.6</ele>
        <time>2018-04-24T09:08:07Z</time>
      </trkpt>
      <trkpt lat="44.29895" lon="4.83746">
        <ele>126.6</ele>
        <time>2018-04-24T09:08:09Z</time>
      </trkpt>
      <trkpt lat="44.29884" lon="4.83747">
        <ele>126.7</ele>
        <time>2018-04-24T09:08:11Z</time>
      </trkpt>
      <trkpt lat="44.29872" lon="4.83749">
        <ele>126.7</ele>
        <time>2018-04-24T09:08:13Z</time>
      </trkpt>
      <trkpt lat="44.29861" lon="4.83753">
        <ele>126.7</ele>
        <time>2018-04-24T09:08:15Z</time>
      </trkpt>
      <trkpt lat="44.2985" lon="4.8376">
        <ele>126.7</ele>
        <time>2018-04-24T09:08:17Z</time>
      </trkpt>
      <trkpt lat="44.2984" lon="4.83769">
        <ele>126.6</ele>
        <time>2018-04-24T09:08:19Z</time>
      </trkpt>
      <trkpt lat="44.29829" lon="4.83777">
        <ele>126.5</ele>
        <time>2018-04-24T09:08:21Z</time>
      </trkpt>
      <trkpt lat="44.29818" lon="4.83783">
        <ele>126.3</ele>
        <time>2018-04-24T09:08:23Z</time>
      </trkpt>
      <trkpt lat="44.29806" lon="4.83787">
        <ele>126.2</ele>
        <time>2018-04-24T09:08:25Z</time>
      </trkpt>
      <trkpt lat="44.29793" lon="4.8379">
        <ele>126</ele>
        <time>2018-04-24T09:08:27Z</time>
      </trkpt>
      <trkpt lat="44.29779" lon="4.83792">
        <ele>125.5</ele>
        <time>2018-04-24T09:08:29Z</time>
      </trkpt>
      <trkpt lat="44.29765" lon="4.83793">
        <ele>125.1</ele>
        <time>2018-04-24T09:08:31Z</time>
      </trkpt>
      <trkpt lat="44.29749" lon="4.83793">
        <ele>124.6</ele>
        <time>2018-04-24T09:08:33Z</time>
      </trkpt>
      <trkpt lat="44.29734" lon="4.83792">
        <ele>124</ele>
        <time>2018-04-24T09:08:35Z</time>
      </trkpt>
      <trkpt lat="44.29719" lon="4.83792">
        <ele>123.6</ele>
        <time>2018-04-24T09:08:37Z</time>
      </trkpt>
      <trkpt lat="44.29704" lon="4.83793">
        <ele>123.3</ele>
        <time>2018-04-24T09:08:39Z</time>
      </trkpt>
      <trkpt lat="44.29691" lon="4.83797">
        <ele>122.7</ele>
        <time>2018-04-24T09:08:41Z</time>
      </trkpt>
      <trkpt lat="44.29677" lon="4.83802">
        <ele>122.3</ele>
        <time>2018-04-24T09:08:43Z</time>
      </trkpt>
      <trkpt lat="44.29662" lon="4.83806">
        <ele>121.8</ele>
        <time>2018-04-24T09:08:45Z</time>
      </trkpt>
      <trkpt lat="44.29646" lon="4.83807">
        <ele>121.4</ele>
        <time>2018-04-24T09:08:47Z</time>
      </trkpt>
      <trkpt lat="44.29631" lon="4.83808">
        <ele>120.9</ele>
        <time>2018-04-24T09:08:49Z</time>
      </trkpt>
      <trkpt lat="44.29618" lon="4.83807">
        <ele>120.5</ele>
        <time>2018-04-24T09:08:51Z</time>
      </trkpt>
      <trkpt lat="44.29605" lon="4.83806">
        <ele>120</ele>
        <time>2018-04-24T09:08:53Z</time>
      </trkpt>
      <trkpt lat="44.29589" lon="4.83805">
        <ele>119.5</ele>
        <time>2018-04-24T09:08:55Z</time>
      </trkpt>
      <trkpt lat="44.29575" lon="4.83806">
        <ele>119.1</ele>
        <time>2018-04-24T09:08:57Z</time>
      </trkpt>
      <trkpt lat="44.29559" lon="4.83808">
        <ele>118.5</ele>
        <time>2018-04-24T09:08:59Z</time>
      </trkpt>
      <trkpt lat="44.29543" lon="4.83811">
        <ele>118</ele>
        <time>2018-04-24T09:09:01Z</time>
      </trkpt>
      <trkpt lat="44.29534" lon="4.83812">
        <ele>117.8</ele>
        <time>2018-04-24T09:09:02Z</time>
      </trkpt>
      <trkpt lat="44.29525" lon="4.83811">
        <ele>117.5</ele>
        <time>2018-04-24T09:09:03Z</time>
      </trkpt>
      <trkpt lat="44.29515" lon="4.83811">
        <ele>117.2</ele>
        <time>2018-04-24T09:09:04Z</time>
      </trkpt>
      <trkpt lat="44.29498" lon="4.8381">
        <ele>116.3</ele>
        <time>2018-04-24T09:09:06Z</time>
      </trkpt>
      <trkpt lat="44.2948" lon="4.83811">
        <ele>115.1</ele>
        <time>2018-04-24T09:09:08Z</time>
      </trkpt>
      <trkpt lat="44.2947" lon="4.83812">
        <ele>114.6</ele>
        <time>2018-04-24T09:09:09Z</time>
      </trkpt>
      <trkpt lat="44.29461" lon="4.83815">
        <ele>113.8</ele>
        <time>2018-04-24T09:09:10Z</time>
      </trkpt>
      <trkpt lat="44.29443" lon="4.83818">
        <ele>112.4</ele>
        <time>2018-04-24T09:09:12Z</time>
      </trkpt>
      <trkpt lat="44.29434" lon="4.83817">
        <ele>111.4</ele>
        <time>2018-04-24T09:09:13Z</time>
      </trkpt>
      <trkpt lat="44.29417" lon="4.83815">
        <ele>109.4</ele>
        <time>2018-04-24T09:09:15Z</time>
      </trkpt>
      <trkpt lat="44.29402" lon="4.83812">
        <ele>107.7</ele>
        <time>2018-04-24T09:09:17Z</time>
      </trkpt>
      <trkpt lat="44.2939" lon="4.8381">
        <ele>105.8</ele>
        <time>2018-04-24T09:09:19Z</time>
      </trkpt>
      <trkpt lat="44.2938" lon="4.83806">
        <ele>103.5</ele>
        <time>2018-04-24T09:09:22Z</time>
      </trkpt>
      <trkpt lat="44.29372" lon="4.83798">
        <ele>102.2</ele>
        <time>2018-04-24T09:09:24Z</time>
      </trkpt>
      <trkpt lat="44.29365" lon="4.83787">
        <ele>100.9</ele>
        <time>2018-04-24T09:09:26Z</time>
      </trkpt>
      <trkpt lat="44.29357" lon="4.83775">
        <ele>99.5</ele>
        <time>2018-04-24T09:09:28Z</time>
      </trkpt>
      <trkpt lat="44.2935" lon="4.83763">
        <ele>98.5</ele>
        <time>2018-04-24T09:09:30Z</time>
      </trkpt>
      <trkpt lat="44.29345" lon="4.83751">
        <ele>97.3</ele>
        <time>2018-04-24T09:09:32Z</time>
      </trkpt>
      <trkpt lat="44.29341" lon="4.83738">
        <ele>95.8</ele>
        <time>2018-04-24T09:09:35Z</time>
      </trkpt>
      <trkpt lat="44.2933" lon="4.83737">
        <ele>94.7</ele>
        <time>2018-04-24T09:09:39Z</time>
      </trkpt>
      <trkpt lat="44.29318" lon="4.83745">
        <ele>93.9</ele>
        <time>2018-04-24T09:09:42Z</time>
      </trkpt>
      <trkpt lat="44.29309" lon="4.83753">
        <ele>93.7</ele>
        <time>2018-04-24T09:09:44Z</time>
      </trkpt>
      <trkpt lat="44.29297" lon="4.8376">
        <ele>93.4</ele>
        <time>2018-04-24T09:09:46Z</time>
      </trkpt>
      <trkpt lat="44.29286" lon="4.83766">
        <ele>93.2</ele>
        <time>2018-04-24T09:09:48Z</time>
      </trkpt>
      <trkpt lat="44.29274" lon="4.83775">
        <ele>93.1</ele>
        <time>2018-04-24T09:09:50Z</time>
      </trkpt>
      <trkpt lat="44.29262" lon="4.83783">
        <ele>93</ele>
        <time>2018-04-24T09:09:52Z</time>
      </trkpt>
      <trkpt lat="44.29252" lon="4.83791">
        <ele>93</ele>
        <time>2018-04-24T09:09:54Z</time>
      </trkpt>
      <trkpt lat="44.29242" lon="4.83798">
        <ele>93.1</ele>
        <time>2018-04-24T09:09:56Z</time>
      </trkpt>
      <trkpt lat="44.2923" lon="4.83807">
        <ele>92.9</ele>
        <time>2018-04-24T09:09:58Z</time>
      </trkpt>
      <trkpt lat="44.29218" lon="4.83815">
        <ele>93.2</ele>
        <time>2018-04-24T09:10:00Z</time>
      </trkpt>
      <trkpt lat="44.29207" lon="4.83821">
        <ele>93.5</ele>
        <time>2018-04-24T09:10:02Z</time>
      </trkpt>
      <trkpt lat="44.29196" lon="4.83824">
        <ele>93.6</ele>
        <time>2018-04-24T09:10:04Z</time>
      </trkpt>
      <trkpt lat="44.29188" lon="4.83829">
        <ele>93.7</ele>
        <time>2018-04-24T09:10:06Z</time>
      </trkpt>
      <trkpt lat="44.29175" lon="4.8383">
        <ele>94.1</ele>
        <time>2018-04-24T09:10:09Z</time>
      </trkpt>
      <trkpt lat="44.29163" lon="4.83831">
        <ele>94.3</ele>
        <time>2018-04-24T09:10:12Z</time>
      </trkpt>
      <trkpt lat="44.29151" lon="4.83831">
        <ele>94.6</ele>
        <time>2018-04-24T09:10:15Z</time>
      </trkpt>
      <trkpt lat="44.29139" lon="4.83831">
        <ele>94.6</ele>
        <time>2018-04-24T09:10:18Z</time>
      </trkpt>
      <trkpt lat="44.2913" lon="4.83829">
        <ele>94.1</ele>
        <time>2018-04-24T09:10:41Z</time>
      </trkpt>
      <trkpt lat="44.2912" lon="4.83829">
        <ele>94.3</ele>
        <time>2018-04-24T09:10:47Z</time>
      </trkpt>
      <trkpt lat="44.29111" lon="4.8383">
        <ele>94.4</ele>
        <time>2018-04-24T09:10:51Z</time>
      </trkpt>
      <trkpt lat="44.29105" lon="4.83844">
        <ele>94.2</ele>
        <time>2018-04-24T09:10:55Z</time>
      </trkpt>
      <trkpt lat="44.29098" lon="4.83856">
        <ele>94.7</ele>
        <time>2018-04-24T09:10:58Z</time>
      </trkpt>
      <trkpt lat="44.2909" lon="4.83868">
        <ele>95</ele>
        <time>2018-04-24T09:11:01Z</time>
      </trkpt>
      <trkpt lat="44.29078" lon="4.83885">
        <ele>96.5</ele>
        <time>2018-04-24T09:11:06Z</time>
      </trkpt>
      <trkpt lat="44.2907" lon="4.83893">
        <ele>97.4</ele>
        <time>2018-04-24T09:11:09Z</time>
      </trkpt>
      <trkpt lat="44.29052" lon="4.83915">
        <ele>98</ele>
        <time>2018-04-24T09:11:15Z</time>
      </trkpt>
      <trkpt lat="44.29038" lon="4.83927">
        <ele>100</ele>
        <time>2018-04-24T09:11:19Z</time>
      </trkpt>
      <trkpt lat="44.29028" lon="4.83933">
        <ele>100.5</ele>
        <time>2018-04-24T09:11:22Z</time>
      </trkpt>
      <trkpt lat="44.2902" lon="4.83937">
        <ele>101.4</ele>
        <time>2018-04-24T09:11:26Z</time>
      </trkpt>
      <trkpt lat="44.29011" lon="4.83941">
        <ele>101.8</ele>
        <time>2018-04-24T09:11:28Z</time>
      </trkpt>
      <trkpt lat="44.29001" lon="4.83943">
        <ele>102.2</ele>
        <time>2018-04-24T09:11:31Z</time>
      </trkpt>
      <trkpt lat="44.28989" lon="4.83943">
        <ele>102.7</ele>
        <time>2018-04-24T09:11:35Z</time>
      </trkpt>
      <trkpt lat="44.28979" lon="4.83941">
        <ele>103.5</ele>
        <time>2018-04-24T09:11:38Z</time>
      </trkpt>
      <trkpt lat="44.28969" lon="4.83942">
        <ele>104.1</ele>
        <time>2018-04-24T09:11:41Z</time>
      </trkpt>
      <trkpt lat="44.2896" lon="4.83947">
        <ele>105.5</ele>
        <time>2018-04-24T09:11:46Z</time>
      </trkpt>
      <trkpt lat="44.28949" lon="4.83953">
        <ele>106.2</ele>
        <time>2018-04-24T09:11:50Z</time>
      </trkpt>
      <trkpt lat="44.28937" lon="4.83953">
        <ele>106.3</ele>
        <time>2018-04-24T09:11:52Z</time>
      </trkpt>
      <trkpt lat="44.28928" lon="4.83955">
        <ele>106.3</ele>
        <time>2018-04-24T09:11:54Z</time>
      </trkpt>
      <trkpt lat="44.28915" lon="4.83951">
        <ele>106.2</ele>
        <time>2018-04-24T09:11:57Z</time>
      </trkpt>
      <trkpt lat="44.28907" lon="4.83943">
        <ele>106.1</ele>
        <time>2018-04-24T09:11:59Z</time>
      </trkpt>
      <trkpt lat="44.28898" lon="4.83936">
        <ele>105.9</ele>
        <time>2018-04-24T09:12:01Z</time>
      </trkpt>
      <trkpt lat="44.28891" lon="4.83927">
        <ele>105.7</ele>
        <time>2018-04-24T09:12:03Z</time>
      </trkpt>
      <trkpt lat="44.28881" lon="4.83918">
        <ele>105.6</ele>
        <time>2018-04-24T09:12:05Z</time>
      </trkpt>
      <trkpt lat="44.28873" lon="4.83909">
        <ele>105.6</ele>
        <time>2018-04-24T09:12:07Z</time>
      </trkpt>
      <trkpt lat="44.28864" lon="4.83901">
        <ele>105.7</ele>
        <time>2018-04-24T09:12:09Z</time>
      </trkpt>
      <trkpt lat="44.28857" lon="4.83891">
        <ele>105.8</ele>
        <time>2018-04-24T09:12:11Z</time>
      </trkpt>
      <trkpt lat="44.28849" lon="4.83882">
        <ele>105.8</ele>
        <time>2018-04-24T09:12:13Z</time>
      </trkpt>
      <trkpt lat="44.28842" lon="4.83872">
        <ele>106</ele>
        <time>2018-04-24T09:12:15Z</time>
      </trkpt>
      <trkpt lat="44.28833" lon="4.83862">
        <ele>106.1</ele>
        <time>2018-04-24T09:12:17Z</time>
      </trkpt>
      <trkpt lat="44.28824" lon="4.83852">
        <ele>106.3</ele>
        <time>2018-04-24T09:12:19Z</time>
      </trkpt>
      <trkpt lat="44.28815" lon="4.83842">
        <ele>106.4</ele>
        <time>2018-04-24T09:12:21Z</time>
      </trkpt>
      <trkpt lat="44.28808" lon="4.83831">
        <ele>106.5</ele>
        <time>2018-04-24T09:12:23Z</time>
      </trkpt>
      <trkpt lat="44.28804" lon="4.83817">
        <ele>106.6</ele>
        <time>2018-04-24T09:12:25Z</time>
      </trkpt>
      <trkpt lat="44.28804" lon="4.83801">
        <ele>106.5</ele>
        <time>2018-04-24T09:12:27Z</time>
      </trkpt>
      <trkpt lat="44.28805" lon="4.83787">
        <ele>106.6</ele>
        <time>2018-04-24T09:12:29Z</time>
      </trkpt>
      <trkpt lat="44.28807" lon="4.83775">
        <ele>106.9</ele>
        <time>2018-04-24T09:12:31Z</time>
      </trkpt>
      <trkpt lat="44.28815" lon="4.83761">
        <ele>107.2</ele>
        <time>2018-04-24T09:12:34Z</time>
      </trkpt>
      <trkpt lat="44.28823" lon="4.8375">
        <ele>108.1</ele>
        <time>2018-04-24T09:12:37Z</time>
      </trkpt>
      <trkpt lat="44.28831" lon="4.83741">
        <ele>109.1</ele>
        <time>2018-04-24T09:12:40Z</time>
      </trkpt>
      <trkpt lat="44.28837" lon="4.83731">
        <ele>110.3</ele>
        <time>2018-04-24T09:12:43Z</time>
      </trkpt>
      <trkpt lat="44.2884" lon="4.83719">
        <ele>111.5</ele>
        <time>2018-04-24T09:12:46Z</time>
      </trkpt>
      <trkpt lat="44.28841" lon="4.83702">
        <ele>113.1</ele>
        <time>2018-04-24T09:12:50Z</time>
      </trkpt>
      <trkpt lat="44.28838" lon="4.83687">
        <ele>115</ele>
        <time>2018-04-24T09:12:54Z</time>
      </trkpt>
      <trkpt lat="44.28836" lon="4.83673">
        <ele>116.3</ele>
        <time>2018-04-24T09:12:58Z</time>
      </trkpt>
      <trkpt lat="44.28833" lon="4.8366">
        <ele>117.4</ele>
        <time>2018-04-24T09:13:02Z</time>
      </trkpt>
      <trkpt lat="44.28828" lon="4.83648">
        <ele>118.2</ele>
        <time>2018-04-24T09:13:05Z</time>
      </trkpt>
      <trkpt lat="44.28823" lon="4.83635">
        <ele>118.9</ele>
        <time>2018-04-24T09:13:08Z</time>
      </trkpt>
      <trkpt lat="44.28818" lon="4.83622">
        <ele>119.6</ele>
        <time>2018-04-24T09:13:11Z</time>
      </trkpt>
      <trkpt lat="44.28813" lon="4.83609">
        <ele>120.4</ele>
        <time>2018-04-24T09:13:14Z</time>
      </trkpt>
      <trkpt lat="44.28806" lon="4.83595">
        <ele>121.1</ele>
        <time>2018-04-24T09:13:17Z</time>
      </trkpt>
      <trkpt lat="44.28803" lon="4.8358">
        <ele>121.9</ele>
        <time>2018-04-24T09:13:21Z</time>
      </trkpt>
      <trkpt lat="44.28797" lon="4.83566">
        <ele>122.3</ele>
        <time>2018-04-24T09:13:24Z</time>
      </trkpt>
      <trkpt lat="44.28793" lon="4.83553">
        <ele>122.6</ele>
        <time>2018-04-24T09:13:27Z</time>
      </trkpt>
      <trkpt lat="44.28788" lon="4.83537">
        <ele>123.1</ele>
        <time>2018-04-24T09:13:31Z</time>
      </trkpt>
      <trkpt lat="44.28782" lon="4.83525">
        <ele>123.5</ele>
        <time>2018-04-24T09:13:34Z</time>
      </trkpt>
      <trkpt lat="44.28772" lon="4.83511">
        <ele>123.9</ele>
        <time>2018-04-24T09:13:37Z</time>
      </trkpt>
      <trkpt lat="44.28765" lon="4.83502">
        <ele>124.2</ele>
        <time>2018-04-24T09:13:39Z</time>
      </trkpt>
      <trkpt lat="44.28758" lon="4.83494">
        <ele>124.4</ele>
        <time>2018-04-24T09:13:41Z</time>
      </trkpt>
      <trkpt lat="44.28749" lon="4.83483">
        <ele>124.9</ele>
        <time>2018-04-24T09:13:44Z</time>
      </trkpt>
      <trkpt lat="44.28742" lon="4.83475">
        <ele>125.1</ele>
        <time>2018-04-24T09:13:46Z</time>
      </trkpt>
      <trkpt lat="44.28739" lon="4.8346">
        <ele>125.6</ele>
        <time>2018-04-24T09:13:49Z</time>
      </trkpt>
      <trkpt lat="44.28738" lon="4.83445">
        <ele>126.1</ele>
        <time>2018-04-24T09:13:52Z</time>
      </trkpt>
      <trkpt lat="44.28742" lon="4.83432">
        <ele>126.6</ele>
        <time>2018-04-24T09:13:55Z</time>
      </trkpt>
      <trkpt lat="44.28743" lon="4.83416">
        <ele>127.1</ele>
        <time>2018-04-24T09:13:59Z</time>
      </trkpt>
      <trkpt lat="44.28749" lon="4.83404">
        <ele>127.5</ele>
        <time>2018-04-24T09:14:02Z</time>
      </trkpt>
      <trkpt lat="44.28754" lon="4.83392">
        <ele>127.8</ele>
        <time>2018-04-24T09:14:05Z</time>
      </trkpt>
      <trkpt lat="44.28759" lon="4.83376">
        <ele>127.8</ele>
        <time>2018-04-24T09:14:08Z</time>
      </trkpt>
      <trkpt lat="44.28765" lon="4.83365">
        <ele>127.6</ele>
        <time>2018-04-24T09:14:10Z</time>
      </trkpt>
      <trkpt lat="44.28771" lon="4.83355">
        <ele>127.6</ele>
        <time>2018-04-24T09:14:12Z</time>
      </trkpt>
      <trkpt lat="44.28776" lon="4.83343">
        <ele>127.6</ele>
        <time>2018-04-24T09:14:14Z</time>
      </trkpt>
      <trkpt lat="44.28781" lon="4.83326">
        <ele>127.8</ele>
        <time>2018-04-24T09:14:17Z</time>
      </trkpt>
      <trkpt lat="44.28784" lon="4.83312">
        <ele>128</ele>
        <time>2018-04-24T09:14:19Z</time>
      </trkpt>
      <trkpt lat="44.28786" lon="4.83297">
        <ele>128.1</ele>
        <time>2018-04-24T09:14:21Z</time>
      </trkpt>
      <trkpt lat="44.28788" lon="4.83284">
        <ele>128.5</ele>
        <time>2018-04-24T09:14:23Z</time>
      </trkpt>
      <trkpt lat="44.28791" lon="4.83273">
        <ele>128.6</ele>
        <time>2018-04-24T09:14:25Z</time>
      </trkpt>
      <trkpt lat="44.28797" lon="4.83258">
        <ele>129.3</ele>
        <time>2018-04-24T09:14:28Z</time>
      </trkpt>
      <trkpt lat="44.28806" lon="4.83253">
        <ele>130.2</ele>
        <time>2018-04-24T09:14:32Z</time>
      </trkpt>
      <trkpt lat="44.28817" lon="4.83252">
        <ele>131</ele>
        <time>2018-04-24T09:14:35Z</time>
      </trkpt>
      <trkpt lat="44.28829" lon="4.8325">
        <ele>131.6</ele>
        <time>2018-04-24T09:14:38Z</time>
      </trkpt>
      <trkpt lat="44.28842" lon="4.8325">
        <ele>132.1</ele>
        <time>2018-04-24T09:14:41Z</time>
      </trkpt>
      <trkpt lat="44.28854" lon="4.83248">
        <ele>132.5</ele>
        <time>2018-04-24T09:14:44Z</time>
      </trkpt>
      <trkpt lat="44.28864" lon="4.83245">
        <ele>132.9</ele>
        <time>2018-04-24T09:14:47Z</time>
      </trkpt>
      <trkpt lat="44.28873" lon="4.83247">
        <ele>133.1</ele>
        <time>2018-04-24T09:14:50Z</time>
      </trkpt>
      <trkpt lat="44.28882" lon="4.83251">
        <ele>133.5</ele>
        <time>2018-04-24T09:14:53Z</time>
      </trkpt>
      <trkpt lat="44.28888" lon="4.83262">
        <ele>133.7</ele>
        <time>2018-04-24T09:14:57Z</time>
      </trkpt>
      <trkpt lat="44.28898" lon="4.83271">
        <ele>133.8</ele>
        <time>2018-04-24T09:15:00Z</time>
      </trkpt>
      <trkpt lat="44.28907" lon="4.8328">
        <ele>133.8</ele>
        <time>2018-04-24T09:15:02Z</time>
      </trkpt>
      <trkpt lat="44.28915" lon="4.83294">
        <ele>133.7</ele>
        <time>2018-04-24T09:15:05Z</time>
      </trkpt>
      <trkpt lat="44.2892" lon="4.8331">
        <ele>134.2</ele>
        <time>2018-04-24T09:15:08Z</time>
      </trkpt>
      <trkpt lat="44.28925" lon="4.83326">
        <ele>134.5</ele>
        <time>2018-04-24T09:15:11Z</time>
      </trkpt>
      <trkpt lat="44.2893" lon="4.83341">
        <ele>134.9</ele>
        <time>2018-04-24T09:15:14Z</time>
      </trkpt>
      <trkpt lat="44.28935" lon="4.83359">
        <ele>135.4</ele>
        <time>2018-04-24T09:15:17Z</time>
      </trkpt>
      <trkpt lat="44.28937" lon="4.83376">
        <ele>135.4</ele>
        <time>2018-04-24T09:15:20Z</time>
      </trkpt>
      <trkpt lat="44.28945" lon="4.83389">
        <ele>135.3</ele>
        <time>2018-04-24T09:15:23Z</time>
      </trkpt>
      <trkpt lat="44.28951" lon="4.834">
        <ele>135.4</ele>
        <time>2018-04-24T09:15:26Z</time>
      </trkpt>
      <trkpt lat="44.28955" lon="4.83417">
        <ele>135.4</ele>
        <time>2018-04-24T09:15:29Z</time>
      </trkpt>
      <trkpt lat="44.28959" lon="4.83432">
        <ele>135.4</ele>
        <time>2018-04-24T09:15:32Z</time>
      </trkpt>
      <trkpt lat="44.28969" lon="4.83442">
        <ele>135.5</ele>
        <time>2018-04-24T09:15:34Z</time>
      </trkpt>
      <trkpt lat="44.28977" lon="4.8345">
        <ele>135.7</ele>
        <time>2018-04-24T09:15:37Z</time>
      </trkpt>
      <trkpt lat="44.28982" lon="4.8346">
        <ele>136.1</ele>
        <time>2018-04-24T09:15:39Z</time>
      </trkpt>
      <trkpt lat="44.28989" lon="4.83468">
        <ele>136.4</ele>
        <time>2018-04-24T09:15:41Z</time>
      </trkpt>
      <trkpt lat="44.28997" lon="4.83474">
        <ele>136.7</ele>
        <time>2018-04-24T09:15:43Z</time>
      </trkpt>
      <trkpt lat="44.29006" lon="4.83479">
        <ele>137.5</ele>
        <time>2018-04-24T09:15:46Z</time>
      </trkpt>
      <trkpt lat="44.29015" lon="4.83487">
        <ele>138.2</ele>
        <time>2018-04-24T09:15:49Z</time>
      </trkpt>
      <trkpt lat="44.29022" lon="4.83498">
        <ele>139.1</ele>
        <time>2018-04-24T09:15:52Z</time>
      </trkpt>
      <trkpt lat="44.29028" lon="4.83512">
        <ele>140.1</ele>
        <time>2018-04-24T09:15:56Z</time>
      </trkpt>
      <trkpt lat="44.29031" lon="4.83528">
        <ele>141.3</ele>
        <time>2018-04-24T09:16:00Z</time>
      </trkpt>
      <trkpt lat="44.29032" lon="4.83541">
        <ele>141.9</ele>
        <time>2018-04-24T09:16:03Z</time>
      </trkpt>
      <trkpt lat="44.2903" lon="4.83554">
        <ele>142.5</ele>
        <time>2018-04-24T09:16:06Z</time>
      </trkpt>
      <trkpt lat="44.29027" lon="4.83571">
        <ele>142.7</ele>
        <time>2018-04-24T09:16:09Z</time>
      </trkpt>
      <trkpt lat="44.29024" lon="4.83584">
        <ele>142.9</ele>
        <time>2018-04-24T09:16:11Z</time>
      </trkpt>
      <trkpt lat="44.29023" lon="4.83596">
        <ele>142.9</ele>
        <time>2018-04-24T09:16:13Z</time>
      </trkpt>
      <trkpt lat="44.29023" lon="4.83609">
        <ele>142.9</ele>
        <time>2018-04-24T09:16:15Z</time>
      </trkpt>
      <trkpt lat="44.29024" lon="4.83623">
        <ele>143</ele>
        <time>2018-04-24T09:16:17Z</time>
      </trkpt>
      <trkpt lat="44.29022" lon="4.83636">
        <ele>143</ele>
        <time>2018-04-24T09:16:19Z</time>
      </trkpt>
      <trkpt lat="44.29024" lon="4.83651">
        <ele>143</ele>
        <time>2018-04-24T09:16:21Z</time>
      </trkpt>
      <trkpt lat="44.29024" lon="4.83664">
        <ele>143</ele>
        <time>2018-04-24T09:16:23Z</time>
      </trkpt>
      <trkpt lat="44.29024" lon="4.83681">
        <ele>142.7</ele>
        <time>2018-04-24T09:16:26Z</time>
      </trkpt>
      <trkpt lat="44.29022" lon="4.83697">
        <ele>142.6</ele>
        <time>2018-04-24T09:16:28Z</time>
      </trkpt>
      <trkpt lat="44.29018" lon="4.83712">
        <ele>142.3</ele>
        <time>2018-04-24T09:16:30Z</time>
      </trkpt>
      <trkpt lat="44.29016" lon="4.83728">
        <ele>142.1</ele>
        <time>2018-04-24T09:16:32Z</time>
      </trkpt>
      <trkpt lat="44.29013" lon="4.83745">
        <ele>141.8</ele>
        <time>2018-04-24T09:16:34Z</time>
      </trkpt>
      <trkpt lat="44.29007" lon="4.83759">
        <ele>141.3</ele>
        <time>2018-04-24T09:16:36Z</time>
      </trkpt>
      <trkpt lat="44.28997" lon="4.8377">
        <ele>140.8</ele>
        <time>2018-04-24T09:16:39Z</time>
      </trkpt>
      <trkpt lat="44.28988" lon="4.83761">
        <ele>140.1</ele>
        <time>2018-04-24T09:16:44Z</time>
      </trkpt>
      <trkpt lat="44.28988" lon="4.83745">
        <ele>139.8</ele>
        <time>2018-04-24T09:16:47Z</time>
      </trkpt>
      <trkpt lat="44.28989" lon="4.83731">
        <ele>139.4</ele>
        <time>2018-04-24T09:16:50Z</time>
      </trkpt>
      <trkpt lat="44.28986" lon="4.83715">
        <ele>138.9</ele>
        <time>2018-04-24T09:16:53Z</time>
      </trkpt>
      <trkpt lat="44.28984" lon="4.837">
        <ele>138.6</ele>
        <time>2018-04-24T09:16:56Z</time>
      </trkpt>
      <trkpt lat="44.2898" lon="4.83684">
        <ele>138.6</ele>
        <time>2018-04-24T09:16:59Z</time>
      </trkpt>
      <trkpt lat="44.28978" lon="4.83668">
        <ele>138.6</ele>
        <time>2018-04-24T09:17:02Z</time>
      </trkpt>
      <trkpt lat="44.28975" lon="4.83654">
        <ele>138.7</ele>
        <time>2018-04-24T09:17:05Z</time>
      </trkpt>
      <trkpt lat="44.28965" lon="4.83647">
        <ele>138.8</ele>
        <time>2018-04-24T09:17:09Z</time>
      </trkpt>
      <trkpt lat="44.28957" lon="4.83657">
        <ele>138.8</ele>
        <time>2018-04-24T09:17:13Z</time>
      </trkpt>
      <trkpt lat="44.28947" lon="4.83665">
        <ele>138.8</ele>
        <time>2018-04-24T09:17:16Z</time>
      </trkpt>
      <trkpt lat="44.28936" lon="4.83674">
        <ele>138.9</ele>
        <time>2018-04-24T09:17:19Z</time>
      </trkpt>
      <trkpt lat="44.28926" lon="4.83682">
        <ele>138.7</ele>
        <time>2018-04-24T09:17:21Z</time>
      </trkpt>
      <trkpt lat="44.28915" lon="4.83688">
        <ele>138.5</ele>
        <time>2018-04-24T09:17:23Z</time>
      </trkpt>
      <trkpt lat="44.28904" lon="4.83688">
        <ele>137.2</ele>
        <time>2018-04-24T09:17:26Z</time>
      </trkpt>
      <trkpt lat="44.28902" lon="4.83675">
        <ele>136.4</ele>
        <time>2018-04-24T09:17:29Z</time>
      </trkpt>
      <trkpt lat="44.28895" lon="4.83663">
        <ele>135.7</ele>
        <time>2018-04-24T09:17:32Z</time>
      </trkpt>
      <trkpt lat="44.28891" lon="4.83649">
        <ele>135</ele>
        <time>2018-04-24T09:17:35Z</time>
      </trkpt>
      <trkpt lat="44.2889" lon="4.83635">
        <ele>135.1</ele>
        <time>2018-04-24T09:17:38Z</time>
      </trkpt>
      <trkpt lat="44.2889" lon="4.8362">
        <ele>135.2</ele>
        <time>2018-04-24T09:17:41Z</time>
      </trkpt>
      <trkpt lat="44.28893" lon="4.83607">
        <ele>135.3</ele>
        <time>2018-04-24T09:17:44Z</time>
      </trkpt>
      <trkpt lat="44.28898" lon="4.83595">
        <ele>135.5</ele>
        <time>2018-04-24T09:17:47Z</time>
      </trkpt>
      <trkpt lat="44.289" lon="4.83583">
        <ele>135.8</ele>
        <time>2018-04-24T09:17:50Z</time>
      </trkpt>
      <trkpt lat="44.28893" lon="4.83569">
        <ele>136.1</ele>
        <time>2018-04-24T09:17:53Z</time>
      </trkpt>
      <trkpt lat="44.28884" lon="4.83564">
        <ele>136.2</ele>
        <time>2018-04-24T09:17:55Z</time>
      </trkpt>
      <trkpt lat="44.28873" lon="4.83563">
        <ele>136.4</ele>
        <time>2018-04-24T09:17:57Z</time>
      </trkpt>
      <trkpt lat="44.28863" lon="4.83562">
        <ele>136.4</ele>
        <time>2018-04-24T09:17:59Z</time>
      </trkpt>
      <trkpt lat="44.28849" lon="4.83562">
        <ele>136.5</ele>
        <time>2018-04-24T09:18:01Z</time>
      </trkpt>
      <trkpt lat="44.28837" lon="4.83559">
        <ele>136.3</ele>
        <time>2018-04-24T09:18:03Z</time>
      </trkpt>
      <trkpt lat="44.28827" lon="4.83552">
        <ele>135.5</ele>
        <time>2018-04-24T09:18:05Z</time>
      </trkpt>
      <trkpt lat="44.28818" lon="4.83543">
        <ele>134.8</ele>
        <time>2018-04-24T09:18:07Z</time>
      </trkpt>
      <trkpt lat="44.28809" lon="4.83539">
        <ele>134.1</ele>
        <time>2018-04-24T09:18:09Z</time>
      </trkpt>
      <trkpt lat="44.28798" lon="4.83531">
        <ele>132.8</ele>
        <time>2018-04-24T09:18:12Z</time>
      </trkpt>
      <trkpt lat="44.28788" lon="4.83533">
        <ele>131.8</ele>
        <time>2018-04-24T09:18:15Z</time>
      </trkpt>
      <trkpt lat="44.28782" lon="4.83544">
        <ele>129.4</ele>
        <time>2018-04-24T09:18:20Z</time>
      </trkpt>
      <trkpt lat="44.28773" lon="4.83538">
        <ele>127.2</ele>
        <time>2018-04-24T09:18:25Z</time>
      </trkpt>
      <trkpt lat="44.28761" lon="4.83528">
        <ele>125.5</ele>
        <time>2018-04-24T09:18:28Z</time>
      </trkpt>
      <trkpt lat="44.28751" lon="4.83518">
        <ele>124.6</ele>
        <time>2018-04-24T09:18:30Z</time>
      </trkpt>
      <trkpt lat="44.28742" lon="4.83509">
        <ele>123.8</ele>
        <time>2018-04-24T09:18:32Z</time>
      </trkpt>
      <trkpt lat="44.2873" lon="4.83501">
        <ele>122.7</ele>
        <time>2018-04-24T09:18:34Z</time>
      </trkpt>
      <trkpt lat="44.28717" lon="4.83491">
        <ele>121.7</ele>
        <time>2018-04-24T09:18:36Z</time>
      </trkpt>
      <trkpt lat="44.2871" lon="4.8348">
        <ele>121</ele>
        <time>2018-04-24T09:18:38Z</time>
      </trkpt>
      <trkpt lat="44.28706" lon="4.83466">
        <ele>120.2</ele>
        <time>2018-04-24T09:18:40Z</time>
      </trkpt>
      <trkpt lat="44.28704" lon="4.83453">
        <ele>119.5</ele>
        <time>2018-04-24T09:18:42Z</time>
      </trkpt>
      <trkpt lat="44.28701" lon="4.83434">
        <ele>118.7</ele>
        <time>2018-04-24T09:18:45Z</time>
      </trkpt>
      <trkpt lat="44.28703" lon="4.83418">
        <ele>118.3</ele>
        <time>2018-04-24T09:18:48Z</time>
      </trkpt>
      <trkpt lat="44.28708" lon="4.83401">
        <ele>118.1</ele>
        <time>2018-04-24T09:18:51Z</time>
      </trkpt>
      <trkpt lat="44.28709" lon="4.83386">
        <ele>117.9</ele>
        <time>2018-04-24T09:18:53Z</time>
      </trkpt>
      <trkpt lat="44.2871" lon="4.83371">
        <ele>117.8</ele>
        <time>2018-04-24T09:18:55Z</time>
      </trkpt>
      <trkpt lat="44.28711" lon="4.83356">
        <ele>117.9</ele>
        <time>2018-04-24T09:18:57Z</time>
      </trkpt>
      <trkpt lat="44.28712" lon="4.83339">
        <ele>117.7</ele>
        <time>2018-04-24T09:18:59Z</time>
      </trkpt>
      <trkpt lat="44.28714" lon="4.83322">
        <ele>117.6</ele>
        <time>2018-04-24T09:19:01Z</time>
      </trkpt>
      <trkpt lat="44.28719" lon="4.83304">
        <ele>117.2</ele>
        <time>2018-04-24T09:19:03Z</time>
      </trkpt>
      <trkpt lat="44.28723" lon="4.83286">
        <ele>116.9</ele>
        <time>2018-04-24T09:19:05Z</time>
      </trkpt>
      <trkpt lat="44.28729" lon="4.83267">
        <ele>116.6</ele>
        <time>2018-04-24T09:19:07Z</time>
      </trkpt>
      <trkpt lat="44.28733" lon="4.8325">
        <ele>115.8</ele>
        <time>2018-04-24T09:19:09Z</time>
      </trkpt>
      <trkpt lat="44.28726" lon="4.83234">
        <ele>115</ele>
        <time>2018-04-24T09:19:12Z</time>
      </trkpt>
      <trkpt lat="44.28717" lon="4.83229">
        <ele>114.3</ele>
        <time>2018-04-24T09:19:14Z</time>
      </trkpt>
      <trkpt lat="44.28708" lon="4.83221">
        <ele>113.6</ele>
        <time>2018-04-24T09:19:16Z</time>
      </trkpt>
      <trkpt lat="44.28698" lon="4.83216">
        <ele>112.7</ele>
        <time>2018-04-24T09:19:18Z</time>
      </trkpt>
      <trkpt lat="44.28687" lon="4.83221">
        <ele>111.5</ele>
        <time>2018-04-24T09:19:20Z</time>
      </trkpt>
      <trkpt lat="44.28675" lon="4.8323">
        <ele>110.2</ele>
        <time>2018-04-24T09:19:22Z</time>
      </trkpt>
      <trkpt lat="44.28661" lon="4.8323">
        <ele>109.2</ele>
        <time>2018-04-24T09:19:24Z</time>
      </trkpt>
      <trkpt lat="44.28649" lon="4.83224">
        <ele>108</ele>
        <time>2018-04-24T09:19:26Z</time>
      </trkpt>
      <trkpt lat="44.28637" lon="4.83217">
        <ele>107.1</ele>
        <time>2018-04-24T09:19:28Z</time>
      </trkpt>
      <trkpt lat="44.28626" lon="4.8321">
        <ele>106.3</ele>
        <time>2018-04-24T09:19:30Z</time>
      </trkpt>
      <trkpt lat="44.28615" lon="4.83202">
        <ele>105.7</ele>
        <time>2018-04-24T09:19:32Z</time>
      </trkpt>
      <trkpt lat="44.28604" lon="4.83193">
        <ele>104.9</ele>
        <time>2018-04-24T09:19:34Z</time>
      </trkpt>
      <trkpt lat="44.28593" lon="4.83183">
        <ele>104.2</ele>
        <time>2018-04-24T09:19:36Z</time>
      </trkpt>
      <trkpt lat="44.28586" lon="4.83174">
        <ele>103.5</ele>
        <time>2018-04-24T09:19:38Z</time>
      </trkpt>
      <trkpt lat="44.28574" lon="4.83177">
        <ele>101.9</ele>
        <time>2018-04-24T09:19:42Z</time>
      </trkpt>
      <trkpt lat="44.28567" lon="4.83194">
        <ele>101</ele>
        <time>2018-04-24T09:19:45Z</time>
      </trkpt>
      <trkpt lat="44.28563" lon="4.83208">
        <ele>100.4</ele>
        <time>2018-04-24T09:19:47Z</time>
      </trkpt>
      <trkpt lat="44.2856" lon="4.83224">
        <ele>100</ele>
        <time>2018-04-24T09:19:49Z</time>
      </trkpt>
      <trkpt lat="44.28556" lon="4.8324">
        <ele>99.7</ele>
        <time>2018-04-24T09:19:51Z</time>
      </trkpt>
      <trkpt lat="44.28553" lon="4.83257">
        <ele>99.6</ele>
        <time>2018-04-24T09:19:53Z</time>
      </trkpt>
      <trkpt lat="44.28549" lon="4.83273">
        <ele>99.4</ele>
        <time>2018-04-24T09:19:55Z</time>
      </trkpt>
      <trkpt lat="44.28547" lon="4.8329">
        <ele>99.5</ele>
        <time>2018-04-24T09:19:57Z</time>
      </trkpt>
      <trkpt lat="44.28544" lon="4.83307">
        <ele>99.5</ele>
        <time>2018-04-24T09:19:59Z</time>
      </trkpt>
      <trkpt lat="44.28543" lon="4.83325">
        <ele>99.5</ele>
        <time>2018-04-24T09:20:01Z</time>
      </trkpt>
      <trkpt lat="44.28542" lon="4.83343">
        <ele>99.5</ele>
        <time>2018-04-24T09:20:03Z</time>
      </trkpt>
      <trkpt lat="44.28542" lon="4.83361">
        <ele>99.6</ele>
        <time>2018-04-24T09:20:05Z</time>
      </trkpt>
      <trkpt lat="44.28543" lon="4.8338">
        <ele>99.8</ele>
        <time>2018-04-24T09:20:07Z</time>
      </trkpt>
      <trkpt lat="44.28543" lon="4.83398">
        <ele>100.1</ele>
        <time>2018-04-24T09:20:09Z</time>
      </trkpt>
      <trkpt lat="44.28545" lon="4.83416">
        <ele>100.2</ele>
        <time>2018-04-24T09:20:11Z</time>
      </trkpt>
      <trkpt lat="44.28547" lon="4.83433">
        <ele>100.3</ele>
        <time>2018-04-24T09:20:13Z</time>
      </trkpt>
      <trkpt lat="44.28549" lon="4.8345">
        <ele>100.4</ele>
        <time>2018-04-24T09:20:15Z</time>
      </trkpt>
      <trkpt lat="44.28553" lon="4.83467">
        <ele>100.5</ele>
        <time>2018-04-24T09:20:17Z</time>
      </trkpt>
      <trkpt lat="44.28556" lon="4.83484">
        <ele>100.7</ele>
        <time>2018-04-24T09:20:19Z</time>
      </trkpt>
      <trkpt lat="44.2856" lon="4.835">
        <ele>100.8</ele>
        <time>2018-04-24T09:20:21Z</time>
      </trkpt>
      <trkpt lat="44.28564" lon="4.83516">
        <ele>101</ele>
        <time>2018-04-24T09:20:23Z</time>
      </trkpt>
      <trkpt lat="44.28569" lon="4.83532">
        <ele>101.1</ele>
        <time>2018-04-24T09:20:25Z</time>
      </trkpt>
      <trkpt lat="44.28575" lon="4.83548">
        <ele>101.2</ele>
        <time>2018-04-24T09:20:27Z</time>
      </trkpt>
      <trkpt lat="44.28581" lon="4.83563">
        <ele>101.2</ele>
        <time>2018-04-24T09:20:29Z</time>
      </trkpt>
      <trkpt lat="44.28587" lon="4.83578">
        <ele>101.2</ele>
        <time>2018-04-24T09:20:31Z</time>
      </trkpt>
      <trkpt lat="44.28594" lon="4.83593">
        <ele>101.2</ele>
        <time>2018-04-24T09:20:33Z</time>
      </trkpt>
      <trkpt lat="44.28602" lon="4.83606">
        <ele>101.1</ele>
        <time>2018-04-24T09:20:35Z</time>
      </trkpt>
      <trkpt lat="44.2861" lon="4.83618">
        <ele>101.1</ele>
        <time>2018-04-24T09:20:37Z</time>
      </trkpt>
      <trkpt lat="44.28618" lon="4.8363">
        <ele>100.8</ele>
        <time>2018-04-24T09:20:39Z</time>
      </trkpt>
      <trkpt lat="44.28628" lon="4.83641">
        <ele>100.7</ele>
        <time>2018-04-24T09:20:41Z</time>
      </trkpt>
      <trkpt lat="44.28637" lon="4.83652">
        <ele>100.8</ele>
        <time>2018-04-24T09:20:43Z</time>
      </trkpt>
      <trkpt lat="44.28647" lon="4.83663">
        <ele>100.8</ele>
        <time>2018-04-24T09:20:45Z</time>
      </trkpt>
      <trkpt lat="44.28656" lon="4.83675">
        <ele>100.8</ele>
        <time>2018-04-24T09:20:47Z</time>
      </trkpt>
      <trkpt lat="44.28665" lon="4.83686">
        <ele>100.9</ele>
        <time>2018-04-24T09:20:49Z</time>
      </trkpt>
      <trkpt lat="44.28675" lon="4.83697">
        <ele>101.1</ele>
        <time>2018-04-24T09:20:51Z</time>
      </trkpt>
      <trkpt lat="44.28685" lon="4.83708">
        <ele>101.3</ele>
        <time>2018-04-24T09:20:53Z</time>
      </trkpt>
      <trkpt lat="44.28694" lon="4.83719">
        <ele>101.5</ele>
        <time>2018-04-24T09:20:55Z</time>
      </trkpt>
      <trkpt lat="44.28704" lon="4.8373">
        <ele>101.5</ele>
        <time>2018-04-24T09:20:57Z</time>
      </trkpt>
      <trkpt lat="44.28714" lon="4.8374">
        <ele>101.5</ele>
        <time>2018-04-24T09:20:59Z</time>
      </trkpt>
      <trkpt lat="44.28724" lon="4.83751">
        <ele>101.7</ele>
        <time>2018-04-24T09:21:01Z</time>
      </trkpt>
      <trkpt lat="44.28734" lon="4.8376">
        <ele>101.7</ele>
        <time>2018-04-24T09:21:03Z</time>
      </trkpt>
      <trkpt lat="44.28744" lon="4.8377">
        <ele>101.8</ele>
        <time>2018-04-24T09:21:05Z</time>
      </trkpt>
      <trkpt lat="44.28754" lon="4.83779">
        <ele>102</ele>
        <time>2018-04-24T09:21:07Z</time>
      </trkpt>
      <trkpt lat="44.28763" lon="4.83788">
        <ele>102</ele>
        <time>2018-04-24T09:21:09Z</time>
      </trkpt>
      <trkpt lat="44.28772" lon="4.83797">
        <ele>102.5</ele>
        <time>2018-04-24T09:21:11Z</time>
      </trkpt>
      <trkpt lat="44.28781" lon="4.83805">
        <ele>102.8</ele>
        <time>2018-04-24T09:21:13Z</time>
      </trkpt>
      <trkpt lat="44.28789" lon="4.83813">
        <ele>103</ele>
        <time>2018-04-24T09:21:15Z</time>
      </trkpt>
      <trkpt lat="44.28797" lon="4.83822">
        <ele>103.2</ele>
        <time>2018-04-24T09:21:17Z</time>
      </trkpt>
      <trkpt lat="44.28805" lon="4.83831">
        <ele>103.4</ele>
        <time>2018-04-24T09:21:19Z</time>
      </trkpt>
      <trkpt lat="44.28812" lon="4.8384">
        <ele>103.8</ele>
        <time>2018-04-24T09:21:21Z</time>
      </trkpt>
      <trkpt lat="44.2882" lon="4.83849">
        <ele>104.2</ele>
        <time>2018-04-24T09:21:23Z</time>
      </trkpt>
      <trkpt lat="44.28829" lon="4.83859">
        <ele>104.6</ele>
        <time>2018-04-24T09:21:25Z</time>
      </trkpt>
      <trkpt lat="44.28837" lon="4.83869">
        <ele>104.9</ele>
        <time>2018-04-24T09:21:27Z</time>
      </trkpt>
      <trkpt lat="44.28845" lon="4.83879">
        <ele>105.2</ele>
        <time>2018-04-24T09:21:29Z</time>
      </trkpt>
      <trkpt lat="44.28854" lon="4.83889">
        <ele>105.7</ele>
        <time>2018-04-24T09:21:31Z</time>
      </trkpt>
      <trkpt lat="44.28863" lon="4.83898">
        <ele>106</ele>
        <time>2018-04-24T09:21:33Z</time>
      </trkpt>
      <trkpt lat="44.2887" lon="4.83907">
        <ele>106.2</ele>
        <time>2018-04-24T09:21:35Z</time>
      </trkpt>
      <trkpt lat="44.28879" lon="4.83917">
        <ele>106.5</ele>
        <time>2018-04-24T09:21:37Z</time>
      </trkpt>
      <trkpt lat="44.28887" lon="4.83928">
        <ele>106.7</ele>
        <time>2018-04-24T09:21:39Z</time>
      </trkpt>
      <trkpt lat="44.28897" lon="4.83937">
        <ele>106.8</ele>
        <time>2018-04-24T09:21:41Z</time>
      </trkpt>
      <trkpt lat="44.28907" lon="4.83945">
        <ele>106.8</ele>
        <time>2018-04-24T09:21:43Z</time>
      </trkpt>
      <trkpt lat="44.28914" lon="4.83955">
        <ele>106.6</ele>
        <time>2018-04-24T09:21:45Z</time>
      </trkpt>
      <trkpt lat="44.28918" lon="4.83968">
        <ele>106.3</ele>
        <time>2018-04-24T09:21:47Z</time>
      </trkpt>
      <trkpt lat="44.28921" lon="4.83983">
        <ele>105.9</ele>
        <time>2018-04-24T09:21:50Z</time>
      </trkpt>
      <trkpt lat="44.28933" lon="4.83979">
        <ele>105.5</ele>
        <time>2018-04-24T09:21:53Z</time>
      </trkpt>
      <trkpt lat="44.28946" lon="4.83981">
        <ele>105</ele>
        <time>2018-04-24T09:21:56Z</time>
      </trkpt>
      <trkpt lat="44.2895" lon="4.83994">
        <ele>104.6</ele>
        <time>2018-04-24T09:21:58Z</time>
      </trkpt>
      <trkpt lat="44.28951" lon="4.84008">
        <ele>104.3</ele>
        <time>2018-04-24T09:22:00Z</time>
      </trkpt>
      <trkpt lat="44.28952" lon="4.84024">
        <ele>103.8</ele>
        <time>2018-04-24T09:22:02Z</time>
      </trkpt>
      <trkpt lat="44.28953" lon="4.8404">
        <ele>103.5</ele>
        <time>2018-04-24T09:22:04Z</time>
      </trkpt>
      <trkpt lat="44.28953" lon="4.84055">
        <ele>103</ele>
        <time>2018-04-24T09:22:06Z</time>
      </trkpt>
      <trkpt lat="44.28953" lon="4.84071">
        <ele>102.8</ele>
        <time>2018-04-24T09:22:08Z</time>
      </trkpt>
      <trkpt lat="44.28952" lon="4.84087">
        <ele>102.6</ele>
        <time>2018-04-24T09:22:10Z</time>
      </trkpt>
      <trkpt lat="44.28953" lon="4.84103">
        <ele>102.3</ele>
        <time>2018-04-24T09:22:12Z</time>
      </trkpt>
      <trkpt lat="44.28956" lon="4.8412">
        <ele>102.1</ele>
        <time>2018-04-24T09:22:14Z</time>
      </trkpt>
      <trkpt lat="44.28957" lon="4.84135">
        <ele>102</ele>
        <time>2018-04-24T09:22:16Z</time>
      </trkpt>
      <trkpt lat="44.28959" lon="4.8415">
        <ele>101.9</ele>
        <time>2018-04-24T09:22:18Z</time>
      </trkpt>
      <trkpt lat="44.28962" lon="4.84166">
        <ele>101.7</ele>
        <time>2018-04-24T09:22:20Z</time>
      </trkpt>
      <trkpt lat="44.28965" lon="4.84181">
        <ele>101.6</ele>
        <time>2018-04-24T09:22:22Z</time>
      </trkpt>
      <trkpt lat="44.28968" lon="4.84195">
        <ele>101.4</ele>
        <time>2018-04-24T09:22:24Z</time>
      </trkpt>
      <trkpt lat="44.28972" lon="4.84208">
        <ele>101.6</ele>
        <time>2018-04-24T09:22:26Z</time>
      </trkpt>
      <trkpt lat="44.28975" lon="4.8422">
        <ele>101.7</ele>
        <time>2018-04-24T09:22:28Z</time>
      </trkpt>
      <trkpt lat="44.2898" lon="4.84232">
        <ele>101.6</ele>
        <time>2018-04-24T09:22:30Z</time>
      </trkpt>
      <trkpt lat="44.28987" lon="4.84241">
        <ele>101.5</ele>
        <time>2018-04-24T09:22:32Z</time>
      </trkpt>
      <trkpt lat="44.28995" lon="4.8425">
        <ele>101.6</ele>
        <time>2018-04-24T09:22:34Z</time>
      </trkpt>
      <trkpt lat="44.29003" lon="4.84257">
        <ele>101.8</ele>
        <time>2018-04-24T09:22:36Z</time>
      </trkpt>
      <trkpt lat="44.29011" lon="4.84265">
        <ele>102.3</ele>
        <time>2018-04-24T09:22:38Z</time>
      </trkpt>
      <trkpt lat="44.29019" lon="4.84273">
        <ele>102.7</ele>
        <time>2018-04-24T09:22:40Z</time>
      </trkpt>
      <trkpt lat="44.29028" lon="4.84278">
        <ele>103.1</ele>
        <time>2018-04-24T09:22:42Z</time>
      </trkpt>
      <trkpt lat="44.29037" lon="4.84281">
        <ele>103.7</ele>
        <time>2018-04-24T09:22:44Z</time>
      </trkpt>
      <trkpt lat="44.2905" lon="4.84283">
        <ele>104.3</ele>
        <time>2018-04-24T09:22:47Z</time>
      </trkpt>
      <trkpt lat="44.29059" lon="4.84285">
        <ele>104.6</ele>
        <time>2018-04-24T09:22:49Z</time>
      </trkpt>
      <trkpt lat="44.29069" lon="4.84287">
        <ele>104.8</ele>
        <time>2018-04-24T09:22:51Z</time>
      </trkpt>
      <trkpt lat="44.29078" lon="4.84292">
        <ele>105</ele>
        <time>2018-04-24T09:22:53Z</time>
      </trkpt>
      <trkpt lat="44.29087" lon="4.84301">
        <ele>105</ele>
        <time>2018-04-24T09:22:55Z</time>
      </trkpt>
      <trkpt lat="44.29095" lon="4.84312">
        <ele>104.9</ele>
        <time>2018-04-24T09:22:57Z</time>
      </trkpt>
      <trkpt lat="44.29101" lon="4.84326">
        <ele>104.9</ele>
        <time>2018-04-24T09:22:59Z</time>
      </trkpt>
      <trkpt lat="44.29107" lon="4.84341">
        <ele>104.8</ele>
        <time>2018-04-24T09:23:01Z</time>
      </trkpt>
      <trkpt lat="44.29111" lon="4.84354">
        <ele>104.7</ele>
        <time>2018-04-24T09:23:03Z</time>
      </trkpt>
      <trkpt lat="44.29117" lon="4.84366">
        <ele>104.7</ele>
        <time>2018-04-24T09:23:05Z</time>
      </trkpt>
      <trkpt lat="44.29125" lon="4.84378">
        <ele>104.9</ele>
        <time>2018-04-24T09:23:07Z</time>
      </trkpt>
      <trkpt lat="44.29133" lon="4.8439">
        <ele>104.8</ele>
        <time>2018-04-24T09:23:09Z</time>
      </trkpt>
      <trkpt lat="44.29142" lon="4.84401">
        <ele>105.1</ele>
        <time>2018-04-24T09:23:11Z</time>
      </trkpt>
      <trkpt lat="44.2915" lon="4.84409">
        <ele>105.5</ele>
        <time>2018-04-24T09:23:13Z</time>
      </trkpt>
      <trkpt lat="44.29158" lon="4.84418">
        <ele>105.8</ele>
        <time>2018-04-24T09:23:15Z</time>
      </trkpt>
      <trkpt lat="44.29163" lon="4.8443">
        <ele>106.1</ele>
        <time>2018-04-24T09:23:17Z</time>
      </trkpt>
      <trkpt lat="44.29165" lon="4.84444">
        <ele>106.2</ele>
        <time>2018-04-24T09:23:19Z</time>
      </trkpt>
      <trkpt lat="44.2917" lon="4.8446">
        <ele>106.3</ele>
        <time>2018-04-24T09:23:21Z</time>
      </trkpt>
      <trkpt lat="44.29176" lon="4.84474">
        <ele>106.3</ele>
        <time>2018-04-24T09:23:23Z</time>
      </trkpt>
      <trkpt lat="44.29182" lon="4.84488">
        <ele>106.4</ele>
        <time>2018-04-24T09:23:25Z</time>
      </trkpt>
      <trkpt lat="44.29188" lon="4.84502">
        <ele>106.4</ele>
        <time>2018-04-24T09:23:27Z</time>
      </trkpt>
      <trkpt lat="44.29193" lon="4.84515">
        <ele>106.4</ele>
        <time>2018-04-24T09:23:29Z</time>
      </trkpt>
      <trkpt lat="44.29195" lon="4.84529">
        <ele>106.6</ele>
        <time>2018-04-24T09:23:31Z</time>
      </trkpt>
      <trkpt lat="44.29197" lon="4.84544">
        <ele>106.7</ele>
        <time>2018-04-24T09:23:33Z</time>
      </trkpt>
      <trkpt lat="44.29198" lon="4.84559">
        <ele>106.8</ele>
        <time>2018-04-24T09:23:35Z</time>
      </trkpt>
      <trkpt lat="44.29199" lon="4.84574">
        <ele>106.8</ele>
        <time>2018-04-24T09:23:37Z</time>
      </trkpt>
      <trkpt lat="44.29202" lon="4.8459">
        <ele>106.9</ele>
        <time>2018-04-24T09:23:39Z</time>
      </trkpt>
      <trkpt lat="44.29205" lon="4.84605">
        <ele>106.7</ele>
        <time>2018-04-24T09:23:41Z</time>
      </trkpt>
      <trkpt lat="44.29207" lon="4.84626">
        <ele>106.8</ele>
        <time>2018-04-24T09:23:43Z</time>
      </trkpt>
      <trkpt lat="44.29207" lon="4.84648">
        <ele>106.9</ele>
        <time>2018-04-24T09:23:45Z</time>
      </trkpt>
      <trkpt lat="44.29207" lon="4.84669">
        <ele>106.7</ele>
        <time>2018-04-24T09:23:47Z</time>
      </trkpt>
      <trkpt lat="44.29206" lon="4.84691">
        <ele>106.2</ele>
        <time>2018-04-24T09:23:49Z</time>
      </trkpt>
      <trkpt lat="44.29207" lon="4.84704">
        <ele>105.8</ele>
        <time>2018-04-24T09:23:50Z</time>
      </trkpt>
      <trkpt lat="44.29209" lon="4.84717">
        <ele>105.5</ele>
        <time>2018-04-24T09:23:51Z</time>
      </trkpt>
      <trkpt lat="44.29211" lon="4.8473">
        <ele>105.1</ele>
        <time>2018-04-24T09:23:52Z</time>
      </trkpt>
      <trkpt lat="44.29215" lon="4.84742">
        <ele>104.7</ele>
        <time>2018-04-24T09:23:53Z</time>
      </trkpt>
      <trkpt lat="44.2922" lon="4.84752">
        <ele>104.3</ele>
        <time>2018-04-24T09:23:54Z</time>
      </trkpt>
      <trkpt lat="44.2923" lon="4.84772">
        <ele>103</ele>
        <time>2018-04-24T09:23:56Z</time>
      </trkpt>
      <trkpt lat="44.2924" lon="4.8479">
        <ele>102.2</ele>
        <time>2018-04-24T09:23:58Z</time>
      </trkpt>
      <trkpt lat="44.2925" lon="4.84807">
        <ele>101.2</ele>
        <time>2018-04-24T09:24:00Z</time>
      </trkpt>
      <trkpt lat="44.29256" lon="4.84823">
        <ele>100.1</ele>
        <time>2018-04-24T09:24:02Z</time>
      </trkpt>
      <trkpt lat="44.29261" lon="4.84839">
        <ele>99.5</ele>
        <time>2018-04-24T09:24:04Z</time>
      </trkpt>
      <trkpt lat="44.29262" lon="4.84854">
        <ele>99.1</ele>
        <time>2018-04-24T09:24:06Z</time>
      </trkpt>
      <trkpt lat="44.29264" lon="4.84868">
        <ele>98.7</ele>
        <time>2018-04-24T09:24:08Z</time>
      </trkpt>
      <trkpt lat="44.29266" lon="4.84883">
        <ele>98.6</ele>
        <time>2018-04-24T09:24:10Z</time>
      </trkpt>
      <trkpt lat="44.29268" lon="4.84899">
        <ele>98.7</ele>
        <time>2018-04-24T09:24:12Z</time>
      </trkpt>
      <trkpt lat="44.29271" lon="4.84915">
        <ele>98.7</ele>
        <time>2018-04-24T09:24:14Z</time>
      </trkpt>
      <trkpt lat="44.2927" lon="4.84931">
        <ele>99</ele>
        <time>2018-04-24T09:24:16Z</time>
      </trkpt>
      <trkpt lat="44.2927" lon="4.84947">
        <ele>99.1</ele>
        <time>2018-04-24T09:24:18Z</time>
      </trkpt>
      <trkpt lat="44.29268" lon="4.84962">
        <ele>99.3</ele>
        <time>2018-04-24T09:24:20Z</time>
      </trkpt>
      <trkpt lat="44.29267" lon="4.84978">
        <ele>99.4</ele>
        <time>2018-04-24T09:24:22Z</time>
      </trkpt>
      <trkpt lat="44.29265" lon="4.84994">
        <ele>99.7</ele>
        <time>2018-04-24T09:24:24Z</time>
      </trkpt>
      <trkpt lat="44.29263" lon="4.85009">
        <ele>99.7</ele>
        <time>2018-04-24T09:24:26Z</time>
      </trkpt>
      <trkpt lat="44.29261" lon="4.85024">
        <ele>99.8</ele>
        <time>2018-04-24T09:24:28Z</time>
      </trkpt>
      <trkpt lat="44.29259" lon="4.85039">
        <ele>99.8</ele>
        <time>2018-04-24T09:24:30Z</time>
      </trkpt>
      <trkpt lat="44.29257" lon="4.85054">
        <ele>99.8</ele>
        <time>2018-04-24T09:24:32Z</time>
      </trkpt>
      <trkpt lat="44.29255" lon="4.8507">
        <ele>99.7</ele>
        <time>2018-04-24T09:24:34Z</time>
      </trkpt>
      <trkpt lat="44.29254" lon="4.85086">
        <ele>99.4</ele>
        <time>2018-04-24T09:24:36Z</time>
      </trkpt>
      <trkpt lat="44.29256" lon="4.85102">
        <ele>99.2</ele>
        <time>2018-04-24T09:24:38Z</time>
      </trkpt>
      <trkpt lat="44.29259" lon="4.85116">
        <ele>99.1</ele>
        <time>2018-04-24T09:24:40Z</time>
      </trkpt>
      <trkpt lat="44.29263" lon="4.8513">
        <ele>98.9</ele>
        <time>2018-04-24T09:24:42Z</time>
      </trkpt>
      <trkpt lat="44.29268" lon="4.85143">
        <ele>98.7</ele>
        <time>2018-04-24T09:24:44Z</time>
      </trkpt>
      <trkpt lat="44.29272" lon="4.85156">
        <ele>98.6</ele>
        <time>2018-04-24T09:24:46Z</time>
      </trkpt>
      <trkpt lat="44.29275" lon="4.8517">
        <ele>98.7</ele>
        <time>2018-04-24T09:24:48Z</time>
      </trkpt>
      <trkpt lat="44.29277" lon="4.85184">
        <ele>99.1</ele>
        <time>2018-04-24T09:24:50Z</time>
      </trkpt>
      <trkpt lat="44.29278" lon="4.85197">
        <ele>99.6</ele>
        <time>2018-04-24T09:24:52Z</time>
      </trkpt>
      <trkpt lat="44.29279" lon="4.85211">
        <ele>99.8</ele>
        <time>2018-04-24T09:24:54Z</time>
      </trkpt>
      <trkpt lat="44.2928" lon="4.85226">
        <ele>99.9</ele>
        <time>2018-04-24T09:24:56Z</time>
      </trkpt>
      <trkpt lat="44.29281" lon="4.8524">
        <ele>100.1</ele>
        <time>2018-04-24T09:24:58Z</time>
      </trkpt>
      <trkpt lat="44.29282" lon="4.85254">
        <ele>100.2</ele>
        <time>2018-04-24T09:25:00Z</time>
      </trkpt>
      <trkpt lat="44.29283" lon="4.85268">
        <ele>100.2</ele>
        <time>2018-04-24T09:25:02Z</time>
      </trkpt>
      <trkpt lat="44.29285" lon="4.85283">
        <ele>100.5</ele>
        <time>2018-04-24T09:25:04Z</time>
      </trkpt>
      <trkpt lat="44.29287" lon="4.85297">
        <ele>100.7</ele>
        <time>2018-04-24T09:25:06Z</time>
      </trkpt>
      <trkpt lat="44.2929" lon="4.8531">
        <ele>101.1</ele>
        <time>2018-04-24T09:25:08Z</time>
      </trkpt>
      <trkpt lat="44.29292" lon="4.85324">
        <ele>101.2</ele>
        <time>2018-04-24T09:25:10Z</time>
      </trkpt>
      <trkpt lat="44.29294" lon="4.85338">
        <ele>101.3</ele>
        <time>2018-04-24T09:25:12Z</time>
      </trkpt>
      <trkpt lat="44.29295" lon="4.85352">
        <ele>101.3</ele>
        <time>2018-04-24T09:25:14Z</time>
      </trkpt>
      <trkpt lat="44.29296" lon="4.85368">
        <ele>101.5</ele>
        <time>2018-04-24T09:25:16Z</time>
      </trkpt>
      <trkpt lat="44.29294" lon="4.85382">
        <ele>101.9</ele>
        <time>2018-04-24T09:25:18Z</time>
      </trkpt>
      <trkpt lat="44.29289" lon="4.85393">
        <ele>102.3</ele>
        <time>2018-04-24T09:25:20Z</time>
      </trkpt>
      <trkpt lat="44.29281" lon="4.854">
        <ele>102.6</ele>
        <time>2018-04-24T09:25:22Z</time>
      </trkpt>
      <trkpt lat="44.29272" lon="4.85408">
        <ele>103.1</ele>
        <time>2018-04-24T09:25:24Z</time>
      </trkpt>
      <trkpt lat="44.29263" lon="4.85414">
        <ele>103.4</ele>
        <time>2018-04-24T09:25:26Z</time>
      </trkpt>
      <trkpt lat="44.29255" lon="4.85419">
        <ele>103.6</ele>
        <time>2018-04-24T09:25:28Z</time>
      </trkpt>
      <trkpt lat="44.29244" lon="4.85427">
        <ele>103.9</ele>
        <time>2018-04-24T09:25:31Z</time>
      </trkpt>
      <trkpt lat="44.29234" lon="4.85434">
        <ele>104.2</ele>
        <time>2018-04-24T09:25:34Z</time>
      </trkpt>
      <trkpt lat="44.29222" lon="4.85443">
        <ele>104.7</ele>
        <time>2018-04-24T09:25:37Z</time>
      </trkpt>
      <trkpt lat="44.29215" lon="4.8545">
        <ele>105.1</ele>
        <time>2018-04-24T09:25:39Z</time>
      </trkpt>
      <trkpt lat="44.29204" lon="4.8546">
        <ele>105.7</ele>
        <time>2018-04-24T09:25:42Z</time>
      </trkpt>
      <trkpt lat="44.29196" lon="4.85466">
        <ele>105.9</ele>
        <time>2018-04-24T09:25:44Z</time>
      </trkpt>
      <trkpt lat="44.29188" lon="4.85472">
        <ele>105.9</ele>
        <time>2018-04-24T09:25:46Z</time>
      </trkpt>
      <trkpt lat="44.29177" lon="4.85481">
        <ele>106</ele>
        <time>2018-04-24T09:25:49Z</time>
      </trkpt>
      <trkpt lat="44.29166" lon="4.8549">
        <ele>106.4</ele>
        <time>2018-04-24T09:25:52Z</time>
      </trkpt>
      <trkpt lat="44.29159" lon="4.85497">
        <ele>106.6</ele>
        <time>2018-04-24T09:25:54Z</time>
      </trkpt>
      <trkpt lat="44.29151" lon="4.85505">
        <ele>106.8</ele>
        <time>2018-04-24T09:25:56Z</time>
      </trkpt>
      <trkpt lat="44.29142" lon="4.85513">
        <ele>106.9</ele>
        <time>2018-04-24T09:25:58Z</time>
      </trkpt>
      <trkpt lat="44.29132" lon="4.85522">
        <ele>106.9</ele>
        <time>2018-04-24T09:26:00Z</time>
      </trkpt>
      <trkpt lat="44.29122" lon="4.85531">
        <ele>107</ele>
        <time>2018-04-24T09:26:02Z</time>
      </trkpt>
      <trkpt lat="44.29113" lon="4.8554">
        <ele>107.1</ele>
        <time>2018-04-24T09:26:04Z</time>
      </trkpt>
      <trkpt lat="44.29103" lon="4.85548">
        <ele>107.2</ele>
        <time>2018-04-24T09:26:07Z</time>
      </trkpt>
      <trkpt lat="44.29092" lon="4.8555">
        <ele>107.9</ele>
        <time>2018-04-24T09:26:11Z</time>
      </trkpt>
      <trkpt lat="44.29083" lon="4.85561">
        <ele>108.4</ele>
        <time>2018-04-24T09:26:16Z</time>
      </trkpt>
      <trkpt lat="44.29081" lon="4.85577">
        <ele>108.6</ele>
        <time>2018-04-24T09:26:19Z</time>
      </trkpt>
      <trkpt lat="44.2908" lon="4.85596">
        <ele>108.8</ele>
        <time>2018-04-24T09:26:22Z</time>
      </trkpt>
      <trkpt lat="44.29079" lon="4.85609">
        <ele>109.1</ele>
        <time>2018-04-24T09:26:24Z</time>
      </trkpt>
      <trkpt lat="44.29079" lon="4.85623">
        <ele>109.4</ele>
        <time>2018-04-24T09:26:26Z</time>
      </trkpt>
      <trkpt lat="44.2908" lon="4.85638">
        <ele>109.6</ele>
        <time>2018-04-24T09:26:28Z</time>
      </trkpt>
      <trkpt lat="44.29081" lon="4.85654">
        <ele>109.7</ele>
        <time>2018-04-24T09:26:30Z</time>
      </trkpt>
      <trkpt lat="44.29081" lon="4.85669">
        <ele>109.8</ele>
        <time>2018-04-24T09:26:32Z</time>
      </trkpt>
      <trkpt lat="44.29081" lon="4.85684">
        <ele>109.9</ele>
        <time>2018-04-24T09:26:34Z</time>
      </trkpt>
      <trkpt lat="44.29081" lon="4.85699">
        <ele>109.8</ele>
        <time>2018-04-24T09:26:36Z</time>
      </trkpt>
      <trkpt lat="44.29082" lon="4.85714">
        <ele>110</ele>
        <time>2018-04-24T09:26:38Z</time>
      </trkpt>
      <trkpt lat="44.29082" lon="4.85729">
        <ele>110.1</ele>
        <time>2018-04-24T09:26:40Z</time>
      </trkpt>
      <trkpt lat="44.29082" lon="4.85744">
        <ele>110.2</ele>
        <time>2018-04-24T09:26:42Z</time>
      </trkpt>
      <trkpt lat="44.29083" lon="4.8576">
        <ele>110.3</ele>
        <time>2018-04-24T09:26:44Z</time>
      </trkpt>
      <trkpt lat="44.29084" lon="4.85775">
        <ele>110.3</ele>
        <time>2018-04-24T09:26:46Z</time>
      </trkpt>
      <trkpt lat="44.29084" lon="4.85791">
        <ele>110.4</ele>
        <time>2018-04-24T09:26:48Z</time>
      </trkpt>
      <trkpt lat="44.29085" lon="4.85806">
        <ele>110.3</ele>
        <time>2018-04-24T09:26:50Z</time>
      </trkpt>
      <trkpt lat="44.29086" lon="4.8582">
        <ele>110.3</ele>
        <time>2018-04-24T09:26:52Z</time>
      </trkpt>
      <trkpt lat="44.29086" lon="4.85835">
        <ele>110.5</ele>
        <time>2018-04-24T09:26:54Z</time>
      </trkpt>
      <trkpt lat="44.29086" lon="4.85851">
        <ele>110.7</ele>
        <time>2018-04-24T09:26:56Z</time>
      </trkpt>
      <trkpt lat="44.29086" lon="4.85866">
        <ele>110.8</ele>
        <time>2018-04-24T09:26:58Z</time>
      </trkpt>
      <trkpt lat="44.29087" lon="4.8588">
        <ele>110.9</ele>
        <time>2018-04-24T09:27:00Z</time>
      </trkpt>
      <trkpt lat="44.29087" lon="4.85899">
        <ele>110.9</ele>
        <time>2018-04-24T09:27:03Z</time>
      </trkpt>
      <trkpt lat="44.29087" lon="4.85916">
        <ele>110.9</ele>
        <time>2018-04-24T09:27:06Z</time>
      </trkpt>
      <trkpt lat="44.29088" lon="4.85929">
        <ele>111.1</ele>
        <time>2018-04-24T09:27:08Z</time>
      </trkpt>
      <trkpt lat="44.2909" lon="4.85942">
        <ele>111.3</ele>
        <time>2018-04-24T09:27:10Z</time>
      </trkpt>
      <trkpt lat="44.29091" lon="4.85955">
        <ele>111.6</ele>
        <time>2018-04-24T09:27:12Z</time>
      </trkpt>
      <trkpt lat="44.29094" lon="4.85972">
        <ele>112</ele>
        <time>2018-04-24T09:27:15Z</time>
      </trkpt>
      <trkpt lat="44.29098" lon="4.85989">
        <ele>112.5</ele>
        <time>2018-04-24T09:27:18Z</time>
      </trkpt>
      <trkpt lat="44.29102" lon="4.86001">
        <ele>112.8</ele>
        <time>2018-04-24T09:27:20Z</time>
      </trkpt>
      <trkpt lat="44.29104" lon="4.86014">
        <ele>113</ele>
        <time>2018-04-24T09:27:22Z</time>
      </trkpt>
      <trkpt lat="44.29108" lon="4.86027">
        <ele>113.3</ele>
        <time>2018-04-24T09:27:24Z</time>
      </trkpt>
      <trkpt lat="44.2911" lon="4.8604">
        <ele>113.5</ele>
        <time>2018-04-24T09:27:26Z</time>
      </trkpt>
      <trkpt lat="44.29112" lon="4.86058">
        <ele>114</ele>
        <time>2018-04-24T09:27:29Z</time>
      </trkpt>
      <trkpt lat="44.29114" lon="4.86076">
        <ele>114</ele>
        <time>2018-04-24T09:27:32Z</time>
      </trkpt>
      <trkpt lat="44.29115" lon="4.86095">
        <ele>114.3</ele>
        <time>2018-04-24T09:27:35Z</time>
      </trkpt>
      <trkpt lat="44.29117" lon="4.86108">
        <ele>114.3</ele>
        <time>2018-04-24T09:27:37Z</time>
      </trkpt>
      <trkpt lat="44.29119" lon="4.86122">
        <ele>114.3</ele>
        <time>2018-04-24T09:27:39Z</time>
      </trkpt>
      <trkpt lat="44.2912" lon="4.8614">
        <ele>114.4</ele>
        <time>2018-04-24T09:27:42Z</time>
      </trkpt>
      <trkpt lat="44.29121" lon="4.86157">
        <ele>114.6</ele>
        <time>2018-04-24T09:27:45Z</time>
      </trkpt>
      <trkpt lat="44.29122" lon="4.86172">
        <ele>114.7</ele>
        <time>2018-04-24T09:27:48Z</time>
      </trkpt>
      <trkpt lat="44.29122" lon="4.86185">
        <ele>115</ele>
        <time>2018-04-24T09:27:56Z</time>
      </trkpt>
      <trkpt lat="44.2912" lon="4.86199">
        <ele>116.5</ele>
        <time>2018-04-24T09:28:54Z</time>
      </trkpt>
      <trkpt lat="44.29119" lon="4.86212">
        <ele>117.5</ele>
        <time>2018-04-24T09:30:25Z</time>
      </trkpt>
      <trkpt lat="44.29119" lon="4.86228">
        <ele>117.8</ele>
        <time>2018-04-24T09:30:30Z</time>
      </trkpt>
      <trkpt lat="44.29119" lon="4.86244">
        <ele>117.8</ele>
        <time>2018-04-24T09:30:33Z</time>
      </trkpt>
      <trkpt lat="44.29119" lon="4.86257">
        <ele>117.7</ele>
        <time>2018-04-24T09:30:35Z</time>
      </trkpt>
      <trkpt lat="44.29119" lon="4.8627">
        <ele>117.5</ele>
        <time>2018-04-24T09:30:37Z</time>
      </trkpt>
      <trkpt lat="44.29118" lon="4.86284">
        <ele>117.4</ele>
        <time>2018-04-24T09:30:39Z</time>
      </trkpt>
      <trkpt lat="44.29119" lon="4.86298">
        <ele>117.2</ele>
        <time>2018-04-24T09:30:41Z</time>
      </trkpt>
      <trkpt lat="44.29119" lon="4.86312">
        <ele>117.2</ele>
        <time>2018-04-24T09:30:43Z</time>
      </trkpt>
      <trkpt lat="44.29118" lon="4.86325">
        <ele>117.2</ele>
        <time>2018-04-24T09:30:45Z</time>
      </trkpt>
      <trkpt lat="44.29119" lon="4.86338">
        <ele>117.2</ele>
        <time>2018-04-24T09:30:47Z</time>
      </trkpt>
      <trkpt lat="44.29119" lon="4.86352">
        <ele>117.1</ele>
        <time>2018-04-24T09:30:49Z</time>
      </trkpt>
      <trkpt lat="44.29119" lon="4.86365">
        <ele>117.1</ele>
        <time>2018-04-24T09:30:51Z</time>
      </trkpt>
      <trkpt lat="44.29119" lon="4.86378">
        <ele>117.2</ele>
        <time>2018-04-24T09:30:53Z</time>
      </trkpt>
      <trkpt lat="44.2912" lon="4.86391">
        <ele>117.4</ele>
        <time>2018-04-24T09:30:55Z</time>
      </trkpt>
      <trkpt lat="44.2912" lon="4.86404">
        <ele>117.5</ele>
        <time>2018-04-24T09:30:57Z</time>
      </trkpt>
      <trkpt lat="44.29121" lon="4.86417">
        <ele>117.8</ele>
        <time>2018-04-24T09:30:59Z</time>
      </trkpt>
      <trkpt lat="44.29121" lon="4.86431">
        <ele>117.9</ele>
        <time>2018-04-24T09:31:01Z</time>
      </trkpt>
      <trkpt lat="44.29121" lon="4.86444">
        <ele>118</ele>
        <time>2018-04-24T09:31:03Z</time>
      </trkpt>
      <trkpt lat="44.29122" lon="4.86459">
        <ele>118.2</ele>
        <time>2018-04-24T09:31:05Z</time>
      </trkpt>
      <trkpt lat="44.29123" lon="4.86474">
        <ele>118.4</ele>
        <time>2018-04-24T09:31:07Z</time>
      </trkpt>
      <trkpt lat="44.29124" lon="4.8649">
        <ele>118.5</ele>
        <time>2018-04-24T09:31:09Z</time>
      </trkpt>
      <trkpt lat="44.29125" lon="4.86506">
        <ele>118.6</ele>
        <time>2018-04-24T09:31:11Z</time>
      </trkpt>
      <trkpt lat="44.29125" lon="4.86521">
        <ele>118.8</ele>
        <time>2018-04-24T09:31:13Z</time>
      </trkpt>
      <trkpt lat="44.29126" lon="4.86538">
        <ele>118.7</ele>
        <time>2018-04-24T09:31:15Z</time>
      </trkpt>
      <trkpt lat="44.29127" lon="4.86554">
        <ele>118.9</ele>
        <time>2018-04-24T09:31:17Z</time>
      </trkpt>
      <trkpt lat="44.29128" lon="4.8657">
        <ele>119</ele>
        <time>2018-04-24T09:31:19Z</time>
      </trkpt>
      <trkpt lat="44.29129" lon="4.86586">
        <ele>119.1</ele>
        <time>2018-04-24T09:31:21Z</time>
      </trkpt>
      <trkpt lat="44.29129" lon="4.86603">
        <ele>118.9</ele>
        <time>2018-04-24T09:31:23Z</time>
      </trkpt>
      <trkpt lat="44.2913" lon="4.86619">
        <ele>119</ele>
        <time>2018-04-24T09:31:25Z</time>
      </trkpt>
      <trkpt lat="44.2913" lon="4.86636">
        <ele>119</ele>
        <time>2018-04-24T09:31:27Z</time>
      </trkpt>
      <trkpt lat="44.2913" lon="4.86652">
        <ele>118.9</ele>
        <time>2018-04-24T09:31:29Z</time>
      </trkpt>
      <trkpt lat="44.2913" lon="4.86668">
        <ele>119</ele>
        <time>2018-04-24T09:31:31Z</time>
      </trkpt>
      <trkpt lat="44.2913" lon="4.86684">
        <ele>118.9</ele>
        <time>2018-04-24T09:31:33Z</time>
      </trkpt>
      <trkpt lat="44.29129" lon="4.867">
        <ele>119</ele>
        <time>2018-04-24T09:31:35Z</time>
      </trkpt>
      <trkpt lat="44.29127" lon="4.86717">
        <ele>118.8</ele>
        <time>2018-04-24T09:31:37Z</time>
      </trkpt>
      <trkpt lat="44.29125" lon="4.86733">
        <ele>118.6</ele>
        <time>2018-04-24T09:31:39Z</time>
      </trkpt>
      <trkpt lat="44.29122" lon="4.8675">
        <ele>118.4</ele>
        <time>2018-04-24T09:31:41Z</time>
      </trkpt>
      <trkpt lat="44.2912" lon="4.86766">
        <ele>118.6</ele>
        <time>2018-04-24T09:31:43Z</time>
      </trkpt>
      <trkpt lat="44.29118" lon="4.86783">
        <ele>118.7</ele>
        <time>2018-04-24T09:31:45Z</time>
      </trkpt>
      <trkpt lat="44.29117" lon="4.86799">
        <ele>118.9</ele>
        <time>2018-04-24T09:31:47Z</time>
      </trkpt>
      <trkpt lat="44.29115" lon="4.86815">
        <ele>118.9</ele>
        <time>2018-04-24T09:31:49Z</time>
      </trkpt>
      <trkpt lat="44.29115" lon="4.86831">
        <ele>119.2</ele>
        <time>2018-04-24T09:31:51Z</time>
      </trkpt>
      <trkpt lat="44.29114" lon="4.86846">
        <ele>119.3</ele>
        <time>2018-04-24T09:31:53Z</time>
      </trkpt>
      <trkpt lat="44.29113" lon="4.86862">
        <ele>119.5</ele>
        <time>2018-04-24T09:31:55Z</time>
      </trkpt>
      <trkpt lat="44.29112" lon="4.86879">
        <ele>119.4</ele>
        <time>2018-04-24T09:31:57Z</time>
      </trkpt>
      <trkpt lat="44.29111" lon="4.86896">
        <ele>119.5</ele>
        <time>2018-04-24T09:31:59Z</time>
      </trkpt>
      <trkpt lat="44.2911" lon="4.86913">
        <ele>119.6</ele>
        <time>2018-04-24T09:32:01Z</time>
      </trkpt>
      <trkpt lat="44.29109" lon="4.86931">
        <ele>119.7</ele>
        <time>2018-04-24T09:32:03Z</time>
      </trkpt>
      <trkpt lat="44.29108" lon="4.86949">
        <ele>119.7</ele>
        <time>2018-04-24T09:32:05Z</time>
      </trkpt>
      <trkpt lat="44.29106" lon="4.86968">
        <ele>119.7</ele>
        <time>2018-04-24T09:32:07Z</time>
      </trkpt>
      <trkpt lat="44.29104" lon="4.86986">
        <ele>119.6</ele>
        <time>2018-04-24T09:32:09Z</time>
      </trkpt>
      <trkpt lat="44.29103" lon="4.87004">
        <ele>119.4</ele>
        <time>2018-04-24T09:32:11Z</time>
      </trkpt>
      <trkpt lat="44.29101" lon="4.87022">
        <ele>119.3</ele>
        <time>2018-04-24T09:32:13Z</time>
      </trkpt>
      <trkpt lat="44.291" lon="4.8704">
        <ele>119.2</ele>
        <time>2018-04-24T09:32:15Z</time>
      </trkpt>
      <trkpt lat="44.29099" lon="4.87058">
        <ele>119.4</ele>
        <time>2018-04-24T09:32:17Z</time>
      </trkpt>
      <trkpt lat="44.29099" lon="4.87076">
        <ele>119.4</ele>
        <time>2018-04-24T09:32:19Z</time>
      </trkpt>
      <trkpt lat="44.29098" lon="4.87094">
        <ele>119.4</ele>
        <time>2018-04-24T09:32:21Z</time>
      </trkpt>
      <trkpt lat="44.29097" lon="4.87111">
        <ele>119.4</ele>
        <time>2018-04-24T09:32:23Z</time>
      </trkpt>
      <trkpt lat="44.29095" lon="4.87129">
        <ele>119.2</ele>
        <time>2018-04-24T09:32:25Z</time>
      </trkpt>
      <trkpt lat="44.29092" lon="4.87146">
        <ele>119.4</ele>
        <time>2018-04-24T09:32:27Z</time>
      </trkpt>
      <trkpt lat="44.29086" lon="4.87163">
        <ele>119.4</ele>
        <time>2018-04-24T09:32:29Z</time>
      </trkpt>
      <trkpt lat="44.2908" lon="4.87178">
        <ele>119.4</ele>
        <time>2018-04-24T09:32:31Z</time>
      </trkpt>
      <trkpt lat="44.29072" lon="4.87193">
        <ele>119.6</ele>
        <time>2018-04-24T09:32:33Z</time>
      </trkpt>
      <trkpt lat="44.29065" lon="4.87207">
        <ele>119.8</ele>
        <time>2018-04-24T09:32:35Z</time>
      </trkpt>
      <trkpt lat="44.29057" lon="4.87221">
        <ele>120.2</ele>
        <time>2018-04-24T09:32:37Z</time>
      </trkpt>
      <trkpt lat="44.2905" lon="4.87235">
        <ele>120.3</ele>
        <time>2018-04-24T09:32:39Z</time>
      </trkpt>
      <trkpt lat="44.29042" lon="4.87249">
        <ele>120.7</ele>
        <time>2018-04-24T09:32:41Z</time>
      </trkpt>
      <trkpt lat="44.29035" lon="4.87263">
        <ele>121</ele>
        <time>2018-04-24T09:32:43Z</time>
      </trkpt>
      <trkpt lat="44.29028" lon="4.87277">
        <ele>121.2</ele>
        <time>2018-04-24T09:32:45Z</time>
      </trkpt>
      <trkpt lat="44.29021" lon="4.87291">
        <ele>121.5</ele>
        <time>2018-04-24T09:32:47Z</time>
      </trkpt>
      <trkpt lat="44.29014" lon="4.87305">
        <ele>121.8</ele>
        <time>2018-04-24T09:32:49Z</time>
      </trkpt>
      <trkpt lat="44.29007" lon="4.8732">
        <ele>122.1</ele>
        <time>2018-04-24T09:32:51Z</time>
      </trkpt>
      <trkpt lat="44.29" lon="4.87335">
        <ele>122.4</ele>
        <time>2018-04-24T09:32:53Z</time>
      </trkpt>
      <trkpt lat="44.28993" lon="4.87349">
        <ele>122.7</ele>
        <time>2018-04-24T09:32:55Z</time>
      </trkpt>
      <trkpt lat="44.28987" lon="4.87365">
        <ele>122.8</ele>
        <time>2018-04-24T09:32:57Z</time>
      </trkpt>
      <trkpt lat="44.28982" lon="4.8738">
        <ele>122.9</ele>
        <time>2018-04-24T09:32:59Z</time>
      </trkpt>
      <trkpt lat="44.28978" lon="4.87397">
        <ele>123.2</ele>
        <time>2018-04-24T09:33:01Z</time>
      </trkpt>
      <trkpt lat="44.28974" lon="4.87414">
        <ele>123.3</ele>
        <time>2018-04-24T09:33:03Z</time>
      </trkpt>
      <trkpt lat="44.2897" lon="4.8743">
        <ele>123.2</ele>
        <time>2018-04-24T09:33:05Z</time>
      </trkpt>
      <trkpt lat="44.28966" lon="4.87447">
        <ele>123.2</ele>
        <time>2018-04-24T09:33:07Z</time>
      </trkpt>
      <trkpt lat="44.28962" lon="4.87464">
        <ele>123.4</ele>
        <time>2018-04-24T09:33:09Z</time>
      </trkpt>
      <trkpt lat="44.28958" lon="4.87479">
        <ele>123.3</ele>
        <time>2018-04-24T09:33:11Z</time>
      </trkpt>
      <trkpt lat="44.28955" lon="4.87493">
        <ele>123.6</ele>
        <time>2018-04-24T09:33:13Z</time>
      </trkpt>
      <trkpt lat="44.28952" lon="4.87506">
        <ele>123.9</ele>
        <time>2018-04-24T09:33:16Z</time>
      </trkpt>
      <trkpt lat="44.28947" lon="4.87521">
        <ele>124.3</ele>
        <time>2018-04-24T09:33:19Z</time>
      </trkpt>
      <trkpt lat="44.28943" lon="4.87535">
        <ele>124.3</ele>
        <time>2018-04-24T09:33:21Z</time>
      </trkpt>
      <trkpt lat="44.28937" lon="4.87548">
        <ele>124.5</ele>
        <time>2018-04-24T09:33:23Z</time>
      </trkpt>
      <trkpt lat="44.28931" lon="4.87562">
        <ele>124.7</ele>
        <time>2018-04-24T09:33:25Z</time>
      </trkpt>
      <trkpt lat="44.28925" lon="4.87576">
        <ele>124.9</ele>
        <time>2018-04-24T09:33:27Z</time>
      </trkpt>
      <trkpt lat="44.28919" lon="4.87591">
        <ele>125</ele>
        <time>2018-04-24T09:33:29Z</time>
      </trkpt>
      <trkpt lat="44.28912" lon="4.87606">
        <ele>124.8</ele>
        <time>2018-04-24T09:33:31Z</time>
      </trkpt>
      <trkpt lat="44.28904" lon="4.8762">
        <ele>124.9</ele>
        <time>2018-04-24T09:33:33Z</time>
      </trkpt>
      <trkpt lat="44.28895" lon="4.87634">
        <ele>125.1</ele>
        <time>2018-04-24T09:33:35Z</time>
      </trkpt>
      <trkpt lat="44.28887" lon="4.87649">
        <ele>125.3</ele>
        <time>2018-04-24T09:33:37Z</time>
      </trkpt>
      <trkpt lat="44.28881" lon="4.87665">
        <ele>125</ele>
        <time>2018-04-24T09:33:39Z</time>
      </trkpt>
      <trkpt lat="44.28874" lon="4.87681">
        <ele>124.9</ele>
        <time>2018-04-24T09:33:41Z</time>
      </trkpt>
      <trkpt lat="44.28867" lon="4.87697">
        <ele>124.9</ele>
        <time>2018-04-24T09:33:43Z</time>
      </trkpt>
      <trkpt lat="44.28861" lon="4.87714">
        <ele>124.9</ele>
        <time>2018-04-24T09:33:45Z</time>
      </trkpt>
      <trkpt lat="44.28854" lon="4.8773">
        <ele>124.9</ele>
        <time>2018-04-24T09:33:47Z</time>
      </trkpt>
      <trkpt lat="44.28847" lon="4.87746">
        <ele>125.1</ele>
        <time>2018-04-24T09:33:49Z</time>
      </trkpt>
      <trkpt lat="44.28842" lon="4.87764">
        <ele>125.4</ele>
        <time>2018-04-24T09:33:51Z</time>
      </trkpt>
      <trkpt lat="44.28837" lon="4.87781">
        <ele>125.6</ele>
        <time>2018-04-24T09:33:53Z</time>
      </trkpt>
      <trkpt lat="44.28833" lon="4.87799">
        <ele>125.8</ele>
        <time>2018-04-24T09:33:55Z</time>
      </trkpt>
      <trkpt lat="44.28828" lon="4.87816">
        <ele>126</ele>
        <time>2018-04-24T09:33:57Z</time>
      </trkpt>
      <trkpt lat="44.28824" lon="4.87833">
        <ele>126.1</ele>
        <time>2018-04-24T09:33:59Z</time>
      </trkpt>
      <trkpt lat="44.28819" lon="4.8785">
        <ele>126.1</ele>
        <time>2018-04-24T09:34:01Z</time>
      </trkpt>
      <trkpt lat="44.28813" lon="4.87867">
        <ele>126.1</ele>
        <time>2018-04-24T09:34:03Z</time>
      </trkpt>
      <trkpt lat="44.28807" lon="4.87883">
        <ele>125.8</ele>
        <time>2018-04-24T09:34:05Z</time>
      </trkpt>
      <trkpt lat="44.28801" lon="4.879">
        <ele>125.6</ele>
        <time>2018-04-24T09:34:07Z</time>
      </trkpt>
      <trkpt lat="44.28795" lon="4.87916">
        <ele>125.6</ele>
        <time>2018-04-24T09:34:09Z</time>
      </trkpt>
      <trkpt lat="44.28788" lon="4.87932">
        <ele>125.7</ele>
        <time>2018-04-24T09:34:11Z</time>
      </trkpt>
      <trkpt lat="44.28781" lon="4.87947">
        <ele>125.7</ele>
        <time>2018-04-24T09:34:13Z</time>
      </trkpt>
      <trkpt lat="44.28775" lon="4.87962">
        <ele>125.5</ele>
        <time>2018-04-24T09:34:15Z</time>
      </trkpt>
      <trkpt lat="44.28768" lon="4.87977">
        <ele>125.7</ele>
        <time>2018-04-24T09:34:17Z</time>
      </trkpt>
      <trkpt lat="44.28762" lon="4.87992">
        <ele>126.1</ele>
        <time>2018-04-24T09:34:19Z</time>
      </trkpt>
      <trkpt lat="44.28756" lon="4.88008">
        <ele>126.3</ele>
        <time>2018-04-24T09:34:21Z</time>
      </trkpt>
      <trkpt lat="44.28752" lon="4.88025">
        <ele>126.5</ele>
        <time>2018-04-24T09:34:23Z</time>
      </trkpt>
      <trkpt lat="44.28748" lon="4.88042">
        <ele>126.8</ele>
        <time>2018-04-24T09:34:25Z</time>
      </trkpt>
      <trkpt lat="44.28746" lon="4.88058">
        <ele>127</ele>
        <time>2018-04-24T09:34:27Z</time>
      </trkpt>
      <trkpt lat="44.28744" lon="4.88074">
        <ele>127.2</ele>
        <time>2018-04-24T09:34:29Z</time>
      </trkpt>
      <trkpt lat="44.28743" lon="4.88088">
        <ele>127.2</ele>
        <time>2018-04-24T09:34:31Z</time>
      </trkpt>
      <trkpt lat="44.28745" lon="4.88106">
        <ele>127.4</ele>
        <time>2018-04-24T09:34:34Z</time>
      </trkpt>
      <trkpt lat="44.28754" lon="4.88111">
        <ele>127.6</ele>
        <time>2018-04-24T09:34:36Z</time>
      </trkpt>
      <trkpt lat="44.28764" lon="4.88111">
        <ele>127.7</ele>
        <time>2018-04-24T09:34:38Z</time>
      </trkpt>
      <trkpt lat="44.28775" lon="4.88111">
        <ele>127.8</ele>
        <time>2018-04-24T09:34:40Z</time>
      </trkpt>
      <trkpt lat="44.28785" lon="4.88113">
        <ele>128</ele>
        <time>2018-04-24T09:34:42Z</time>
      </trkpt>
      <trkpt lat="44.28796" lon="4.88115">
        <ele>127.9</ele>
        <time>2018-04-24T09:34:44Z</time>
      </trkpt>
      <trkpt lat="44.28807" lon="4.88119">
        <ele>128</ele>
        <time>2018-04-24T09:34:46Z</time>
      </trkpt>
      <trkpt lat="44.28818" lon="4.88122">
        <ele>128</ele>
        <time>2018-04-24T09:34:48Z</time>
      </trkpt>
      <trkpt lat="44.28828" lon="4.88123">
        <ele>127.9</ele>
        <time>2018-04-24T09:34:50Z</time>
      </trkpt>
      <trkpt lat="44.28839" lon="4.88124">
        <ele>127.8</ele>
        <time>2018-04-24T09:34:52Z</time>
      </trkpt>
      <trkpt lat="44.28851" lon="4.88123">
        <ele>127.6</ele>
        <time>2018-04-24T09:34:54Z</time>
      </trkpt>
      <trkpt lat="44.28862" lon="4.88124">
        <ele>127.5</ele>
        <time>2018-04-24T09:34:56Z</time>
      </trkpt>
      <trkpt lat="44.28873" lon="4.88124">
        <ele>127.2</ele>
        <time>2018-04-24T09:34:58Z</time>
      </trkpt>
      <trkpt lat="44.28884" lon="4.88125">
        <ele>127</ele>
        <time>2018-04-24T09:35:00Z</time>
      </trkpt>
      <trkpt lat="44.28895" lon="4.88126">
        <ele>127</ele>
        <time>2018-04-24T09:35:02Z</time>
      </trkpt>
      <trkpt lat="44.28905" lon="4.88127">
        <ele>127.2</ele>
        <time>2018-04-24T09:35:04Z</time>
      </trkpt>
      <trkpt lat="44.28915" lon="4.88127">
        <ele>127.2</ele>
        <time>2018-04-24T09:35:06Z</time>
      </trkpt>
      <trkpt lat="44.28924" lon="4.88128">
        <ele>127.2</ele>
        <time>2018-04-24T09:35:08Z</time>
      </trkpt>
      <trkpt lat="44.28936" lon="4.88129">
        <ele>127.2</ele>
        <time>2018-04-24T09:35:11Z</time>
      </trkpt>
      <trkpt lat="44.28947" lon="4.88128">
        <ele>127.3</ele>
        <time>2018-04-24T09:35:15Z</time>
      </trkpt>
      <trkpt lat="44.28949" lon="4.88114">
        <ele>127.9</ele>
        <time>2018-04-24T09:35:21Z</time>
      </trkpt>
      <trkpt lat="44.28956" lon="4.88104">
        <ele>126.6</ele>
        <time>2018-04-24T09:37:46Z</time>
      </trkpt>
      <trkpt lat="44.28968" lon="4.88102">
        <ele>127.3</ele>
        <time>2018-04-24T09:37:50Z</time>
      </trkpt>
      <trkpt lat="44.28978" lon="4.88099">
        <ele>127.6</ele>
        <time>2018-04-24T09:37:53Z</time>
      </trkpt>
      <trkpt lat="44.2899" lon="4.88095">
        <ele>127.9</ele>
        <time>2018-04-24T09:37:56Z</time>
      </trkpt>
      <trkpt lat="44.29003" lon="4.88092">
        <ele>128</ele>
        <time>2018-04-24T09:37:59Z</time>
      </trkpt>
      <trkpt lat="44.29016" lon="4.88088">
        <ele>128.1</ele>
        <time>2018-04-24T09:38:02Z</time>
      </trkpt>
      <trkpt lat="44.29024" lon="4.88086">
        <ele>128.3</ele>
        <time>2018-04-24T09:38:04Z</time>
      </trkpt>
      <trkpt lat="44.29034" lon="4.88083">
        <ele>128.6</ele>
        <time>2018-04-24T09:38:06Z</time>
      </trkpt>
      <trkpt lat="44.29043" lon="4.8808">
        <ele>128.8</ele>
        <time>2018-04-24T09:38:08Z</time>
      </trkpt>
      <trkpt lat="44.29052" lon="4.88078">
        <ele>129</ele>
        <time>2018-04-24T09:38:10Z</time>
      </trkpt>
      <trkpt lat="44.29062" lon="4.88075">
        <ele>129.1</ele>
        <time>2018-04-24T09:38:12Z</time>
      </trkpt>
      <trkpt lat="44.29071" lon="4.88072">
        <ele>129</ele>
        <time>2018-04-24T09:38:14Z</time>
      </trkpt>
      <trkpt lat="44.29081" lon="4.88069">
        <ele>128.9</ele>
        <time>2018-04-24T09:38:16Z</time>
      </trkpt>
      <trkpt lat="44.2909" lon="4.88067">
        <ele>129</ele>
        <time>2018-04-24T09:38:18Z</time>
      </trkpt>
      <trkpt lat="44.291" lon="4.88064">
        <ele>129.2</ele>
        <time>2018-04-24T09:38:20Z</time>
      </trkpt>
      <trkpt lat="44.2911" lon="4.88061">
        <ele>129.4</ele>
        <time>2018-04-24T09:38:22Z</time>
      </trkpt>
      <trkpt lat="44.2912" lon="4.88058">
        <ele>129.4</ele>
        <time>2018-04-24T09:38:24Z</time>
      </trkpt>
      <trkpt lat="44.2913" lon="4.88055">
        <ele>129.4</ele>
        <time>2018-04-24T09:38:26Z</time>
      </trkpt>
      <trkpt lat="44.2914" lon="4.88053">
        <ele>129.2</ele>
        <time>2018-04-24T09:38:28Z</time>
      </trkpt>
      <trkpt lat="44.2915" lon="4.8805">
        <ele>129</ele>
        <time>2018-04-24T09:38:30Z</time>
      </trkpt>
      <trkpt lat="44.2916" lon="4.88047">
        <ele>129</ele>
        <time>2018-04-24T09:38:32Z</time>
      </trkpt>
      <trkpt lat="44.2917" lon="4.88044">
        <ele>128.8</ele>
        <time>2018-04-24T09:38:34Z</time>
      </trkpt>
      <trkpt lat="44.2918" lon="4.88041">
        <ele>128.6</ele>
        <time>2018-04-24T09:38:36Z</time>
      </trkpt>
      <trkpt lat="44.2919" lon="4.88038">
        <ele>128.3</ele>
        <time>2018-04-24T09:38:38Z</time>
      </trkpt>
      <trkpt lat="44.292" lon="4.88035">
        <ele>128.3</ele>
        <time>2018-04-24T09:38:40Z</time>
      </trkpt>
      <trkpt lat="44.2921" lon="4.88032">
        <ele>128.1</ele>
        <time>2018-04-24T09:38:42Z</time>
      </trkpt>
      <trkpt lat="44.29221" lon="4.88029">
        <ele>128</ele>
        <time>2018-04-24T09:38:44Z</time>
      </trkpt>
      <trkpt lat="44.29231" lon="4.88026">
        <ele>127.8</ele>
        <time>2018-04-24T09:38:46Z</time>
      </trkpt>
      <trkpt lat="44.2924" lon="4.88023">
        <ele>127.6</ele>
        <time>2018-04-24T09:38:48Z</time>
      </trkpt>
      <trkpt lat="44.29251" lon="4.88017">
        <ele>127.2</ele>
        <time>2018-04-24T09:38:51Z</time>
      </trkpt>
      <trkpt lat="44.29255" lon="4.88004">
        <ele>127.1</ele>
        <time>2018-04-24T09:38:54Z</time>
      </trkpt>
      <trkpt lat="44.29264" lon="4.87998">
        <ele>127.1</ele>
        <time>2018-04-24T09:38:57Z</time>
      </trkpt>
      <trkpt lat="44.29276" lon="4.8799">
        <ele>127.3</ele>
        <time>2018-04-24T09:39:00Z</time>
      </trkpt>
      <trkpt lat="44.29285" lon="4.87985">
        <ele>127.2</ele>
        <time>2018-04-24T09:39:02Z</time>
      </trkpt>
      <trkpt lat="44.29294" lon="4.8798">
        <ele>127</ele>
        <time>2018-04-24T09:39:04Z</time>
      </trkpt>
      <trkpt lat="44.29303" lon="4.87975">
        <ele>126.9</ele>
        <time>2018-04-24T09:39:06Z</time>
      </trkpt>
      <trkpt lat="44.29312" lon="4.87972">
        <ele>126.7</ele>
        <time>2018-04-24T09:39:08Z</time>
      </trkpt>
      <trkpt lat="44.29322" lon="4.87967">
        <ele>126.4</ele>
        <time>2018-04-24T09:39:10Z</time>
      </trkpt>
      <trkpt lat="44.2933" lon="4.87959">
        <ele>126.2</ele>
        <time>2018-04-24T09:39:12Z</time>
      </trkpt>
      <trkpt lat="44.29338" lon="4.8795">
        <ele>125.9</ele>
        <time>2018-04-24T09:39:14Z</time>
      </trkpt>
      <trkpt lat="44.29347" lon="4.87939">
        <ele>125.7</ele>
        <time>2018-04-24T09:39:16Z</time>
      </trkpt>
      <trkpt lat="44.29355" lon="4.87929">
        <ele>125.7</ele>
        <time>2018-04-24T09:39:18Z</time>
      </trkpt>
      <trkpt lat="44.29365" lon="4.87919">
        <ele>125.2</ele>
        <time>2018-04-24T09:39:20Z</time>
      </trkpt>
      <trkpt lat="44.29374" lon="4.87912">
        <ele>125</ele>
        <time>2018-04-24T09:39:22Z</time>
      </trkpt>
      <trkpt lat="44.29385" lon="4.87906">
        <ele>124.8</ele>
        <time>2018-04-24T09:39:24Z</time>
      </trkpt>
      <trkpt lat="44.29396" lon="4.87904">
        <ele>124.6</ele>
        <time>2018-04-24T09:39:26Z</time>
      </trkpt>
      <trkpt lat="44.29406" lon="4.87903">
        <ele>124.2</ele>
        <time>2018-04-24T09:39:28Z</time>
      </trkpt>
      <trkpt lat="44.29416" lon="4.87904">
        <ele>123.7</ele>
        <time>2018-04-24T09:39:30Z</time>
      </trkpt>
      <trkpt lat="44.29428" lon="4.87902">
        <ele>123.1</ele>
        <time>2018-04-24T09:39:33Z</time>
      </trkpt>
      <trkpt lat="44.29434" lon="4.87888">
        <ele>122.6</ele>
        <time>2018-04-24T09:39:36Z</time>
      </trkpt>
      <trkpt lat="44.29441" lon="4.87872">
        <ele>122.4</ele>
        <time>2018-04-24T09:39:39Z</time>
      </trkpt>
      <trkpt lat="44.29447" lon="4.87862">
        <ele>121.9</ele>
        <time>2018-04-24T09:39:41Z</time>
      </trkpt>
      <trkpt lat="44.29453" lon="4.87851">
        <ele>121.7</ele>
        <time>2018-04-24T09:39:43Z</time>
      </trkpt>
      <trkpt lat="44.2946" lon="4.87839">
        <ele>121.4</ele>
        <time>2018-04-24T09:39:45Z</time>
      </trkpt>
      <trkpt lat="44.29467" lon="4.87828">
        <ele>121.1</ele>
        <time>2018-04-24T09:39:47Z</time>
      </trkpt>
      <trkpt lat="44.29474" lon="4.87817">
        <ele>120.7</ele>
        <time>2018-04-24T09:39:49Z</time>
      </trkpt>
      <trkpt lat="44.29481" lon="4.87806">
        <ele>120.5</ele>
        <time>2018-04-24T09:39:51Z</time>
      </trkpt>
      <trkpt lat="44.29487" lon="4.87793">
        <ele>120.5</ele>
        <time>2018-04-24T09:39:53Z</time>
      </trkpt>
      <trkpt lat="44.29493" lon="4.87781">
        <ele>120.5</ele>
        <time>2018-04-24T09:39:55Z</time>
      </trkpt>
      <trkpt lat="44.29499" lon="4.87769">
        <ele>120.6</ele>
        <time>2018-04-24T09:39:57Z</time>
      </trkpt>
      <trkpt lat="44.29505" lon="4.87757">
        <ele>120.5</ele>
        <time>2018-04-24T09:39:59Z</time>
      </trkpt>
      <trkpt lat="44.29511" lon="4.87745">
        <ele>120.4</ele>
        <time>2018-04-24T09:40:01Z</time>
      </trkpt>
      <trkpt lat="44.29517" lon="4.87733">
        <ele>120.7</ele>
        <time>2018-04-24T09:40:03Z</time>
      </trkpt>
      <trkpt lat="44.29522" lon="4.87721">
        <ele>120.8</ele>
        <time>2018-04-24T09:40:05Z</time>
      </trkpt>
      <trkpt lat="44.29528" lon="4.87709">
        <ele>121</ele>
        <time>2018-04-24T09:40:07Z</time>
      </trkpt>
      <trkpt lat="44.29534" lon="4.87697">
        <ele>121.2</ele>
        <time>2018-04-24T09:40:09Z</time>
      </trkpt>
      <trkpt lat="44.29539" lon="4.87684">
        <ele>121.5</ele>
        <time>2018-04-24T09:40:11Z</time>
      </trkpt>
      <trkpt lat="44.29544" lon="4.8767">
        <ele>121.7</ele>
        <time>2018-04-24T09:40:13Z</time>
      </trkpt>
      <trkpt lat="44.29548" lon="4.87656">
        <ele>121.8</ele>
        <time>2018-04-24T09:40:15Z</time>
      </trkpt>
      <trkpt lat="44.29551" lon="4.8764">
        <ele>121.8</ele>
        <time>2018-04-24T09:40:17Z</time>
      </trkpt>
      <trkpt lat="44.29552" lon="4.87624">
        <ele>121.7</ele>
        <time>2018-04-24T09:40:19Z</time>
      </trkpt>
      <trkpt lat="44.29552" lon="4.87608">
        <ele>121.6</ele>
        <time>2018-04-24T09:40:21Z</time>
      </trkpt>
      <trkpt lat="44.29553" lon="4.87591">
        <ele>121.3</ele>
        <time>2018-04-24T09:40:23Z</time>
      </trkpt>
      <trkpt lat="44.29553" lon="4.87575">
        <ele>121.1</ele>
        <time>2018-04-24T09:40:25Z</time>
      </trkpt>
      <trkpt lat="44.29553" lon="4.87558">
        <ele>120.9</ele>
        <time>2018-04-24T09:40:27Z</time>
      </trkpt>
      <trkpt lat="44.29553" lon="4.87541">
        <ele>120.5</ele>
        <time>2018-04-24T09:40:29Z</time>
      </trkpt>
      <trkpt lat="44.29553" lon="4.87524">
        <ele>120</ele>
        <time>2018-04-24T09:40:31Z</time>
      </trkpt>
      <trkpt lat="44.29553" lon="4.87508">
        <ele>119.6</ele>
        <time>2018-04-24T09:40:33Z</time>
      </trkpt>
      <trkpt lat="44.29554" lon="4.87493">
        <ele>119.1</ele>
        <time>2018-04-24T09:40:35Z</time>
      </trkpt>
      <trkpt lat="44.2956" lon="4.8748">
        <ele>118.6</ele>
        <time>2018-04-24T09:40:37Z</time>
      </trkpt>
      <trkpt lat="44.2957" lon="4.87469">
        <ele>118.2</ele>
        <time>2018-04-24T09:40:39Z</time>
      </trkpt>
      <trkpt lat="44.29582" lon="4.87458">
        <ele>117.5</ele>
        <time>2018-04-24T09:40:41Z</time>
      </trkpt>
      <trkpt lat="44.29594" lon="4.87447">
        <ele>116.9</ele>
        <time>2018-04-24T09:40:43Z</time>
      </trkpt>
      <trkpt lat="44.29606" lon="4.87435">
        <ele>116.3</ele>
        <time>2018-04-24T09:40:45Z</time>
      </trkpt>
      <trkpt lat="44.29619" lon="4.87422">
        <ele>115.6</ele>
        <time>2018-04-24T09:40:47Z</time>
      </trkpt>
      <trkpt lat="44.29632" lon="4.87409">
        <ele>114.9</ele>
        <time>2018-04-24T09:40:49Z</time>
      </trkpt>
      <trkpt lat="44.29646" lon="4.87396">
        <ele>114.3</ele>
        <time>2018-04-24T09:40:51Z</time>
      </trkpt>
      <trkpt lat="44.29659" lon="4.87385">
        <ele>113.7</ele>
        <time>2018-04-24T09:40:53Z</time>
      </trkpt>
      <trkpt lat="44.29672" lon="4.87375">
        <ele>113.1</ele>
        <time>2018-04-24T09:40:55Z</time>
      </trkpt>
      <trkpt lat="44.29684" lon="4.87364">
        <ele>112.5</ele>
        <time>2018-04-24T09:40:57Z</time>
      </trkpt>
      <trkpt lat="44.29694" lon="4.87355">
        <ele>112.1</ele>
        <time>2018-04-24T09:40:59Z</time>
      </trkpt>
      <trkpt lat="44.29703" lon="4.87346">
        <ele>111.8</ele>
        <time>2018-04-24T09:41:01Z</time>
      </trkpt>
      <trkpt lat="44.29712" lon="4.87339">
        <ele>111.5</ele>
        <time>2018-04-24T09:41:03Z</time>
      </trkpt>
      <trkpt lat="44.29725" lon="4.8734">
        <ele>111.3</ele>
        <time>2018-04-24T09:41:06Z</time>
      </trkpt>
      <trkpt lat="44.29732" lon="4.87354">
        <ele>111</ele>
        <time>2018-04-24T09:41:08Z</time>
      </trkpt>
      <trkpt lat="44.29737" lon="4.8737">
        <ele>110.8</ele>
        <time>2018-04-24T09:41:10Z</time>
      </trkpt>
      <trkpt lat="44.29744" lon="4.87385">
        <ele>110.1</ele>
        <time>2018-04-24T09:41:12Z</time>
      </trkpt>
      <trkpt lat="44.29751" lon="4.87401">
        <ele>109.6</ele>
        <time>2018-04-24T09:41:14Z</time>
      </trkpt>
      <trkpt lat="44.29759" lon="4.87412">
        <ele>109.4</ele>
        <time>2018-04-24T09:41:16Z</time>
      </trkpt>
      <trkpt lat="44.29768" lon="4.8742">
        <ele>109.2</ele>
        <time>2018-04-24T09:41:18Z</time>
      </trkpt>
      <trkpt lat="44.29779" lon="4.87422">
        <ele>109</ele>
        <time>2018-04-24T09:41:21Z</time>
      </trkpt>
      <trkpt lat="44.29789" lon="4.87421">
        <ele>109</ele>
        <time>2018-04-24T09:41:24Z</time>
      </trkpt>
      <trkpt lat="44.298" lon="4.87418">
        <ele>109.5</ele>
        <time>2018-04-24T09:41:28Z</time>
      </trkpt>
      <trkpt lat="44.29808" lon="4.87415">
        <ele>110.8</ele>
        <time>2018-04-24T09:43:08Z</time>
      </trkpt>
      <trkpt lat="44.29817" lon="4.87407">
        <ele>110.8</ele>
        <time>2018-04-24T09:43:12Z</time>
      </trkpt>
      <trkpt lat="44.29825" lon="4.87402">
        <ele>110.9</ele>
        <time>2018-04-24T09:43:15Z</time>
      </trkpt>
      <trkpt lat="44.29836" lon="4.87401">
        <ele>110.9</ele>
        <time>2018-04-24T09:43:18Z</time>
      </trkpt>
      <trkpt lat="44.29848" lon="4.87402">
        <ele>110.9</ele>
        <time>2018-04-24T09:43:21Z</time>
      </trkpt>
      <trkpt lat="44.2986" lon="4.87405">
        <ele>111.1</ele>
        <time>2018-04-24T09:43:24Z</time>
      </trkpt>
      <trkpt lat="44.29873" lon="4.87407">
        <ele>111.2</ele>
        <time>2018-04-24T09:43:27Z</time>
      </trkpt>
      <trkpt lat="44.29884" lon="4.87409">
        <ele>111.6</ele>
        <time>2018-04-24T09:43:30Z</time>
      </trkpt>
      <trkpt lat="44.29897" lon="4.87412">
        <ele>111.8</ele>
        <time>2018-04-24T09:43:33Z</time>
      </trkpt>
      <trkpt lat="44.29909" lon="4.87413">
        <ele>112</ele>
        <time>2018-04-24T09:43:36Z</time>
      </trkpt>
      <trkpt lat="44.29919" lon="4.87417">
        <ele>112.2</ele>
        <time>2018-04-24T09:43:39Z</time>
      </trkpt>
      <trkpt lat="44.29928" lon="4.87422">
        <ele>112.7</ele>
        <time>2018-04-24T09:43:44Z</time>
      </trkpt>
      <trkpt lat="44.29934" lon="4.87436">
        <ele>112.8</ele>
        <time>2018-04-24T09:43:47Z</time>
      </trkpt>
      <trkpt lat="44.29939" lon="4.87452">
        <ele>112.9</ele>
        <time>2018-04-24T09:43:50Z</time>
      </trkpt>
      <trkpt lat="44.29943" lon="4.8747">
        <ele>112.7</ele>
        <time>2018-04-24T09:43:53Z</time>
      </trkpt>
      <trkpt lat="44.29944" lon="4.87484">
        <ele>112.8</ele>
        <time>2018-04-24T09:43:55Z</time>
      </trkpt>
      <trkpt lat="44.29942" lon="4.87499">
        <ele>113</ele>
        <time>2018-04-24T09:43:57Z</time>
      </trkpt>
      <trkpt lat="44.2994" lon="4.87513">
        <ele>113.4</ele>
        <time>2018-04-24T09:43:59Z</time>
      </trkpt>
      <trkpt lat="44.29938" lon="4.87527">
        <ele>113.5</ele>
        <time>2018-04-24T09:44:01Z</time>
      </trkpt>
      <trkpt lat="44.29937" lon="4.87543">
        <ele>113.5</ele>
        <time>2018-04-24T09:44:03Z</time>
      </trkpt>
      <trkpt lat="44.29935" lon="4.87559">
        <ele>113.6</ele>
        <time>2018-04-24T09:44:05Z</time>
      </trkpt>
      <trkpt lat="44.29934" lon="4.87574">
        <ele>113.7</ele>
        <time>2018-04-24T09:44:07Z</time>
      </trkpt>
      <trkpt lat="44.29932" lon="4.8759">
        <ele>113.8</ele>
        <time>2018-04-24T09:44:09Z</time>
      </trkpt>
      <trkpt lat="44.2993" lon="4.87605">
        <ele>113.8</ele>
        <time>2018-04-24T09:44:11Z</time>
      </trkpt>
      <trkpt lat="44.29928" lon="4.87621">
        <ele>113.8</ele>
        <time>2018-04-24T09:44:13Z</time>
      </trkpt>
      <trkpt lat="44.29926" lon="4.87636">
        <ele>113.9</ele>
        <time>2018-04-24T09:44:15Z</time>
      </trkpt>
      <trkpt lat="44.29925" lon="4.87651">
        <ele>113.9</ele>
        <time>2018-04-24T09:44:17Z</time>
      </trkpt>
      <trkpt lat="44.29926" lon="4.87666">
        <ele>113.8</ele>
        <time>2018-04-24T09:44:19Z</time>
      </trkpt>
      <trkpt lat="44.29929" lon="4.87682">
        <ele>113.8</ele>
        <time>2018-04-24T09:44:21Z</time>
      </trkpt>
      <trkpt lat="44.29933" lon="4.87697">
        <ele>113.7</ele>
        <time>2018-04-24T09:44:23Z</time>
      </trkpt>
      <trkpt lat="44.29939" lon="4.87712">
        <ele>113.6</ele>
        <time>2018-04-24T09:44:25Z</time>
      </trkpt>
      <trkpt lat="44.29944" lon="4.87727">
        <ele>113.4</ele>
        <time>2018-04-24T09:44:27Z</time>
      </trkpt>
      <trkpt lat="44.2995" lon="4.87741">
        <ele>113.3</ele>
        <time>2018-04-24T09:44:29Z</time>
      </trkpt>
      <trkpt lat="44.29956" lon="4.87755">
        <ele>113.3</ele>
        <time>2018-04-24T09:44:31Z</time>
      </trkpt>
      <trkpt lat="44.29963" lon="4.87768">
        <ele>113.2</ele>
        <time>2018-04-24T09:44:33Z</time>
      </trkpt>
      <trkpt lat="44.29969" lon="4.8778">
        <ele>113.1</ele>
        <time>2018-04-24T09:44:35Z</time>
      </trkpt>
      <trkpt lat="44.29976" lon="4.87792">
        <ele>113</ele>
        <time>2018-04-24T09:44:37Z</time>
      </trkpt>
      <trkpt lat="44.29984" lon="4.87802">
        <ele>113.1</ele>
        <time>2018-04-24T09:44:39Z</time>
      </trkpt>
      <trkpt lat="44.29992" lon="4.87812">
        <ele>113.3</ele>
        <time>2018-04-24T09:44:41Z</time>
      </trkpt>
      <trkpt lat="44.3" lon="4.87822">
        <ele>113.5</ele>
        <time>2018-04-24T09:44:43Z</time>
      </trkpt>
      <trkpt lat="44.30008" lon="4.87831">
        <ele>113.9</ele>
        <time>2018-04-24T09:44:45Z</time>
      </trkpt>
      <trkpt lat="44.30016" lon="4.87839">
        <ele>114.1</ele>
        <time>2018-04-24T09:44:47Z</time>
      </trkpt>
      <trkpt lat="44.30023" lon="4.87849">
        <ele>114.2</ele>
        <time>2018-04-24T09:44:49Z</time>
      </trkpt>
      <trkpt lat="44.30031" lon="4.87858">
        <ele>114.2</ele>
        <time>2018-04-24T09:44:51Z</time>
      </trkpt>
      <trkpt lat="44.3004" lon="4.87867">
        <ele>114.1</ele>
        <time>2018-04-24T09:44:53Z</time>
      </trkpt>
      <trkpt lat="44.30048" lon="4.87877">
        <ele>114.2</ele>
        <time>2018-04-24T09:44:55Z</time>
      </trkpt>
      <trkpt lat="44.30057" lon="4.87886">
        <ele>114.2</ele>
        <time>2018-04-24T09:44:57Z</time>
      </trkpt>
      <trkpt lat="44.30065" lon="4.87896">
        <ele>114.3</ele>
        <time>2018-04-24T09:44:59Z</time>
      </trkpt>
      <trkpt lat="44.30074" lon="4.87906">
        <ele>114.5</ele>
        <time>2018-04-24T09:45:01Z</time>
      </trkpt>
      <trkpt lat="44.30083" lon="4.87916">
        <ele>114.6</ele>
        <time>2018-04-24T09:45:03Z</time>
      </trkpt>
      <trkpt lat="44.30091" lon="4.87925">
        <ele>114.5</ele>
        <time>2018-04-24T09:45:05Z</time>
      </trkpt>
      <trkpt lat="44.30099" lon="4.87935">
        <ele>114.5</ele>
        <time>2018-04-24T09:45:07Z</time>
      </trkpt>
      <trkpt lat="44.30107" lon="4.87944">
        <ele>114.5</ele>
        <time>2018-04-24T09:45:09Z</time>
      </trkpt>
      <trkpt lat="44.30115" lon="4.87954">
        <ele>114.6</ele>
        <time>2018-04-24T09:45:11Z</time>
      </trkpt>
      <trkpt lat="44.30119" lon="4.87967">
        <ele>114.6</ele>
        <time>2018-04-24T09:45:13Z</time>
      </trkpt>
      <trkpt lat="44.30116" lon="4.87981">
        <ele>114.7</ele>
        <time>2018-04-24T09:45:15Z</time>
      </trkpt>
      <trkpt lat="44.30112" lon="4.87995">
        <ele>114.7</ele>
        <time>2018-04-24T09:45:17Z</time>
      </trkpt>
      <trkpt lat="44.30108" lon="4.8801">
        <ele>114.8</ele>
        <time>2018-04-24T09:45:19Z</time>
      </trkpt>
      <trkpt lat="44.30103" lon="4.88024">
        <ele>114.9</ele>
        <time>2018-04-24T09:45:21Z</time>
      </trkpt>
      <trkpt lat="44.30098" lon="4.88038">
        <ele>115</ele>
        <time>2018-04-24T09:45:23Z</time>
      </trkpt>
      <trkpt lat="44.30093" lon="4.88053">
        <ele>115.2</ele>
        <time>2018-04-24T09:45:25Z</time>
      </trkpt>
      <trkpt lat="44.30088" lon="4.88068">
        <ele>115.2</ele>
        <time>2018-04-24T09:45:27Z</time>
      </trkpt>
      <trkpt lat="44.30083" lon="4.88083">
        <ele>115.3</ele>
        <time>2018-04-24T09:45:29Z</time>
      </trkpt>
      <trkpt lat="44.30078" lon="4.88098">
        <ele>115.3</ele>
        <time>2018-04-24T09:45:31Z</time>
      </trkpt>
      <trkpt lat="44.30073" lon="4.88113">
        <ele>115.2</ele>
        <time>2018-04-24T09:45:33Z</time>
      </trkpt>
      <trkpt lat="44.30068" lon="4.88129">
        <ele>115.3</ele>
        <time>2018-04-24T09:45:35Z</time>
      </trkpt>
      <trkpt lat="44.30063" lon="4.88145">
        <ele>115.3</ele>
        <time>2018-04-24T09:45:37Z</time>
      </trkpt>
      <trkpt lat="44.30059" lon="4.8816">
        <ele>115.4</ele>
        <time>2018-04-24T09:45:39Z</time>
      </trkpt>
      <trkpt lat="44.30055" lon="4.88177">
        <ele>115.6</ele>
        <time>2018-04-24T09:45:41Z</time>
      </trkpt>
      <trkpt lat="44.30051" lon="4.88194">
        <ele>115.9</ele>
        <time>2018-04-24T09:45:43Z</time>
      </trkpt>
      <trkpt lat="44.30047" lon="4.8821">
        <ele>116.2</ele>
        <time>2018-04-24T09:45:45Z</time>
      </trkpt>
      <trkpt lat="44.30045" lon="4.88226">
        <ele>116.5</ele>
        <time>2018-04-24T09:45:47Z</time>
      </trkpt>
      <trkpt lat="44.30043" lon="4.88244">
        <ele>116.8</ele>
        <time>2018-04-24T09:45:49Z</time>
      </trkpt>
      <trkpt lat="44.30041" lon="4.88261">
        <ele>116.8</ele>
        <time>2018-04-24T09:45:51Z</time>
      </trkpt>
      <trkpt lat="44.30039" lon="4.88279">
        <ele>117.1</ele>
        <time>2018-04-24T09:45:53Z</time>
      </trkpt>
      <trkpt lat="44.30038" lon="4.88297">
        <ele>117.3</ele>
        <time>2018-04-24T09:45:55Z</time>
      </trkpt>
      <trkpt lat="44.30037" lon="4.88314">
        <ele>117.4</ele>
        <time>2018-04-24T09:45:57Z</time>
      </trkpt>
      <trkpt lat="44.30035" lon="4.88331">
        <ele>117.6</ele>
        <time>2018-04-24T09:45:59Z</time>
      </trkpt>
      <trkpt lat="44.30034" lon="4.88349">
        <ele>117.7</ele>
        <time>2018-04-24T09:46:01Z</time>
      </trkpt>
      <trkpt lat="44.30033" lon="4.88367">
        <ele>117.7</ele>
        <time>2018-04-24T09:46:03Z</time>
      </trkpt>
      <trkpt lat="44.30031" lon="4.88384">
        <ele>117.7</ele>
        <time>2018-04-24T09:46:05Z</time>
      </trkpt>
      <trkpt lat="44.30031" lon="4.88402">
        <ele>117.9</ele>
        <time>2018-04-24T09:46:07Z</time>
      </trkpt>
      <trkpt lat="44.3003" lon="4.88419">
        <ele>117.9</ele>
        <time>2018-04-24T09:46:09Z</time>
      </trkpt>
      <trkpt lat="44.30028" lon="4.88436">
        <ele>117.8</ele>
        <time>2018-04-24T09:46:11Z</time>
      </trkpt>
      <trkpt lat="44.30027" lon="4.88453">
        <ele>117.7</ele>
        <time>2018-04-24T09:46:13Z</time>
      </trkpt>
      <trkpt lat="44.30026" lon="4.8847">
        <ele>117.8</ele>
        <time>2018-04-24T09:46:15Z</time>
      </trkpt>
      <trkpt lat="44.30025" lon="4.88487">
        <ele>117.9</ele>
        <time>2018-04-24T09:46:17Z</time>
      </trkpt>
      <trkpt lat="44.30024" lon="4.88504">
        <ele>117.8</ele>
        <time>2018-04-24T09:46:19Z</time>
      </trkpt>
      <trkpt lat="44.30022" lon="4.88521">
        <ele>117.6</ele>
        <time>2018-04-24T09:46:21Z</time>
      </trkpt>
      <trkpt lat="44.30021" lon="4.88538">
        <ele>117.5</ele>
        <time>2018-04-24T09:46:23Z</time>
      </trkpt>
      <trkpt lat="44.30019" lon="4.88557">
        <ele>117.2</ele>
        <time>2018-04-24T09:46:25Z</time>
      </trkpt>
      <trkpt lat="44.30017" lon="4.88575">
        <ele>116.9</ele>
        <time>2018-04-24T09:46:27Z</time>
      </trkpt>
      <trkpt lat="44.30016" lon="4.88594">
        <ele>116.6</ele>
        <time>2018-04-24T09:46:29Z</time>
      </trkpt>
      <trkpt lat="44.30016" lon="4.88611">
        <ele>116.1</ele>
        <time>2018-04-24T09:46:31Z</time>
      </trkpt>
      <trkpt lat="44.30021" lon="4.88626">
        <ele>115.7</ele>
        <time>2018-04-24T09:46:33Z</time>
      </trkpt>
      <trkpt lat="44.30029" lon="4.88636">
        <ele>115.4</ele>
        <time>2018-04-24T09:46:35Z</time>
      </trkpt>
      <trkpt lat="44.30039" lon="4.88644">
        <ele>115.1</ele>
        <time>2018-04-24T09:46:37Z</time>
      </trkpt>
      <trkpt lat="44.30049" lon="4.88649">
        <ele>114.8</ele>
        <time>2018-04-24T09:46:39Z</time>
      </trkpt>
      <trkpt lat="44.30059" lon="4.88653">
        <ele>114.7</ele>
        <time>2018-04-24T09:46:41Z</time>
      </trkpt>
      <trkpt lat="44.30069" lon="4.88659">
        <ele>114.9</ele>
        <time>2018-04-24T09:46:43Z</time>
      </trkpt>
      <trkpt lat="44.30078" lon="4.88666">
        <ele>115</ele>
        <time>2018-04-24T09:46:45Z</time>
      </trkpt>
      <trkpt lat="44.30087" lon="4.88674">
        <ele>115.2</ele>
        <time>2018-04-24T09:46:47Z</time>
      </trkpt>
      <trkpt lat="44.30096" lon="4.88681">
        <ele>115.5</ele>
        <time>2018-04-24T09:46:49Z</time>
      </trkpt>
      <trkpt lat="44.30104" lon="4.88689">
        <ele>115.5</ele>
        <time>2018-04-24T09:46:51Z</time>
      </trkpt>
      <trkpt lat="44.30113" lon="4.88696">
        <ele>115.3</ele>
        <time>2018-04-24T09:46:53Z</time>
      </trkpt>
      <trkpt lat="44.30121" lon="4.88704">
        <ele>115.7</ele>
        <time>2018-04-24T09:46:55Z</time>
      </trkpt>
      <trkpt lat="44.3013" lon="4.8871">
        <ele>115.9</ele>
        <time>2018-04-24T09:46:57Z</time>
      </trkpt>
      <trkpt lat="44.30139" lon="4.88717">
        <ele>116.1</ele>
        <time>2018-04-24T09:46:59Z</time>
      </trkpt>
      <trkpt lat="44.30147" lon="4.88722">
        <ele>116.3</ele>
        <time>2018-04-24T09:47:01Z</time>
      </trkpt>
      <trkpt lat="44.30156" lon="4.88727">
        <ele>116.3</ele>
        <time>2018-04-24T09:47:03Z</time>
      </trkpt>
      <trkpt lat="44.30164" lon="4.88732">
        <ele>116.4</ele>
        <time>2018-04-24T09:47:05Z</time>
      </trkpt>
      <trkpt lat="44.30176" lon="4.88739">
        <ele>116.5</ele>
        <time>2018-04-24T09:47:08Z</time>
      </trkpt>
      <trkpt lat="44.30188" lon="4.88746">
        <ele>116.8</ele>
        <time>2018-04-24T09:47:11Z</time>
      </trkpt>
      <trkpt lat="44.302" lon="4.88753">
        <ele>117</ele>
        <time>2018-04-24T09:47:14Z</time>
      </trkpt>
      <trkpt lat="44.30212" lon="4.88761">
        <ele>117.4</ele>
        <time>2018-04-24T09:47:17Z</time>
      </trkpt>
      <trkpt lat="44.30224" lon="4.8877">
        <ele>117.6</ele>
        <time>2018-04-24T09:47:20Z</time>
      </trkpt>
      <trkpt lat="44.30235" lon="4.88778">
        <ele>118</ele>
        <time>2018-04-24T09:47:23Z</time>
      </trkpt>
      <trkpt lat="44.30247" lon="4.88787">
        <ele>118</ele>
        <time>2018-04-24T09:47:26Z</time>
      </trkpt>
      <trkpt lat="44.30259" lon="4.88796">
        <ele>118.2</ele>
        <time>2018-04-24T09:47:29Z</time>
      </trkpt>
      <trkpt lat="44.3027" lon="4.88806">
        <ele>118.1</ele>
        <time>2018-04-24T09:47:32Z</time>
      </trkpt>
      <trkpt lat="44.30278" lon="4.88812">
        <ele>118.1</ele>
        <time>2018-04-24T09:47:34Z</time>
      </trkpt>
      <trkpt lat="44.30286" lon="4.88818">
        <ele>118</ele>
        <time>2018-04-24T09:47:36Z</time>
      </trkpt>
      <trkpt lat="44.30294" lon="4.88825">
        <ele>118.1</ele>
        <time>2018-04-24T09:47:38Z</time>
      </trkpt>
      <trkpt lat="44.30302" lon="4.88831">
        <ele>118.4</ele>
        <time>2018-04-24T09:47:40Z</time>
      </trkpt>
      <trkpt lat="44.3031" lon="4.88838">
        <ele>118.5</ele>
        <time>2018-04-24T09:47:42Z</time>
      </trkpt>
      <trkpt lat="44.30318" lon="4.88844">
        <ele>118.6</ele>
        <time>2018-04-24T09:47:44Z</time>
      </trkpt>
      <trkpt lat="44.30326" lon="4.8885">
        <ele>118.6</ele>
        <time>2018-04-24T09:47:46Z</time>
      </trkpt>
      <trkpt lat="44.30338" lon="4.88859">
        <ele>118.9</ele>
        <time>2018-04-24T09:47:49Z</time>
      </trkpt>
      <trkpt lat="44.30346" lon="4.88866">
        <ele>119.2</ele>
        <time>2018-04-24T09:47:51Z</time>
      </trkpt>
      <trkpt lat="44.30357" lon="4.88875">
        <ele>119.7</ele>
        <time>2018-04-24T09:47:54Z</time>
      </trkpt>
      <trkpt lat="44.30368" lon="4.88883">
        <ele>120.3</ele>
        <time>2018-04-24T09:47:57Z</time>
      </trkpt>
      <trkpt lat="44.30377" lon="4.88891">
        <ele>120.7</ele>
        <time>2018-04-24T09:48:00Z</time>
      </trkpt>
      <trkpt lat="44.30389" lon="4.889">
        <ele>120.9</ele>
        <time>2018-04-24T09:48:03Z</time>
      </trkpt>
      <trkpt lat="44.30399" lon="4.88908">
        <ele>121.5</ele>
        <time>2018-04-24T09:48:06Z</time>
      </trkpt>
      <trkpt lat="44.30405" lon="4.88919">
        <ele>122.1</ele>
        <time>2018-04-24T09:48:09Z</time>
      </trkpt>
      <trkpt lat="44.30411" lon="4.88928">
        <ele>122.3</ele>
        <time>2018-04-24T09:48:11Z</time>
      </trkpt>
      <trkpt lat="44.30418" lon="4.88937">
        <ele>122.6</ele>
        <time>2018-04-24T09:48:13Z</time>
      </trkpt>
      <trkpt lat="44.30425" lon="4.88946">
        <ele>122.9</ele>
        <time>2018-04-24T09:48:15Z</time>
      </trkpt>
      <trkpt lat="44.30432" lon="4.88956">
        <ele>122.9</ele>
        <time>2018-04-24T09:48:17Z</time>
      </trkpt>
      <trkpt lat="44.30438" lon="4.88966">
        <ele>123</ele>
        <time>2018-04-24T09:48:19Z</time>
      </trkpt>
      <trkpt lat="44.30445" lon="4.88976">
        <ele>122.9</ele>
        <time>2018-04-24T09:48:21Z</time>
      </trkpt>
      <trkpt lat="44.30452" lon="4.88985">
        <ele>122.9</ele>
        <time>2018-04-24T09:48:23Z</time>
      </trkpt>
      <trkpt lat="44.30459" lon="4.88994">
        <ele>122.5</ele>
        <time>2018-04-24T09:48:25Z</time>
      </trkpt>
      <trkpt lat="44.30466" lon="4.89002">
        <ele>122.2</ele>
        <time>2018-04-24T09:48:27Z</time>
      </trkpt>
      <trkpt lat="44.30473" lon="4.8901">
        <ele>122</ele>
        <time>2018-04-24T09:48:29Z</time>
      </trkpt>
      <trkpt lat="44.30479" lon="4.89019">
        <ele>121.8</ele>
        <time>2018-04-24T09:48:31Z</time>
      </trkpt>
      <trkpt lat="44.3049" lon="4.89031">
        <ele>121.1</ele>
        <time>2018-04-24T09:48:34Z</time>
      </trkpt>
      <trkpt lat="44.30497" lon="4.89039">
        <ele>120.8</ele>
        <time>2018-04-24T09:48:36Z</time>
      </trkpt>
      <trkpt lat="44.30504" lon="4.89047">
        <ele>120.8</ele>
        <time>2018-04-24T09:48:38Z</time>
      </trkpt>
      <trkpt lat="44.30512" lon="4.89055">
        <ele>120.8</ele>
        <time>2018-04-24T09:48:40Z</time>
      </trkpt>
      <trkpt lat="44.30519" lon="4.89062">
        <ele>120.8</ele>
        <time>2018-04-24T09:48:42Z</time>
      </trkpt>
      <trkpt lat="44.30527" lon="4.89069">
        <ele>120.8</ele>
        <time>2018-04-24T09:48:44Z</time>
      </trkpt>
      <trkpt lat="44.30535" lon="4.89075">
        <ele>120.5</ele>
        <time>2018-04-24T09:48:46Z</time>
      </trkpt>
      <trkpt lat="44.30544" lon="4.89081">
        <ele>120.5</ele>
        <time>2018-04-24T09:48:48Z</time>
      </trkpt>
      <trkpt lat="44.30552" lon="4.89087">
        <ele>120.5</ele>
        <time>2018-04-24T09:48:50Z</time>
      </trkpt>
      <trkpt lat="44.3056" lon="4.89092">
        <ele>120.4</ele>
        <time>2018-04-24T09:48:52Z</time>
      </trkpt>
      <trkpt lat="44.30568" lon="4.89098">
        <ele>120.2</ele>
        <time>2018-04-24T09:48:54Z</time>
      </trkpt>
      <trkpt lat="44.30577" lon="4.89104">
        <ele>120.1</ele>
        <time>2018-04-24T09:48:56Z</time>
      </trkpt>
      <trkpt lat="44.3059" lon="4.89109">
        <ele>120.2</ele>
        <time>2018-04-24T09:48:59Z</time>
      </trkpt>
      <trkpt lat="44.30602" lon="4.89113">
        <ele>120</ele>
        <time>2018-04-24T09:49:02Z</time>
      </trkpt>
      <trkpt lat="44.30614" lon="4.89116">
        <ele>120</ele>
        <time>2018-04-24T09:49:05Z</time>
      </trkpt>
      <trkpt lat="44.30627" lon="4.89119">
        <ele>120.3</ele>
        <time>2018-04-24T09:49:08Z</time>
      </trkpt>
      <trkpt lat="44.3064" lon="4.89124">
        <ele>120.5</ele>
        <time>2018-04-24T09:49:11Z</time>
      </trkpt>
      <trkpt lat="44.30652" lon="4.89128">
        <ele>120.6</ele>
        <time>2018-04-24T09:49:14Z</time>
      </trkpt>
      <trkpt lat="44.30664" lon="4.89132">
        <ele>120.6</ele>
        <time>2018-04-24T09:49:17Z</time>
      </trkpt>
      <trkpt lat="44.30676" lon="4.89134">
        <ele>120.8</ele>
        <time>2018-04-24T09:49:20Z</time>
      </trkpt>
      <trkpt lat="44.30689" lon="4.89137">
        <ele>121.2</ele>
        <time>2018-04-24T09:49:23Z</time>
      </trkpt>
      <trkpt lat="44.30701" lon="4.89141">
        <ele>121.5</ele>
        <time>2018-04-24T09:49:26Z</time>
      </trkpt>
      <trkpt lat="44.30712" lon="4.89144">
        <ele>121.7</ele>
        <time>2018-04-24T09:49:29Z</time>
      </trkpt>
      <trkpt lat="44.30723" lon="4.89147">
        <ele>121.7</ele>
        <time>2018-04-24T09:49:32Z</time>
      </trkpt>
      <trkpt lat="44.30733" lon="4.89152">
        <ele>121.9</ele>
        <time>2018-04-24T09:49:35Z</time>
      </trkpt>
      <trkpt lat="44.30745" lon="4.89154">
        <ele>122.6</ele>
        <time>2018-04-24T09:49:38Z</time>
      </trkpt>
      <trkpt lat="44.30755" lon="4.89156">
        <ele>123</ele>
        <time>2018-04-24T09:49:40Z</time>
      </trkpt>
      <trkpt lat="44.30764" lon="4.89158">
        <ele>123.1</ele>
        <time>2018-04-24T09:49:42Z</time>
      </trkpt>
      <trkpt lat="44.30774" lon="4.89159">
        <ele>122.9</ele>
        <time>2018-04-24T09:49:44Z</time>
      </trkpt>
      <trkpt lat="44.30784" lon="4.8916">
        <ele>123.1</ele>
        <time>2018-04-24T09:49:46Z</time>
      </trkpt>
      <trkpt lat="44.30794" lon="4.89162">
        <ele>123.1</ele>
        <time>2018-04-24T09:49:48Z</time>
      </trkpt>
      <trkpt lat="44.30804" lon="4.8916">
        <ele>123</ele>
        <time>2018-04-24T09:49:50Z</time>
      </trkpt>
      <trkpt lat="44.30814" lon="4.89159">
        <ele>122.7</ele>
        <time>2018-04-24T09:49:52Z</time>
      </trkpt>
      <trkpt lat="44.30823" lon="4.8916">
        <ele>122.6</ele>
        <time>2018-04-24T09:49:54Z</time>
      </trkpt>
      <trkpt lat="44.30833" lon="4.89162">
        <ele>122.5</ele>
        <time>2018-04-24T09:49:56Z</time>
      </trkpt>
      <trkpt lat="44.30842" lon="4.89162">
        <ele>122.4</ele>
        <time>2018-04-24T09:49:58Z</time>
      </trkpt>
      <trkpt lat="44.30852" lon="4.89162">
        <ele>122.6</ele>
        <time>2018-04-24T09:50:00Z</time>
      </trkpt>
      <trkpt lat="44.30861" lon="4.89162">
        <ele>122.7</ele>
        <time>2018-04-24T09:50:02Z</time>
      </trkpt>
      <trkpt lat="44.30871" lon="4.89162">
        <ele>122.9</ele>
        <time>2018-04-24T09:50:04Z</time>
      </trkpt>
      <trkpt lat="44.30882" lon="4.89162">
        <ele>123.1</ele>
        <time>2018-04-24T09:50:06Z</time>
      </trkpt>
      <trkpt lat="44.30891" lon="4.89161">
        <ele>123.2</ele>
        <time>2018-04-24T09:50:08Z</time>
      </trkpt>
      <trkpt lat="44.30901" lon="4.8916">
        <ele>123</ele>
        <time>2018-04-24T09:50:10Z</time>
      </trkpt>
      <trkpt lat="44.3091" lon="4.89159">
        <ele>123.1</ele>
        <time>2018-04-24T09:50:12Z</time>
      </trkpt>
      <trkpt lat="44.3092" lon="4.89159">
        <ele>122.8</ele>
        <time>2018-04-24T09:50:14Z</time>
      </trkpt>
      <trkpt lat="44.30929" lon="4.89158">
        <ele>122.6</ele>
        <time>2018-04-24T09:50:16Z</time>
      </trkpt>
      <trkpt lat="44.30942" lon="4.89158">
        <ele>122.3</ele>
        <time>2018-04-24T09:50:19Z</time>
      </trkpt>
      <trkpt lat="44.30951" lon="4.89157">
        <ele>122.4</ele>
        <time>2018-04-24T09:50:21Z</time>
      </trkpt>
      <trkpt lat="44.30961" lon="4.89157">
        <ele>122.8</ele>
        <time>2018-04-24T09:50:23Z</time>
      </trkpt>
      <trkpt lat="44.3097" lon="4.89157">
        <ele>123</ele>
        <time>2018-04-24T09:50:25Z</time>
      </trkpt>
      <trkpt lat="44.30979" lon="4.89157">
        <ele>123.1</ele>
        <time>2018-04-24T09:50:27Z</time>
      </trkpt>
      <trkpt lat="44.30988" lon="4.89157">
        <ele>123.3</ele>
        <time>2018-04-24T09:50:29Z</time>
      </trkpt>
      <trkpt lat="44.30998" lon="4.89157">
        <ele>123.7</ele>
        <time>2018-04-24T09:50:31Z</time>
      </trkpt>
      <trkpt lat="44.31007" lon="4.89157">
        <ele>123.7</ele>
        <time>2018-04-24T09:50:33Z</time>
      </trkpt>
      <trkpt lat="44.31016" lon="4.89157">
        <ele>123.8</ele>
        <time>2018-04-24T09:50:35Z</time>
      </trkpt>
      <trkpt lat="44.31025" lon="4.89158">
        <ele>124.1</ele>
        <time>2018-04-24T09:50:37Z</time>
      </trkpt>
      <trkpt lat="44.31034" lon="4.89158">
        <ele>124.3</ele>
        <time>2018-04-24T09:50:39Z</time>
      </trkpt>
      <trkpt lat="44.31044" lon="4.89159">
        <ele>124.4</ele>
        <time>2018-04-24T09:50:41Z</time>
      </trkpt>
      <trkpt lat="44.31053" lon="4.8916">
        <ele>124.5</ele>
        <time>2018-04-24T09:50:43Z</time>
      </trkpt>
      <trkpt lat="44.31062" lon="4.8916">
        <ele>124.5</ele>
        <time>2018-04-24T09:50:45Z</time>
      </trkpt>
      <trkpt lat="44.31071" lon="4.8916">
        <ele>124.5</ele>
        <time>2018-04-24T09:50:47Z</time>
      </trkpt>
      <trkpt lat="44.31081" lon="4.89161">
        <ele>124.6</ele>
        <time>2018-04-24T09:50:49Z</time>
      </trkpt>
      <trkpt lat="44.31094" lon="4.89161">
        <ele>124.7</ele>
        <time>2018-04-24T09:50:52Z</time>
      </trkpt>
      <trkpt lat="44.31108" lon="4.89161">
        <ele>124.8</ele>
        <time>2018-04-24T09:50:55Z</time>
      </trkpt>
      <trkpt lat="44.31117" lon="4.89162">
        <ele>125</ele>
        <time>2018-04-24T09:50:57Z</time>
      </trkpt>
      <trkpt lat="44.31126" lon="4.89162">
        <ele>125.2</ele>
        <time>2018-04-24T09:50:59Z</time>
      </trkpt>
      <trkpt lat="44.31139" lon="4.89163">
        <ele>125.4</ele>
        <time>2018-04-24T09:51:02Z</time>
      </trkpt>
      <trkpt lat="44.31152" lon="4.89163">
        <ele>125.3</ele>
        <time>2018-04-24T09:51:05Z</time>
      </trkpt>
      <trkpt lat="44.31165" lon="4.89161">
        <ele>125</ele>
        <time>2018-04-24T09:51:08Z</time>
      </trkpt>
      <trkpt lat="44.31178" lon="4.89159">
        <ele>125.1</ele>
        <time>2018-04-24T09:51:11Z</time>
      </trkpt>
      <trkpt lat="44.31191" lon="4.89158">
        <ele>125.1</ele>
        <time>2018-04-24T09:51:14Z</time>
      </trkpt>
      <trkpt lat="44.31203" lon="4.89158">
        <ele>125.7</ele>
        <time>2018-04-24T09:51:17Z</time>
      </trkpt>
      <trkpt lat="44.31216" lon="4.89154">
        <ele>126.2</ele>
        <time>2018-04-24T09:51:20Z</time>
      </trkpt>
      <trkpt lat="44.31225" lon="4.89153">
        <ele>126.4</ele>
        <time>2018-04-24T09:51:22Z</time>
      </trkpt>
      <trkpt lat="44.31238" lon="4.89153">
        <ele>126.9</ele>
        <time>2018-04-24T09:51:25Z</time>
      </trkpt>
      <trkpt lat="44.31251" lon="4.89153">
        <ele>127.3</ele>
        <time>2018-04-24T09:51:28Z</time>
      </trkpt>
      <trkpt lat="44.3126" lon="4.89154">
        <ele>127.3</ele>
        <time>2018-04-24T09:51:30Z</time>
      </trkpt>
      <trkpt lat="44.31269" lon="4.89155">
        <ele>127.4</ele>
        <time>2018-04-24T09:51:32Z</time>
      </trkpt>
      <trkpt lat="44.31279" lon="4.89157">
        <ele>127.4</ele>
        <time>2018-04-24T09:51:34Z</time>
      </trkpt>
      <trkpt lat="44.31289" lon="4.89158">
        <ele>127.4</ele>
        <time>2018-04-24T09:51:36Z</time>
      </trkpt>
      <trkpt lat="44.31299" lon="4.8916">
        <ele>127.4</ele>
        <time>2018-04-24T09:51:38Z</time>
      </trkpt>
      <trkpt lat="44.31308" lon="4.89162">
        <ele>127.4</ele>
        <time>2018-04-24T09:51:40Z</time>
      </trkpt>
      <trkpt lat="44.3132" lon="4.89165">
        <ele>127.3</ele>
        <time>2018-04-24T09:51:43Z</time>
      </trkpt>
      <trkpt lat="44.3133" lon="4.89163">
        <ele>127.3</ele>
        <time>2018-04-24T09:51:47Z</time>
      </trkpt>
      <trkpt lat="44.31339" lon="4.89166">
        <ele>128.9</ele>
        <time>2018-04-24T09:53:34Z</time>
      </trkpt>
      <trkpt lat="44.3134" lon="4.89154">
        <ele>128.4</ele>
        <time>2018-04-24T09:55:05Z</time>
      </trkpt>
      <trkpt lat="44.31347" lon="4.8914">
        <ele>128.4</ele>
        <time>2018-04-24T09:55:09Z</time>
      </trkpt>
      <trkpt lat="44.31355" lon="4.89128">
        <ele>128.8</ele>
        <time>2018-04-24T09:55:12Z</time>
      </trkpt>
      <trkpt lat="44.31363" lon="4.89115">
        <ele>128.7</ele>
        <time>2018-04-24T09:55:15Z</time>
      </trkpt>
      <trkpt lat="44.31372" lon="4.89102">
        <ele>128.8</ele>
        <time>2018-04-24T09:55:18Z</time>
      </trkpt>
      <trkpt lat="44.31382" lon="4.8909">
        <ele>128.9</ele>
        <time>2018-04-24T09:55:21Z</time>
      </trkpt>
      <trkpt lat="44.31389" lon="4.89081">
        <ele>129</ele>
        <time>2018-04-24T09:55:23Z</time>
      </trkpt>
      <trkpt lat="44.31396" lon="4.89074">
        <ele>129.2</ele>
        <time>2018-04-24T09:55:25Z</time>
      </trkpt>
      <trkpt lat="44.31404" lon="4.89066">
        <ele>129.4</ele>
        <time>2018-04-24T09:55:27Z</time>
      </trkpt>
      <trkpt lat="44.31412" lon="4.8906">
        <ele>129.8</ele>
        <time>2018-04-24T09:55:29Z</time>
      </trkpt>
      <trkpt lat="44.31419" lon="4.89053">
        <ele>129.9</ele>
        <time>2018-04-24T09:55:31Z</time>
      </trkpt>
      <trkpt lat="44.3143" lon="4.89042">
        <ele>130.1</ele>
        <time>2018-04-24T09:55:34Z</time>
      </trkpt>
      <trkpt lat="44.31441" lon="4.89032">
        <ele>130</ele>
        <time>2018-04-24T09:55:37Z</time>
      </trkpt>
      <trkpt lat="44.31451" lon="4.89022">
        <ele>130.3</ele>
        <time>2018-04-24T09:55:40Z</time>
      </trkpt>
      <trkpt lat="44.31461" lon="4.89012">
        <ele>130.7</ele>
        <time>2018-04-24T09:55:43Z</time>
      </trkpt>
      <trkpt lat="44.3147" lon="4.88999">
        <ele>131.2</ele>
        <time>2018-04-24T09:55:46Z</time>
      </trkpt>
      <trkpt lat="44.31479" lon="4.88987">
        <ele>131.7</ele>
        <time>2018-04-24T09:55:49Z</time>
      </trkpt>
      <trkpt lat="44.31487" lon="4.88974">
        <ele>132</ele>
        <time>2018-04-24T09:55:52Z</time>
      </trkpt>
      <trkpt lat="44.31496" lon="4.88961">
        <ele>131.7</ele>
        <time>2018-04-24T09:55:55Z</time>
      </trkpt>
      <trkpt lat="44.31505" lon="4.88948">
        <ele>131.6</ele>
        <time>2018-04-24T09:55:58Z</time>
      </trkpt>
      <trkpt lat="44.31515" lon="4.88937">
        <ele>131.2</ele>
        <time>2018-04-24T09:56:01Z</time>
      </trkpt>
      <trkpt lat="44.31525" lon="4.88925">
        <ele>131</ele>
        <time>2018-04-24T09:56:04Z</time>
      </trkpt>
      <trkpt lat="44.31535" lon="4.88915">
        <ele>131</ele>
        <time>2018-04-24T09:56:07Z</time>
      </trkpt>
      <trkpt lat="44.31545" lon="4.88902">
        <ele>131.1</ele>
        <time>2018-04-24T09:56:10Z</time>
      </trkpt>
      <trkpt lat="44.31553" lon="4.88889">
        <ele>130.6</ele>
        <time>2018-04-24T09:56:13Z</time>
      </trkpt>
      <trkpt lat="44.31562" lon="4.88875">
        <ele>130.8</ele>
        <time>2018-04-24T09:56:16Z</time>
      </trkpt>
      <trkpt lat="44.31571" lon="4.88861">
        <ele>131</ele>
        <time>2018-04-24T09:56:19Z</time>
      </trkpt>
      <trkpt lat="44.31581" lon="4.88851">
        <ele>131.1</ele>
        <time>2018-04-24T09:56:22Z</time>
      </trkpt>
      <trkpt lat="44.31592" lon="4.88841">
        <ele>131</ele>
        <time>2018-04-24T09:56:25Z</time>
      </trkpt>
      <trkpt lat="44.31603" lon="4.88831">
        <ele>131.2</ele>
        <time>2018-04-24T09:56:28Z</time>
      </trkpt>
      <trkpt lat="44.31613" lon="4.88821">
        <ele>131.3</ele>
        <time>2018-04-24T09:56:31Z</time>
      </trkpt>
      <trkpt lat="44.31622" lon="4.8881">
        <ele>131.6</ele>
        <time>2018-04-24T09:56:34Z</time>
      </trkpt>
      <trkpt lat="44.31631" lon="4.88799">
        <ele>131.8</ele>
        <time>2018-04-24T09:56:37Z</time>
      </trkpt>
      <trkpt lat="44.3164" lon="4.88788">
        <ele>131.9</ele>
        <time>2018-04-24T09:56:40Z</time>
      </trkpt>
      <trkpt lat="44.31649" lon="4.88776">
        <ele>132</ele>
        <time>2018-04-24T09:56:43Z</time>
      </trkpt>
      <trkpt lat="44.31658" lon="4.88764">
        <ele>132.2</ele>
        <time>2018-04-24T09:56:46Z</time>
      </trkpt>
      <trkpt lat="44.31668" lon="4.88753">
        <ele>132.1</ele>
        <time>2018-04-24T09:56:49Z</time>
      </trkpt>
      <trkpt lat="44.31678" lon="4.88743">
        <ele>132.1</ele>
        <time>2018-04-24T09:56:52Z</time>
      </trkpt>
      <trkpt lat="44.31689" lon="4.88732">
        <ele>132.1</ele>
        <time>2018-04-24T09:56:55Z</time>
      </trkpt>
      <trkpt lat="44.31696" lon="4.88724">
        <ele>132.4</ele>
        <time>2018-04-24T09:56:57Z</time>
      </trkpt>
      <trkpt lat="44.31704" lon="4.88716">
        <ele>132.1</ele>
        <time>2018-04-24T09:56:59Z</time>
      </trkpt>
      <trkpt lat="44.31711" lon="4.88709">
        <ele>132</ele>
        <time>2018-04-24T09:57:01Z</time>
      </trkpt>
      <trkpt lat="44.31722" lon="4.88699">
        <ele>131.7</ele>
        <time>2018-04-24T09:57:04Z</time>
      </trkpt>
      <trkpt lat="44.31733" lon="4.88689">
        <ele>131.8</ele>
        <time>2018-04-24T09:57:07Z</time>
      </trkpt>
      <trkpt lat="44.31745" lon="4.88679">
        <ele>131.6</ele>
        <time>2018-04-24T09:57:10Z</time>
      </trkpt>
      <trkpt lat="44.31756" lon="4.88669">
        <ele>131.4</ele>
        <time>2018-04-24T09:57:13Z</time>
      </trkpt>
      <trkpt lat="44.31766" lon="4.8866">
        <ele>131.7</ele>
        <time>2018-04-24T09:57:16Z</time>
      </trkpt>
      <trkpt lat="44.31777" lon="4.88652">
        <ele>131.8</ele>
        <time>2018-04-24T09:57:19Z</time>
      </trkpt>
      <trkpt lat="44.31785" lon="4.88646">
        <ele>131.7</ele>
        <time>2018-04-24T09:57:21Z</time>
      </trkpt>
      <trkpt lat="44.31796" lon="4.88635">
        <ele>131.9</ele>
        <time>2018-04-24T09:57:24Z</time>
      </trkpt>
      <trkpt lat="44.31806" lon="4.88623">
        <ele>132</ele>
        <time>2018-04-24T09:57:27Z</time>
      </trkpt>
      <trkpt lat="44.31814" lon="4.88615">
        <ele>132.1</ele>
        <time>2018-04-24T09:57:29Z</time>
      </trkpt>
      <trkpt lat="44.31821" lon="4.88607">
        <ele>132.2</ele>
        <time>2018-04-24T09:57:31Z</time>
      </trkpt>
      <trkpt lat="44.31827" lon="4.88598">
        <ele>132.2</ele>
        <time>2018-04-24T09:57:33Z</time>
      </trkpt>
      <trkpt lat="44.31834" lon="4.88588">
        <ele>132</ele>
        <time>2018-04-24T09:57:35Z</time>
      </trkpt>
      <trkpt lat="44.3184" lon="4.88579">
        <ele>131.9</ele>
        <time>2018-04-24T09:57:37Z</time>
      </trkpt>
      <trkpt lat="44.31847" lon="4.8857">
        <ele>131.8</ele>
        <time>2018-04-24T09:57:39Z</time>
      </trkpt>
      <trkpt lat="44.31854" lon="4.88561">
        <ele>131.6</ele>
        <time>2018-04-24T09:57:41Z</time>
      </trkpt>
      <trkpt lat="44.31861" lon="4.88553">
        <ele>131.7</ele>
        <time>2018-04-24T09:57:43Z</time>
      </trkpt>
      <trkpt lat="44.31869" lon="4.88545">
        <ele>131.8</ele>
        <time>2018-04-24T09:57:45Z</time>
      </trkpt>
      <trkpt lat="44.31876" lon="4.88537">
        <ele>131.6</ele>
        <time>2018-04-24T09:57:47Z</time>
      </trkpt>
      <trkpt lat="44.31884" lon="4.88528">
        <ele>131.7</ele>
        <time>2018-04-24T09:57:49Z</time>
      </trkpt>
      <trkpt lat="44.31891" lon="4.8852">
        <ele>131.7</ele>
        <time>2018-04-24T09:57:51Z</time>
      </trkpt>
      <trkpt lat="44.31899" lon="4.88512">
        <ele>131.6</ele>
        <time>2018-04-24T09:57:53Z</time>
      </trkpt>
      <trkpt lat="44.31908" lon="4.88505">
        <ele>131.4</ele>
        <time>2018-04-24T09:57:55Z</time>
      </trkpt>
      <trkpt lat="44.31917" lon="4.88498">
        <ele>131.7</ele>
        <time>2018-04-24T09:57:57Z</time>
      </trkpt>
      <trkpt lat="44.31926" lon="4.88491">
        <ele>131.6</ele>
        <time>2018-04-24T09:57:59Z</time>
      </trkpt>
      <trkpt lat="44.31936" lon="4.88485">
        <ele>131.7</ele>
        <time>2018-04-24T09:58:01Z</time>
      </trkpt>
      <trkpt lat="44.31945" lon="4.8848">
        <ele>131.8</ele>
        <time>2018-04-24T09:58:03Z</time>
      </trkpt>
      <trkpt lat="44.31955" lon="4.88475">
        <ele>131.6</ele>
        <time>2018-04-24T09:58:05Z</time>
      </trkpt>
      <trkpt lat="44.31965" lon="4.8847">
        <ele>131.7</ele>
        <time>2018-04-24T09:58:07Z</time>
      </trkpt>
      <trkpt lat="44.31974" lon="4.88465">
        <ele>131.7</ele>
        <time>2018-04-24T09:58:09Z</time>
      </trkpt>
      <trkpt lat="44.31984" lon="4.88461">
        <ele>131.7</ele>
        <time>2018-04-24T09:58:11Z</time>
      </trkpt>
      <trkpt lat="44.31993" lon="4.88456">
        <ele>131.6</ele>
        <time>2018-04-24T09:58:13Z</time>
      </trkpt>
      <trkpt lat="44.32001" lon="4.8845">
        <ele>131.5</ele>
        <time>2018-04-24T09:58:15Z</time>
      </trkpt>
      <trkpt lat="44.32009" lon="4.88444">
        <ele>131.3</ele>
        <time>2018-04-24T09:58:17Z</time>
      </trkpt>
      <trkpt lat="44.32018" lon="4.88439">
        <ele>131.2</ele>
        <time>2018-04-24T09:58:19Z</time>
      </trkpt>
      <trkpt lat="44.32026" lon="4.88434">
        <ele>131.4</ele>
        <time>2018-04-24T09:58:21Z</time>
      </trkpt>
      <trkpt lat="44.32038" lon="4.88426">
        <ele>131.3</ele>
        <time>2018-04-24T09:58:24Z</time>
      </trkpt>
      <trkpt lat="44.32047" lon="4.8842">
        <ele>131.1</ele>
        <time>2018-04-24T09:58:27Z</time>
      </trkpt>
      <trkpt lat="44.32058" lon="4.88416">
        <ele>130.9</ele>
        <time>2018-04-24T09:58:31Z</time>
      </trkpt>
      <trkpt lat="44.32068" lon="4.88414">
        <ele>130.8</ele>
        <time>2018-04-24T09:58:34Z</time>
      </trkpt>
      <trkpt lat="44.3208" lon="4.88408">
        <ele>130.7</ele>
        <time>2018-04-24T09:58:37Z</time>
      </trkpt>
      <trkpt lat="44.32092" lon="4.884">
        <ele>130.6</ele>
        <time>2018-04-24T09:58:40Z</time>
      </trkpt>
      <trkpt lat="44.32104" lon="4.88392">
        <ele>130.7</ele>
        <time>2018-04-24T09:58:43Z</time>
      </trkpt>
      <trkpt lat="44.32117" lon="4.88385">
        <ele>130.8</ele>
        <time>2018-04-24T09:58:46Z</time>
      </trkpt>
      <trkpt lat="44.32129" lon="4.88378">
        <ele>131</ele>
        <time>2018-04-24T09:58:49Z</time>
      </trkpt>
      <trkpt lat="44.32138" lon="4.88373">
        <ele>131</ele>
        <time>2018-04-24T09:58:51Z</time>
      </trkpt>
      <trkpt lat="44.32146" lon="4.88368">
        <ele>131</ele>
        <time>2018-04-24T09:58:53Z</time>
      </trkpt>
      <trkpt lat="44.32155" lon="4.88363">
        <ele>130.8</ele>
        <time>2018-04-24T09:58:55Z</time>
      </trkpt>
      <trkpt lat="44.32164" lon="4.88358">
        <ele>130.8</ele>
        <time>2018-04-24T09:58:57Z</time>
      </trkpt>
      <trkpt lat="44.32173" lon="4.88353">
        <ele>130.8</ele>
        <time>2018-04-24T09:58:59Z</time>
      </trkpt>
      <trkpt lat="44.32183" lon="4.88348">
        <ele>130.8</ele>
        <time>2018-04-24T09:59:01Z</time>
      </trkpt>
      <trkpt lat="44.32192" lon="4.88343">
        <ele>130.8</ele>
        <time>2018-04-24T09:59:03Z</time>
      </trkpt>
      <trkpt lat="44.32201" lon="4.88338">
        <ele>130.8</ele>
        <time>2018-04-24T09:59:05Z</time>
      </trkpt>
      <trkpt lat="44.3221" lon="4.88333">
        <ele>130.6</ele>
        <time>2018-04-24T09:59:07Z</time>
      </trkpt>
      <trkpt lat="44.32219" lon="4.88328">
        <ele>130.7</ele>
        <time>2018-04-24T09:59:09Z</time>
      </trkpt>
      <trkpt lat="44.32229" lon="4.88321">
        <ele>130.8</ele>
        <time>2018-04-24T09:59:12Z</time>
      </trkpt>
      <trkpt lat="44.32234" lon="4.88308">
        <ele>131.3</ele>
        <time>2018-04-24T09:59:16Z</time>
      </trkpt>
      <trkpt lat="44.32234" lon="4.88291">
        <ele>131.8</ele>
        <time>2018-04-24T09:59:19Z</time>
      </trkpt>
      <trkpt lat="44.32233" lon="4.88273">
        <ele>131.9</ele>
        <time>2018-04-24T09:59:22Z</time>
      </trkpt>
      <trkpt lat="44.32232" lon="4.8826">
        <ele>132.2</ele>
        <time>2018-04-24T09:59:24Z</time>
      </trkpt>
      <trkpt lat="44.32231" lon="4.88246">
        <ele>131.9</ele>
        <time>2018-04-24T09:59:26Z</time>
      </trkpt>
      <trkpt lat="44.32231" lon="4.88232">
        <ele>131.9</ele>
        <time>2018-04-24T09:59:28Z</time>
      </trkpt>
      <trkpt lat="44.32231" lon="4.88217">
        <ele>131.8</ele>
        <time>2018-04-24T09:59:30Z</time>
      </trkpt>
      <trkpt lat="44.3223" lon="4.88202">
        <ele>131.6</ele>
        <time>2018-04-24T09:59:32Z</time>
      </trkpt>
      <trkpt lat="44.32229" lon="4.88187">
        <ele>131.2</ele>
        <time>2018-04-24T09:59:34Z</time>
      </trkpt>
      <trkpt lat="44.32228" lon="4.88171">
        <ele>130.8</ele>
        <time>2018-04-24T09:59:36Z</time>
      </trkpt>
      <trkpt lat="44.32226" lon="4.88156">
        <ele>130.6</ele>
        <time>2018-04-24T09:59:38Z</time>
      </trkpt>
      <trkpt lat="44.32225" lon="4.8814">
        <ele>130.4</ele>
        <time>2018-04-24T09:59:40Z</time>
      </trkpt>
      <trkpt lat="44.32223" lon="4.88124">
        <ele>130.2</ele>
        <time>2018-04-24T09:59:42Z</time>
      </trkpt>
      <trkpt lat="44.3222" lon="4.88108">
        <ele>130</ele>
        <time>2018-04-24T09:59:44Z</time>
      </trkpt>
      <trkpt lat="44.32218" lon="4.88093">
        <ele>129.7</ele>
        <time>2018-04-24T09:59:46Z</time>
      </trkpt>
      <trkpt lat="44.32215" lon="4.88076">
        <ele>129.3</ele>
        <time>2018-04-24T09:59:48Z</time>
      </trkpt>
      <trkpt lat="44.32212" lon="4.8806">
        <ele>129.1</ele>
        <time>2018-04-24T09:59:50Z</time>
      </trkpt>
      <trkpt lat="44.32209" lon="4.88043">
        <ele>129</ele>
        <time>2018-04-24T09:59:52Z</time>
      </trkpt>
      <trkpt lat="44.32206" lon="4.88027">
        <ele>128.7</ele>
        <time>2018-04-24T09:59:54Z</time>
      </trkpt>
      <trkpt lat="44.32204" lon="4.8801">
        <ele>128.4</ele>
        <time>2018-04-24T09:59:56Z</time>
      </trkpt>
      <trkpt lat="44.32202" lon="4.87993">
        <ele>128.2</ele>
        <time>2018-04-24T09:59:58Z</time>
      </trkpt>
      <trkpt lat="44.32199" lon="4.87976">
        <ele>128.2</ele>
        <time>2018-04-24T10:00:00Z</time>
      </trkpt>
      <trkpt lat="44.32197" lon="4.87959">
        <ele>128.1</ele>
        <time>2018-04-24T10:00:02Z</time>
      </trkpt>
      <trkpt lat="44.32195" lon="4.87942">
        <ele>128</ele>
        <time>2018-04-24T10:00:04Z</time>
      </trkpt>
      <trkpt lat="44.32192" lon="4.87924">
        <ele>127.9</ele>
        <time>2018-04-24T10:00:06Z</time>
      </trkpt>
      <trkpt lat="44.3219" lon="4.87905">
        <ele>127.7</ele>
        <time>2018-04-24T10:00:08Z</time>
      </trkpt>
      <trkpt lat="44.32187" lon="4.87887">
        <ele>127.5</ele>
        <time>2018-04-24T10:00:10Z</time>
      </trkpt>
      <trkpt lat="44.32185" lon="4.87871">
        <ele>127.4</ele>
        <time>2018-04-24T10:00:12Z</time>
      </trkpt>
      <trkpt lat="44.32183" lon="4.87855">
        <ele>127.4</ele>
        <time>2018-04-24T10:00:14Z</time>
      </trkpt>
      <trkpt lat="44.32181" lon="4.8784">
        <ele>127.2</ele>
        <time>2018-04-24T10:00:16Z</time>
      </trkpt>
      <trkpt lat="44.32179" lon="4.87826">
        <ele>127.2</ele>
        <time>2018-04-24T10:00:18Z</time>
      </trkpt>
      <trkpt lat="44.32177" lon="4.87812">
        <ele>127.1</ele>
        <time>2018-04-24T10:00:20Z</time>
      </trkpt>
      <trkpt lat="44.32175" lon="4.87799">
        <ele>126.9</ele>
        <time>2018-04-24T10:00:22Z</time>
      </trkpt>
      <trkpt lat="44.32182" lon="4.87784">
        <ele>126.8</ele>
        <time>2018-04-24T10:00:25Z</time>
      </trkpt>
      <trkpt lat="44.32191" lon="4.87779">
        <ele>126.6</ele>
        <time>2018-04-24T10:00:27Z</time>
      </trkpt>
      <trkpt lat="44.32201" lon="4.87775">
        <ele>126.6</ele>
        <time>2018-04-24T10:00:29Z</time>
      </trkpt>
      <trkpt lat="44.32211" lon="4.8777">
        <ele>126.6</ele>
        <time>2018-04-24T10:00:31Z</time>
      </trkpt>
      <trkpt lat="44.32222" lon="4.87767">
        <ele>126.5</ele>
        <time>2018-04-24T10:00:33Z</time>
      </trkpt>
      <trkpt lat="44.32233" lon="4.87763">
        <ele>126.7</ele>
        <time>2018-04-24T10:00:35Z</time>
      </trkpt>
      <trkpt lat="44.32243" lon="4.8776">
        <ele>126.9</ele>
        <time>2018-04-24T10:00:37Z</time>
      </trkpt>
      <trkpt lat="44.32254" lon="4.87756">
        <ele>127.1</ele>
        <time>2018-04-24T10:00:39Z</time>
      </trkpt>
      <trkpt lat="44.32264" lon="4.87753">
        <ele>127.4</ele>
        <time>2018-04-24T10:00:41Z</time>
      </trkpt>
      <trkpt lat="44.32275" lon="4.87749">
        <ele>127.9</ele>
        <time>2018-04-24T10:00:43Z</time>
      </trkpt>
      <trkpt lat="44.32285" lon="4.87745">
        <ele>128.1</ele>
        <time>2018-04-24T10:00:45Z</time>
      </trkpt>
      <trkpt lat="44.32296" lon="4.87741">
        <ele>128.1</ele>
        <time>2018-04-24T10:00:47Z</time>
      </trkpt>
      <trkpt lat="44.32308" lon="4.87736">
        <ele>128.2</ele>
        <time>2018-04-24T10:00:49Z</time>
      </trkpt>
      <trkpt lat="44.32319" lon="4.87733">
        <ele>127.9</ele>
        <time>2018-04-24T10:00:51Z</time>
      </trkpt>
      <trkpt lat="44.3233" lon="4.87731">
        <ele>128.2</ele>
        <time>2018-04-24T10:00:53Z</time>
      </trkpt>
      <trkpt lat="44.32342" lon="4.87731">
        <ele>128.2</ele>
        <time>2018-04-24T10:00:55Z</time>
      </trkpt>
      <trkpt lat="44.32352" lon="4.87731">
        <ele>128.4</ele>
        <time>2018-04-24T10:00:57Z</time>
      </trkpt>
      <trkpt lat="44.32362" lon="4.87729">
        <ele>128.5</ele>
        <time>2018-04-24T10:00:59Z</time>
      </trkpt>
      <trkpt lat="44.32373" lon="4.87724">
        <ele>128.6</ele>
        <time>2018-04-24T10:01:01Z</time>
      </trkpt>
      <trkpt lat="44.32383" lon="4.87718">
        <ele>128.7</ele>
        <time>2018-04-24T10:01:03Z</time>
      </trkpt>
      <trkpt lat="44.32395" lon="4.8771">
        <ele>128.8</ele>
        <time>2018-04-24T10:01:05Z</time>
      </trkpt>
      <trkpt lat="44.32406" lon="4.87702">
        <ele>128.8</ele>
        <time>2018-04-24T10:01:07Z</time>
      </trkpt>
      <trkpt lat="44.32418" lon="4.87695">
        <ele>128.8</ele>
        <time>2018-04-24T10:01:09Z</time>
      </trkpt>
      <trkpt lat="44.32429" lon="4.87687">
        <ele>128.4</ele>
        <time>2018-04-24T10:01:11Z</time>
      </trkpt>
      <trkpt lat="44.32441" lon="4.87679">
        <ele>128.2</ele>
        <time>2018-04-24T10:01:13Z</time>
      </trkpt>
      <trkpt lat="44.32453" lon="4.87673">
        <ele>128.1</ele>
        <time>2018-04-24T10:01:15Z</time>
      </trkpt>
      <trkpt lat="44.32463" lon="4.87666">
        <ele>128.1</ele>
        <time>2018-04-24T10:01:17Z</time>
      </trkpt>
      <trkpt lat="44.32473" lon="4.87659">
        <ele>128.1</ele>
        <time>2018-04-24T10:01:19Z</time>
      </trkpt>
      <trkpt lat="44.32483" lon="4.87653">
        <ele>128.2</ele>
        <time>2018-04-24T10:01:21Z</time>
      </trkpt>
      <trkpt lat="44.32494" lon="4.87646">
        <ele>128.4</ele>
        <time>2018-04-24T10:01:23Z</time>
      </trkpt>
      <trkpt lat="44.32506" lon="4.87642">
        <ele>128.5</ele>
        <time>2018-04-24T10:01:25Z</time>
      </trkpt>
      <trkpt lat="44.32518" lon="4.87642">
        <ele>128.6</ele>
        <time>2018-04-24T10:01:27Z</time>
      </trkpt>
      <trkpt lat="44.32529" lon="4.87643">
        <ele>128.5</ele>
        <time>2018-04-24T10:01:29Z</time>
      </trkpt>
      <trkpt lat="44.3254" lon="4.87645">
        <ele>128.4</ele>
        <time>2018-04-24T10:01:31Z</time>
      </trkpt>
      <trkpt lat="44.32551" lon="4.87645">
        <ele>128.3</ele>
        <time>2018-04-24T10:01:33Z</time>
      </trkpt>
      <trkpt lat="44.32561" lon="4.87642">
        <ele>128.3</ele>
        <time>2018-04-24T10:01:35Z</time>
      </trkpt>
      <trkpt lat="44.32571" lon="4.87638">
        <ele>128.3</ele>
        <time>2018-04-24T10:01:37Z</time>
      </trkpt>
      <trkpt lat="44.3258" lon="4.87634">
        <ele>128.3</ele>
        <time>2018-04-24T10:01:39Z</time>
      </trkpt>
      <trkpt lat="44.32589" lon="4.87628">
        <ele>128.4</ele>
        <time>2018-04-24T10:01:41Z</time>
      </trkpt>
      <trkpt lat="44.32599" lon="4.87624">
        <ele>128.5</ele>
        <time>2018-04-24T10:01:43Z</time>
      </trkpt>
      <trkpt lat="44.32609" lon="4.87619">
        <ele>128.5</ele>
        <time>2018-04-24T10:01:45Z</time>
      </trkpt>
      <trkpt lat="44.32618" lon="4.87615">
        <ele>128.6</ele>
        <time>2018-04-24T10:01:47Z</time>
      </trkpt>
      <trkpt lat="44.32627" lon="4.8761">
        <ele>128.9</ele>
        <time>2018-04-24T10:01:49Z</time>
      </trkpt>
      <trkpt lat="44.32637" lon="4.87606">
        <ele>129.2</ele>
        <time>2018-04-24T10:01:51Z</time>
      </trkpt>
      <trkpt lat="44.32647" lon="4.87602">
        <ele>129.4</ele>
        <time>2018-04-24T10:01:53Z</time>
      </trkpt>
      <trkpt lat="44.32656" lon="4.87598">
        <ele>129.8</ele>
        <time>2018-04-24T10:01:55Z</time>
      </trkpt>
      <trkpt lat="44.32665" lon="4.87592">
        <ele>130</ele>
        <time>2018-04-24T10:01:57Z</time>
      </trkpt>
      <trkpt lat="44.32675" lon="4.87587">
        <ele>130.4</ele>
        <time>2018-04-24T10:01:59Z</time>
      </trkpt>
      <trkpt lat="44.32684" lon="4.87582">
        <ele>130.7</ele>
        <time>2018-04-24T10:02:01Z</time>
      </trkpt>
      <trkpt lat="44.32694" lon="4.87577">
        <ele>130.9</ele>
        <time>2018-04-24T10:02:03Z</time>
      </trkpt>
      <trkpt lat="44.32703" lon="4.87571">
        <ele>131.2</ele>
        <time>2018-04-24T10:02:05Z</time>
      </trkpt>
      <trkpt lat="44.32712" lon="4.87565">
        <ele>131.3</ele>
        <time>2018-04-24T10:02:07Z</time>
      </trkpt>
      <trkpt lat="44.32722" lon="4.87558">
        <ele>131.5</ele>
        <time>2018-04-24T10:02:09Z</time>
      </trkpt>
      <trkpt lat="44.32731" lon="4.87551">
        <ele>131.7</ele>
        <time>2018-04-24T10:02:11Z</time>
      </trkpt>
      <trkpt lat="44.32739" lon="4.87544">
        <ele>131.7</ele>
        <time>2018-04-24T10:02:13Z</time>
      </trkpt>
      <trkpt lat="44.32746" lon="4.87534">
        <ele>131.9</ele>
        <time>2018-04-24T10:02:15Z</time>
      </trkpt>
      <trkpt lat="44.32748" lon="4.8752">
        <ele>132</ele>
        <time>2018-04-24T10:02:17Z</time>
      </trkpt>
      <trkpt lat="44.32748" lon="4.87505">
        <ele>132.3</ele>
        <time>2018-04-24T10:02:19Z</time>
      </trkpt>
      <trkpt lat="44.32748" lon="4.87489">
        <ele>132.5</ele>
        <time>2018-04-24T10:02:21Z</time>
      </trkpt>
      <trkpt lat="44.32747" lon="4.87473">
        <ele>132.5</ele>
        <time>2018-04-24T10:02:23Z</time>
      </trkpt>
      <trkpt lat="44.32747" lon="4.87456">
        <ele>132.5</ele>
        <time>2018-04-24T10:02:25Z</time>
      </trkpt>
      <trkpt lat="44.32746" lon="4.87439">
        <ele>132.4</ele>
        <time>2018-04-24T10:02:27Z</time>
      </trkpt>
      <trkpt lat="44.32746" lon="4.87422">
        <ele>132.2</ele>
        <time>2018-04-24T10:02:29Z</time>
      </trkpt>
      <trkpt lat="44.32747" lon="4.87405">
        <ele>132</ele>
        <time>2018-04-24T10:02:31Z</time>
      </trkpt>
      <trkpt lat="44.32746" lon="4.87388">
        <ele>131.8</ele>
        <time>2018-04-24T10:02:33Z</time>
      </trkpt>
      <trkpt lat="44.32746" lon="4.8737">
        <ele>131.5</ele>
        <time>2018-04-24T10:02:35Z</time>
      </trkpt>
      <trkpt lat="44.32746" lon="4.87353">
        <ele>131.2</ele>
        <time>2018-04-24T10:02:37Z</time>
      </trkpt>
      <trkpt lat="44.32746" lon="4.87335">
        <ele>130.9</ele>
        <time>2018-04-24T10:02:39Z</time>
      </trkpt>
      <trkpt lat="44.32745" lon="4.87317">
        <ele>130.5</ele>
        <time>2018-04-24T10:02:41Z</time>
      </trkpt>
      <trkpt lat="44.32745" lon="4.87299">
        <ele>130.2</ele>
        <time>2018-04-24T10:02:43Z</time>
      </trkpt>
      <trkpt lat="44.32745" lon="4.8728">
        <ele>129.9</ele>
        <time>2018-04-24T10:02:45Z</time>
      </trkpt>
      <trkpt lat="44.32745" lon="4.87261">
        <ele>129.7</ele>
        <time>2018-04-24T10:02:47Z</time>
      </trkpt>
      <trkpt lat="44.32741" lon="4.87243">
        <ele>129.5</ele>
        <time>2018-04-24T10:02:49Z</time>
      </trkpt>
      <trkpt lat="44.3273" lon="4.87235">
        <ele>129.3</ele>
        <time>2018-04-24T10:02:51Z</time>
      </trkpt>
      <trkpt lat="44.32716" lon="4.87235">
        <ele>129.1</ele>
        <time>2018-04-24T10:02:53Z</time>
      </trkpt>
      <trkpt lat="44.32701" lon="4.87235">
        <ele>128.8</ele>
        <time>2018-04-24T10:02:55Z</time>
      </trkpt>
      <trkpt lat="44.32688" lon="4.87235">
        <ele>128.5</ele>
        <time>2018-04-24T10:02:57Z</time>
      </trkpt>
      <trkpt lat="44.32674" lon="4.87237">
        <ele>128.4</ele>
        <time>2018-04-24T10:02:59Z</time>
      </trkpt>
      <trkpt lat="44.32662" lon="4.87238">
        <ele>128.2</ele>
        <time>2018-04-24T10:03:01Z</time>
      </trkpt>
      <trkpt lat="44.32653" lon="4.87231">
        <ele>128</ele>
        <time>2018-04-24T10:03:03Z</time>
      </trkpt>
      <trkpt lat="44.32649" lon="4.87216">
        <ele>128</ele>
        <time>2018-04-24T10:03:05Z</time>
      </trkpt>
      <trkpt lat="44.32648" lon="4.872">
        <ele>127.9</ele>
        <time>2018-04-24T10:03:07Z</time>
      </trkpt>
      <trkpt lat="44.32646" lon="4.87183">
        <ele>127.7</ele>
        <time>2018-04-24T10:03:09Z</time>
      </trkpt>
      <trkpt lat="44.32645" lon="4.87165">
        <ele>127.6</ele>
        <time>2018-04-24T10:03:11Z</time>
      </trkpt>
      <trkpt lat="44.32644" lon="4.87146">
        <ele>127.3</ele>
        <time>2018-04-24T10:03:13Z</time>
      </trkpt>
      <trkpt lat="44.32643" lon="4.87127">
        <ele>127.1</ele>
        <time>2018-04-24T10:03:15Z</time>
      </trkpt>
      <trkpt lat="44.32643" lon="4.87109">
        <ele>126.9</ele>
        <time>2018-04-24T10:03:17Z</time>
      </trkpt>
      <trkpt lat="44.32643" lon="4.8709">
        <ele>126.7</ele>
        <time>2018-04-24T10:03:19Z</time>
      </trkpt>
      <trkpt lat="44.32642" lon="4.87072">
        <ele>126.4</ele>
        <time>2018-04-24T10:03:21Z</time>
      </trkpt>
      <trkpt lat="44.32641" lon="4.87054">
        <ele>126.3</ele>
        <time>2018-04-24T10:03:23Z</time>
      </trkpt>
      <trkpt lat="44.32639" lon="4.87035">
        <ele>126.1</ele>
        <time>2018-04-24T10:03:25Z</time>
      </trkpt>
      <trkpt lat="44.32637" lon="4.87016">
        <ele>126</ele>
        <time>2018-04-24T10:03:27Z</time>
      </trkpt>
      <trkpt lat="44.32635" lon="4.86996">
        <ele>125.8</ele>
        <time>2018-04-24T10:03:29Z</time>
      </trkpt>
      <trkpt lat="44.32631" lon="4.86977">
        <ele>125.5</ele>
        <time>2018-04-24T10:03:31Z</time>
      </trkpt>
      <trkpt lat="44.32625" lon="4.86958">
        <ele>125.1</ele>
        <time>2018-04-24T10:03:33Z</time>
      </trkpt>
      <trkpt lat="44.32618" lon="4.8694">
        <ele>124.9</ele>
        <time>2018-04-24T10:03:35Z</time>
      </trkpt>
      <trkpt lat="44.32611" lon="4.86923">
        <ele>124.5</ele>
        <time>2018-04-24T10:03:37Z</time>
      </trkpt>
      <trkpt lat="44.32604" lon="4.86906">
        <ele>124.3</ele>
        <time>2018-04-24T10:03:39Z</time>
      </trkpt>
      <trkpt lat="44.32598" lon="4.86889">
        <ele>124.3</ele>
        <time>2018-04-24T10:03:41Z</time>
      </trkpt>
      <trkpt lat="44.32593" lon="4.86871">
        <ele>124.1</ele>
        <time>2018-04-24T10:03:43Z</time>
      </trkpt>
      <trkpt lat="44.32588" lon="4.86855">
        <ele>124</ele>
        <time>2018-04-24T10:03:45Z</time>
      </trkpt>
      <trkpt lat="44.32583" lon="4.86839">
        <ele>124</ele>
        <time>2018-04-24T10:03:47Z</time>
      </trkpt>
      <trkpt lat="44.32581" lon="4.86823">
        <ele>123.9</ele>
        <time>2018-04-24T10:03:49Z</time>
      </trkpt>
      <trkpt lat="44.32584" lon="4.86808">
        <ele>123.9</ele>
        <time>2018-04-24T10:03:51Z</time>
      </trkpt>
      <trkpt lat="44.32593" lon="4.868">
        <ele>123.9</ele>
        <time>2018-04-24T10:03:53Z</time>
      </trkpt>
      <trkpt lat="44.32604" lon="4.86798">
        <ele>123.7</ele>
        <time>2018-04-24T10:03:55Z</time>
      </trkpt>
      <trkpt lat="44.32615" lon="4.86796">
        <ele>123.7</ele>
        <time>2018-04-24T10:03:57Z</time>
      </trkpt>
      <trkpt lat="44.32627" lon="4.86795">
        <ele>123.7</ele>
        <time>2018-04-24T10:03:59Z</time>
      </trkpt>
      <trkpt lat="44.32639" lon="4.86794">
        <ele>124</ele>
        <time>2018-04-24T10:04:01Z</time>
      </trkpt>
      <trkpt lat="44.3265" lon="4.86793">
        <ele>124.3</ele>
        <time>2018-04-24T10:04:03Z</time>
      </trkpt>
      <trkpt lat="44.32662" lon="4.86791">
        <ele>124.7</ele>
        <time>2018-04-24T10:04:05Z</time>
      </trkpt>
      <trkpt lat="44.32674" lon="4.86789">
        <ele>124.9</ele>
        <time>2018-04-24T10:04:07Z</time>
      </trkpt>
      <trkpt lat="44.32685" lon="4.86782">
        <ele>124.7</ele>
        <time>2018-04-24T10:04:09Z</time>
      </trkpt>
      <trkpt lat="44.32695" lon="4.86771">
        <ele>124.8</ele>
        <time>2018-04-24T10:04:11Z</time>
      </trkpt>
      <trkpt lat="44.32704" lon="4.86756">
        <ele>124.8</ele>
        <time>2018-04-24T10:04:13Z</time>
      </trkpt>
      <trkpt lat="44.32711" lon="4.86742">
        <ele>124.8</ele>
        <time>2018-04-24T10:04:15Z</time>
      </trkpt>
      <trkpt lat="44.3272" lon="4.86729">
        <ele>124.6</ele>
        <time>2018-04-24T10:04:17Z</time>
      </trkpt>
      <trkpt lat="44.3273" lon="4.86722">
        <ele>124.8</ele>
        <time>2018-04-24T10:04:19Z</time>
      </trkpt>
      <trkpt lat="44.32742" lon="4.86723">
        <ele>124.8</ele>
        <time>2018-04-24T10:04:21Z</time>
      </trkpt>
      <trkpt lat="44.32754" lon="4.86729">
        <ele>124.7</ele>
        <time>2018-04-24T10:04:23Z</time>
      </trkpt>
      <trkpt lat="44.32764" lon="4.86736">
        <ele>124.6</ele>
        <time>2018-04-24T10:04:25Z</time>
      </trkpt>
      <trkpt lat="44.32775" lon="4.86743">
        <ele>124.5</ele>
        <time>2018-04-24T10:04:27Z</time>
      </trkpt>
      <trkpt lat="44.32787" lon="4.86747">
        <ele>124.2</ele>
        <time>2018-04-24T10:04:29Z</time>
      </trkpt>
      <trkpt lat="44.32799" lon="4.86751">
        <ele>124.1</ele>
        <time>2018-04-24T10:04:31Z</time>
      </trkpt>
      <trkpt lat="44.32811" lon="4.86754">
        <ele>124</ele>
        <time>2018-04-24T10:04:33Z</time>
      </trkpt>
      <trkpt lat="44.32821" lon="4.86754">
        <ele>123.6</ele>
        <time>2018-04-24T10:04:35Z</time>
      </trkpt>
      <trkpt lat="44.3283" lon="4.86754">
        <ele>123.6</ele>
        <time>2018-04-24T10:04:37Z</time>
      </trkpt>
      <trkpt lat="44.32838" lon="4.86741">
        <ele>123.5</ele>
        <time>2018-04-24T10:04:40Z</time>
      </trkpt>
      <trkpt lat="44.32839" lon="4.86728">
        <ele>123.4</ele>
        <time>2018-04-24T10:04:42Z</time>
      </trkpt>
      <trkpt lat="44.3284" lon="4.86713">
        <ele>123.3</ele>
        <time>2018-04-24T10:04:44Z</time>
      </trkpt>
      <trkpt lat="44.32841" lon="4.86699">
        <ele>123.2</ele>
        <time>2018-04-24T10:04:46Z</time>
      </trkpt>
      <trkpt lat="44.32843" lon="4.86687">
        <ele>123.1</ele>
        <time>2018-04-24T10:04:48Z</time>
      </trkpt>
      <trkpt lat="44.32852" lon="4.86678">
        <ele>122.8</ele>
        <time>2018-04-24T10:04:51Z</time>
      </trkpt>
      <trkpt lat="44.32865" lon="4.86675">
        <ele>122.4</ele>
        <time>2018-04-24T10:04:54Z</time>
      </trkpt>
      <trkpt lat="44.32874" lon="4.86674">
        <ele>122.1</ele>
        <time>2018-04-24T10:04:56Z</time>
      </trkpt>
      <trkpt lat="44.32884" lon="4.86673">
        <ele>122</ele>
        <time>2018-04-24T10:04:58Z</time>
      </trkpt>
      <trkpt lat="44.32894" lon="4.86672">
        <ele>121.8</ele>
        <time>2018-04-24T10:05:00Z</time>
      </trkpt>
      <trkpt lat="44.32904" lon="4.86671">
        <ele>121.8</ele>
        <time>2018-04-24T10:05:02Z</time>
      </trkpt>
      <trkpt lat="44.32914" lon="4.86669">
        <ele>121.6</ele>
        <time>2018-04-24T10:05:04Z</time>
      </trkpt>
      <trkpt lat="44.32924" lon="4.86668">
        <ele>121.5</ele>
        <time>2018-04-24T10:05:06Z</time>
      </trkpt>
      <trkpt lat="44.32934" lon="4.86667">
        <ele>121.4</ele>
        <time>2018-04-24T10:05:08Z</time>
      </trkpt>
      <trkpt lat="44.32945" lon="4.86666">
        <ele>121.3</ele>
        <time>2018-04-24T10:05:10Z</time>
      </trkpt>
      <trkpt lat="44.32956" lon="4.86665">
        <ele>121.2</ele>
        <time>2018-04-24T10:05:12Z</time>
      </trkpt>
      <trkpt lat="44.32966" lon="4.8666">
        <ele>121</ele>
        <time>2018-04-24T10:05:14Z</time>
      </trkpt>
      <trkpt lat="44.32975" lon="4.86654">
        <ele>121</ele>
        <time>2018-04-24T10:05:16Z</time>
      </trkpt>
      <trkpt lat="44.32985" lon="4.86648">
        <ele>121.1</ele>
        <time>2018-04-24T10:05:18Z</time>
      </trkpt>
      <trkpt lat="44.32994" lon="4.86641">
        <ele>121.2</ele>
        <time>2018-04-24T10:05:20Z</time>
      </trkpt>
      <trkpt lat="44.33003" lon="4.86634">
        <ele>121.1</ele>
        <time>2018-04-24T10:05:22Z</time>
      </trkpt>
      <trkpt lat="44.33012" lon="4.86628">
        <ele>121.1</ele>
        <time>2018-04-24T10:05:24Z</time>
      </trkpt>
      <trkpt lat="44.33022" lon="4.86622">
        <ele>121.5</ele>
        <time>2018-04-24T10:05:26Z</time>
      </trkpt>
      <trkpt lat="44.33032" lon="4.86619">
        <ele>121.7</ele>
        <time>2018-04-24T10:05:28Z</time>
      </trkpt>
      <trkpt lat="44.33042" lon="4.86619">
        <ele>121.9</ele>
        <time>2018-04-24T10:05:30Z</time>
      </trkpt>
      <trkpt lat="44.33052" lon="4.86622">
        <ele>122.1</ele>
        <time>2018-04-24T10:05:32Z</time>
      </trkpt>
      <trkpt lat="44.33062" lon="4.86624">
        <ele>122.2</ele>
        <time>2018-04-24T10:05:34Z</time>
      </trkpt>
      <trkpt lat="44.33072" lon="4.86626">
        <ele>122.2</ele>
        <time>2018-04-24T10:05:36Z</time>
      </trkpt>
      <trkpt lat="44.33082" lon="4.86629">
        <ele>122.3</ele>
        <time>2018-04-24T10:05:38Z</time>
      </trkpt>
      <trkpt lat="44.33091" lon="4.86634">
        <ele>122.1</ele>
        <time>2018-04-24T10:05:40Z</time>
      </trkpt>
      <trkpt lat="44.33101" lon="4.86639">
        <ele>122</ele>
        <time>2018-04-24T10:05:42Z</time>
      </trkpt>
      <trkpt lat="44.3311" lon="4.86644">
        <ele>122</ele>
        <time>2018-04-24T10:05:44Z</time>
      </trkpt>
      <trkpt lat="44.33118" lon="4.86651">
        <ele>122</ele>
        <time>2018-04-24T10:05:46Z</time>
      </trkpt>
      <trkpt lat="44.33126" lon="4.86659">
        <ele>122</ele>
        <time>2018-04-24T10:05:48Z</time>
      </trkpt>
      <trkpt lat="44.33134" lon="4.86668">
        <ele>122.1</ele>
        <time>2018-04-24T10:05:50Z</time>
      </trkpt>
      <trkpt lat="44.33142" lon="4.86675">
        <ele>122.2</ele>
        <time>2018-04-24T10:05:52Z</time>
      </trkpt>
      <trkpt lat="44.33151" lon="4.8668">
        <ele>122.5</ele>
        <time>2018-04-24T10:05:54Z</time>
      </trkpt>
      <trkpt lat="44.3316" lon="4.86681">
        <ele>122.5</ele>
        <time>2018-04-24T10:05:56Z</time>
      </trkpt>
      <trkpt lat="44.33169" lon="4.86676">
        <ele>122.5</ele>
        <time>2018-04-24T10:05:58Z</time>
      </trkpt>
      <trkpt lat="44.33178" lon="4.8667">
        <ele>122.6</ele>
        <time>2018-04-24T10:06:00Z</time>
      </trkpt>
      <trkpt lat="44.33186" lon="4.86663">
        <ele>122.6</ele>
        <time>2018-04-24T10:06:02Z</time>
      </trkpt>
      <trkpt lat="44.33195" lon="4.86657">
        <ele>122.9</ele>
        <time>2018-04-24T10:06:04Z</time>
      </trkpt>
      <trkpt lat="44.33203" lon="4.86651">
        <ele>123.1</ele>
        <time>2018-04-24T10:06:06Z</time>
      </trkpt>
      <trkpt lat="44.33212" lon="4.86646">
        <ele>123.4</ele>
        <time>2018-04-24T10:06:08Z</time>
      </trkpt>
      <trkpt lat="44.33221" lon="4.86643">
        <ele>123.6</ele>
        <time>2018-04-24T10:06:10Z</time>
      </trkpt>
      <trkpt lat="44.33232" lon="4.86642">
        <ele>123.9</ele>
        <time>2018-04-24T10:06:12Z</time>
      </trkpt>
      <trkpt lat="44.33243" lon="4.86642">
        <ele>124</ele>
        <time>2018-04-24T10:06:14Z</time>
      </trkpt>
      <trkpt lat="44.33253" lon="4.86642">
        <ele>124.3</ele>
        <time>2018-04-24T10:06:16Z</time>
      </trkpt>
      <trkpt lat="44.33263" lon="4.86643">
        <ele>124.5</ele>
        <time>2018-04-24T10:06:18Z</time>
      </trkpt>
      <trkpt lat="44.33273" lon="4.86643">
        <ele>124.8</ele>
        <time>2018-04-24T10:06:20Z</time>
      </trkpt>
      <trkpt lat="44.33284" lon="4.86644">
        <ele>124.6</ele>
        <time>2018-04-24T10:06:22Z</time>
      </trkpt>
      <trkpt lat="44.33294" lon="4.86645">
        <ele>124.6</ele>
        <time>2018-04-24T10:06:24Z</time>
      </trkpt>
      <trkpt lat="44.33305" lon="4.86647">
        <ele>124.5</ele>
        <time>2018-04-24T10:06:26Z</time>
      </trkpt>
      <trkpt lat="44.33315" lon="4.86648">
        <ele>124.3</ele>
        <time>2018-04-24T10:06:28Z</time>
      </trkpt>
      <trkpt lat="44.33326" lon="4.86649">
        <ele>124.2</ele>
        <time>2018-04-24T10:06:30Z</time>
      </trkpt>
      <trkpt lat="44.33337" lon="4.8665">
        <ele>124.2</ele>
        <time>2018-04-24T10:06:32Z</time>
      </trkpt>
      <trkpt lat="44.33347" lon="4.86651">
        <ele>124.1</ele>
        <time>2018-04-24T10:06:34Z</time>
      </trkpt>
      <trkpt lat="44.33357" lon="4.86652">
        <ele>123.7</ele>
        <time>2018-04-24T10:06:36Z</time>
      </trkpt>
      <trkpt lat="44.33367" lon="4.86654">
        <ele>123.4</ele>
        <time>2018-04-24T10:06:38Z</time>
      </trkpt>
      <trkpt lat="44.33376" lon="4.86655">
        <ele>123</ele>
        <time>2018-04-24T10:06:40Z</time>
      </trkpt>
      <trkpt lat="44.33385" lon="4.86657">
        <ele>122.5</ele>
        <time>2018-04-24T10:06:42Z</time>
      </trkpt>
      <trkpt lat="44.33394" lon="4.86659">
        <ele>122.5</ele>
        <time>2018-04-24T10:06:44Z</time>
      </trkpt>
      <trkpt lat="44.33407" lon="4.86661">
        <ele>122.8</ele>
        <time>2018-04-24T10:06:47Z</time>
      </trkpt>
      <trkpt lat="44.33421" lon="4.86662">
        <ele>123.3</ele>
        <time>2018-04-24T10:06:50Z</time>
      </trkpt>
      <trkpt lat="44.33434" lon="4.86662">
        <ele>124</ele>
        <time>2018-04-24T10:06:53Z</time>
      </trkpt>
      <trkpt lat="44.33447" lon="4.86662">
        <ele>124.2</ele>
        <time>2018-04-24T10:06:56Z</time>
      </trkpt>
      <trkpt lat="44.33459" lon="4.86662">
        <ele>124.5</ele>
        <time>2018-04-24T10:06:59Z</time>
      </trkpt>
      <trkpt lat="44.33472" lon="4.86664">
        <ele>124.7</ele>
        <time>2018-04-24T10:07:02Z</time>
      </trkpt>
      <trkpt lat="44.33485" lon="4.8667">
        <ele>124.8</ele>
        <time>2018-04-24T10:07:05Z</time>
      </trkpt>
      <trkpt lat="44.33493" lon="4.86677">
        <ele>124.8</ele>
        <time>2018-04-24T10:07:07Z</time>
      </trkpt>
      <trkpt lat="44.33504" lon="4.86684">
        <ele>125</ele>
        <time>2018-04-24T10:07:10Z</time>
      </trkpt>
      <trkpt lat="44.33514" lon="4.86675">
        <ele>125.4</ele>
        <time>2018-04-24T10:07:13Z</time>
      </trkpt>
      <trkpt lat="44.3352" lon="4.86664">
        <ele>125.7</ele>
        <time>2018-04-24T10:07:15Z</time>
      </trkpt>
      <trkpt lat="44.33525" lon="4.86652">
        <ele>125.9</ele>
        <time>2018-04-24T10:07:17Z</time>
      </trkpt>
      <trkpt lat="44.3353" lon="4.8664">
        <ele>126.1</ele>
        <time>2018-04-24T10:07:19Z</time>
      </trkpt>
      <trkpt lat="44.33535" lon="4.86627">
        <ele>126.2</ele>
        <time>2018-04-24T10:07:21Z</time>
      </trkpt>
      <trkpt lat="44.33541" lon="4.86614">
        <ele>126.2</ele>
        <time>2018-04-24T10:07:23Z</time>
      </trkpt>
      <trkpt lat="44.33547" lon="4.866">
        <ele>126.2</ele>
        <time>2018-04-24T10:07:25Z</time>
      </trkpt>
      <trkpt lat="44.33552" lon="4.86587">
        <ele>126.1</ele>
        <time>2018-04-24T10:07:27Z</time>
      </trkpt>
      <trkpt lat="44.33557" lon="4.86573">
        <ele>126.1</ele>
        <time>2018-04-24T10:07:29Z</time>
      </trkpt>
      <trkpt lat="44.33559" lon="4.86559">
        <ele>126</ele>
        <time>2018-04-24T10:07:31Z</time>
      </trkpt>
      <trkpt lat="44.33558" lon="4.86546">
        <ele>125.9</ele>
        <time>2018-04-24T10:07:33Z</time>
      </trkpt>
      <trkpt lat="44.33558" lon="4.86533">
        <ele>125.8</ele>
        <time>2018-04-24T10:07:35Z</time>
      </trkpt>
      <trkpt lat="44.33565" lon="4.86519">
        <ele>125.7</ele>
        <time>2018-04-24T10:07:38Z</time>
      </trkpt>
      <trkpt lat="44.33574" lon="4.86517">
        <ele>125.7</ele>
        <time>2018-04-24T10:07:40Z</time>
      </trkpt>
      <trkpt lat="44.33584" lon="4.86521">
        <ele>125.6</ele>
        <time>2018-04-24T10:07:42Z</time>
      </trkpt>
      <trkpt lat="44.33593" lon="4.86527">
        <ele>125.6</ele>
        <time>2018-04-24T10:07:44Z</time>
      </trkpt>
      <trkpt lat="44.33603" lon="4.86532">
        <ele>125.9</ele>
        <time>2018-04-24T10:07:46Z</time>
      </trkpt>
      <trkpt lat="44.33612" lon="4.86537">
        <ele>126</ele>
        <time>2018-04-24T10:07:48Z</time>
      </trkpt>
      <trkpt lat="44.33621" lon="4.86542">
        <ele>126.2</ele>
        <time>2018-04-24T10:07:50Z</time>
      </trkpt>
      <trkpt lat="44.3363" lon="4.86547">
        <ele>126.5</ele>
        <time>2018-04-24T10:07:52Z</time>
      </trkpt>
      <trkpt lat="44.33639" lon="4.86553">
        <ele>126.9</ele>
        <time>2018-04-24T10:07:54Z</time>
      </trkpt>
      <trkpt lat="44.33649" lon="4.86558">
        <ele>127.4</ele>
        <time>2018-04-24T10:07:56Z</time>
      </trkpt>
      <trkpt lat="44.33658" lon="4.86563">
        <ele>127.7</ele>
        <time>2018-04-24T10:07:58Z</time>
      </trkpt>
      <trkpt lat="44.33667" lon="4.86568">
        <ele>128</ele>
        <time>2018-04-24T10:08:00Z</time>
      </trkpt>
      <trkpt lat="44.33677" lon="4.86573">
        <ele>128.2</ele>
        <time>2018-04-24T10:08:02Z</time>
      </trkpt>
      <trkpt lat="44.33686" lon="4.86578">
        <ele>128.6</ele>
        <time>2018-04-24T10:08:04Z</time>
      </trkpt>
      <trkpt lat="44.33695" lon="4.86583">
        <ele>129</ele>
        <time>2018-04-24T10:08:06Z</time>
      </trkpt>
      <trkpt lat="44.33704" lon="4.86588">
        <ele>129.5</ele>
        <time>2018-04-24T10:08:08Z</time>
      </trkpt>
      <trkpt lat="44.33713" lon="4.86593">
        <ele>130</ele>
        <time>2018-04-24T10:08:10Z</time>
      </trkpt>
      <trkpt lat="44.33722" lon="4.86598">
        <ele>130.4</ele>
        <time>2018-04-24T10:08:12Z</time>
      </trkpt>
      <trkpt lat="44.33732" lon="4.86603">
        <ele>130.8</ele>
        <time>2018-04-24T10:08:14Z</time>
      </trkpt>
      <trkpt lat="44.33741" lon="4.86609">
        <ele>131.2</ele>
        <time>2018-04-24T10:08:16Z</time>
      </trkpt>
      <trkpt lat="44.3375" lon="4.86614">
        <ele>131.7</ele>
        <time>2018-04-24T10:08:18Z</time>
      </trkpt>
      <trkpt lat="44.3376" lon="4.8662">
        <ele>132</ele>
        <time>2018-04-24T10:08:20Z</time>
      </trkpt>
      <trkpt lat="44.33769" lon="4.86625">
        <ele>132.2</ele>
        <time>2018-04-24T10:08:22Z</time>
      </trkpt>
      <trkpt lat="44.33777" lon="4.8663">
        <ele>132.5</ele>
        <time>2018-04-24T10:08:24Z</time>
      </trkpt>
      <trkpt lat="44.33789" lon="4.86637">
        <ele>133</ele>
        <time>2018-04-24T10:08:27Z</time>
      </trkpt>
      <trkpt lat="44.338" lon="4.86643">
        <ele>133.4</ele>
        <time>2018-04-24T10:08:30Z</time>
      </trkpt>
      <trkpt lat="44.33812" lon="4.8665">
        <ele>133.7</ele>
        <time>2018-04-24T10:08:33Z</time>
      </trkpt>
      <trkpt lat="44.33822" lon="4.86655">
        <ele>133.8</ele>
        <time>2018-04-24T10:08:35Z</time>
      </trkpt>
      <trkpt lat="44.33831" lon="4.86658">
        <ele>133.9</ele>
        <time>2018-04-24T10:08:37Z</time>
      </trkpt>
      <trkpt lat="44.3384" lon="4.86659">
        <ele>133.8</ele>
        <time>2018-04-24T10:08:39Z</time>
      </trkpt>
      <trkpt lat="44.33851" lon="4.86657">
        <ele>133.4</ele>
        <time>2018-04-24T10:08:42Z</time>
      </trkpt>
      <trkpt lat="44.33859" lon="4.86652">
        <ele>133</ele>
        <time>2018-04-24T10:08:45Z</time>
      </trkpt>
      <trkpt lat="44.33865" lon="4.86639">
        <ele>132.8</ele>
        <time>2018-04-24T10:08:53Z</time>
      </trkpt>
      <trkpt lat="44.33872" lon="4.86628">
        <ele>132.8</ele>
        <time>2018-04-24T10:08:56Z</time>
      </trkpt>
      <trkpt lat="44.33876" lon="4.86615">
        <ele>132.9</ele>
        <time>2018-04-24T10:09:00Z</time>
      </trkpt>
      <trkpt lat="44.33881" lon="4.86599">
        <ele>132.9</ele>
        <time>2018-04-24T10:09:04Z</time>
      </trkpt>
      <trkpt lat="44.33885" lon="4.86585">
        <ele>133</ele>
        <time>2018-04-24T10:09:07Z</time>
      </trkpt>
      <trkpt lat="44.33887" lon="4.86572">
        <ele>133.1</ele>
        <time>2018-04-24T10:09:10Z</time>
      </trkpt>
      <trkpt lat="44.33884" lon="4.86559">
        <ele>134.9</ele>
        <time>2018-04-24T10:16:23Z</time>
      </trkpt>
      <trkpt lat="44.33882" lon="4.86544">
        <ele>135.1</ele>
        <time>2018-04-24T10:16:28Z</time>
      </trkpt>
      <trkpt lat="44.3388" lon="4.8653">
        <ele>134.9</ele>
        <time>2018-04-24T10:16:31Z</time>
      </trkpt>
      <trkpt lat="44.33882" lon="4.86511">
        <ele>134.1</ele>
        <time>2018-04-24T10:16:34Z</time>
      </trkpt>
      <trkpt lat="44.33882" lon="4.86495">
        <ele>133.3</ele>
        <time>2018-04-24T10:16:36Z</time>
      </trkpt>
      <trkpt lat="44.33884" lon="4.86477">
        <ele>132.5</ele>
        <time>2018-04-24T10:16:38Z</time>
      </trkpt>
      <trkpt lat="44.33884" lon="4.8646">
        <ele>131.6</ele>
        <time>2018-04-24T10:16:40Z</time>
      </trkpt>
      <trkpt lat="44.33881" lon="4.86437">
        <ele>130.6</ele>
        <time>2018-04-24T10:16:42Z</time>
      </trkpt>
      <trkpt lat="44.33878" lon="4.86414">
        <ele>129.4</ele>
        <time>2018-04-24T10:16:44Z</time>
      </trkpt>
      <trkpt lat="44.33875" lon="4.86392">
        <ele>128.3</ele>
        <time>2018-04-24T10:16:46Z</time>
      </trkpt>
      <trkpt lat="44.33871" lon="4.86373">
        <ele>127.4</ele>
        <time>2018-04-24T10:16:48Z</time>
      </trkpt>
      <trkpt lat="44.33868" lon="4.86353">
        <ele>126.7</ele>
        <time>2018-04-24T10:16:50Z</time>
      </trkpt>
      <trkpt lat="44.33868" lon="4.86338">
        <ele>125.9</ele>
        <time>2018-04-24T10:16:52Z</time>
      </trkpt>
      <trkpt lat="44.33873" lon="4.86328">
        <ele>125.2</ele>
        <time>2018-04-24T10:16:54Z</time>
      </trkpt>
      <trkpt lat="44.33882" lon="4.86321">
        <ele>124.7</ele>
        <time>2018-04-24T10:16:56Z</time>
      </trkpt>
      <trkpt lat="44.33892" lon="4.86315">
        <ele>124.2</ele>
        <time>2018-04-24T10:16:58Z</time>
      </trkpt>
      <trkpt lat="44.33902" lon="4.86309">
        <ele>124</ele>
        <time>2018-04-24T10:17:00Z</time>
      </trkpt>
      <trkpt lat="44.33911" lon="4.86302">
        <ele>123.7</ele>
        <time>2018-04-24T10:17:02Z</time>
      </trkpt>
      <trkpt lat="44.33921" lon="4.86296">
        <ele>123.5</ele>
        <time>2018-04-24T10:17:04Z</time>
      </trkpt>
      <trkpt lat="44.3393" lon="4.8629">
        <ele>123.4</ele>
        <time>2018-04-24T10:17:06Z</time>
      </trkpt>
      <trkpt lat="44.3394" lon="4.86284">
        <ele>123.3</ele>
        <time>2018-04-24T10:17:08Z</time>
      </trkpt>
      <trkpt lat="44.3395" lon="4.86277">
        <ele>123.5</ele>
        <time>2018-04-24T10:17:10Z</time>
      </trkpt>
      <trkpt lat="44.3396" lon="4.86271">
        <ele>123.5</ele>
        <time>2018-04-24T10:17:12Z</time>
      </trkpt>
      <trkpt lat="44.3397" lon="4.86265">
        <ele>123.6</ele>
        <time>2018-04-24T10:17:14Z</time>
      </trkpt>
      <trkpt lat="44.33981" lon="4.86259">
        <ele>123.8</ele>
        <time>2018-04-24T10:17:16Z</time>
      </trkpt>
      <trkpt lat="44.33991" lon="4.86253">
        <ele>123.9</ele>
        <time>2018-04-24T10:17:18Z</time>
      </trkpt>
      <trkpt lat="44.34" lon="4.86246">
        <ele>124</ele>
        <time>2018-04-24T10:17:20Z</time>
      </trkpt>
      <trkpt lat="44.34008" lon="4.86239">
        <ele>124.2</ele>
        <time>2018-04-24T10:17:22Z</time>
      </trkpt>
      <trkpt lat="44.34019" lon="4.86229">
        <ele>124.6</ele>
        <time>2018-04-24T10:17:25Z</time>
      </trkpt>
      <trkpt lat="44.34026" lon="4.86218">
        <ele>124.9</ele>
        <time>2018-04-24T10:17:28Z</time>
      </trkpt>
      <trkpt lat="44.34022" lon="4.86202">
        <ele>125.2</ele>
        <time>2018-04-24T10:17:31Z</time>
      </trkpt>
      <trkpt lat="44.34015" lon="4.86192">
        <ele>125.2</ele>
        <time>2018-04-24T10:17:33Z</time>
      </trkpt>
      <trkpt lat="44.34007" lon="4.86181">
        <ele>125.1</ele>
        <time>2018-04-24T10:17:35Z</time>
      </trkpt>
      <trkpt lat="44.33998" lon="4.86169">
        <ele>124.9</ele>
        <time>2018-04-24T10:17:37Z</time>
      </trkpt>
      <trkpt lat="44.3399" lon="4.86156">
        <ele>124.8</ele>
        <time>2018-04-24T10:17:39Z</time>
      </trkpt>
      <trkpt lat="44.33982" lon="4.86141">
        <ele>124.7</ele>
        <time>2018-04-24T10:17:41Z</time>
      </trkpt>
      <trkpt lat="44.33975" lon="4.86127">
        <ele>124.3</ele>
        <time>2018-04-24T10:17:43Z</time>
      </trkpt>
      <trkpt lat="44.33967" lon="4.86112">
        <ele>124.1</ele>
        <time>2018-04-24T10:17:45Z</time>
      </trkpt>
      <trkpt lat="44.33959" lon="4.86098">
        <ele>123.8</ele>
        <time>2018-04-24T10:17:47Z</time>
      </trkpt>
      <trkpt lat="44.33951" lon="4.86083">
        <ele>123.8</ele>
        <time>2018-04-24T10:17:49Z</time>
      </trkpt>
      <trkpt lat="44.33943" lon="4.86069">
        <ele>123.7</ele>
        <time>2018-04-24T10:17:51Z</time>
      </trkpt>
      <trkpt lat="44.33935" lon="4.86056">
        <ele>123.6</ele>
        <time>2018-04-24T10:17:53Z</time>
      </trkpt>
      <trkpt lat="44.33926" lon="4.86044">
        <ele>123.5</ele>
        <time>2018-04-24T10:17:55Z</time>
      </trkpt>
      <trkpt lat="44.33915" lon="4.86033">
        <ele>123.1</ele>
        <time>2018-04-24T10:17:57Z</time>
      </trkpt>
      <trkpt lat="44.33905" lon="4.86021">
        <ele>123</ele>
        <time>2018-04-24T10:17:59Z</time>
      </trkpt>
      <trkpt lat="44.33894" lon="4.86009">
        <ele>122.9</ele>
        <time>2018-04-24T10:18:01Z</time>
      </trkpt>
      <trkpt lat="44.33884" lon="4.85998">
        <ele>122.9</ele>
        <time>2018-04-24T10:18:03Z</time>
      </trkpt>
      <trkpt lat="44.33875" lon="4.85987">
        <ele>122.9</ele>
        <time>2018-04-24T10:18:05Z</time>
      </trkpt>
      <trkpt lat="44.33864" lon="4.85976">
        <ele>122.8</ele>
        <time>2018-04-24T10:18:07Z</time>
      </trkpt>
      <trkpt lat="44.33855" lon="4.85964">
        <ele>122.8</ele>
        <time>2018-04-24T10:18:09Z</time>
      </trkpt>
      <trkpt lat="44.33844" lon="4.85953">
        <ele>122.8</ele>
        <time>2018-04-24T10:18:11Z</time>
      </trkpt>
      <trkpt lat="44.33834" lon="4.85941">
        <ele>122.9</ele>
        <time>2018-04-24T10:18:13Z</time>
      </trkpt>
      <trkpt lat="44.33823" lon="4.8593">
        <ele>123.1</ele>
        <time>2018-04-24T10:18:15Z</time>
      </trkpt>
      <trkpt lat="44.33811" lon="4.85921">
        <ele>123.4</ele>
        <time>2018-04-24T10:18:17Z</time>
      </trkpt>
      <trkpt lat="44.338" lon="4.85911">
        <ele>123.7</ele>
        <time>2018-04-24T10:18:19Z</time>
      </trkpt>
      <trkpt lat="44.33788" lon="4.85902">
        <ele>123.8</ele>
        <time>2018-04-24T10:18:21Z</time>
      </trkpt>
      <trkpt lat="44.33776" lon="4.85894">
        <ele>123.9</ele>
        <time>2018-04-24T10:18:23Z</time>
      </trkpt>
      <trkpt lat="44.33763" lon="4.85886">
        <ele>123.7</ele>
        <time>2018-04-24T10:18:25Z</time>
      </trkpt>
      <trkpt lat="44.3375" lon="4.85879">
        <ele>123.8</ele>
        <time>2018-04-24T10:18:27Z</time>
      </trkpt>
      <trkpt lat="44.33736" lon="4.85872">
        <ele>123.7</ele>
        <time>2018-04-24T10:18:29Z</time>
      </trkpt>
      <trkpt lat="44.33722" lon="4.85865">
        <ele>123.6</ele>
        <time>2018-04-24T10:18:31Z</time>
      </trkpt>
      <trkpt lat="44.33708" lon="4.85858">
        <ele>123.5</ele>
        <time>2018-04-24T10:18:33Z</time>
      </trkpt>
      <trkpt lat="44.33694" lon="4.85851">
        <ele>123.6</ele>
        <time>2018-04-24T10:18:35Z</time>
      </trkpt>
      <trkpt lat="44.33679" lon="4.85845">
        <ele>123.5</ele>
        <time>2018-04-24T10:18:37Z</time>
      </trkpt>
      <trkpt lat="44.33665" lon="4.85839">
        <ele>123.4</ele>
        <time>2018-04-24T10:18:39Z</time>
      </trkpt>
      <trkpt lat="44.3365" lon="4.85834">
        <ele>123.2</ele>
        <time>2018-04-24T10:18:41Z</time>
      </trkpt>
      <trkpt lat="44.33636" lon="4.85828">
        <ele>123</ele>
        <time>2018-04-24T10:18:43Z</time>
      </trkpt>
      <trkpt lat="44.33622" lon="4.85823">
        <ele>122.8</ele>
        <time>2018-04-24T10:18:45Z</time>
      </trkpt>
      <trkpt lat="44.33607" lon="4.85819">
        <ele>122.9</ele>
        <time>2018-04-24T10:18:47Z</time>
      </trkpt>
      <trkpt lat="44.33593" lon="4.85813">
        <ele>122.8</ele>
        <time>2018-04-24T10:18:49Z</time>
      </trkpt>
      <trkpt lat="44.33579" lon="4.85807">
        <ele>122.7</ele>
        <time>2018-04-24T10:18:51Z</time>
      </trkpt>
      <trkpt lat="44.33566" lon="4.858">
        <ele>122.5</ele>
        <time>2018-04-24T10:18:53Z</time>
      </trkpt>
      <trkpt lat="44.33553" lon="4.85792">
        <ele>122.2</ele>
        <time>2018-04-24T10:18:55Z</time>
      </trkpt>
      <trkpt lat="44.3354" lon="4.85784">
        <ele>122.1</ele>
        <time>2018-04-24T10:18:57Z</time>
      </trkpt>
      <trkpt lat="44.33528" lon="4.85775">
        <ele>122</ele>
        <time>2018-04-24T10:18:59Z</time>
      </trkpt>
      <trkpt lat="44.33517" lon="4.85765">
        <ele>122</ele>
        <time>2018-04-24T10:19:01Z</time>
      </trkpt>
      <trkpt lat="44.33506" lon="4.85756">
        <ele>122.2</ele>
        <time>2018-04-24T10:19:03Z</time>
      </trkpt>
      <trkpt lat="44.33496" lon="4.85747">
        <ele>122.3</ele>
        <time>2018-04-24T10:19:05Z</time>
      </trkpt>
      <trkpt lat="44.33486" lon="4.85738">
        <ele>122</ele>
        <time>2018-04-24T10:19:07Z</time>
      </trkpt>
      <trkpt lat="44.33477" lon="4.85731">
        <ele>122</ele>
        <time>2018-04-24T10:19:09Z</time>
      </trkpt>
      <trkpt lat="44.33469" lon="4.85724">
        <ele>122</ele>
        <time>2018-04-24T10:19:11Z</time>
      </trkpt>
      <trkpt lat="44.33461" lon="4.85709">
        <ele>121.8</ele>
        <time>2018-04-24T10:19:14Z</time>
      </trkpt>
      <trkpt lat="44.33464" lon="4.85696">
        <ele>121.9</ele>
        <time>2018-04-24T10:19:16Z</time>
      </trkpt>
      <trkpt lat="44.33469" lon="4.85683">
        <ele>121.9</ele>
        <time>2018-04-24T10:19:18Z</time>
      </trkpt>
      <trkpt lat="44.33473" lon="4.85671">
        <ele>121.9</ele>
        <time>2018-04-24T10:19:20Z</time>
      </trkpt>
      <trkpt lat="44.33476" lon="4.85658">
        <ele>122.2</ele>
        <time>2018-04-24T10:19:22Z</time>
      </trkpt>
      <trkpt lat="44.33478" lon="4.85646">
        <ele>122.5</ele>
        <time>2018-04-24T10:19:24Z</time>
      </trkpt>
      <trkpt lat="44.3348" lon="4.85633">
        <ele>122.7</ele>
        <time>2018-04-24T10:19:26Z</time>
      </trkpt>
      <trkpt lat="44.33483" lon="4.8562">
        <ele>122.8</ele>
        <time>2018-04-24T10:19:28Z</time>
      </trkpt>
      <trkpt lat="44.33485" lon="4.85606">
        <ele>123</ele>
        <time>2018-04-24T10:19:30Z</time>
      </trkpt>
      <trkpt lat="44.3349" lon="4.85593">
        <ele>123.1</ele>
        <time>2018-04-24T10:19:32Z</time>
      </trkpt>
      <trkpt lat="44.33494" lon="4.85578">
        <ele>123</ele>
        <time>2018-04-24T10:19:34Z</time>
      </trkpt>
      <trkpt lat="44.33494" lon="4.85562">
        <ele>123</ele>
        <time>2018-04-24T10:19:36Z</time>
      </trkpt>
      <trkpt lat="44.33495" lon="4.85542">
        <ele>123</ele>
        <time>2018-04-24T10:19:38Z</time>
      </trkpt>
      <trkpt lat="44.33496" lon="4.85524">
        <ele>122.8</ele>
        <time>2018-04-24T10:19:40Z</time>
      </trkpt>
      <trkpt lat="44.33496" lon="4.855">
        <ele>122.5</ele>
        <time>2018-04-24T10:19:42Z</time>
      </trkpt>
      <trkpt lat="44.33491" lon="4.85478">
        <ele>122.2</ele>
        <time>2018-04-24T10:19:44Z</time>
      </trkpt>
      <trkpt lat="44.33485" lon="4.85456">
        <ele>121.9</ele>
        <time>2018-04-24T10:19:46Z</time>
      </trkpt>
      <trkpt lat="44.33478" lon="4.85434">
        <ele>121.6</ele>
        <time>2018-04-24T10:19:48Z</time>
      </trkpt>
      <trkpt lat="44.33471" lon="4.85413">
        <ele>121.3</ele>
        <time>2018-04-24T10:19:50Z</time>
      </trkpt>
      <trkpt lat="44.33464" lon="4.85392">
        <ele>121</ele>
        <time>2018-04-24T10:19:52Z</time>
      </trkpt>
      <trkpt lat="44.33457" lon="4.85372">
        <ele>120.8</ele>
        <time>2018-04-24T10:19:54Z</time>
      </trkpt>
      <trkpt lat="44.33451" lon="4.85353">
        <ele>120.5</ele>
        <time>2018-04-24T10:19:56Z</time>
      </trkpt>
      <trkpt lat="44.33445" lon="4.85334">
        <ele>120.1</ele>
        <time>2018-04-24T10:19:58Z</time>
      </trkpt>
      <trkpt lat="44.3344" lon="4.85316">
        <ele>119.8</ele>
        <time>2018-04-24T10:20:00Z</time>
      </trkpt>
      <trkpt lat="44.33436" lon="4.853">
        <ele>119.4</ele>
        <time>2018-04-24T10:20:02Z</time>
      </trkpt>
      <trkpt lat="44.33433" lon="4.85285">
        <ele>119</ele>
        <time>2018-04-24T10:20:04Z</time>
      </trkpt>
      <trkpt lat="44.3343" lon="4.85271">
        <ele>118.9</ele>
        <time>2018-04-24T10:20:06Z</time>
      </trkpt>
      <trkpt lat="44.33426" lon="4.85258">
        <ele>118.7</ele>
        <time>2018-04-24T10:20:08Z</time>
      </trkpt>
      <trkpt lat="44.33424" lon="4.85241">
        <ele>118.5</ele>
        <time>2018-04-24T10:20:11Z</time>
      </trkpt>
      <trkpt lat="44.33429" lon="4.8523">
        <ele>118.3</ele>
        <time>2018-04-24T10:20:14Z</time>
      </trkpt>
      <trkpt lat="44.33438" lon="4.85222">
        <ele>118.2</ele>
        <time>2018-04-24T10:20:17Z</time>
      </trkpt>
      <trkpt lat="44.33449" lon="4.85214">
        <ele>118.6</ele>
        <time>2018-04-24T10:20:20Z</time>
      </trkpt>
      <trkpt lat="44.33459" lon="4.85205">
        <ele>118.9</ele>
        <time>2018-04-24T10:20:23Z</time>
      </trkpt>
      <trkpt lat="44.33467" lon="4.85198">
        <ele>119.2</ele>
        <time>2018-04-24T10:20:25Z</time>
      </trkpt>
      <trkpt lat="44.33478" lon="4.85189">
        <ele>119.9</ele>
        <time>2018-04-24T10:20:28Z</time>
      </trkpt>
      <trkpt lat="44.33488" lon="4.85177">
        <ele>120.5</ele>
        <time>2018-04-24T10:20:31Z</time>
      </trkpt>
      <trkpt lat="44.33496" lon="4.85165">
        <ele>121.3</ele>
        <time>2018-04-24T10:20:34Z</time>
      </trkpt>
      <trkpt lat="44.335" lon="4.85149">
        <ele>122.1</ele>
        <time>2018-04-24T10:20:37Z</time>
      </trkpt>
      <trkpt lat="44.33502" lon="4.85132">
        <ele>122.9</ele>
        <time>2018-04-24T10:20:40Z</time>
      </trkpt>
      <trkpt lat="44.33505" lon="4.85115">
        <ele>123.6</ele>
        <time>2018-04-24T10:20:43Z</time>
      </trkpt>
      <trkpt lat="44.3351" lon="4.85099">
        <ele>123.9</ele>
        <time>2018-04-24T10:20:46Z</time>
      </trkpt>
      <trkpt lat="44.33515" lon="4.85084">
        <ele>124.2</ele>
        <time>2018-04-24T10:20:49Z</time>
      </trkpt>
      <trkpt lat="44.33522" lon="4.8507">
        <ele>124.5</ele>
        <time>2018-04-24T10:20:52Z</time>
      </trkpt>
      <trkpt lat="44.33529" lon="4.85057">
        <ele>125.1</ele>
        <time>2018-04-24T10:20:55Z</time>
      </trkpt>
      <trkpt lat="44.33536" lon="4.85044">
        <ele>125.4</ele>
        <time>2018-04-24T10:20:58Z</time>
      </trkpt>
      <trkpt lat="44.33541" lon="4.85031">
        <ele>125.7</ele>
        <time>2018-04-24T10:21:01Z</time>
      </trkpt>
      <trkpt lat="44.33547" lon="4.85019">
        <ele>126.1</ele>
        <time>2018-04-24T10:21:04Z</time>
      </trkpt>
      <trkpt lat="44.33553" lon="4.85008">
        <ele>126.7</ele>
        <time>2018-04-24T10:21:07Z</time>
      </trkpt>
      <trkpt lat="44.33557" lon="4.84995">
        <ele>127.5</ele>
        <time>2018-04-24T10:21:10Z</time>
      </trkpt>
      <trkpt lat="44.3356" lon="4.84981">
        <ele>128.4</ele>
        <time>2018-04-24T10:21:13Z</time>
      </trkpt>
      <trkpt lat="44.33566" lon="4.84969">
        <ele>129.4</ele>
        <time>2018-04-24T10:21:16Z</time>
      </trkpt>
      <trkpt lat="44.33573" lon="4.84959">
        <ele>130.2</ele>
        <time>2018-04-24T10:21:19Z</time>
      </trkpt>
      <trkpt lat="44.33581" lon="4.84948">
        <ele>131</ele>
        <time>2018-04-24T10:21:22Z</time>
      </trkpt>
      <trkpt lat="44.33588" lon="4.84938">
        <ele>131.7</ele>
        <time>2018-04-24T10:21:25Z</time>
      </trkpt>
      <trkpt lat="44.33595" lon="4.84927">
        <ele>132.3</ele>
        <time>2018-04-24T10:21:28Z</time>
      </trkpt>
      <trkpt lat="44.33601" lon="4.84917">
        <ele>133</ele>
        <time>2018-04-24T10:21:31Z</time>
      </trkpt>
      <trkpt lat="44.33607" lon="4.84907">
        <ele>133.9</ele>
        <time>2018-04-24T10:21:34Z</time>
      </trkpt>
      <trkpt lat="44.33613" lon="4.84897">
        <ele>134.7</ele>
        <time>2018-04-24T10:21:37Z</time>
      </trkpt>
      <trkpt lat="44.33618" lon="4.84886">
        <ele>135.6</ele>
        <time>2018-04-24T10:21:40Z</time>
      </trkpt>
      <trkpt lat="44.33621" lon="4.84872">
        <ele>136.5</ele>
        <time>2018-04-24T10:21:44Z</time>
      </trkpt>
      <trkpt lat="44.33615" lon="4.84859">
        <ele>137.4</ele>
        <time>2018-04-24T10:21:48Z</time>
      </trkpt>
      <trkpt lat="44.33607" lon="4.84848">
        <ele>137.8</ele>
        <time>2018-04-24T10:21:51Z</time>
      </trkpt>
      <trkpt lat="44.33599" lon="4.84836">
        <ele>138.4</ele>
        <time>2018-04-24T10:21:54Z</time>
      </trkpt>
      <trkpt lat="44.33591" lon="4.84824">
        <ele>138.9</ele>
        <time>2018-04-24T10:21:57Z</time>
      </trkpt>
      <trkpt lat="44.33583" lon="4.84811">
        <ele>139.3</ele>
        <time>2018-04-24T10:22:00Z</time>
      </trkpt>
      <trkpt lat="44.33575" lon="4.84799">
        <ele>139.8</ele>
        <time>2018-04-24T10:22:03Z</time>
      </trkpt>
      <trkpt lat="44.33568" lon="4.84787">
        <ele>140.2</ele>
        <time>2018-04-24T10:22:06Z</time>
      </trkpt>
      <trkpt lat="44.33565" lon="4.84771">
        <ele>140.7</ele>
        <time>2018-04-24T10:22:09Z</time>
      </trkpt>
      <trkpt lat="44.3356" lon="4.84756">
        <ele>140.8</ele>
        <time>2018-04-24T10:22:12Z</time>
      </trkpt>
      <trkpt lat="44.33552" lon="4.84746">
        <ele>141.4</ele>
        <time>2018-04-24T10:22:15Z</time>
      </trkpt>
      <trkpt lat="44.33543" lon="4.84734">
        <ele>141.6</ele>
        <time>2018-04-24T10:22:18Z</time>
      </trkpt>
      <trkpt lat="44.33534" lon="4.84722">
        <ele>142</ele>
        <time>2018-04-24T10:22:21Z</time>
      </trkpt>
      <trkpt lat="44.33528" lon="4.84708">
        <ele>142.5</ele>
        <time>2018-04-24T10:22:24Z</time>
      </trkpt>
      <trkpt lat="44.33526" lon="4.84691">
        <ele>143</ele>
        <time>2018-04-24T10:22:27Z</time>
      </trkpt>
      <trkpt lat="44.33522" lon="4.84676">
        <ele>143.3</ele>
        <time>2018-04-24T10:22:30Z</time>
      </trkpt>
      <trkpt lat="44.3352" lon="4.84659">
        <ele>143.6</ele>
        <time>2018-04-24T10:22:33Z</time>
      </trkpt>
      <trkpt lat="44.3352" lon="4.84643">
        <ele>144</ele>
        <time>2018-04-24T10:22:36Z</time>
      </trkpt>
      <trkpt lat="44.33523" lon="4.84625">
        <ele>144</ele>
        <time>2018-04-24T10:22:39Z</time>
      </trkpt>
      <trkpt lat="44.33528" lon="4.84609">
        <ele>144.2</ele>
        <time>2018-04-24T10:22:42Z</time>
      </trkpt>
      <trkpt lat="44.3353" lon="4.84594">
        <ele>144.9</ele>
        <time>2018-04-24T10:22:45Z</time>
      </trkpt>
      <trkpt lat="44.3353" lon="4.84579">
        <ele>145.2</ele>
        <time>2018-04-24T10:22:48Z</time>
      </trkpt>
      <trkpt lat="44.33529" lon="4.84563">
        <ele>145.8</ele>
        <time>2018-04-24T10:22:51Z</time>
      </trkpt>
      <trkpt lat="44.33526" lon="4.8455">
        <ele>146.4</ele>
        <time>2018-04-24T10:22:54Z</time>
      </trkpt>
      <trkpt lat="44.33519" lon="4.84536">
        <ele>146.7</ele>
        <time>2018-04-24T10:22:57Z</time>
      </trkpt>
      <trkpt lat="44.3351" lon="4.84526">
        <ele>147.1</ele>
        <time>2018-04-24T10:23:00Z</time>
      </trkpt>
      <trkpt lat="44.33501" lon="4.84514">
        <ele>147.3</ele>
        <time>2018-04-24T10:23:03Z</time>
      </trkpt>
      <trkpt lat="44.33496" lon="4.84502">
        <ele>147.6</ele>
        <time>2018-04-24T10:23:06Z</time>
      </trkpt>
      <trkpt lat="44.33495" lon="4.84489">
        <ele>147.7</ele>
        <time>2018-04-24T10:23:10Z</time>
      </trkpt>
      <trkpt lat="44.33506" lon="4.84488">
        <ele>148.5</ele>
        <time>2018-04-24T10:23:14Z</time>
      </trkpt>
      <trkpt lat="44.33516" lon="4.84487">
        <ele>149</ele>
        <time>2018-04-24T10:23:18Z</time>
      </trkpt>
      <trkpt lat="44.33525" lon="4.84491">
        <ele>150.1</ele>
        <time>2018-04-24T10:23:37Z</time>
      </trkpt>
      <trkpt lat="44.33534" lon="4.84487">
        <ele>150.5</ele>
        <time>2018-04-24T10:24:26Z</time>
      </trkpt>
      <trkpt lat="44.33543" lon="4.84486">
        <ele>150.4</ele>
        <time>2018-04-24T10:24:33Z</time>
      </trkpt>
      <trkpt lat="44.33554" lon="4.8449">
        <ele>150.7</ele>
        <time>2018-04-24T10:24:37Z</time>
      </trkpt>
      <trkpt lat="44.33562" lon="4.84499">
        <ele>150.7</ele>
        <time>2018-04-24T10:24:40Z</time>
      </trkpt>
      <trkpt lat="44.33573" lon="4.845">
        <ele>150.7</ele>
        <time>2018-04-24T10:24:43Z</time>
      </trkpt>
      <trkpt lat="44.33583" lon="4.84506">
        <ele>151</ele>
        <time>2018-04-24T10:24:46Z</time>
      </trkpt>
      <trkpt lat="44.33592" lon="4.84519">
        <ele>151.1</ele>
        <time>2018-04-24T10:24:49Z</time>
      </trkpt>
      <trkpt lat="44.33601" lon="4.84529">
        <ele>151.2</ele>
        <time>2018-04-24T10:24:52Z</time>
      </trkpt>
      <trkpt lat="44.33611" lon="4.84535">
        <ele>151.4</ele>
        <time>2018-04-24T10:24:55Z</time>
      </trkpt>
      <trkpt lat="44.33621" lon="4.84541">
        <ele>151.4</ele>
        <time>2018-04-24T10:24:58Z</time>
      </trkpt>
      <trkpt lat="44.33632" lon="4.84545">
        <ele>151.8</ele>
        <time>2018-04-24T10:25:01Z</time>
      </trkpt>
      <trkpt lat="44.33643" lon="4.8455">
        <ele>152.2</ele>
        <time>2018-04-24T10:25:04Z</time>
      </trkpt>
      <trkpt lat="44.33654" lon="4.84555">
        <ele>152.9</ele>
        <time>2018-04-24T10:25:07Z</time>
      </trkpt>
      <trkpt lat="44.33667" lon="4.84558">
        <ele>153.4</ele>
        <time>2018-04-24T10:25:10Z</time>
      </trkpt>
      <trkpt lat="44.33679" lon="4.84561">
        <ele>153.9</ele>
        <time>2018-04-24T10:25:13Z</time>
      </trkpt>
      <trkpt lat="44.3369" lon="4.84565">
        <ele>154.1</ele>
        <time>2018-04-24T10:25:16Z</time>
      </trkpt>
      <trkpt lat="44.337" lon="4.84568">
        <ele>154.5</ele>
        <time>2018-04-24T10:25:19Z</time>
      </trkpt>
      <trkpt lat="44.33705" lon="4.84583">
        <ele>155.1</ele>
        <time>2018-04-24T10:25:23Z</time>
      </trkpt>
      <trkpt lat="44.3371" lon="4.84601">
        <ele>155.3</ele>
        <time>2018-04-24T10:25:26Z</time>
      </trkpt>
      <trkpt lat="44.33714" lon="4.84615">
        <ele>155.3</ele>
        <time>2018-04-24T10:25:28Z</time>
      </trkpt>
      <trkpt lat="44.33719" lon="4.84629">
        <ele>155.4</ele>
        <time>2018-04-24T10:25:30Z</time>
      </trkpt>
      <trkpt lat="44.33723" lon="4.84644">
        <ele>155.5</ele>
        <time>2018-04-24T10:25:32Z</time>
      </trkpt>
      <trkpt lat="44.33728" lon="4.8466">
        <ele>155.6</ele>
        <time>2018-04-24T10:25:34Z</time>
      </trkpt>
      <trkpt lat="44.33734" lon="4.84676">
        <ele>155.5</ele>
        <time>2018-04-24T10:25:36Z</time>
      </trkpt>
      <trkpt lat="44.33738" lon="4.84691">
        <ele>155.4</ele>
        <time>2018-04-24T10:25:38Z</time>
      </trkpt>
      <trkpt lat="44.33742" lon="4.84706">
        <ele>155.3</ele>
        <time>2018-04-24T10:25:40Z</time>
      </trkpt>
      <trkpt lat="44.33748" lon="4.84723">
        <ele>155.3</ele>
        <time>2018-04-24T10:25:42Z</time>
      </trkpt>
      <trkpt lat="44.33756" lon="4.84743">
        <ele>154.9</ele>
        <time>2018-04-24T10:25:44Z</time>
      </trkpt>
      <trkpt lat="44.33762" lon="4.84764">
        <ele>154.5</ele>
        <time>2018-04-24T10:25:46Z</time>
      </trkpt>
      <trkpt lat="44.33767" lon="4.84786">
        <ele>153.8</ele>
        <time>2018-04-24T10:25:48Z</time>
      </trkpt>
      <trkpt lat="44.33772" lon="4.84806">
        <ele>152.8</ele>
        <time>2018-04-24T10:25:50Z</time>
      </trkpt>
      <trkpt lat="44.33776" lon="4.84826">
        <ele>151.9</ele>
        <time>2018-04-24T10:25:52Z</time>
      </trkpt>
      <trkpt lat="44.3378" lon="4.84845">
        <ele>151.1</ele>
        <time>2018-04-24T10:25:54Z</time>
      </trkpt>
      <trkpt lat="44.33784" lon="4.84863">
        <ele>150.4</ele>
        <time>2018-04-24T10:25:56Z</time>
      </trkpt>
      <trkpt lat="44.33787" lon="4.84881">
        <ele>149.8</ele>
        <time>2018-04-24T10:25:58Z</time>
      </trkpt>
      <trkpt lat="44.33787" lon="4.84901">
        <ele>149.3</ele>
        <time>2018-04-24T10:26:00Z</time>
      </trkpt>
      <trkpt lat="44.33788" lon="4.84921">
        <ele>148.7</ele>
        <time>2018-04-24T10:26:02Z</time>
      </trkpt>
      <trkpt lat="44.33788" lon="4.84941">
        <ele>148.4</ele>
        <time>2018-04-24T10:26:04Z</time>
      </trkpt>
      <trkpt lat="44.33788" lon="4.84961">
        <ele>147.8</ele>
        <time>2018-04-24T10:26:06Z</time>
      </trkpt>
      <trkpt lat="44.33787" lon="4.84981">
        <ele>147.4</ele>
        <time>2018-04-24T10:26:08Z</time>
      </trkpt>
      <trkpt lat="44.33786" lon="4.85002">
        <ele>146.9</ele>
        <time>2018-04-24T10:26:10Z</time>
      </trkpt>
      <trkpt lat="44.33785" lon="4.85022">
        <ele>146.4</ele>
        <time>2018-04-24T10:26:12Z</time>
      </trkpt>
      <trkpt lat="44.33785" lon="4.85045">
        <ele>145.6</ele>
        <time>2018-04-24T10:26:14Z</time>
      </trkpt>
      <trkpt lat="44.33784" lon="4.85066">
        <ele>145.2</ele>
        <time>2018-04-24T10:26:16Z</time>
      </trkpt>
      <trkpt lat="44.33783" lon="4.85088">
        <ele>144.7</ele>
        <time>2018-04-24T10:26:18Z</time>
      </trkpt>
      <trkpt lat="44.33782" lon="4.85109">
        <ele>143.8</ele>
        <time>2018-04-24T10:26:20Z</time>
      </trkpt>
      <trkpt lat="44.33781" lon="4.8513">
        <ele>142.9</ele>
        <time>2018-04-24T10:26:22Z</time>
      </trkpt>
      <trkpt lat="44.33781" lon="4.85151">
        <ele>142</ele>
        <time>2018-04-24T10:26:24Z</time>
      </trkpt>
      <trkpt lat="44.33783" lon="4.85172">
        <ele>140.9</ele>
        <time>2018-04-24T10:26:26Z</time>
      </trkpt>
      <trkpt lat="44.33791" lon="4.85191">
        <ele>140.1</ele>
        <time>2018-04-24T10:26:28Z</time>
      </trkpt>
      <trkpt lat="44.338" lon="4.85206">
        <ele>139.6</ele>
        <time>2018-04-24T10:26:30Z</time>
      </trkpt>
      <trkpt lat="44.3381" lon="4.8522">
        <ele>139</ele>
        <time>2018-04-24T10:26:32Z</time>
      </trkpt>
      <trkpt lat="44.33819" lon="4.85233">
        <ele>138.6</ele>
        <time>2018-04-24T10:26:34Z</time>
      </trkpt>
      <trkpt lat="44.33827" lon="4.85248">
        <ele>138</ele>
        <time>2018-04-24T10:26:36Z</time>
      </trkpt>
      <trkpt lat="44.33833" lon="4.85266">
        <ele>137.8</ele>
        <time>2018-04-24T10:26:38Z</time>
      </trkpt>
      <trkpt lat="44.33838" lon="4.85283">
        <ele>137.6</ele>
        <time>2018-04-24T10:26:40Z</time>
      </trkpt>
      <trkpt lat="44.33843" lon="4.853">
        <ele>137.4</ele>
        <time>2018-04-24T10:26:42Z</time>
      </trkpt>
      <trkpt lat="44.3385" lon="4.85316">
        <ele>137.4</ele>
        <time>2018-04-24T10:26:44Z</time>
      </trkpt>
      <trkpt lat="44.33858" lon="4.8533">
        <ele>137.3</ele>
        <time>2018-04-24T10:26:46Z</time>
      </trkpt>
      <trkpt lat="44.33867" lon="4.85343">
        <ele>137.2</ele>
        <time>2018-04-24T10:26:48Z</time>
      </trkpt>
      <trkpt lat="44.33876" lon="4.85356">
        <ele>136.8</ele>
        <time>2018-04-24T10:26:50Z</time>
      </trkpt>
      <trkpt lat="44.33885" lon="4.85367">
        <ele>136.5</ele>
        <time>2018-04-24T10:26:52Z</time>
      </trkpt>
      <trkpt lat="44.33895" lon="4.85376">
        <ele>136.3</ele>
        <time>2018-04-24T10:26:54Z</time>
      </trkpt>
      <trkpt lat="44.33906" lon="4.85379">
        <ele>136.3</ele>
        <time>2018-04-24T10:26:56Z</time>
      </trkpt>
      <trkpt lat="44.33916" lon="4.85376">
        <ele>136.5</ele>
        <time>2018-04-24T10:26:58Z</time>
      </trkpt>
      <trkpt lat="44.33926" lon="4.85372">
        <ele>136.9</ele>
        <time>2018-04-24T10:27:00Z</time>
      </trkpt>
      <trkpt lat="44.33936" lon="4.85368">
        <ele>137.2</ele>
        <time>2018-04-24T10:27:02Z</time>
      </trkpt>
      <trkpt lat="44.33945" lon="4.85365">
        <ele>137.7</ele>
        <time>2018-04-24T10:27:04Z</time>
      </trkpt>
      <trkpt lat="44.33958" lon="4.85361">
        <ele>138.4</ele>
        <time>2018-04-24T10:27:07Z</time>
      </trkpt>
      <trkpt lat="44.3397" lon="4.85356">
        <ele>139.3</ele>
        <time>2018-04-24T10:27:10Z</time>
      </trkpt>
      <trkpt lat="44.33983" lon="4.85352">
        <ele>140.3</ele>
        <time>2018-04-24T10:27:13Z</time>
      </trkpt>
      <trkpt lat="44.33995" lon="4.85348">
        <ele>141.2</ele>
        <time>2018-04-24T10:27:16Z</time>
      </trkpt>
      <trkpt lat="44.34007" lon="4.85345">
        <ele>142.1</ele>
        <time>2018-04-24T10:27:19Z</time>
      </trkpt>
      <trkpt lat="44.34019" lon="4.85341">
        <ele>143.1</ele>
        <time>2018-04-24T10:27:22Z</time>
      </trkpt>
      <trkpt lat="44.34031" lon="4.85337">
        <ele>144</ele>
        <time>2018-04-24T10:27:25Z</time>
      </trkpt>
      <trkpt lat="44.34042" lon="4.85334">
        <ele>144.8</ele>
        <time>2018-04-24T10:27:28Z</time>
      </trkpt>
      <trkpt lat="44.34054" lon="4.85332">
        <ele>145.4</ele>
        <time>2018-04-24T10:27:31Z</time>
      </trkpt>
      <trkpt lat="44.34065" lon="4.85329">
        <ele>146</ele>
        <time>2018-04-24T10:27:34Z</time>
      </trkpt>
      <trkpt lat="44.34075" lon="4.85326">
        <ele>146.8</ele>
        <time>2018-04-24T10:27:37Z</time>
      </trkpt>
      <trkpt lat="44.34085" lon="4.85325">
        <ele>147.9</ele>
        <time>2018-04-24T10:27:41Z</time>
      </trkpt>
      <trkpt lat="44.34096" lon="4.85321">
        <ele>148.6</ele>
        <time>2018-04-24T10:27:46Z</time>
      </trkpt>
      <trkpt lat="44.34103" lon="4.85313">
        <ele>148.8</ele>
        <time>2018-04-24T10:27:49Z</time>
      </trkpt>
      <trkpt lat="44.34112" lon="4.85306">
        <ele>149.4</ele>
        <time>2018-04-24T10:27:52Z</time>
      </trkpt>
      <trkpt lat="44.34122" lon="4.853">
        <ele>149.7</ele>
        <time>2018-04-24T10:27:55Z</time>
      </trkpt>
      <trkpt lat="44.34134" lon="4.85294">
        <ele>149.8</ele>
        <time>2018-04-24T10:27:58Z</time>
      </trkpt>
      <trkpt lat="44.34146" lon="4.85288">
        <ele>150</ele>
        <time>2018-04-24T10:28:01Z</time>
      </trkpt>
      <trkpt lat="44.34158" lon="4.85282">
        <ele>150</ele>
        <time>2018-04-24T10:28:04Z</time>
      </trkpt>
      <trkpt lat="44.3417" lon="4.85277">
        <ele>150.4</ele>
        <time>2018-04-24T10:28:07Z</time>
      </trkpt>
      <trkpt lat="44.34182" lon="4.85272">
        <ele>150.5</ele>
        <time>2018-04-24T10:28:10Z</time>
      </trkpt>
      <trkpt lat="44.34194" lon="4.85268">
        <ele>150.6</ele>
        <time>2018-04-24T10:28:13Z</time>
      </trkpt>
      <trkpt lat="44.34206" lon="4.85264">
        <ele>150.5</ele>
        <time>2018-04-24T10:28:16Z</time>
      </trkpt>
      <trkpt lat="44.34219" lon="4.85262">
        <ele>150.4</ele>
        <time>2018-04-24T10:28:19Z</time>
      </trkpt>
      <trkpt lat="44.34229" lon="4.85261">
        <ele>150.1</ele>
        <time>2018-04-24T10:28:21Z</time>
      </trkpt>
      <trkpt lat="44.34239" lon="4.85261">
        <ele>149.7</ele>
        <time>2018-04-24T10:28:23Z</time>
      </trkpt>
      <trkpt lat="44.3425" lon="4.85262">
        <ele>149.4</ele>
        <time>2018-04-24T10:28:25Z</time>
      </trkpt>
      <trkpt lat="44.34262" lon="4.85263">
        <ele>148.9</ele>
        <time>2018-04-24T10:28:27Z</time>
      </trkpt>
      <trkpt lat="44.34274" lon="4.85266">
        <ele>148.6</ele>
        <time>2018-04-24T10:28:29Z</time>
      </trkpt>
      <trkpt lat="44.34286" lon="4.85271">
        <ele>147.9</ele>
        <time>2018-04-24T10:28:31Z</time>
      </trkpt>
      <trkpt lat="44.34296" lon="4.85278">
        <ele>147.4</ele>
        <time>2018-04-24T10:28:33Z</time>
      </trkpt>
      <trkpt lat="44.34307" lon="4.85284">
        <ele>146.6</ele>
        <time>2018-04-24T10:28:35Z</time>
      </trkpt>
      <trkpt lat="44.34317" lon="4.85291">
        <ele>146</ele>
        <time>2018-04-24T10:28:37Z</time>
      </trkpt>
      <trkpt lat="44.3433" lon="4.85298">
        <ele>145.6</ele>
        <time>2018-04-24T10:28:39Z</time>
      </trkpt>
      <trkpt lat="44.34338" lon="4.85307">
        <ele>145.3</ele>
        <time>2018-04-24T10:28:41Z</time>
      </trkpt>
      <trkpt lat="44.34348" lon="4.85315">
        <ele>145</ele>
        <time>2018-04-24T10:28:43Z</time>
      </trkpt>
      <trkpt lat="44.34358" lon="4.85324">
        <ele>144.8</ele>
        <time>2018-04-24T10:28:45Z</time>
      </trkpt>
      <trkpt lat="44.34367" lon="4.85332">
        <ele>144.7</ele>
        <time>2018-04-24T10:28:47Z</time>
      </trkpt>
      <trkpt lat="44.34377" lon="4.85341">
        <ele>144.4</ele>
        <time>2018-04-24T10:28:49Z</time>
      </trkpt>
      <trkpt lat="44.34385" lon="4.8535">
        <ele>144.4</ele>
        <time>2018-04-24T10:28:51Z</time>
      </trkpt>
      <trkpt lat="44.34393" lon="4.85362">
        <ele>144.3</ele>
        <time>2018-04-24T10:28:53Z</time>
      </trkpt>
      <trkpt lat="44.344" lon="4.85372">
        <ele>144.2</ele>
        <time>2018-04-24T10:28:55Z</time>
      </trkpt>
      <trkpt lat="44.34409" lon="4.85386">
        <ele>144.1</ele>
        <time>2018-04-24T10:28:58Z</time>
      </trkpt>
      <trkpt lat="44.34416" lon="4.85395">
        <ele>144.3</ele>
        <time>2018-04-24T10:29:00Z</time>
      </trkpt>
      <trkpt lat="44.34424" lon="4.85405">
        <ele>144.4</ele>
        <time>2018-04-24T10:29:02Z</time>
      </trkpt>
      <trkpt lat="44.34434" lon="4.85416">
        <ele>144.4</ele>
        <time>2018-04-24T10:29:04Z</time>
      </trkpt>
      <trkpt lat="44.34445" lon="4.85427">
        <ele>144.1</ele>
        <time>2018-04-24T10:29:06Z</time>
      </trkpt>
      <trkpt lat="44.34455" lon="4.85438">
        <ele>144.1</ele>
        <time>2018-04-24T10:29:08Z</time>
      </trkpt>
      <trkpt lat="44.34464" lon="4.85448">
        <ele>144</ele>
        <time>2018-04-24T10:29:10Z</time>
      </trkpt>
      <trkpt lat="44.34474" lon="4.85457">
        <ele>143.7</ele>
        <time>2018-04-24T10:29:12Z</time>
      </trkpt>
      <trkpt lat="44.34484" lon="4.85467">
        <ele>143.5</ele>
        <time>2018-04-24T10:29:14Z</time>
      </trkpt>
      <trkpt lat="44.34493" lon="4.85477">
        <ele>143.4</ele>
        <time>2018-04-24T10:29:16Z</time>
      </trkpt>
      <trkpt lat="44.34503" lon="4.85486">
        <ele>143.4</ele>
        <time>2018-04-24T10:29:18Z</time>
      </trkpt>
      <trkpt lat="44.34512" lon="4.85495">
        <ele>143.3</ele>
        <time>2018-04-24T10:29:20Z</time>
      </trkpt>
      <trkpt lat="44.3452" lon="4.85505">
        <ele>143.2</ele>
        <time>2018-04-24T10:29:22Z</time>
      </trkpt>
      <trkpt lat="44.34528" lon="4.85514">
        <ele>142.9</ele>
        <time>2018-04-24T10:29:24Z</time>
      </trkpt>
      <trkpt lat="44.34537" lon="4.85523">
        <ele>142.7</ele>
        <time>2018-04-24T10:29:26Z</time>
      </trkpt>
      <trkpt lat="44.34547" lon="4.85534">
        <ele>142.5</ele>
        <time>2018-04-24T10:29:28Z</time>
      </trkpt>
      <trkpt lat="44.34558" lon="4.85544">
        <ele>142.3</ele>
        <time>2018-04-24T10:29:30Z</time>
      </trkpt>
      <trkpt lat="44.34568" lon="4.85554">
        <ele>142.1</ele>
        <time>2018-04-24T10:29:32Z</time>
      </trkpt>
      <trkpt lat="44.34578" lon="4.85564">
        <ele>142</ele>
        <time>2018-04-24T10:29:34Z</time>
      </trkpt>
      <trkpt lat="44.34588" lon="4.85574">
        <ele>141.9</ele>
        <time>2018-04-24T10:29:36Z</time>
      </trkpt>
      <trkpt lat="44.34598" lon="4.85583">
        <ele>141.8</ele>
        <time>2018-04-24T10:29:38Z</time>
      </trkpt>
      <trkpt lat="44.3461" lon="4.85588">
        <ele>141.8</ele>
        <time>2018-04-24T10:29:40Z</time>
      </trkpt>
      <trkpt lat="44.34622" lon="4.85595">
        <ele>141.5</ele>
        <time>2018-04-24T10:29:42Z</time>
      </trkpt>
      <trkpt lat="44.34633" lon="4.856">
        <ele>141.3</ele>
        <time>2018-04-24T10:29:44Z</time>
      </trkpt>
      <trkpt lat="44.34644" lon="4.85603">
        <ele>141.2</ele>
        <time>2018-04-24T10:29:46Z</time>
      </trkpt>
      <trkpt lat="44.34655" lon="4.85604">
        <ele>141.3</ele>
        <time>2018-04-24T10:29:48Z</time>
      </trkpt>
      <trkpt lat="44.34665" lon="4.85602">
        <ele>140.8</ele>
        <time>2018-04-24T10:29:50Z</time>
      </trkpt>
      <trkpt lat="44.34677" lon="4.85601">
        <ele>141</ele>
        <time>2018-04-24T10:29:52Z</time>
      </trkpt>
      <trkpt lat="44.34689" lon="4.856">
        <ele>140.9</ele>
        <time>2018-04-24T10:29:54Z</time>
      </trkpt>
      <trkpt lat="44.34703" lon="4.85599">
        <ele>140.5</ele>
        <time>2018-04-24T10:29:56Z</time>
      </trkpt>
      <trkpt lat="44.34717" lon="4.85598">
        <ele>140</ele>
        <time>2018-04-24T10:29:58Z</time>
      </trkpt>
      <trkpt lat="44.34729" lon="4.85603">
        <ele>139</ele>
        <time>2018-04-24T10:30:00Z</time>
      </trkpt>
      <trkpt lat="44.34739" lon="4.85609">
        <ele>138.4</ele>
        <time>2018-04-24T10:30:02Z</time>
      </trkpt>
      <trkpt lat="44.34752" lon="4.8561">
        <ele>137.6</ele>
        <time>2018-04-24T10:30:04Z</time>
      </trkpt>
      <trkpt lat="44.34764" lon="4.85611">
        <ele>136.9</ele>
        <time>2018-04-24T10:30:06Z</time>
      </trkpt>
      <trkpt lat="44.34775" lon="4.85611">
        <ele>136.1</ele>
        <time>2018-04-24T10:30:08Z</time>
      </trkpt>
      <trkpt lat="44.34788" lon="4.85612">
        <ele>134.9</ele>
        <time>2018-04-24T10:30:11Z</time>
      </trkpt>
      <trkpt lat="44.34798" lon="4.85612">
        <ele>134.3</ele>
        <time>2018-04-24T10:30:13Z</time>
      </trkpt>
      <trkpt lat="44.34809" lon="4.85613">
        <ele>133.7</ele>
        <time>2018-04-24T10:30:15Z</time>
      </trkpt>
      <trkpt lat="44.3482" lon="4.85613">
        <ele>133.1</ele>
        <time>2018-04-24T10:30:17Z</time>
      </trkpt>
      <trkpt lat="44.34831" lon="4.85613">
        <ele>132.8</ele>
        <time>2018-04-24T10:30:19Z</time>
      </trkpt>
      <trkpt lat="44.34843" lon="4.85613">
        <ele>132.5</ele>
        <time>2018-04-24T10:30:21Z</time>
      </trkpt>
      <trkpt lat="44.34854" lon="4.85614">
        <ele>132</ele>
        <time>2018-04-24T10:30:23Z</time>
      </trkpt>
      <trkpt lat="44.34866" lon="4.85614">
        <ele>131.6</ele>
        <time>2018-04-24T10:30:25Z</time>
      </trkpt>
      <trkpt lat="44.34877" lon="4.85614">
        <ele>131.1</ele>
        <time>2018-04-24T10:30:27Z</time>
      </trkpt>
      <trkpt lat="44.34889" lon="4.85615">
        <ele>130.7</ele>
        <time>2018-04-24T10:30:29Z</time>
      </trkpt>
      <trkpt lat="44.34901" lon="4.85615">
        <ele>130.5</ele>
        <time>2018-04-24T10:30:31Z</time>
      </trkpt>
      <trkpt lat="44.34913" lon="4.85616">
        <ele>130.4</ele>
        <time>2018-04-24T10:30:33Z</time>
      </trkpt>
      <trkpt lat="44.34925" lon="4.85617">
        <ele>130.5</ele>
        <time>2018-04-24T10:30:35Z</time>
      </trkpt>
      <trkpt lat="44.34936" lon="4.85617">
        <ele>130.2</ele>
        <time>2018-04-24T10:30:37Z</time>
      </trkpt>
      <trkpt lat="44.34947" lon="4.85618">
        <ele>129.9</ele>
        <time>2018-04-24T10:30:39Z</time>
      </trkpt>
      <trkpt lat="44.34959" lon="4.85618">
        <ele>129.7</ele>
        <time>2018-04-24T10:30:41Z</time>
      </trkpt>
      <trkpt lat="44.3497" lon="4.85618">
        <ele>129.3</ele>
        <time>2018-04-24T10:30:43Z</time>
      </trkpt>
      <trkpt lat="44.3498" lon="4.85618">
        <ele>129</ele>
        <time>2018-04-24T10:30:45Z</time>
      </trkpt>
      <trkpt lat="44.34991" lon="4.85619">
        <ele>128.6</ele>
        <time>2018-04-24T10:30:47Z</time>
      </trkpt>
      <trkpt lat="44.35001" lon="4.85619">
        <ele>128.4</ele>
        <time>2018-04-24T10:30:49Z</time>
      </trkpt>
      <trkpt lat="44.35012" lon="4.85621">
        <ele>128.1</ele>
        <time>2018-04-24T10:30:51Z</time>
      </trkpt>
      <trkpt lat="44.35022" lon="4.85623">
        <ele>128</ele>
        <time>2018-04-24T10:30:53Z</time>
      </trkpt>
      <trkpt lat="44.35033" lon="4.85626">
        <ele>127.9</ele>
        <time>2018-04-24T10:30:55Z</time>
      </trkpt>
      <trkpt lat="44.35044" lon="4.85629">
        <ele>127.9</ele>
        <time>2018-04-24T10:30:57Z</time>
      </trkpt>
      <trkpt lat="44.35054" lon="4.85631">
        <ele>127.9</ele>
        <time>2018-04-24T10:30:59Z</time>
      </trkpt>
      <trkpt lat="44.35065" lon="4.85635">
        <ele>128</ele>
        <time>2018-04-24T10:31:01Z</time>
      </trkpt>
      <trkpt lat="44.35075" lon="4.85638">
        <ele>127.9</ele>
        <time>2018-04-24T10:31:03Z</time>
      </trkpt>
      <trkpt lat="44.35086" lon="4.85641">
        <ele>128</ele>
        <time>2018-04-24T10:31:05Z</time>
      </trkpt>
      <trkpt lat="44.35096" lon="4.85644">
        <ele>128.1</ele>
        <time>2018-04-24T10:31:07Z</time>
      </trkpt>
      <trkpt lat="44.35106" lon="4.85648">
        <ele>128</ele>
        <time>2018-04-24T10:31:09Z</time>
      </trkpt>
      <trkpt lat="44.35116" lon="4.85652">
        <ele>128.1</ele>
        <time>2018-04-24T10:31:11Z</time>
      </trkpt>
      <trkpt lat="44.35126" lon="4.85656">
        <ele>128.2</ele>
        <time>2018-04-24T10:31:13Z</time>
      </trkpt>
      <trkpt lat="44.35136" lon="4.85659">
        <ele>128.2</ele>
        <time>2018-04-24T10:31:15Z</time>
      </trkpt>
      <trkpt lat="44.35146" lon="4.85662">
        <ele>128.1</ele>
        <time>2018-04-24T10:31:17Z</time>
      </trkpt>
      <trkpt lat="44.35156" lon="4.85664">
        <ele>128.2</ele>
        <time>2018-04-24T10:31:19Z</time>
      </trkpt>
      <trkpt lat="44.35166" lon="4.85665">
        <ele>128.4</ele>
        <time>2018-04-24T10:31:21Z</time>
      </trkpt>
      <trkpt lat="44.35177" lon="4.85665">
        <ele>128.5</ele>
        <time>2018-04-24T10:31:23Z</time>
      </trkpt>
      <trkpt lat="44.35187" lon="4.85664">
        <ele>128.7</ele>
        <time>2018-04-24T10:31:25Z</time>
      </trkpt>
      <trkpt lat="44.35197" lon="4.85663">
        <ele>128.9</ele>
        <time>2018-04-24T10:31:27Z</time>
      </trkpt>
      <trkpt lat="44.35207" lon="4.85662">
        <ele>129.2</ele>
        <time>2018-04-24T10:31:29Z</time>
      </trkpt>
      <trkpt lat="44.35216" lon="4.85661">
        <ele>129.5</ele>
        <time>2018-04-24T10:31:31Z</time>
      </trkpt>
      <trkpt lat="44.35225" lon="4.85661">
        <ele>129.7</ele>
        <time>2018-04-24T10:31:33Z</time>
      </trkpt>
      <trkpt lat="44.35234" lon="4.85659">
        <ele>130.1</ele>
        <time>2018-04-24T10:31:35Z</time>
      </trkpt>
      <trkpt lat="44.35247" lon="4.85658">
        <ele>130.5</ele>
        <time>2018-04-24T10:31:38Z</time>
      </trkpt>
      <trkpt lat="44.35258" lon="4.85659">
        <ele>130.9</ele>
        <time>2018-04-24T10:31:41Z</time>
      </trkpt>
      <trkpt lat="44.3527" lon="4.85662">
        <ele>131.1</ele>
        <time>2018-04-24T10:31:44Z</time>
      </trkpt>
      <trkpt lat="44.35281" lon="4.85672">
        <ele>131.5</ele>
        <time>2018-04-24T10:31:47Z</time>
      </trkpt>
      <trkpt lat="44.35291" lon="4.85683">
        <ele>131.9</ele>
        <time>2018-04-24T10:31:50Z</time>
      </trkpt>
      <trkpt lat="44.35301" lon="4.85694">
        <ele>132.3</ele>
        <time>2018-04-24T10:31:53Z</time>
      </trkpt>
      <trkpt lat="44.35309" lon="4.85705">
        <ele>132.7</ele>
        <time>2018-04-24T10:31:56Z</time>
      </trkpt>
      <trkpt lat="44.35318" lon="4.85715">
        <ele>133.1</ele>
        <time>2018-04-24T10:31:59Z</time>
      </trkpt>
      <trkpt lat="44.35327" lon="4.85726">
        <ele>133.7</ele>
        <time>2018-04-24T10:32:02Z</time>
      </trkpt>
      <trkpt lat="44.35335" lon="4.85736">
        <ele>134.3</ele>
        <time>2018-04-24T10:32:05Z</time>
      </trkpt>
      <trkpt lat="44.35343" lon="4.85747">
        <ele>135.2</ele>
        <time>2018-04-24T10:32:08Z</time>
      </trkpt>
      <trkpt lat="44.35352" lon="4.85757">
        <ele>135.7</ele>
        <time>2018-04-24T10:32:11Z</time>
      </trkpt>
      <trkpt lat="44.35361" lon="4.85767">
        <ele>136.5</ele>
        <time>2018-04-24T10:32:14Z</time>
      </trkpt>
      <trkpt lat="44.3537" lon="4.85778">
        <ele>137</ele>
        <time>2018-04-24T10:32:17Z</time>
      </trkpt>
      <trkpt lat="44.35379" lon="4.85788">
        <ele>137.6</ele>
        <time>2018-04-24T10:32:20Z</time>
      </trkpt>
      <trkpt lat="44.35388" lon="4.85797">
        <ele>138.1</ele>
        <time>2018-04-24T10:32:23Z</time>
      </trkpt>
      <trkpt lat="44.35396" lon="4.85806">
        <ele>138.8</ele>
        <time>2018-04-24T10:32:26Z</time>
      </trkpt>
      <trkpt lat="44.35404" lon="4.85816">
        <ele>139.5</ele>
        <time>2018-04-24T10:32:29Z</time>
      </trkpt>
      <trkpt lat="44.35412" lon="4.85825">
        <ele>140.5</ele>
        <time>2018-04-24T10:32:32Z</time>
      </trkpt>
      <trkpt lat="44.3542" lon="4.85832">
        <ele>141.4</ele>
        <time>2018-04-24T10:32:35Z</time>
      </trkpt>
      <trkpt lat="44.3543" lon="4.8584">
        <ele>142.9</ele>
        <time>2018-04-24T10:32:39Z</time>
      </trkpt>
      <trkpt lat="44.35437" lon="4.85849">
        <ele>144</ele>
        <time>2018-04-24T10:32:42Z</time>
      </trkpt>
      <trkpt lat="44.35446" lon="4.85856">
        <ele>144.7</ele>
        <time>2018-04-24T10:32:45Z</time>
      </trkpt>
      <trkpt lat="44.35453" lon="4.85865">
        <ele>145.9</ele>
        <time>2018-04-24T10:32:48Z</time>
      </trkpt>
      <trkpt lat="44.35461" lon="4.85875">
        <ele>147.3</ele>
        <time>2018-04-24T10:32:52Z</time>
      </trkpt>
      <trkpt lat="44.3547" lon="4.85886">
        <ele>148.7</ele>
        <time>2018-04-24T10:32:56Z</time>
      </trkpt>
      <trkpt lat="44.35478" lon="4.85897">
        <ele>150.2</ele>
        <time>2018-04-24T10:33:00Z</time>
      </trkpt>
      <trkpt lat="44.35486" lon="4.85907">
        <ele>151.6</ele>
        <time>2018-04-24T10:33:04Z</time>
      </trkpt>
      <trkpt lat="44.35495" lon="4.85913">
        <ele>152.6</ele>
        <time>2018-04-24T10:33:08Z</time>
      </trkpt>
      <trkpt lat="44.35505" lon="4.85916">
        <ele>154.3</ele>
        <time>2018-04-24T10:33:13Z</time>
      </trkpt>
      <trkpt lat="44.35515" lon="4.85919">
        <ele>155.8</ele>
        <time>2018-04-24T10:33:18Z</time>
      </trkpt>
      <trkpt lat="44.35526" lon="4.85921">
        <ele>157.3</ele>
        <time>2018-04-24T10:33:22Z</time>
      </trkpt>
      <trkpt lat="44.35537" lon="4.85924">
        <ele>159.1</ele>
        <time>2018-04-24T10:33:27Z</time>
      </trkpt>
      <trkpt lat="44.35546" lon="4.85927">
        <ele>160.3</ele>
        <time>2018-04-24T10:33:31Z</time>
      </trkpt>
      <trkpt lat="44.35556" lon="4.85925">
        <ele>161.3</ele>
        <time>2018-04-24T10:33:35Z</time>
      </trkpt>
      <trkpt lat="44.35563" lon="4.85914">
        <ele>162.7</ele>
        <time>2018-04-24T10:33:39Z</time>
      </trkpt>
      <trkpt lat="44.35567" lon="4.85903">
        <ele>163.8</ele>
        <time>2018-04-24T10:33:43Z</time>
      </trkpt>
      <trkpt lat="44.35578" lon="4.859">
        <ele>164.5</ele>
        <time>2018-04-24T10:33:47Z</time>
      </trkpt>
      <trkpt lat="44.35589" lon="4.85902">
        <ele>165.2</ele>
        <time>2018-04-24T10:33:51Z</time>
      </trkpt>
      <trkpt lat="44.356" lon="4.85903">
        <ele>165.6</ele>
        <time>2018-04-24T10:33:55Z</time>
      </trkpt>
      <trkpt lat="44.35612" lon="4.85904">
        <ele>166.1</ele>
        <time>2018-04-24T10:33:59Z</time>
      </trkpt>
      <trkpt lat="44.35623" lon="4.85905">
        <ele>166.5</ele>
        <time>2018-04-24T10:34:03Z</time>
      </trkpt>
      <trkpt lat="44.35635" lon="4.85906">
        <ele>167.4</ele>
        <time>2018-04-24T10:34:07Z</time>
      </trkpt>
      <trkpt lat="44.35644" lon="4.85907">
        <ele>168</ele>
        <time>2018-04-24T10:34:10Z</time>
      </trkpt>
      <trkpt lat="44.35652" lon="4.85914">
        <ele>168.8</ele>
        <time>2018-04-24T10:34:13Z</time>
      </trkpt>
      <trkpt lat="44.35662" lon="4.85922">
        <ele>170</ele>
        <time>2018-04-24T10:34:17Z</time>
      </trkpt>
      <trkpt lat="44.35671" lon="4.85927">
        <ele>170.8</ele>
        <time>2018-04-24T10:34:20Z</time>
      </trkpt>
      <trkpt lat="44.3568" lon="4.85932">
        <ele>171.7</ele>
        <time>2018-04-24T10:34:23Z</time>
      </trkpt>
      <trkpt lat="44.35688" lon="4.85937">
        <ele>172.5</ele>
        <time>2018-04-24T10:34:26Z</time>
      </trkpt>
      <trkpt lat="44.357" lon="4.85942">
        <ele>173.3</ele>
        <time>2018-04-24T10:34:30Z</time>
      </trkpt>
      <trkpt lat="44.35709" lon="4.85943">
        <ele>174.1</ele>
        <time>2018-04-24T10:34:33Z</time>
      </trkpt>
      <trkpt lat="44.35719" lon="4.85943">
        <ele>175.2</ele>
        <time>2018-04-24T10:34:36Z</time>
      </trkpt>
      <trkpt lat="44.35729" lon="4.85941">
        <ele>176.5</ele>
        <time>2018-04-24T10:34:40Z</time>
      </trkpt>
      <trkpt lat="44.3574" lon="4.85939">
        <ele>177.8</ele>
        <time>2018-04-24T10:34:44Z</time>
      </trkpt>
      <trkpt lat="44.35751" lon="4.85938">
        <ele>179.4</ele>
        <time>2018-04-24T10:34:49Z</time>
      </trkpt>
      <trkpt lat="44.35745" lon="4.85949">
        <ele>181.6</ele>
        <time>2018-04-24T10:34:57Z</time>
      </trkpt>
      <trkpt lat="44.35745" lon="4.85951">
        <ele>181</ele>
        <time>2018-04-24T10:35:08Z</time>
      </trkpt>
      <trkpt lat="44.35735" lon="4.85956">
        <ele>169.6</ele>
        <time>2018-04-24T10:51:42Z</time>
      </trkpt>
      <trkpt lat="44.35733" lon="4.85973">
        <ele>169</ele>
        <time>2018-04-24T10:51:46Z</time>
      </trkpt>
      <trkpt lat="44.35738" lon="4.85986">
        <ele>168.9</ele>
        <time>2018-04-24T10:51:49Z</time>
      </trkpt>
      <trkpt lat="44.35748" lon="4.85997">
        <ele>168.8</ele>
        <time>2018-04-24T10:51:52Z</time>
      </trkpt>
      <trkpt lat="44.35758" lon="4.86003">
        <ele>169.1</ele>
        <time>2018-04-24T10:51:55Z</time>
      </trkpt>
      <trkpt lat="44.35766" lon="4.8601">
        <ele>169.3</ele>
        <time>2018-04-24T10:51:58Z</time>
      </trkpt>
      <trkpt lat="44.35776" lon="4.8602">
        <ele>169.6</ele>
        <time>2018-04-24T10:52:01Z</time>
      </trkpt>
      <trkpt lat="44.35784" lon="4.86025">
        <ele>169.6</ele>
        <time>2018-04-24T10:52:03Z</time>
      </trkpt>
      <trkpt lat="44.35794" lon="4.86029">
        <ele>169.3</ele>
        <time>2018-04-24T10:52:05Z</time>
      </trkpt>
      <trkpt lat="44.35804" lon="4.86041">
        <ele>168.8</ele>
        <time>2018-04-24T10:52:08Z</time>
      </trkpt>
      <trkpt lat="44.35815" lon="4.86047">
        <ele>168.1</ele>
        <time>2018-04-24T10:52:11Z</time>
      </trkpt>
      <trkpt lat="44.35832" lon="4.86051">
        <ele>167.1</ele>
        <time>2018-04-24T10:52:14Z</time>
      </trkpt>
      <trkpt lat="44.35844" lon="4.86048">
        <ele>166.6</ele>
        <time>2018-04-24T10:52:16Z</time>
      </trkpt>
      <trkpt lat="44.35855" lon="4.86046">
        <ele>166.2</ele>
        <time>2018-04-24T10:52:19Z</time>
      </trkpt>
      <trkpt lat="44.35866" lon="4.86045">
        <ele>166.3</ele>
        <time>2018-04-24T10:52:22Z</time>
      </trkpt>
      <trkpt lat="44.35879" lon="4.86044">
        <ele>166.6</ele>
        <time>2018-04-24T10:52:25Z</time>
      </trkpt>
      <trkpt lat="44.35889" lon="4.8604">
        <ele>166.5</ele>
        <time>2018-04-24T10:52:27Z</time>
      </trkpt>
      <trkpt lat="44.35896" lon="4.86033">
        <ele>166.5</ele>
        <time>2018-04-24T10:52:30Z</time>
      </trkpt>
      <trkpt lat="44.35908" lon="4.86032">
        <ele>166.4</ele>
        <time>2018-04-24T10:52:32Z</time>
      </trkpt>
      <trkpt lat="44.35923" lon="4.86029">
        <ele>165.9</ele>
        <time>2018-04-24T10:52:34Z</time>
      </trkpt>
      <trkpt lat="44.35935" lon="4.86028">
        <ele>165.3</ele>
        <time>2018-04-24T10:52:36Z</time>
      </trkpt>
      <trkpt lat="44.35947" lon="4.86027">
        <ele>164.5</ele>
        <time>2018-04-24T10:52:38Z</time>
      </trkpt>
      <trkpt lat="44.35961" lon="4.86025">
        <ele>163.5</ele>
        <time>2018-04-24T10:52:40Z</time>
      </trkpt>
      <trkpt lat="44.35972" lon="4.86021">
        <ele>162.2</ele>
        <time>2018-04-24T10:52:42Z</time>
      </trkpt>
      <trkpt lat="44.35984" lon="4.86014">
        <ele>160.2</ele>
        <time>2018-04-24T10:52:45Z</time>
      </trkpt>
      <trkpt lat="44.35991" lon="4.85998">
        <ele>158.7</ele>
        <time>2018-04-24T10:52:48Z</time>
      </trkpt>
      <trkpt lat="44.35996" lon="4.85983">
        <ele>157.6</ele>
        <time>2018-04-24T10:52:50Z</time>
      </trkpt>
      <trkpt lat="44.36002" lon="4.85968">
        <ele>156.4</ele>
        <time>2018-04-24T10:52:52Z</time>
      </trkpt>
      <trkpt lat="44.36009" lon="4.85951">
        <ele>155.1</ele>
        <time>2018-04-24T10:52:54Z</time>
      </trkpt>
      <trkpt lat="44.36015" lon="4.85934">
        <ele>154.1</ele>
        <time>2018-04-24T10:52:56Z</time>
      </trkpt>
      <trkpt lat="44.36015" lon="4.85919">
        <ele>153.2</ele>
        <time>2018-04-24T10:52:58Z</time>
      </trkpt>
      <trkpt lat="44.36009" lon="4.85907">
        <ele>152.3</ele>
        <time>2018-04-24T10:53:00Z</time>
      </trkpt>
      <trkpt lat="44.35997" lon="4.85903">
        <ele>151.5</ele>
        <time>2018-04-24T10:53:02Z</time>
      </trkpt>
      <trkpt lat="44.35987" lon="4.85905">
        <ele>150.7</ele>
        <time>2018-04-24T10:53:04Z</time>
      </trkpt>
      <trkpt lat="44.35978" lon="4.85905">
        <ele>150.2</ele>
        <time>2018-04-24T10:53:06Z</time>
      </trkpt>
      <trkpt lat="44.35969" lon="4.85899">
        <ele>149.7</ele>
        <time>2018-04-24T10:53:08Z</time>
      </trkpt>
      <trkpt lat="44.35959" lon="4.85895">
        <ele>149.2</ele>
        <time>2018-04-24T10:53:10Z</time>
      </trkpt>
      <trkpt lat="44.35948" lon="4.85889">
        <ele>148.8</ele>
        <time>2018-04-24T10:53:12Z</time>
      </trkpt>
      <trkpt lat="44.35938" lon="4.85883">
        <ele>148.5</ele>
        <time>2018-04-24T10:53:14Z</time>
      </trkpt>
      <trkpt lat="44.35928" lon="4.85875">
        <ele>148.2</ele>
        <time>2018-04-24T10:53:16Z</time>
      </trkpt>
      <trkpt lat="44.35917" lon="4.85867">
        <ele>148</ele>
        <time>2018-04-24T10:53:18Z</time>
      </trkpt>
      <trkpt lat="44.35906" lon="4.85859">
        <ele>147.9</ele>
        <time>2018-04-24T10:53:20Z</time>
      </trkpt>
      <trkpt lat="44.35895" lon="4.85852">
        <ele>147.7</ele>
        <time>2018-04-24T10:53:22Z</time>
      </trkpt>
      <trkpt lat="44.35888" lon="4.85841">
        <ele>147.4</ele>
        <time>2018-04-24T10:53:24Z</time>
      </trkpt>
      <trkpt lat="44.35886" lon="4.85826">
        <ele>147</ele>
        <time>2018-04-24T10:53:26Z</time>
      </trkpt>
      <trkpt lat="44.3589" lon="4.85809">
        <ele>146.5</ele>
        <time>2018-04-24T10:53:28Z</time>
      </trkpt>
      <trkpt lat="44.35894" lon="4.85795">
        <ele>145.7</ele>
        <time>2018-04-24T10:53:30Z</time>
      </trkpt>
      <trkpt lat="44.35889" lon="4.85778">
        <ele>144.7</ele>
        <time>2018-04-24T10:53:33Z</time>
      </trkpt>
      <trkpt lat="44.35879" lon="4.85771">
        <ele>144</ele>
        <time>2018-04-24T10:53:35Z</time>
      </trkpt>
      <trkpt lat="44.35868" lon="4.85765">
        <ele>143.4</ele>
        <time>2018-04-24T10:53:37Z</time>
      </trkpt>
      <trkpt lat="44.35857" lon="4.85758">
        <ele>142.7</ele>
        <time>2018-04-24T10:53:39Z</time>
      </trkpt>
      <trkpt lat="44.35845" lon="4.85752">
        <ele>142.2</ele>
        <time>2018-04-24T10:53:41Z</time>
      </trkpt>
      <trkpt lat="44.35832" lon="4.85747">
        <ele>141.4</ele>
        <time>2018-04-24T10:53:43Z</time>
      </trkpt>
      <trkpt lat="44.35818" lon="4.85743">
        <ele>140.9</ele>
        <time>2018-04-24T10:53:45Z</time>
      </trkpt>
      <trkpt lat="44.35805" lon="4.8574">
        <ele>140.3</ele>
        <time>2018-04-24T10:53:47Z</time>
      </trkpt>
      <trkpt lat="44.35791" lon="4.85737">
        <ele>139.7</ele>
        <time>2018-04-24T10:53:49Z</time>
      </trkpt>
      <trkpt lat="44.35777" lon="4.85733">
        <ele>139.3</ele>
        <time>2018-04-24T10:53:51Z</time>
      </trkpt>
      <trkpt lat="44.35762" lon="4.85728">
        <ele>138.9</ele>
        <time>2018-04-24T10:53:53Z</time>
      </trkpt>
      <trkpt lat="44.35747" lon="4.85722">
        <ele>138.4</ele>
        <time>2018-04-24T10:53:55Z</time>
      </trkpt>
      <trkpt lat="44.35732" lon="4.85716">
        <ele>137.8</ele>
        <time>2018-04-24T10:53:57Z</time>
      </trkpt>
      <trkpt lat="44.35717" lon="4.8571">
        <ele>137.4</ele>
        <time>2018-04-24T10:53:59Z</time>
      </trkpt>
      <trkpt lat="44.35702" lon="4.85705">
        <ele>136.9</ele>
        <time>2018-04-24T10:54:01Z</time>
      </trkpt>
      <trkpt lat="44.35689" lon="4.857">
        <ele>136.4</ele>
        <time>2018-04-24T10:54:03Z</time>
      </trkpt>
      <trkpt lat="44.3568" lon="4.85695">
        <ele>135.7</ele>
        <time>2018-04-24T10:54:05Z</time>
      </trkpt>
      <trkpt lat="44.35679" lon="4.8568">
        <ele>134.9</ele>
        <time>2018-04-24T10:54:08Z</time>
      </trkpt>
      <trkpt lat="44.35685" lon="4.85664">
        <ele>134.4</ele>
        <time>2018-04-24T10:54:11Z</time>
      </trkpt>
      <trkpt lat="44.35691" lon="4.85652">
        <ele>134.1</ele>
        <time>2018-04-24T10:54:13Z</time>
      </trkpt>
      <trkpt lat="44.35696" lon="4.85641">
        <ele>133.9</ele>
        <time>2018-04-24T10:54:15Z</time>
      </trkpt>
      <trkpt lat="44.35702" lon="4.85631">
        <ele>133.6</ele>
        <time>2018-04-24T10:54:17Z</time>
      </trkpt>
      <trkpt lat="44.3571" lon="4.85617">
        <ele>133.4</ele>
        <time>2018-04-24T10:54:20Z</time>
      </trkpt>
      <trkpt lat="44.35717" lon="4.85604">
        <ele>133.3</ele>
        <time>2018-04-24T10:54:23Z</time>
      </trkpt>
      <trkpt lat="44.35723" lon="4.85591">
        <ele>133.5</ele>
        <time>2018-04-24T10:54:26Z</time>
      </trkpt>
      <trkpt lat="44.3573" lon="4.85575">
        <ele>133.7</ele>
        <time>2018-04-24T10:54:29Z</time>
      </trkpt>
      <trkpt lat="44.35735" lon="4.85563">
        <ele>133.8</ele>
        <time>2018-04-24T10:54:31Z</time>
      </trkpt>
      <trkpt lat="44.35739" lon="4.85552">
        <ele>134</ele>
        <time>2018-04-24T10:54:33Z</time>
      </trkpt>
      <trkpt lat="44.35744" lon="4.85541">
        <ele>134.4</ele>
        <time>2018-04-24T10:54:35Z</time>
      </trkpt>
      <trkpt lat="44.35751" lon="4.85525">
        <ele>134.7</ele>
        <time>2018-04-24T10:54:38Z</time>
      </trkpt>
      <trkpt lat="44.35758" lon="4.8551">
        <ele>135.2</ele>
        <time>2018-04-24T10:54:41Z</time>
      </trkpt>
      <trkpt lat="44.35763" lon="4.85496">
        <ele>135.7</ele>
        <time>2018-04-24T10:54:44Z</time>
      </trkpt>
      <trkpt lat="44.35766" lon="4.85483">
        <ele>136.4</ele>
        <time>2018-04-24T10:54:47Z</time>
      </trkpt>
      <trkpt lat="44.35769" lon="4.85469">
        <ele>137.1</ele>
        <time>2018-04-24T10:54:50Z</time>
      </trkpt>
      <trkpt lat="44.35772" lon="4.85454">
        <ele>137.6</ele>
        <time>2018-04-24T10:54:53Z</time>
      </trkpt>
      <trkpt lat="44.35775" lon="4.85438">
        <ele>138</ele>
        <time>2018-04-24T10:54:56Z</time>
      </trkpt>
      <trkpt lat="44.35779" lon="4.85421">
        <ele>138.2</ele>
        <time>2018-04-24T10:54:59Z</time>
      </trkpt>
      <trkpt lat="44.35783" lon="4.85405">
        <ele>138.5</ele>
        <time>2018-04-24T10:55:02Z</time>
      </trkpt>
      <trkpt lat="44.35787" lon="4.85388">
        <ele>138.7</ele>
        <time>2018-04-24T10:55:05Z</time>
      </trkpt>
      <trkpt lat="44.35789" lon="4.85375">
        <ele>138.9</ele>
        <time>2018-04-24T10:55:07Z</time>
      </trkpt>
      <trkpt lat="44.35793" lon="4.85357">
        <ele>139</ele>
        <time>2018-04-24T10:55:10Z</time>
      </trkpt>
      <trkpt lat="44.35798" lon="4.85339">
        <ele>139</ele>
        <time>2018-04-24T10:55:13Z</time>
      </trkpt>
      <trkpt lat="44.35801" lon="4.85322">
        <ele>138.9</ele>
        <time>2018-04-24T10:55:16Z</time>
      </trkpt>
      <trkpt lat="44.35805" lon="4.85305">
        <ele>138.8</ele>
        <time>2018-04-24T10:55:19Z</time>
      </trkpt>
      <trkpt lat="44.35807" lon="4.85291">
        <ele>138.8</ele>
        <time>2018-04-24T10:55:21Z</time>
      </trkpt>
      <trkpt lat="44.35809" lon="4.85277">
        <ele>138.6</ele>
        <time>2018-04-24T10:55:23Z</time>
      </trkpt>
      <trkpt lat="44.35811" lon="4.85263">
        <ele>138.6</ele>
        <time>2018-04-24T10:55:25Z</time>
      </trkpt>
      <trkpt lat="44.35814" lon="4.85249">
        <ele>138.5</ele>
        <time>2018-04-24T10:55:27Z</time>
      </trkpt>
      <trkpt lat="44.35816" lon="4.85236">
        <ele>138.5</ele>
        <time>2018-04-24T10:55:29Z</time>
      </trkpt>
      <trkpt lat="44.35818" lon="4.85223">
        <ele>138.6</ele>
        <time>2018-04-24T10:55:31Z</time>
      </trkpt>
      <trkpt lat="44.35813" lon="4.85211">
        <ele>138.4</ele>
        <time>2018-04-24T10:55:33Z</time>
      </trkpt>
      <trkpt lat="44.35806" lon="4.85198">
        <ele>138.5</ele>
        <time>2018-04-24T10:55:35Z</time>
      </trkpt>
      <trkpt lat="44.35798" lon="4.85184">
        <ele>138.5</ele>
        <time>2018-04-24T10:55:37Z</time>
      </trkpt>
      <trkpt lat="44.35792" lon="4.85169">
        <ele>138.5</ele>
        <time>2018-04-24T10:55:39Z</time>
      </trkpt>
      <trkpt lat="44.35783" lon="4.85153">
        <ele>138.7</ele>
        <time>2018-04-24T10:55:41Z</time>
      </trkpt>
      <trkpt lat="44.35776" lon="4.85137">
        <ele>138.7</ele>
        <time>2018-04-24T10:55:43Z</time>
      </trkpt>
      <trkpt lat="44.35768" lon="4.85122">
        <ele>138.6</ele>
        <time>2018-04-24T10:55:45Z</time>
      </trkpt>
      <trkpt lat="44.35759" lon="4.85108">
        <ele>138.4</ele>
        <time>2018-04-24T10:55:47Z</time>
      </trkpt>
      <trkpt lat="44.35749" lon="4.85094">
        <ele>138.2</ele>
        <time>2018-04-24T10:55:49Z</time>
      </trkpt>
      <trkpt lat="44.35739" lon="4.85082">
        <ele>137.9</ele>
        <time>2018-04-24T10:55:51Z</time>
      </trkpt>
      <trkpt lat="44.35728" lon="4.85071">
        <ele>137.5</ele>
        <time>2018-04-24T10:55:53Z</time>
      </trkpt>
      <trkpt lat="44.35717" lon="4.8506">
        <ele>137.2</ele>
        <time>2018-04-24T10:55:55Z</time>
      </trkpt>
      <trkpt lat="44.35706" lon="4.85051">
        <ele>137</ele>
        <time>2018-04-24T10:55:57Z</time>
      </trkpt>
      <trkpt lat="44.35695" lon="4.85043">
        <ele>137.1</ele>
        <time>2018-04-24T10:55:59Z</time>
      </trkpt>
      <trkpt lat="44.35684" lon="4.85037">
        <ele>137.2</ele>
        <time>2018-04-24T10:56:01Z</time>
      </trkpt>
      <trkpt lat="44.35672" lon="4.8503">
        <ele>137.1</ele>
        <time>2018-04-24T10:56:03Z</time>
      </trkpt>
      <trkpt lat="44.35658" lon="4.85023">
        <ele>137.1</ele>
        <time>2018-04-24T10:56:05Z</time>
      </trkpt>
      <trkpt lat="44.35646" lon="4.85015">
        <ele>137</ele>
        <time>2018-04-24T10:56:07Z</time>
      </trkpt>
      <trkpt lat="44.35633" lon="4.85008">
        <ele>136.9</ele>
        <time>2018-04-24T10:56:09Z</time>
      </trkpt>
      <trkpt lat="44.35619" lon="4.85001">
        <ele>136.5</ele>
        <time>2018-04-24T10:56:11Z</time>
      </trkpt>
      <trkpt lat="44.35605" lon="4.84994">
        <ele>136.3</ele>
        <time>2018-04-24T10:56:13Z</time>
      </trkpt>
      <trkpt lat="44.35591" lon="4.84987">
        <ele>135.9</ele>
        <time>2018-04-24T10:56:15Z</time>
      </trkpt>
      <trkpt lat="44.35578" lon="4.8498">
        <ele>135.7</ele>
        <time>2018-04-24T10:56:17Z</time>
      </trkpt>
      <trkpt lat="44.35564" lon="4.84973">
        <ele>135.4</ele>
        <time>2018-04-24T10:56:19Z</time>
      </trkpt>
      <trkpt lat="44.35551" lon="4.84966">
        <ele>134.9</ele>
        <time>2018-04-24T10:56:21Z</time>
      </trkpt>
      <trkpt lat="44.35537" lon="4.8496">
        <ele>134.5</ele>
        <time>2018-04-24T10:56:23Z</time>
      </trkpt>
      <trkpt lat="44.35525" lon="4.84953">
        <ele>134.1</ele>
        <time>2018-04-24T10:56:25Z</time>
      </trkpt>
      <trkpt lat="44.35512" lon="4.84945">
        <ele>133.8</ele>
        <time>2018-04-24T10:56:27Z</time>
      </trkpt>
      <trkpt lat="44.355" lon="4.84939">
        <ele>133.7</ele>
        <time>2018-04-24T10:56:29Z</time>
      </trkpt>
      <trkpt lat="44.35487" lon="4.84935">
        <ele>133.5</ele>
        <time>2018-04-24T10:56:31Z</time>
      </trkpt>
      <trkpt lat="44.35474" lon="4.84931">
        <ele>133.3</ele>
        <time>2018-04-24T10:56:33Z</time>
      </trkpt>
      <trkpt lat="44.35462" lon="4.84926">
        <ele>133.1</ele>
        <time>2018-04-24T10:56:35Z</time>
      </trkpt>
      <trkpt lat="44.3545" lon="4.8492">
        <ele>133.3</ele>
        <time>2018-04-24T10:56:37Z</time>
      </trkpt>
      <trkpt lat="44.35439" lon="4.84914">
        <ele>133.7</ele>
        <time>2018-04-24T10:56:39Z</time>
      </trkpt>
      <trkpt lat="44.35427" lon="4.84908">
        <ele>133.5</ele>
        <time>2018-04-24T10:56:41Z</time>
      </trkpt>
      <trkpt lat="44.35415" lon="4.84903">
        <ele>133.3</ele>
        <time>2018-04-24T10:56:43Z</time>
      </trkpt>
      <trkpt lat="44.35403" lon="4.84897">
        <ele>133.5</ele>
        <time>2018-04-24T10:56:45Z</time>
      </trkpt>
      <trkpt lat="44.35392" lon="4.8489">
        <ele>133.3</ele>
        <time>2018-04-24T10:56:47Z</time>
      </trkpt>
      <trkpt lat="44.3538" lon="4.84883">
        <ele>133.2</ele>
        <time>2018-04-24T10:56:49Z</time>
      </trkpt>
      <trkpt lat="44.35368" lon="4.84876">
        <ele>133</ele>
        <time>2018-04-24T10:56:51Z</time>
      </trkpt>
      <trkpt lat="44.35357" lon="4.84869">
        <ele>132.8</ele>
        <time>2018-04-24T10:56:53Z</time>
      </trkpt>
      <trkpt lat="44.35345" lon="4.84862">
        <ele>132.8</ele>
        <time>2018-04-24T10:56:55Z</time>
      </trkpt>
      <trkpt lat="44.35334" lon="4.84854">
        <ele>132.4</ele>
        <time>2018-04-24T10:56:57Z</time>
      </trkpt>
      <trkpt lat="44.35322" lon="4.84847">
        <ele>132.3</ele>
        <time>2018-04-24T10:56:59Z</time>
      </trkpt>
      <trkpt lat="44.35311" lon="4.8484">
        <ele>132.4</ele>
        <time>2018-04-24T10:57:01Z</time>
      </trkpt>
      <trkpt lat="44.353" lon="4.84831">
        <ele>132.1</ele>
        <time>2018-04-24T10:57:03Z</time>
      </trkpt>
      <trkpt lat="44.3529" lon="4.84823">
        <ele>132</ele>
        <time>2018-04-24T10:57:05Z</time>
      </trkpt>
      <trkpt lat="44.35279" lon="4.84815">
        <ele>132</ele>
        <time>2018-04-24T10:57:07Z</time>
      </trkpt>
      <trkpt lat="44.35268" lon="4.84808">
        <ele>132.1</ele>
        <time>2018-04-24T10:57:09Z</time>
      </trkpt>
      <trkpt lat="44.35258" lon="4.84799">
        <ele>132.1</ele>
        <time>2018-04-24T10:57:11Z</time>
      </trkpt>
      <trkpt lat="44.35247" lon="4.84789">
        <ele>132</ele>
        <time>2018-04-24T10:57:13Z</time>
      </trkpt>
      <trkpt lat="44.35236" lon="4.84778">
        <ele>131.8</ele>
        <time>2018-04-24T10:57:15Z</time>
      </trkpt>
      <trkpt lat="44.35226" lon="4.84766">
        <ele>131.9</ele>
        <time>2018-04-24T10:57:17Z</time>
      </trkpt>
      <trkpt lat="44.35216" lon="4.84754">
        <ele>131.9</ele>
        <time>2018-04-24T10:57:19Z</time>
      </trkpt>
      <trkpt lat="44.35206" lon="4.84743">
        <ele>131.7</ele>
        <time>2018-04-24T10:57:21Z</time>
      </trkpt>
      <trkpt lat="44.35196" lon="4.8473">
        <ele>131.5</ele>
        <time>2018-04-24T10:57:23Z</time>
      </trkpt>
      <trkpt lat="44.35186" lon="4.84718">
        <ele>131.3</ele>
        <time>2018-04-24T10:57:25Z</time>
      </trkpt>
      <trkpt lat="44.35176" lon="4.84706">
        <ele>131.1</ele>
        <time>2018-04-24T10:57:27Z</time>
      </trkpt>
      <trkpt lat="44.35166" lon="4.84694">
        <ele>131.1</ele>
        <time>2018-04-24T10:57:29Z</time>
      </trkpt>
      <trkpt lat="44.35157" lon="4.8468">
        <ele>131</ele>
        <time>2018-04-24T10:57:31Z</time>
      </trkpt>
      <trkpt lat="44.35148" lon="4.84665">
        <ele>130.8</ele>
        <time>2018-04-24T10:57:33Z</time>
      </trkpt>
      <trkpt lat="44.3514" lon="4.84651">
        <ele>130.8</ele>
        <time>2018-04-24T10:57:35Z</time>
      </trkpt>
      <trkpt lat="44.3513" lon="4.84637">
        <ele>130.8</ele>
        <time>2018-04-24T10:57:37Z</time>
      </trkpt>
      <trkpt lat="44.35121" lon="4.84624">
        <ele>130.7</ele>
        <time>2018-04-24T10:57:39Z</time>
      </trkpt>
      <trkpt lat="44.35111" lon="4.84613">
        <ele>130.4</ele>
        <time>2018-04-24T10:57:41Z</time>
      </trkpt>
      <trkpt lat="44.351" lon="4.84602">
        <ele>130.3</ele>
        <time>2018-04-24T10:57:43Z</time>
      </trkpt>
      <trkpt lat="44.35089" lon="4.84591">
        <ele>130.5</ele>
        <time>2018-04-24T10:57:45Z</time>
      </trkpt>
      <trkpt lat="44.35078" lon="4.8458">
        <ele>130</ele>
        <time>2018-04-24T10:57:47Z</time>
      </trkpt>
      <trkpt lat="44.35066" lon="4.84568">
        <ele>129.8</ele>
        <time>2018-04-24T10:57:49Z</time>
      </trkpt>
      <trkpt lat="44.35055" lon="4.84556">
        <ele>129.6</ele>
        <time>2018-04-24T10:57:51Z</time>
      </trkpt>
      <trkpt lat="44.35044" lon="4.84545">
        <ele>129.2</ele>
        <time>2018-04-24T10:57:53Z</time>
      </trkpt>
      <trkpt lat="44.35033" lon="4.84533">
        <ele>129</ele>
        <time>2018-04-24T10:57:55Z</time>
      </trkpt>
      <trkpt lat="44.35022" lon="4.84522">
        <ele>128.9</ele>
        <time>2018-04-24T10:57:57Z</time>
      </trkpt>
      <trkpt lat="44.3501" lon="4.84511">
        <ele>128.7</ele>
        <time>2018-04-24T10:57:59Z</time>
      </trkpt>
      <trkpt lat="44.34999" lon="4.845">
        <ele>128.6</ele>
        <time>2018-04-24T10:58:01Z</time>
      </trkpt>
      <trkpt lat="44.34988" lon="4.8449">
        <ele>128.5</ele>
        <time>2018-04-24T10:58:03Z</time>
      </trkpt>
      <trkpt lat="44.34978" lon="4.84479">
        <ele>128.4</ele>
        <time>2018-04-24T10:58:05Z</time>
      </trkpt>
      <trkpt lat="44.34967" lon="4.84469">
        <ele>128.1</ele>
        <time>2018-04-24T10:58:07Z</time>
      </trkpt>
      <trkpt lat="44.34956" lon="4.84459">
        <ele>128.1</ele>
        <time>2018-04-24T10:58:09Z</time>
      </trkpt>
      <trkpt lat="44.34946" lon="4.84449">
        <ele>127.9</ele>
        <time>2018-04-24T10:58:11Z</time>
      </trkpt>
      <trkpt lat="44.34935" lon="4.84439">
        <ele>127.8</ele>
        <time>2018-04-24T10:58:13Z</time>
      </trkpt>
      <trkpt lat="44.34924" lon="4.84429">
        <ele>127.4</ele>
        <time>2018-04-24T10:58:15Z</time>
      </trkpt>
      <trkpt lat="44.34912" lon="4.84423">
        <ele>127.3</ele>
        <time>2018-04-24T10:58:17Z</time>
      </trkpt>
      <trkpt lat="44.349" lon="4.84419">
        <ele>127.1</ele>
        <time>2018-04-24T10:58:19Z</time>
      </trkpt>
      <trkpt lat="44.34889" lon="4.84417">
        <ele>126.8</ele>
        <time>2018-04-24T10:58:21Z</time>
      </trkpt>
      <trkpt lat="44.34878" lon="4.84415">
        <ele>127.2</ele>
        <time>2018-04-24T10:58:23Z</time>
      </trkpt>
      <trkpt lat="44.34867" lon="4.84411">
        <ele>127.3</ele>
        <time>2018-04-24T10:58:25Z</time>
      </trkpt>
      <trkpt lat="44.34857" lon="4.84405">
        <ele>127.3</ele>
        <time>2018-04-24T10:58:27Z</time>
      </trkpt>
      <trkpt lat="44.34845" lon="4.84399">
        <ele>127.3</ele>
        <time>2018-04-24T10:58:29Z</time>
      </trkpt>
      <trkpt lat="44.34835" lon="4.84392">
        <ele>127.4</ele>
        <time>2018-04-24T10:58:31Z</time>
      </trkpt>
      <trkpt lat="44.34824" lon="4.84384">
        <ele>127.4</ele>
        <time>2018-04-24T10:58:33Z</time>
      </trkpt>
      <trkpt lat="44.34813" lon="4.84375">
        <ele>127.7</ele>
        <time>2018-04-24T10:58:35Z</time>
      </trkpt>
      <trkpt lat="44.34803" lon="4.84363">
        <ele>127.4</ele>
        <time>2018-04-24T10:58:37Z</time>
      </trkpt>
      <trkpt lat="44.34795" lon="4.84349">
        <ele>127.5</ele>
        <time>2018-04-24T10:58:39Z</time>
      </trkpt>
      <trkpt lat="44.34788" lon="4.84334">
        <ele>127.3</ele>
        <time>2018-04-24T10:58:41Z</time>
      </trkpt>
      <trkpt lat="44.34781" lon="4.84319">
        <ele>127.2</ele>
        <time>2018-04-24T10:58:43Z</time>
      </trkpt>
      <trkpt lat="44.34777" lon="4.84302">
        <ele>127</ele>
        <time>2018-04-24T10:58:45Z</time>
      </trkpt>
      <trkpt lat="44.34773" lon="4.84286">
        <ele>126.9</ele>
        <time>2018-04-24T10:58:47Z</time>
      </trkpt>
      <trkpt lat="44.3477" lon="4.8427">
        <ele>126.6</ele>
        <time>2018-04-24T10:58:49Z</time>
      </trkpt>
      <trkpt lat="44.34767" lon="4.84254">
        <ele>126.3</ele>
        <time>2018-04-24T10:58:51Z</time>
      </trkpt>
      <trkpt lat="44.34763" lon="4.84238">
        <ele>126.1</ele>
        <time>2018-04-24T10:58:53Z</time>
      </trkpt>
      <trkpt lat="44.34758" lon="4.84222">
        <ele>125.9</ele>
        <time>2018-04-24T10:58:55Z</time>
      </trkpt>
      <trkpt lat="44.34752" lon="4.84208">
        <ele>125.9</ele>
        <time>2018-04-24T10:58:57Z</time>
      </trkpt>
      <trkpt lat="44.34744" lon="4.84195">
        <ele>125.6</ele>
        <time>2018-04-24T10:58:59Z</time>
      </trkpt>
      <trkpt lat="44.34736" lon="4.84182">
        <ele>125.2</ele>
        <time>2018-04-24T10:59:01Z</time>
      </trkpt>
      <trkpt lat="44.34726" lon="4.84171">
        <ele>125.2</ele>
        <time>2018-04-24T10:59:03Z</time>
      </trkpt>
      <trkpt lat="44.34716" lon="4.8416">
        <ele>125</ele>
        <time>2018-04-24T10:59:05Z</time>
      </trkpt>
      <trkpt lat="44.34706" lon="4.84148">
        <ele>124.8</ele>
        <time>2018-04-24T10:59:07Z</time>
      </trkpt>
      <trkpt lat="44.34695" lon="4.84136">
        <ele>124.6</ele>
        <time>2018-04-24T10:59:09Z</time>
      </trkpt>
      <trkpt lat="44.34685" lon="4.84124">
        <ele>124.5</ele>
        <time>2018-04-24T10:59:11Z</time>
      </trkpt>
      <trkpt lat="44.34675" lon="4.84112">
        <ele>124.4</ele>
        <time>2018-04-24T10:59:13Z</time>
      </trkpt>
      <trkpt lat="44.34666" lon="4.84099">
        <ele>124.2</ele>
        <time>2018-04-24T10:59:15Z</time>
      </trkpt>
      <trkpt lat="44.34657" lon="4.84087">
        <ele>123.9</ele>
        <time>2018-04-24T10:59:17Z</time>
      </trkpt>
      <trkpt lat="44.34649" lon="4.84075">
        <ele>123.7</ele>
        <time>2018-04-24T10:59:19Z</time>
      </trkpt>
      <trkpt lat="44.34644" lon="4.8406">
        <ele>123.7</ele>
        <time>2018-04-24T10:59:21Z</time>
      </trkpt>
      <trkpt lat="44.3464" lon="4.84046">
        <ele>123.5</ele>
        <time>2018-04-24T10:59:23Z</time>
      </trkpt>
      <trkpt lat="44.34636" lon="4.84035">
        <ele>123.3</ele>
        <time>2018-04-24T10:59:25Z</time>
      </trkpt>
      <trkpt lat="44.34632" lon="4.84022">
        <ele>122.7</ele>
        <time>2018-04-24T10:59:28Z</time>
      </trkpt>
      <trkpt lat="44.3464" lon="4.84006">
        <ele>122</ele>
        <time>2018-04-24T10:59:31Z</time>
      </trkpt>
      <trkpt lat="44.34648" lon="4.83992">
        <ele>121.3</ele>
        <time>2018-04-24T10:59:33Z</time>
      </trkpt>
      <trkpt lat="44.34657" lon="4.83975">
        <ele>120.6</ele>
        <time>2018-04-24T10:59:35Z</time>
      </trkpt>
      <trkpt lat="44.34667" lon="4.83958">
        <ele>119.8</ele>
        <time>2018-04-24T10:59:37Z</time>
      </trkpt>
      <trkpt lat="44.34676" lon="4.83941">
        <ele>119</ele>
        <time>2018-04-24T10:59:39Z</time>
      </trkpt>
      <trkpt lat="44.34686" lon="4.83924">
        <ele>118.1</ele>
        <time>2018-04-24T10:59:41Z</time>
      </trkpt>
      <trkpt lat="44.34695" lon="4.83908">
        <ele>117.3</ele>
        <time>2018-04-24T10:59:43Z</time>
      </trkpt>
      <trkpt lat="44.34704" lon="4.83892">
        <ele>116.6</ele>
        <time>2018-04-24T10:59:45Z</time>
      </trkpt>
      <trkpt lat="44.34713" lon="4.83875">
        <ele>116</ele>
        <time>2018-04-24T10:59:47Z</time>
      </trkpt>
      <trkpt lat="44.34723" lon="4.83862">
        <ele>115.4</ele>
        <time>2018-04-24T10:59:49Z</time>
      </trkpt>
      <trkpt lat="44.34733" lon="4.83851">
        <ele>114.8</ele>
        <time>2018-04-24T10:59:51Z</time>
      </trkpt>
      <trkpt lat="44.34744" lon="4.83843">
        <ele>114.4</ele>
        <time>2018-04-24T10:59:53Z</time>
      </trkpt>
      <trkpt lat="44.34754" lon="4.83835">
        <ele>114.1</ele>
        <time>2018-04-24T10:59:55Z</time>
      </trkpt>
      <trkpt lat="44.34764" lon="4.83827">
        <ele>114</ele>
        <time>2018-04-24T10:59:57Z</time>
      </trkpt>
      <trkpt lat="44.34773" lon="4.83821">
        <ele>114.1</ele>
        <time>2018-04-24T10:59:59Z</time>
      </trkpt>
      <trkpt lat="44.34781" lon="4.83812">
        <ele>114.2</ele>
        <time>2018-04-24T11:00:01Z</time>
      </trkpt>
      <trkpt lat="44.34791" lon="4.83805">
        <ele>114.3</ele>
        <time>2018-04-24T11:00:03Z</time>
      </trkpt>
      <trkpt lat="44.34801" lon="4.83795">
        <ele>114.4</ele>
        <time>2018-04-24T11:00:05Z</time>
      </trkpt>
      <trkpt lat="44.3481" lon="4.83783">
        <ele>114.5</ele>
        <time>2018-04-24T11:00:07Z</time>
      </trkpt>
      <trkpt lat="44.34819" lon="4.83774">
        <ele>114.6</ele>
        <time>2018-04-24T11:00:09Z</time>
      </trkpt>
      <trkpt lat="44.3483" lon="4.83769">
        <ele>114.7</ele>
        <time>2018-04-24T11:00:11Z</time>
      </trkpt>
      <trkpt lat="44.34842" lon="4.83766">
        <ele>114.7</ele>
        <time>2018-04-24T11:00:13Z</time>
      </trkpt>
      <trkpt lat="44.34852" lon="4.83763">
        <ele>114.8</ele>
        <time>2018-04-24T11:00:15Z</time>
      </trkpt>
      <trkpt lat="44.34861" lon="4.83761">
        <ele>114.7</ele>
        <time>2018-04-24T11:00:17Z</time>
      </trkpt>
      <trkpt lat="44.34872" lon="4.83758">
        <ele>114.9</ele>
        <time>2018-04-24T11:00:20Z</time>
      </trkpt>
      <trkpt lat="44.34875" lon="4.83741">
        <ele>115.6</ele>
        <time>2018-04-24T11:00:24Z</time>
      </trkpt>
      <trkpt lat="44.34874" lon="4.83729">
        <ele>115.6</ele>
        <time>2018-04-24T11:00:26Z</time>
      </trkpt>
      <trkpt lat="44.34874" lon="4.83712">
        <ele>115.6</ele>
        <time>2018-04-24T11:00:28Z</time>
      </trkpt>
      <trkpt lat="44.34874" lon="4.83695">
        <ele>115.6</ele>
        <time>2018-04-24T11:00:30Z</time>
      </trkpt>
      <trkpt lat="44.34872" lon="4.83678">
        <ele>115.6</ele>
        <time>2018-04-24T11:00:32Z</time>
      </trkpt>
      <trkpt lat="44.34871" lon="4.8366">
        <ele>115.6</ele>
        <time>2018-04-24T11:00:34Z</time>
      </trkpt>
      <trkpt lat="44.3487" lon="4.83642">
        <ele>115.7</ele>
        <time>2018-04-24T11:00:36Z</time>
      </trkpt>
      <trkpt lat="44.34869" lon="4.83624">
        <ele>115.6</ele>
        <time>2018-04-24T11:00:38Z</time>
      </trkpt>
      <trkpt lat="44.34867" lon="4.83607">
        <ele>115.6</ele>
        <time>2018-04-24T11:00:40Z</time>
      </trkpt>
      <trkpt lat="44.34864" lon="4.8359">
        <ele>115.5</ele>
        <time>2018-04-24T11:00:42Z</time>
      </trkpt>
      <trkpt lat="44.34861" lon="4.83573">
        <ele>115.3</ele>
        <time>2018-04-24T11:00:44Z</time>
      </trkpt>
      <trkpt lat="44.34858" lon="4.83555">
        <ele>115</ele>
        <time>2018-04-24T11:00:46Z</time>
      </trkpt>
      <trkpt lat="44.34855" lon="4.83538">
        <ele>114.7</ele>
        <time>2018-04-24T11:00:48Z</time>
      </trkpt>
      <trkpt lat="44.34851" lon="4.83521">
        <ele>114.4</ele>
        <time>2018-04-24T11:00:50Z</time>
      </trkpt>
      <trkpt lat="44.34849" lon="4.83504">
        <ele>114</ele>
        <time>2018-04-24T11:00:52Z</time>
      </trkpt>
      <trkpt lat="44.34846" lon="4.83488">
        <ele>113.8</ele>
        <time>2018-04-24T11:00:54Z</time>
      </trkpt>
      <trkpt lat="44.34843" lon="4.83471">
        <ele>113.7</ele>
        <time>2018-04-24T11:00:56Z</time>
      </trkpt>
      <trkpt lat="44.3484" lon="4.83455">
        <ele>113.5</ele>
        <time>2018-04-24T11:00:58Z</time>
      </trkpt>
      <trkpt lat="44.34835" lon="4.83439">
        <ele>113.1</ele>
        <time>2018-04-24T11:01:00Z</time>
      </trkpt>
      <trkpt lat="44.34829" lon="4.83423">
        <ele>113</ele>
        <time>2018-04-24T11:01:02Z</time>
      </trkpt>
      <trkpt lat="44.34823" lon="4.83409">
        <ele>112.8</ele>
        <time>2018-04-24T11:01:04Z</time>
      </trkpt>
      <trkpt lat="44.34817" lon="4.83395">
        <ele>112.6</ele>
        <time>2018-04-24T11:01:06Z</time>
      </trkpt>
      <trkpt lat="44.34813" lon="4.8338">
        <ele>112.4</ele>
        <time>2018-04-24T11:01:08Z</time>
      </trkpt>
      <trkpt lat="44.34811" lon="4.83365">
        <ele>112.1</ele>
        <time>2018-04-24T11:01:10Z</time>
      </trkpt>
      <trkpt lat="44.34809" lon="4.8335">
        <ele>112</ele>
        <time>2018-04-24T11:01:12Z</time>
      </trkpt>
      <trkpt lat="44.34808" lon="4.83335">
        <ele>111.7</ele>
        <time>2018-04-24T11:01:14Z</time>
      </trkpt>
      <trkpt lat="44.34806" lon="4.83321">
        <ele>111.5</ele>
        <time>2018-04-24T11:01:16Z</time>
      </trkpt>
      <trkpt lat="44.34802" lon="4.83304">
        <ele>111.4</ele>
        <time>2018-04-24T11:01:19Z</time>
      </trkpt>
      <trkpt lat="44.34792" lon="4.83295">
        <ele>111.4</ele>
        <time>2018-04-24T11:01:22Z</time>
      </trkpt>
      <trkpt lat="44.34787" lon="4.83283">
        <ele>111.4</ele>
        <time>2018-04-24T11:01:24Z</time>
      </trkpt>
      <trkpt lat="44.34784" lon="4.83271">
        <ele>111.3</ele>
        <time>2018-04-24T11:01:26Z</time>
      </trkpt>
      <trkpt lat="44.3478" lon="4.83255">
        <ele>111.3</ele>
        <time>2018-04-24T11:01:29Z</time>
      </trkpt>
      <trkpt lat="44.34782" lon="4.83241">
        <ele>111.3</ele>
        <time>2018-04-24T11:01:34Z</time>
      </trkpt>
      <trkpt lat="44.34792" lon="4.83238">
        <ele>111.7</ele>
        <time>2018-04-24T11:01:38Z</time>
      </trkpt>
      <trkpt lat="44.34801" lon="4.83236">
        <ele>110</ele>
        <time>2018-04-24T11:02:21Z</time>
      </trkpt>
      <trkpt lat="44.34797" lon="4.83223">
        <ele>108.7</ele>
        <time>2018-04-24T11:04:18Z</time>
      </trkpt>
      <trkpt lat="44.34796" lon="4.83208">
        <ele>108.6</ele>
        <time>2018-04-24T11:04:22Z</time>
      </trkpt>
      <trkpt lat="44.34798" lon="4.83195">
        <ele>108.7</ele>
        <time>2018-04-24T11:04:26Z</time>
      </trkpt>
      <trkpt lat="44.34808" lon="4.83191">
        <ele>108.4</ele>
        <time>2018-04-24T11:04:30Z</time>
      </trkpt>
      <trkpt lat="44.34818" lon="4.83184">
        <ele>108.2</ele>
        <time>2018-04-24T11:04:33Z</time>
      </trkpt>
      <trkpt lat="44.34829" lon="4.83178">
        <ele>108.1</ele>
        <time>2018-04-24T11:04:36Z</time>
      </trkpt>
      <trkpt lat="44.34839" lon="4.83171">
        <ele>108.3</ele>
        <time>2018-04-24T11:04:39Z</time>
      </trkpt>
      <trkpt lat="44.34851" lon="4.83164">
        <ele>108.8</ele>
        <time>2018-04-24T11:04:42Z</time>
      </trkpt>
      <trkpt lat="44.34861" lon="4.83155">
        <ele>109.5</ele>
        <time>2018-04-24T11:04:45Z</time>
      </trkpt>
      <trkpt lat="44.34871" lon="4.83146">
        <ele>109.9</ele>
        <time>2018-04-24T11:04:48Z</time>
      </trkpt>
      <trkpt lat="44.34881" lon="4.83136">
        <ele>110.4</ele>
        <time>2018-04-24T11:04:51Z</time>
      </trkpt>
      <trkpt lat="44.34891" lon="4.83125">
        <ele>111</ele>
        <time>2018-04-24T11:04:54Z</time>
      </trkpt>
      <trkpt lat="44.34898" lon="4.83117">
        <ele>111.2</ele>
        <time>2018-04-24T11:04:56Z</time>
      </trkpt>
      <trkpt lat="44.34905" lon="4.83109">
        <ele>111.4</ele>
        <time>2018-04-24T11:04:58Z</time>
      </trkpt>
      <trkpt lat="44.34914" lon="4.83096">
        <ele>111.7</ele>
        <time>2018-04-24T11:05:01Z</time>
      </trkpt>
      <trkpt lat="44.34923" lon="4.83083">
        <ele>111.9</ele>
        <time>2018-04-24T11:05:04Z</time>
      </trkpt>
      <trkpt lat="44.34932" lon="4.83071">
        <ele>112.1</ele>
        <time>2018-04-24T11:05:07Z</time>
      </trkpt>
      <trkpt lat="44.34941" lon="4.83059">
        <ele>112.1</ele>
        <time>2018-04-24T11:05:10Z</time>
      </trkpt>
      <trkpt lat="44.3495" lon="4.83047">
        <ele>112.7</ele>
        <time>2018-04-24T11:05:13Z</time>
      </trkpt>
      <trkpt lat="44.34958" lon="4.83035">
        <ele>112.8</ele>
        <time>2018-04-24T11:05:16Z</time>
      </trkpt>
      <trkpt lat="44.34964" lon="4.83025">
        <ele>113</ele>
        <time>2018-04-24T11:05:19Z</time>
      </trkpt>
      <trkpt lat="44.3497" lon="4.83015">
        <ele>113.3</ele>
        <time>2018-04-24T11:05:22Z</time>
      </trkpt>
      <trkpt lat="44.34975" lon="4.83001">
        <ele>113.5</ele>
        <time>2018-04-24T11:05:25Z</time>
      </trkpt>
      <trkpt lat="44.34981" lon="4.82986">
        <ele>113.6</ele>
        <time>2018-04-24T11:05:28Z</time>
      </trkpt>
      <trkpt lat="44.3499" lon="4.82973">
        <ele>113.8</ele>
        <time>2018-04-24T11:05:31Z</time>
      </trkpt>
      <trkpt lat="44.35" lon="4.82961">
        <ele>114.1</ele>
        <time>2018-04-24T11:05:34Z</time>
      </trkpt>
      <trkpt lat="44.35007" lon="4.82953">
        <ele>114.3</ele>
        <time>2018-04-24T11:05:36Z</time>
      </trkpt>
      <trkpt lat="44.35015" lon="4.82939">
        <ele>114.5</ele>
        <time>2018-04-24T11:05:39Z</time>
      </trkpt>
      <trkpt lat="44.35021" lon="4.82922">
        <ele>114.9</ele>
        <time>2018-04-24T11:05:42Z</time>
      </trkpt>
      <trkpt lat="44.35025" lon="4.8291">
        <ele>115.3</ele>
        <time>2018-04-24T11:05:44Z</time>
      </trkpt>
      <trkpt lat="44.35031" lon="4.82895">
        <ele>115.6</ele>
        <time>2018-04-24T11:05:47Z</time>
      </trkpt>
      <trkpt lat="44.35042" lon="4.82889">
        <ele>116.6</ele>
        <time>2018-04-24T11:05:50Z</time>
      </trkpt>
      <trkpt lat="44.35055" lon="4.8289">
        <ele>117.5</ele>
        <time>2018-04-24T11:05:53Z</time>
      </trkpt>
      <trkpt lat="44.35067" lon="4.82892">
        <ele>118</ele>
        <time>2018-04-24T11:05:56Z</time>
      </trkpt>
      <trkpt lat="44.3508" lon="4.82894">
        <ele>118.7</ele>
        <time>2018-04-24T11:05:59Z</time>
      </trkpt>
      <trkpt lat="44.35091" lon="4.82895">
        <ele>119.6</ele>
        <time>2018-04-24T11:06:02Z</time>
      </trkpt>
      <trkpt lat="44.35102" lon="4.82899">
        <ele>120.4</ele>
        <time>2018-04-24T11:06:06Z</time>
      </trkpt>
      <trkpt lat="44.35111" lon="4.82904">
        <ele>121</ele>
        <time>2018-04-24T11:06:10Z</time>
      </trkpt>
      <trkpt lat="44.35121" lon="4.82912">
        <ele>121.4</ele>
        <time>2018-04-24T11:06:13Z</time>
      </trkpt>
      <trkpt lat="44.35131" lon="4.82919">
        <ele>121.7</ele>
        <time>2018-04-24T11:06:16Z</time>
      </trkpt>
      <trkpt lat="44.35139" lon="4.82931">
        <ele>121.6</ele>
        <time>2018-04-24T11:06:19Z</time>
      </trkpt>
      <trkpt lat="44.35146" lon="4.82944">
        <ele>121.5</ele>
        <time>2018-04-24T11:06:22Z</time>
      </trkpt>
      <trkpt lat="44.35152" lon="4.82959">
        <ele>121.8</ele>
        <time>2018-04-24T11:06:25Z</time>
      </trkpt>
      <trkpt lat="44.35159" lon="4.82972">
        <ele>122.2</ele>
        <time>2018-04-24T11:06:28Z</time>
      </trkpt>
      <trkpt lat="44.35165" lon="4.82983">
        <ele>122.4</ele>
        <time>2018-04-24T11:06:31Z</time>
      </trkpt>
      <trkpt lat="44.35174" lon="4.82993">
        <ele>122.5</ele>
        <time>2018-04-24T11:06:34Z</time>
      </trkpt>
      <trkpt lat="44.3518" lon="4.83004">
        <ele>122.8</ele>
        <time>2018-04-24T11:06:37Z</time>
      </trkpt>
      <trkpt lat="44.35186" lon="4.83015">
        <ele>123</ele>
        <time>2018-04-24T11:06:40Z</time>
      </trkpt>
      <trkpt lat="44.35192" lon="4.83024">
        <ele>123.2</ele>
        <time>2018-04-24T11:06:43Z</time>
      </trkpt>
      <trkpt lat="44.35198" lon="4.83036">
        <ele>123</ele>
        <time>2018-04-24T11:06:46Z</time>
      </trkpt>
      <trkpt lat="44.35204" lon="4.83049">
        <ele>123.2</ele>
        <time>2018-04-24T11:06:49Z</time>
      </trkpt>
      <trkpt lat="44.3521" lon="4.8306">
        <ele>123.6</ele>
        <time>2018-04-24T11:06:52Z</time>
      </trkpt>
      <trkpt lat="44.35214" lon="4.83072">
        <ele>123.4</ele>
        <time>2018-04-24T11:06:55Z</time>
      </trkpt>
      <trkpt lat="44.35223" lon="4.83085">
        <ele>123.9</ele>
        <time>2018-04-24T11:06:58Z</time>
      </trkpt>
      <trkpt lat="44.35231" lon="4.83098">
        <ele>124.1</ele>
        <time>2018-04-24T11:07:01Z</time>
      </trkpt>
      <trkpt lat="44.35237" lon="4.83112">
        <ele>124.5</ele>
        <time>2018-04-24T11:07:04Z</time>
      </trkpt>
      <trkpt lat="44.35243" lon="4.83128">
        <ele>125.1</ele>
        <time>2018-04-24T11:07:07Z</time>
      </trkpt>
      <trkpt lat="44.35252" lon="4.83142">
        <ele>125.6</ele>
        <time>2018-04-24T11:07:10Z</time>
      </trkpt>
      <trkpt lat="44.3526" lon="4.83151">
        <ele>125.8</ele>
        <time>2018-04-24T11:07:12Z</time>
      </trkpt>
      <trkpt lat="44.35266" lon="4.83162">
        <ele>126.1</ele>
        <time>2018-04-24T11:07:14Z</time>
      </trkpt>
      <trkpt lat="44.35272" lon="4.83175">
        <ele>126.3</ele>
        <time>2018-04-24T11:07:16Z</time>
      </trkpt>
      <trkpt lat="44.35279" lon="4.83187">
        <ele>126.2</ele>
        <time>2018-04-24T11:07:18Z</time>
      </trkpt>
      <trkpt lat="44.35283" lon="4.83199">
        <ele>126.1</ele>
        <time>2018-04-24T11:07:20Z</time>
      </trkpt>
      <trkpt lat="44.35289" lon="4.83211">
        <ele>126.1</ele>
        <time>2018-04-24T11:07:22Z</time>
      </trkpt>
      <trkpt lat="44.35295" lon="4.83222">
        <ele>126</ele>
        <time>2018-04-24T11:07:24Z</time>
      </trkpt>
      <trkpt lat="44.353" lon="4.83235">
        <ele>125.8</ele>
        <time>2018-04-24T11:07:26Z</time>
      </trkpt>
      <trkpt lat="44.35306" lon="4.83249">
        <ele>125.7</ele>
        <time>2018-04-24T11:07:28Z</time>
      </trkpt>
      <trkpt lat="44.35312" lon="4.83262">
        <ele>125.6</ele>
        <time>2018-04-24T11:07:30Z</time>
      </trkpt>
      <trkpt lat="44.35318" lon="4.83276">
        <ele>125.3</ele>
        <time>2018-04-24T11:07:32Z</time>
      </trkpt>
      <trkpt lat="44.35325" lon="4.83288">
        <ele>125.1</ele>
        <time>2018-04-24T11:07:34Z</time>
      </trkpt>
      <trkpt lat="44.3533" lon="4.83303">
        <ele>125</ele>
        <time>2018-04-24T11:07:36Z</time>
      </trkpt>
      <trkpt lat="44.35337" lon="4.83317">
        <ele>124.8</ele>
        <time>2018-04-24T11:07:38Z</time>
      </trkpt>
      <trkpt lat="44.35345" lon="4.8333">
        <ele>124.6</ele>
        <time>2018-04-24T11:07:40Z</time>
      </trkpt>
      <trkpt lat="44.35355" lon="4.83344">
        <ele>124.3</ele>
        <time>2018-04-24T11:07:42Z</time>
      </trkpt>
      <trkpt lat="44.35363" lon="4.83357">
        <ele>124.1</ele>
        <time>2018-04-24T11:07:44Z</time>
      </trkpt>
      <trkpt lat="44.35371" lon="4.83368">
        <ele>123.8</ele>
        <time>2018-04-24T11:07:46Z</time>
      </trkpt>
      <trkpt lat="44.35377" lon="4.8338">
        <ele>123.6</ele>
        <time>2018-04-24T11:07:48Z</time>
      </trkpt>
      <trkpt lat="44.35387" lon="4.83393">
        <ele>123.2</ele>
        <time>2018-04-24T11:07:51Z</time>
      </trkpt>
      <trkpt lat="44.35393" lon="4.83406">
        <ele>122.9</ele>
        <time>2018-04-24T11:07:53Z</time>
      </trkpt>
      <trkpt lat="44.35399" lon="4.83421">
        <ele>122.8</ele>
        <time>2018-04-24T11:07:55Z</time>
      </trkpt>
      <trkpt lat="44.35406" lon="4.83434">
        <ele>122.7</ele>
        <time>2018-04-24T11:07:57Z</time>
      </trkpt>
      <trkpt lat="44.35414" lon="4.83444">
        <ele>122.6</ele>
        <time>2018-04-24T11:07:59Z</time>
      </trkpt>
      <trkpt lat="44.3542" lon="4.83456">
        <ele>122.7</ele>
        <time>2018-04-24T11:08:01Z</time>
      </trkpt>
      <trkpt lat="44.35426" lon="4.83467">
        <ele>123</ele>
        <time>2018-04-24T11:08:03Z</time>
      </trkpt>
      <trkpt lat="44.35432" lon="4.8348">
        <ele>123.1</ele>
        <time>2018-04-24T11:08:05Z</time>
      </trkpt>
      <trkpt lat="44.35436" lon="4.83494">
        <ele>123.3</ele>
        <time>2018-04-24T11:08:07Z</time>
      </trkpt>
      <trkpt lat="44.35441" lon="4.83508">
        <ele>123.3</ele>
        <time>2018-04-24T11:08:09Z</time>
      </trkpt>
      <trkpt lat="44.35445" lon="4.83522">
        <ele>123.5</ele>
        <time>2018-04-24T11:08:11Z</time>
      </trkpt>
      <trkpt lat="44.3545" lon="4.83537">
        <ele>123.7</ele>
        <time>2018-04-24T11:08:13Z</time>
      </trkpt>
      <trkpt lat="44.35454" lon="4.83551">
        <ele>123.9</ele>
        <time>2018-04-24T11:08:15Z</time>
      </trkpt>
      <trkpt lat="44.35457" lon="4.83566">
        <ele>124</ele>
        <time>2018-04-24T11:08:17Z</time>
      </trkpt>
      <trkpt lat="44.3546" lon="4.83579">
        <ele>124.2</ele>
        <time>2018-04-24T11:08:19Z</time>
      </trkpt>
      <trkpt lat="44.35464" lon="4.83594">
        <ele>124.3</ele>
        <time>2018-04-24T11:08:21Z</time>
      </trkpt>
      <trkpt lat="44.35468" lon="4.83608">
        <ele>124.4</ele>
        <time>2018-04-24T11:08:23Z</time>
      </trkpt>
      <trkpt lat="44.35472" lon="4.83621">
        <ele>124.5</ele>
        <time>2018-04-24T11:08:25Z</time>
      </trkpt>
      <trkpt lat="44.35477" lon="4.83637">
        <ele>124.6</ele>
        <time>2018-04-24T11:08:28Z</time>
      </trkpt>
      <trkpt lat="44.35482" lon="4.83647">
        <ele>124.8</ele>
        <time>2018-04-24T11:08:30Z</time>
      </trkpt>
      <trkpt lat="44.35489" lon="4.83657">
        <ele>124.9</ele>
        <time>2018-04-24T11:08:32Z</time>
      </trkpt>
      <trkpt lat="44.35495" lon="4.83671">
        <ele>125.1</ele>
        <time>2018-04-24T11:08:35Z</time>
      </trkpt>
      <trkpt lat="44.35502" lon="4.83686">
        <ele>125.3</ele>
        <time>2018-04-24T11:08:39Z</time>
      </trkpt>
      <trkpt lat="44.35505" lon="4.83701">
        <ele>125.5</ele>
        <time>2018-04-24T11:08:43Z</time>
      </trkpt>
      <trkpt lat="44.3551" lon="4.83712">
        <ele>125.6</ele>
        <time>2018-04-24T11:08:46Z</time>
      </trkpt>
      <trkpt lat="44.35518" lon="4.83726">
        <ele>126.1</ele>
        <time>2018-04-24T11:08:49Z</time>
      </trkpt>
      <trkpt lat="44.35524" lon="4.83736">
        <ele>126.2</ele>
        <time>2018-04-24T11:08:51Z</time>
      </trkpt>
      <trkpt lat="44.3553" lon="4.83746">
        <ele>126.2</ele>
        <time>2018-04-24T11:08:53Z</time>
      </trkpt>
      <trkpt lat="44.35537" lon="4.83755">
        <ele>126.2</ele>
        <time>2018-04-24T11:08:55Z</time>
      </trkpt>
      <trkpt lat="44.35544" lon="4.83764">
        <ele>126.2</ele>
        <time>2018-04-24T11:08:57Z</time>
      </trkpt>
      <trkpt lat="44.35553" lon="4.83778">
        <ele>125.9</ele>
        <time>2018-04-24T11:09:00Z</time>
      </trkpt>
      <trkpt lat="44.3556" lon="4.83788">
        <ele>125.8</ele>
        <time>2018-04-24T11:09:02Z</time>
      </trkpt>
      <trkpt lat="44.35567" lon="4.83798">
        <ele>125.7</ele>
        <time>2018-04-24T11:09:04Z</time>
      </trkpt>
      <trkpt lat="44.35577" lon="4.838">
        <ele>125.6</ele>
        <time>2018-04-24T11:09:08Z</time>
      </trkpt>
      <trkpt lat="44.35586" lon="4.83808">
        <ele>125.5</ele>
        <time>2018-04-24T11:09:12Z</time>
      </trkpt>
      <trkpt lat="44.35596" lon="4.83819">
        <ele>125.5</ele>
        <time>2018-04-24T11:09:15Z</time>
      </trkpt>
      <trkpt lat="44.35606" lon="4.83832">
        <ele>125.6</ele>
        <time>2018-04-24T11:09:18Z</time>
      </trkpt>
      <trkpt lat="44.35614" lon="4.83846">
        <ele>125.5</ele>
        <time>2018-04-24T11:09:21Z</time>
      </trkpt>
      <trkpt lat="44.35619" lon="4.83858">
        <ele>125.9</ele>
        <time>2018-04-24T11:09:23Z</time>
      </trkpt>
      <trkpt lat="44.35627" lon="4.83868">
        <ele>126</ele>
        <time>2018-04-24T11:09:25Z</time>
      </trkpt>
      <trkpt lat="44.35634" lon="4.83877">
        <ele>126</ele>
        <time>2018-04-24T11:09:27Z</time>
      </trkpt>
      <trkpt lat="44.3564" lon="4.83887">
        <ele>126.2</ele>
        <time>2018-04-24T11:09:29Z</time>
      </trkpt>
      <trkpt lat="44.35649" lon="4.83901">
        <ele>126.4</ele>
        <time>2018-04-24T11:09:32Z</time>
      </trkpt>
      <trkpt lat="44.35657" lon="4.83913">
        <ele>126.4</ele>
        <time>2018-04-24T11:09:35Z</time>
      </trkpt>
      <trkpt lat="44.35666" lon="4.83925">
        <ele>127</ele>
        <time>2018-04-24T11:09:38Z</time>
      </trkpt>
      <trkpt lat="44.35674" lon="4.83936">
        <ele>127.2</ele>
        <time>2018-04-24T11:09:41Z</time>
      </trkpt>
      <trkpt lat="44.35681" lon="4.83947">
        <ele>127.4</ele>
        <time>2018-04-24T11:09:44Z</time>
      </trkpt>
      <trkpt lat="44.3569" lon="4.83958">
        <ele>127.6</ele>
        <time>2018-04-24T11:09:47Z</time>
      </trkpt>
      <trkpt lat="44.35699" lon="4.83964">
        <ele>127.7</ele>
        <time>2018-04-24T11:09:50Z</time>
      </trkpt>
      <trkpt lat="44.35708" lon="4.83969">
        <ele>127.9</ele>
        <time>2018-04-24T11:09:53Z</time>
      </trkpt>
      <trkpt lat="44.3572" lon="4.83972">
        <ele>128.1</ele>
        <time>2018-04-24T11:09:57Z</time>
      </trkpt>
      <trkpt lat="44.35729" lon="4.83975">
        <ele>128.5</ele>
        <time>2018-04-24T11:10:01Z</time>
      </trkpt>
      <trkpt lat="44.35738" lon="4.83971">
        <ele>131.8</ele>
        <time>2018-04-24T11:10:29Z</time>
      </trkpt>
      <trkpt lat="44.35749" lon="4.8397">
        <ele>131.9</ele>
        <time>2018-04-24T11:10:33Z</time>
      </trkpt>
      <trkpt lat="44.35758" lon="4.83969">
        <ele>132.1</ele>
        <time>2018-04-24T11:10:36Z</time>
      </trkpt>
      <trkpt lat="44.35767" lon="4.83968">
        <ele>132.3</ele>
        <time>2018-04-24T11:10:39Z</time>
      </trkpt>
      <trkpt lat="44.35778" lon="4.83966">
        <ele>132.8</ele>
        <time>2018-04-24T11:10:43Z</time>
      </trkpt>
      <trkpt lat="44.35786" lon="4.83973">
        <ele>133.8</ele>
        <time>2018-04-24T11:10:47Z</time>
      </trkpt>
      <trkpt lat="44.3579" lon="4.83985">
        <ele>134.4</ele>
        <time>2018-04-24T11:10:50Z</time>
      </trkpt>
      <trkpt lat="44.35789" lon="4.84001">
        <ele>134.9</ele>
        <time>2018-04-24T11:10:53Z</time>
      </trkpt>
      <trkpt lat="44.35786" lon="4.84019">
        <ele>135.1</ele>
        <time>2018-04-24T11:10:56Z</time>
      </trkpt>
      <trkpt lat="44.35783" lon="4.84031">
        <ele>135</ele>
        <time>2018-04-24T11:10:58Z</time>
      </trkpt>
      <trkpt lat="44.3578" lon="4.84043">
        <ele>134.9</ele>
        <time>2018-04-24T11:11:00Z</time>
      </trkpt>
      <trkpt lat="44.35784" lon="4.8406">
        <ele>134.2</ele>
        <time>2018-04-24T11:11:03Z</time>
      </trkpt>
      <trkpt lat="44.35791" lon="4.84067">
        <ele>133.8</ele>
        <time>2018-04-24T11:11:05Z</time>
      </trkpt>
      <trkpt lat="44.35799" lon="4.84074">
        <ele>133.6</ele>
        <time>2018-04-24T11:11:07Z</time>
      </trkpt>
      <trkpt lat="44.35807" lon="4.8408">
        <ele>133.5</ele>
        <time>2018-04-24T11:11:09Z</time>
      </trkpt>
      <trkpt lat="44.35817" lon="4.8409">
        <ele>133.5</ele>
        <time>2018-04-24T11:11:12Z</time>
      </trkpt>
      <trkpt lat="44.35829" lon="4.84098">
        <ele>133.3</ele>
        <time>2018-04-24T11:11:15Z</time>
      </trkpt>
      <trkpt lat="44.35842" lon="4.84104">
        <ele>133.4</ele>
        <time>2018-04-24T11:11:18Z</time>
      </trkpt>
      <trkpt lat="44.35853" lon="4.84107">
        <ele>133.5</ele>
        <time>2018-04-24T11:11:21Z</time>
      </trkpt>
      <trkpt lat="44.35864" lon="4.84112">
        <ele>133.8</ele>
        <time>2018-04-24T11:11:24Z</time>
      </trkpt>
      <trkpt lat="44.3587" lon="4.84127">
        <ele>134.2</ele>
        <time>2018-04-24T11:11:27Z</time>
      </trkpt>
      <trkpt lat="44.35874" lon="4.84144">
        <ele>134.5</ele>
        <time>2018-04-24T11:11:30Z</time>
      </trkpt>
      <trkpt lat="44.35877" lon="4.84158">
        <ele>134.9</ele>
        <time>2018-04-24T11:11:33Z</time>
      </trkpt>
      <trkpt lat="44.35881" lon="4.84172">
        <ele>135.6</ele>
        <time>2018-04-24T11:11:36Z</time>
      </trkpt>
      <trkpt lat="44.35888" lon="4.84188">
        <ele>136.1</ele>
        <time>2018-04-24T11:11:39Z</time>
      </trkpt>
      <trkpt lat="44.35895" lon="4.84203">
        <ele>136.6</ele>
        <time>2018-04-24T11:11:42Z</time>
      </trkpt>
      <trkpt lat="44.35899" lon="4.84214">
        <ele>136.8</ele>
        <time>2018-04-24T11:11:44Z</time>
      </trkpt>
      <trkpt lat="44.35903" lon="4.84226">
        <ele>136.9</ele>
        <time>2018-04-24T11:11:46Z</time>
      </trkpt>
      <trkpt lat="44.35909" lon="4.84236">
        <ele>137</ele>
        <time>2018-04-24T11:11:48Z</time>
      </trkpt>
      <trkpt lat="44.35913" lon="4.84248">
        <ele>137.1</ele>
        <time>2018-04-24T11:11:50Z</time>
      </trkpt>
      <trkpt lat="44.35919" lon="4.84264">
        <ele>137.2</ele>
        <time>2018-04-24T11:11:53Z</time>
      </trkpt>
      <trkpt lat="44.35926" lon="4.84275">
        <ele>137.3</ele>
        <time>2018-04-24T11:11:55Z</time>
      </trkpt>
      <trkpt lat="44.35933" lon="4.84286">
        <ele>137.2</ele>
        <time>2018-04-24T11:11:57Z</time>
      </trkpt>
      <trkpt lat="44.35939" lon="4.84297">
        <ele>137.2</ele>
        <time>2018-04-24T11:11:59Z</time>
      </trkpt>
      <trkpt lat="44.35946" lon="4.84308">
        <ele>137.3</ele>
        <time>2018-04-24T11:12:01Z</time>
      </trkpt>
      <trkpt lat="44.35953" lon="4.84318">
        <ele>137.3</ele>
        <time>2018-04-24T11:12:03Z</time>
      </trkpt>
      <trkpt lat="44.35959" lon="4.84328">
        <ele>137.5</ele>
        <time>2018-04-24T11:12:05Z</time>
      </trkpt>
      <trkpt lat="44.35966" lon="4.84338">
        <ele>137.6</ele>
        <time>2018-04-24T11:12:07Z</time>
      </trkpt>
      <trkpt lat="44.35975" lon="4.84352">
        <ele>137.6</ele>
        <time>2018-04-24T11:12:10Z</time>
      </trkpt>
      <trkpt lat="44.35984" lon="4.84366">
        <ele>137.8</ele>
        <time>2018-04-24T11:12:13Z</time>
      </trkpt>
      <trkpt lat="44.35993" lon="4.84379">
        <ele>138.1</ele>
        <time>2018-04-24T11:12:16Z</time>
      </trkpt>
      <trkpt lat="44.35999" lon="4.84389">
        <ele>138.3</ele>
        <time>2018-04-24T11:12:18Z</time>
      </trkpt>
      <trkpt lat="44.36009" lon="4.84401">
        <ele>138.3</ele>
        <time>2018-04-24T11:12:21Z</time>
      </trkpt>
      <trkpt lat="44.36018" lon="4.84409">
        <ele>138.5</ele>
        <time>2018-04-24T11:12:23Z</time>
      </trkpt>
      <trkpt lat="44.36026" lon="4.84416">
        <ele>138.8</ele>
        <time>2018-04-24T11:12:25Z</time>
      </trkpt>
      <trkpt lat="44.36034" lon="4.84425">
        <ele>139.1</ele>
        <time>2018-04-24T11:12:27Z</time>
      </trkpt>
      <trkpt lat="44.36041" lon="4.84435">
        <ele>139.2</ele>
        <time>2018-04-24T11:12:29Z</time>
      </trkpt>
      <trkpt lat="44.36052" lon="4.84446">
        <ele>139.4</ele>
        <time>2018-04-24T11:12:32Z</time>
      </trkpt>
      <trkpt lat="44.36059" lon="4.84454">
        <ele>139.6</ele>
        <time>2018-04-24T11:12:34Z</time>
      </trkpt>
      <trkpt lat="44.36066" lon="4.84462">
        <ele>139.8</ele>
        <time>2018-04-24T11:12:36Z</time>
      </trkpt>
      <trkpt lat="44.36075" lon="4.84474">
        <ele>140.1</ele>
        <time>2018-04-24T11:12:39Z</time>
      </trkpt>
      <trkpt lat="44.36083" lon="4.84487">
        <ele>140.5</ele>
        <time>2018-04-24T11:12:42Z</time>
      </trkpt>
      <trkpt lat="44.36093" lon="4.845">
        <ele>141</ele>
        <time>2018-04-24T11:12:45Z</time>
      </trkpt>
      <trkpt lat="44.36101" lon="4.84512">
        <ele>141.6</ele>
        <time>2018-04-24T11:12:48Z</time>
      </trkpt>
      <trkpt lat="44.3611" lon="4.84523">
        <ele>142</ele>
        <time>2018-04-24T11:12:51Z</time>
      </trkpt>
      <trkpt lat="44.36121" lon="4.84536">
        <ele>142.1</ele>
        <time>2018-04-24T11:12:54Z</time>
      </trkpt>
      <trkpt lat="44.36127" lon="4.84546">
        <ele>142.3</ele>
        <time>2018-04-24T11:12:56Z</time>
      </trkpt>
      <trkpt lat="44.36133" lon="4.84556">
        <ele>142.4</ele>
        <time>2018-04-24T11:12:58Z</time>
      </trkpt>
      <trkpt lat="44.36139" lon="4.84567">
        <ele>142.3</ele>
        <time>2018-04-24T11:13:00Z</time>
      </trkpt>
      <trkpt lat="44.36146" lon="4.84576">
        <ele>142.3</ele>
        <time>2018-04-24T11:13:02Z</time>
      </trkpt>
      <trkpt lat="44.36154" lon="4.84587">
        <ele>142.2</ele>
        <time>2018-04-24T11:13:04Z</time>
      </trkpt>
      <trkpt lat="44.3616" lon="4.84597">
        <ele>142</ele>
        <time>2018-04-24T11:13:06Z</time>
      </trkpt>
      <trkpt lat="44.36168" lon="4.84605">
        <ele>142.1</ele>
        <time>2018-04-24T11:13:08Z</time>
      </trkpt>
      <trkpt lat="44.36174" lon="4.84616">
        <ele>142.1</ele>
        <time>2018-04-24T11:13:10Z</time>
      </trkpt>
      <trkpt lat="44.3618" lon="4.84626">
        <ele>142.2</ele>
        <time>2018-04-24T11:13:12Z</time>
      </trkpt>
      <trkpt lat="44.36188" lon="4.84642">
        <ele>142.3</ele>
        <time>2018-04-24T11:13:15Z</time>
      </trkpt>
      <trkpt lat="44.36196" lon="4.84656">
        <ele>142.3</ele>
        <time>2018-04-24T11:13:18Z</time>
      </trkpt>
      <trkpt lat="44.36205" lon="4.84669">
        <ele>142.6</ele>
        <time>2018-04-24T11:13:21Z</time>
      </trkpt>
      <trkpt lat="44.36213" lon="4.84682">
        <ele>142.7</ele>
        <time>2018-04-24T11:13:24Z</time>
      </trkpt>
      <trkpt lat="44.3622" lon="4.84693">
        <ele>143.1</ele>
        <time>2018-04-24T11:13:26Z</time>
      </trkpt>
      <trkpt lat="44.36228" lon="4.84702">
        <ele>143.4</ele>
        <time>2018-04-24T11:13:28Z</time>
      </trkpt>
      <trkpt lat="44.36235" lon="4.84712">
        <ele>143.7</ele>
        <time>2018-04-24T11:13:30Z</time>
      </trkpt>
      <trkpt lat="44.36246" lon="4.84725">
        <ele>144.4</ele>
        <time>2018-04-24T11:13:33Z</time>
      </trkpt>
      <trkpt lat="44.36257" lon="4.84736">
        <ele>144.9</ele>
        <time>2018-04-24T11:13:36Z</time>
      </trkpt>
      <trkpt lat="44.36267" lon="4.84746">
        <ele>145.3</ele>
        <time>2018-04-24T11:13:39Z</time>
      </trkpt>
      <trkpt lat="44.36274" lon="4.84753">
        <ele>145.9</ele>
        <time>2018-04-24T11:13:52Z</time>
      </trkpt>
      <trkpt lat="44.36279" lon="4.8474">
        <ele>144.7</ele>
        <time>2018-04-24T11:17:08Z</time>
      </trkpt>
      <trkpt lat="44.36279" lon="4.84727">
        <ele>144.7</ele>
        <time>2018-04-24T11:17:11Z</time>
      </trkpt>
      <trkpt lat="44.36279" lon="4.84714">
        <ele>144.9</ele>
        <time>2018-04-24T11:17:14Z</time>
      </trkpt>
      <trkpt lat="44.36279" lon="4.847">
        <ele>144.7</ele>
        <time>2018-04-24T11:17:17Z</time>
      </trkpt>
      <trkpt lat="44.36281" lon="4.84686">
        <ele>144.7</ele>
        <time>2018-04-24T11:17:20Z</time>
      </trkpt>
      <trkpt lat="44.3628" lon="4.84671">
        <ele>145</ele>
        <time>2018-04-24T11:17:23Z</time>
      </trkpt>
      <trkpt lat="44.36278" lon="4.84658">
        <ele>145.5</ele>
        <time>2018-04-24T11:17:26Z</time>
      </trkpt>
      <trkpt lat="44.36277" lon="4.84643">
        <ele>146.1</ele>
        <time>2018-04-24T11:17:30Z</time>
      </trkpt>
      <trkpt lat="44.36275" lon="4.84629">
        <ele>146.4</ele>
        <time>2018-04-24T11:17:33Z</time>
      </trkpt>
      <trkpt lat="44.36274" lon="4.84615">
        <ele>147.2</ele>
        <time>2018-04-24T11:17:36Z</time>
      </trkpt>
      <trkpt lat="44.36271" lon="4.84602">
        <ele>147.9</ele>
        <time>2018-04-24T11:17:39Z</time>
      </trkpt>
      <trkpt lat="44.36268" lon="4.84589">
        <ele>148.6</ele>
        <time>2018-04-24T11:17:42Z</time>
      </trkpt>
      <trkpt lat="44.36266" lon="4.84576">
        <ele>149.2</ele>
        <time>2018-04-24T11:17:45Z</time>
      </trkpt>
      <trkpt lat="44.36265" lon="4.84563">
        <ele>149.7</ele>
        <time>2018-04-24T11:17:48Z</time>
      </trkpt>
      <trkpt lat="44.36263" lon="4.8455">
        <ele>150.2</ele>
        <time>2018-04-24T11:17:51Z</time>
      </trkpt>
      <trkpt lat="44.36262" lon="4.84536">
        <ele>150.9</ele>
        <time>2018-04-24T11:17:54Z</time>
      </trkpt>
      <trkpt lat="44.36261" lon="4.84523">
        <ele>151.3</ele>
        <time>2018-04-24T11:17:57Z</time>
      </trkpt>
      <trkpt lat="44.36259" lon="4.8451">
        <ele>151.5</ele>
        <time>2018-04-24T11:18:00Z</time>
      </trkpt>
      <trkpt lat="44.36257" lon="4.84498">
        <ele>152.1</ele>
        <time>2018-04-24T11:18:03Z</time>
      </trkpt>
      <trkpt lat="44.36255" lon="4.84484">
        <ele>152.7</ele>
        <time>2018-04-24T11:18:06Z</time>
      </trkpt>
      <trkpt lat="44.36254" lon="4.8447">
        <ele>153.4</ele>
        <time>2018-04-24T11:18:09Z</time>
      </trkpt>
      <trkpt lat="44.36253" lon="4.84455">
        <ele>154.2</ele>
        <time>2018-04-24T11:18:12Z</time>
      </trkpt>
      <trkpt lat="44.36253" lon="4.8444">
        <ele>154.9</ele>
        <time>2018-04-24T11:18:15Z</time>
      </trkpt>
      <trkpt lat="44.36252" lon="4.84424">
        <ele>155.6</ele>
        <time>2018-04-24T11:18:18Z</time>
      </trkpt>
      <trkpt lat="44.36251" lon="4.84408">
        <ele>156.3</ele>
        <time>2018-04-24T11:18:21Z</time>
      </trkpt>
      <trkpt lat="44.3625" lon="4.84392">
        <ele>156.6</ele>
        <time>2018-04-24T11:18:24Z</time>
      </trkpt>
      <trkpt lat="44.36248" lon="4.84377">
        <ele>157</ele>
        <time>2018-04-24T11:18:27Z</time>
      </trkpt>
      <trkpt lat="44.36247" lon="4.84362">
        <ele>157.3</ele>
        <time>2018-04-24T11:18:30Z</time>
      </trkpt>
      <trkpt lat="44.36247" lon="4.84348">
        <ele>157.5</ele>
        <time>2018-04-24T11:18:33Z</time>
      </trkpt>
      <trkpt lat="44.36246" lon="4.84334">
        <ele>157.8</ele>
        <time>2018-04-24T11:18:36Z</time>
      </trkpt>
      <trkpt lat="44.36246" lon="4.8432">
        <ele>158.2</ele>
        <time>2018-04-24T11:18:39Z</time>
      </trkpt>
      <trkpt lat="44.36247" lon="4.84306">
        <ele>158.8</ele>
        <time>2018-04-24T11:18:42Z</time>
      </trkpt>
      <trkpt lat="44.36249" lon="4.84293">
        <ele>159.3</ele>
        <time>2018-04-24T11:18:45Z</time>
      </trkpt>
      <trkpt lat="44.36251" lon="4.84279">
        <ele>159.7</ele>
        <time>2018-04-24T11:18:48Z</time>
      </trkpt>
      <trkpt lat="44.36253" lon="4.84266">
        <ele>160</ele>
        <time>2018-04-24T11:18:51Z</time>
      </trkpt>
      <trkpt lat="44.36256" lon="4.84252">
        <ele>160.3</ele>
        <time>2018-04-24T11:18:54Z</time>
      </trkpt>
      <trkpt lat="44.36258" lon="4.84238">
        <ele>160.6</ele>
        <time>2018-04-24T11:18:57Z</time>
      </trkpt>
      <trkpt lat="44.36261" lon="4.84226">
        <ele>161.3</ele>
        <time>2018-04-24T11:19:00Z</time>
      </trkpt>
      <trkpt lat="44.36264" lon="4.84213">
        <ele>161.8</ele>
        <time>2018-04-24T11:19:03Z</time>
      </trkpt>
      <trkpt lat="44.36266" lon="4.84201">
        <ele>162.4</ele>
        <time>2018-04-24T11:19:06Z</time>
      </trkpt>
      <trkpt lat="44.36271" lon="4.84189">
        <ele>162.9</ele>
        <time>2018-04-24T11:19:09Z</time>
      </trkpt>
      <trkpt lat="44.36278" lon="4.84179">
        <ele>163.2</ele>
        <time>2018-04-24T11:19:12Z</time>
      </trkpt>
      <trkpt lat="44.36287" lon="4.84171">
        <ele>163.6</ele>
        <time>2018-04-24T11:19:15Z</time>
      </trkpt>
      <trkpt lat="44.36294" lon="4.84163">
        <ele>164</ele>
        <time>2018-04-24T11:19:18Z</time>
      </trkpt>
      <trkpt lat="44.36301" lon="4.84154">
        <ele>164.6</ele>
        <time>2018-04-24T11:19:21Z</time>
      </trkpt>
      <trkpt lat="44.3631" lon="4.84143">
        <ele>165.2</ele>
        <time>2018-04-24T11:19:24Z</time>
      </trkpt>
      <trkpt lat="44.36317" lon="4.84134">
        <ele>165.4</ele>
        <time>2018-04-24T11:19:26Z</time>
      </trkpt>
      <trkpt lat="44.36325" lon="4.84125">
        <ele>165.7</ele>
        <time>2018-04-24T11:19:28Z</time>
      </trkpt>
      <trkpt lat="44.36334" lon="4.84115">
        <ele>165.9</ele>
        <time>2018-04-24T11:19:30Z</time>
      </trkpt>
      <trkpt lat="44.36343" lon="4.84106">
        <ele>165.9</ele>
        <time>2018-04-24T11:19:32Z</time>
      </trkpt>
      <trkpt lat="44.36351" lon="4.84096">
        <ele>166</ele>
        <time>2018-04-24T11:19:34Z</time>
      </trkpt>
      <trkpt lat="44.36359" lon="4.84087">
        <ele>166</ele>
        <time>2018-04-24T11:19:36Z</time>
      </trkpt>
      <trkpt lat="44.36367" lon="4.84078">
        <ele>166.1</ele>
        <time>2018-04-24T11:19:38Z</time>
      </trkpt>
      <trkpt lat="44.36375" lon="4.8407">
        <ele>166.2</ele>
        <time>2018-04-24T11:19:40Z</time>
      </trkpt>
      <trkpt lat="44.36383" lon="4.84062">
        <ele>166.2</ele>
        <time>2018-04-24T11:19:42Z</time>
      </trkpt>
      <trkpt lat="44.36392" lon="4.84052">
        <ele>166.7</ele>
        <time>2018-04-24T11:19:45Z</time>
      </trkpt>
      <trkpt lat="44.364" lon="4.84045">
        <ele>167</ele>
        <time>2018-04-24T11:19:47Z</time>
      </trkpt>
      <trkpt lat="44.3641" lon="4.84034">
        <ele>167.5</ele>
        <time>2018-04-24T11:19:50Z</time>
      </trkpt>
      <trkpt lat="44.3642" lon="4.84023">
        <ele>168.1</ele>
        <time>2018-04-24T11:19:53Z</time>
      </trkpt>
      <trkpt lat="44.36427" lon="4.84014">
        <ele>168.1</ele>
        <time>2018-04-24T11:19:55Z</time>
      </trkpt>
      <trkpt lat="44.36437" lon="4.84001">
        <ele>168.3</ele>
        <time>2018-04-24T11:19:58Z</time>
      </trkpt>
      <trkpt lat="44.36446" lon="4.83992">
        <ele>168.1</ele>
        <time>2018-04-24T11:20:00Z</time>
      </trkpt>
      <trkpt lat="44.36454" lon="4.83982">
        <ele>167.8</ele>
        <time>2018-04-24T11:20:02Z</time>
      </trkpt>
      <trkpt lat="44.36465" lon="4.83975">
        <ele>167.7</ele>
        <time>2018-04-24T11:20:04Z</time>
      </trkpt>
      <trkpt lat="44.36472" lon="4.83967">
        <ele>167.6</ele>
        <time>2018-04-24T11:20:06Z</time>
      </trkpt>
      <trkpt lat="44.36478" lon="4.83956">
        <ele>167.5</ele>
        <time>2018-04-24T11:20:08Z</time>
      </trkpt>
      <trkpt lat="44.36481" lon="4.83943">
        <ele>167.5</ele>
        <time>2018-04-24T11:20:10Z</time>
      </trkpt>
      <trkpt lat="44.3648" lon="4.83927">
        <ele>167.7</ele>
        <time>2018-04-24T11:20:13Z</time>
      </trkpt>
      <trkpt lat="44.36478" lon="4.83912">
        <ele>168.3</ele>
        <time>2018-04-24T11:20:17Z</time>
      </trkpt>
      <trkpt lat="44.36478" lon="4.83897">
        <ele>169.1</ele>
        <time>2018-04-24T11:20:21Z</time>
      </trkpt>
      <trkpt lat="44.3648" lon="4.83882">
        <ele>170.1</ele>
        <time>2018-04-24T11:20:25Z</time>
      </trkpt>
      <trkpt lat="44.36484" lon="4.83867">
        <ele>170.9</ele>
        <time>2018-04-24T11:20:29Z</time>
      </trkpt>
      <trkpt lat="44.36491" lon="4.83856">
        <ele>171.5</ele>
        <time>2018-04-24T11:20:33Z</time>
      </trkpt>
      <trkpt lat="44.36501" lon="4.83851">
        <ele>172.2</ele>
        <time>2018-04-24T11:20:37Z</time>
      </trkpt>
      <trkpt lat="44.36511" lon="4.8385">
        <ele>173.5</ele>
        <time>2018-04-24T11:20:41Z</time>
      </trkpt>
      <trkpt lat="44.36521" lon="4.8385">
        <ele>175</ele>
        <time>2018-04-24T11:20:46Z</time>
      </trkpt>
      <trkpt lat="44.36532" lon="4.83846">
        <ele>176.2</ele>
        <time>2018-04-24T11:20:51Z</time>
      </trkpt>
      <trkpt lat="44.36542" lon="4.83843">
        <ele>177.1</ele>
        <time>2018-04-24T11:20:55Z</time>
      </trkpt>
      <trkpt lat="44.36551" lon="4.83842">
        <ele>178.1</ele>
        <time>2018-04-24T11:20:59Z</time>
      </trkpt>
      <trkpt lat="44.36561" lon="4.83835">
        <ele>179.4</ele>
        <time>2018-04-24T11:21:04Z</time>
      </trkpt>
      <trkpt lat="44.36571" lon="4.83828">
        <ele>180.5</ele>
        <time>2018-04-24T11:21:09Z</time>
      </trkpt>
      <trkpt lat="44.3658" lon="4.83823">
        <ele>180.9</ele>
        <time>2018-04-24T11:21:14Z</time>
      </trkpt>
      <trkpt lat="44.36589" lon="4.83819">
        <ele>182</ele>
        <time>2018-04-24T11:21:19Z</time>
      </trkpt>
      <trkpt lat="44.366" lon="4.83815">
        <ele>183.1</ele>
        <time>2018-04-24T11:21:25Z</time>
      </trkpt>
      <trkpt lat="44.36609" lon="4.83811">
        <ele>183.9</ele>
        <time>2018-04-24T11:21:29Z</time>
      </trkpt>
      <trkpt lat="44.36619" lon="4.83806">
        <ele>184.9</ele>
        <time>2018-04-24T11:21:34Z</time>
      </trkpt>
      <trkpt lat="44.36629" lon="4.83799">
        <ele>186</ele>
        <time>2018-04-24T11:21:40Z</time>
      </trkpt>
      <trkpt lat="44.36637" lon="4.83791">
        <ele>187.4</ele>
        <time>2018-04-24T11:21:46Z</time>
      </trkpt>
      <trkpt lat="44.36646" lon="4.83784">
        <ele>188.2</ele>
        <time>2018-04-24T11:21:51Z</time>
      </trkpt>
      <trkpt lat="44.36656" lon="4.83779">
        <ele>188.6</ele>
        <time>2018-04-24T11:21:56Z</time>
      </trkpt>
      <trkpt lat="44.36665" lon="4.83774">
        <ele>189.6</ele>
        <time>2018-04-24T11:22:01Z</time>
      </trkpt>
      <trkpt lat="44.36675" lon="4.83769">
        <ele>190.8</ele>
        <time>2018-04-24T11:22:06Z</time>
      </trkpt>
      <trkpt lat="44.36684" lon="4.83763">
        <ele>192.3</ele>
        <time>2018-04-24T11:22:11Z</time>
      </trkpt>
      <trkpt lat="44.36693" lon="4.83756">
        <ele>193.4</ele>
        <time>2018-04-24T11:22:16Z</time>
      </trkpt>
      <trkpt lat="44.36702" lon="4.83752">
        <ele>194.7</ele>
        <time>2018-04-24T11:22:21Z</time>
      </trkpt>
      <trkpt lat="44.36711" lon="4.83749">
        <ele>195.8</ele>
        <time>2018-04-24T11:22:26Z</time>
      </trkpt>
      <trkpt lat="44.3672" lon="4.83746">
        <ele>197.2</ele>
        <time>2018-04-24T11:22:31Z</time>
      </trkpt>
      <trkpt lat="44.36731" lon="4.83743">
        <ele>199.1</ele>
        <time>2018-04-24T11:22:37Z</time>
      </trkpt>
      <trkpt lat="44.3674" lon="4.8374">
        <ele>200.4</ele>
        <time>2018-04-24T11:22:42Z</time>
      </trkpt>
      <trkpt lat="44.3675" lon="4.83736">
        <ele>201.5</ele>
        <time>2018-04-24T11:22:47Z</time>
      </trkpt>
      <trkpt lat="44.3676" lon="4.83731">
        <ele>202.3</ele>
        <time>2018-04-24T11:22:52Z</time>
      </trkpt>
      <trkpt lat="44.3677" lon="4.83725">
        <ele>203.1</ele>
        <time>2018-04-24T11:22:56Z</time>
      </trkpt>
      <trkpt lat="44.36779" lon="4.83721">
        <ele>203.8</ele>
        <time>2018-04-24T11:23:01Z</time>
      </trkpt>
      <trkpt lat="44.36789" lon="4.83716">
        <ele>204.6</ele>
        <time>2018-04-24T11:23:06Z</time>
      </trkpt>
      <trkpt lat="44.36799" lon="4.83711">
        <ele>205.5</ele>
        <time>2018-04-24T11:23:11Z</time>
      </trkpt>
      <trkpt lat="44.36809" lon="4.83706">
        <ele>206.1</ele>
        <time>2018-04-24T11:23:17Z</time>
      </trkpt>
      <trkpt lat="44.36817" lon="4.837">
        <ele>206.7</ele>
        <time>2018-04-24T11:23:22Z</time>
      </trkpt>
      <trkpt lat="44.36828" lon="4.83694">
        <ele>207.6</ele>
        <time>2018-04-24T11:23:27Z</time>
      </trkpt>
      <trkpt lat="44.36836" lon="4.83687">
        <ele>208.5</ele>
        <time>2018-04-24T11:23:32Z</time>
      </trkpt>
      <trkpt lat="44.36843" lon="4.83678">
        <ele>209.4</ele>
        <time>2018-04-24T11:23:37Z</time>
      </trkpt>
      <trkpt lat="44.3685" lon="4.83669">
        <ele>210</ele>
        <time>2018-04-24T11:23:41Z</time>
      </trkpt>
      <trkpt lat="44.36856" lon="4.83658">
        <ele>211.3</ele>
        <time>2018-04-24T11:23:46Z</time>
      </trkpt>
      <trkpt lat="44.36864" lon="4.83648">
        <ele>212.6</ele>
        <time>2018-04-24T11:23:51Z</time>
      </trkpt>
      <trkpt lat="44.36871" lon="4.8364">
        <ele>213.8</ele>
        <time>2018-04-24T11:23:55Z</time>
      </trkpt>
      <trkpt lat="44.36877" lon="4.8363">
        <ele>214.9</ele>
        <time>2018-04-24T11:23:59Z</time>
      </trkpt>
      <trkpt lat="44.36884" lon="4.83619">
        <ele>216.2</ele>
        <time>2018-04-24T11:24:04Z</time>
      </trkpt>
      <trkpt lat="44.36891" lon="4.8361">
        <ele>217.3</ele>
        <time>2018-04-24T11:24:09Z</time>
      </trkpt>
      <trkpt lat="44.36899" lon="4.83599">
        <ele>218.6</ele>
        <time>2018-04-24T11:24:14Z</time>
      </trkpt>
      <trkpt lat="44.36907" lon="4.83589">
        <ele>220</ele>
        <time>2018-04-24T11:24:19Z</time>
      </trkpt>
      <trkpt lat="44.36914" lon="4.83581">
        <ele>221.5</ele>
        <time>2018-04-24T11:24:24Z</time>
      </trkpt>
      <trkpt lat="44.3692" lon="4.83572">
        <ele>222.2</ele>
        <time>2018-04-24T11:24:29Z</time>
      </trkpt>
      <trkpt lat="44.36929" lon="4.83566">
        <ele>223</ele>
        <time>2018-04-24T11:24:35Z</time>
      </trkpt>
      <trkpt lat="44.36936" lon="4.83558">
        <ele>224</ele>
        <time>2018-04-24T11:24:40Z</time>
      </trkpt>
      <trkpt lat="44.36942" lon="4.83546">
        <ele>224.6</ele>
        <time>2018-04-24T11:24:45Z</time>
      </trkpt>
      <trkpt lat="44.36947" lon="4.83534">
        <ele>226</ele>
        <time>2018-04-24T11:24:50Z</time>
      </trkpt>
      <trkpt lat="44.36955" lon="4.83525">
        <ele>227.2</ele>
        <time>2018-04-24T11:24:55Z</time>
      </trkpt>
      <trkpt lat="44.36964" lon="4.83517">
        <ele>228.1</ele>
        <time>2018-04-24T11:25:00Z</time>
      </trkpt>
      <trkpt lat="44.36973" lon="4.83513">
        <ele>228.8</ele>
        <time>2018-04-24T11:25:05Z</time>
      </trkpt>
      <trkpt lat="44.36983" lon="4.83512">
        <ele>229.5</ele>
        <time>2018-04-24T11:25:10Z</time>
      </trkpt>
      <trkpt lat="44.36991" lon="4.83505">
        <ele>230.1</ele>
        <time>2018-04-24T11:25:15Z</time>
      </trkpt>
      <trkpt lat="44.36999" lon="4.83498">
        <ele>230.4</ele>
        <time>2018-04-24T11:25:18Z</time>
      </trkpt>
      <trkpt lat="44.37006" lon="4.83487">
        <ele>230.7</ele>
        <time>2018-04-24T11:25:21Z</time>
      </trkpt>
      <trkpt lat="44.37008" lon="4.83468">
        <ele>230.4</ele>
        <time>2018-04-24T11:25:24Z</time>
      </trkpt>
      <trkpt lat="44.37008" lon="4.83454">
        <ele>230.2</ele>
        <time>2018-04-24T11:25:26Z</time>
      </trkpt>
      <trkpt lat="44.3701" lon="4.83439">
        <ele>229.8</ele>
        <time>2018-04-24T11:25:29Z</time>
      </trkpt>
      <trkpt lat="44.37014" lon="4.83428">
        <ele>229.8</ele>
        <time>2018-04-24T11:25:31Z</time>
      </trkpt>
      <trkpt lat="44.3702" lon="4.83413">
        <ele>229.6</ele>
        <time>2018-04-24T11:25:33Z</time>
      </trkpt>
      <trkpt lat="44.37024" lon="4.834">
        <ele>229.6</ele>
        <time>2018-04-24T11:25:35Z</time>
      </trkpt>
      <trkpt lat="44.37029" lon="4.83381">
        <ele>229.5</ele>
        <time>2018-04-24T11:25:37Z</time>
      </trkpt>
      <trkpt lat="44.37031" lon="4.83364">
        <ele>229.4</ele>
        <time>2018-04-24T11:25:39Z</time>
      </trkpt>
      <trkpt lat="44.37034" lon="4.83348">
        <ele>229</ele>
        <time>2018-04-24T11:25:41Z</time>
      </trkpt>
      <trkpt lat="44.37035" lon="4.83336">
        <ele>228.9</ele>
        <time>2018-04-24T11:25:43Z</time>
      </trkpt>
      <trkpt lat="44.37034" lon="4.83318">
        <ele>228.8</ele>
        <time>2018-04-24T11:25:46Z</time>
      </trkpt>
      <trkpt lat="44.3703" lon="4.83304">
        <ele>228.7</ele>
        <time>2018-04-24T11:25:49Z</time>
      </trkpt>
      <trkpt lat="44.37027" lon="4.8329">
        <ele>228.9</ele>
        <time>2018-04-24T11:25:52Z</time>
      </trkpt>
      <trkpt lat="44.37025" lon="4.83275">
        <ele>229.9</ele>
        <time>2018-04-24T11:25:56Z</time>
      </trkpt>
      <trkpt lat="44.37025" lon="4.83261">
        <ele>230.3</ele>
        <time>2018-04-24T11:26:00Z</time>
      </trkpt>
      <trkpt lat="44.37024" lon="4.83246">
        <ele>231.6</ele>
        <time>2018-04-24T11:26:04Z</time>
      </trkpt>
      <trkpt lat="44.37024" lon="4.83233">
        <ele>232.5</ele>
        <time>2018-04-24T11:26:08Z</time>
      </trkpt>
      <trkpt lat="44.37024" lon="4.83218">
        <ele>233.6</ele>
        <time>2018-04-24T11:26:12Z</time>
      </trkpt>
      <trkpt lat="44.37021" lon="4.83205">
        <ele>234.6</ele>
        <time>2018-04-24T11:26:16Z</time>
      </trkpt>
      <trkpt lat="44.37017" lon="4.83192">
        <ele>235.4</ele>
        <time>2018-04-24T11:26:20Z</time>
      </trkpt>
      <trkpt lat="44.37016" lon="4.8318">
        <ele>236.1</ele>
        <time>2018-04-24T11:26:24Z</time>
      </trkpt>
      <trkpt lat="44.37015" lon="4.83167">
        <ele>236.5</ele>
        <time>2018-04-24T11:26:28Z</time>
      </trkpt>
      <trkpt lat="44.37006" lon="4.83155">
        <ele>236.7</ele>
        <time>2018-04-24T11:26:32Z</time>
      </trkpt>
      <trkpt lat="44.36998" lon="4.83147">
        <ele>236.8</ele>
        <time>2018-04-24T11:26:35Z</time>
      </trkpt>
      <trkpt lat="44.36989" lon="4.83141">
        <ele>236.8</ele>
        <time>2018-04-24T11:26:38Z</time>
      </trkpt>
      <trkpt lat="44.36979" lon="4.83137">
        <ele>236.7</ele>
        <time>2018-04-24T11:26:41Z</time>
      </trkpt>
      <trkpt lat="44.36967" lon="4.83134">
        <ele>236.8</ele>
        <time>2018-04-24T11:26:44Z</time>
      </trkpt>
      <trkpt lat="44.36956" lon="4.83131">
        <ele>236.6</ele>
        <time>2018-04-24T11:26:47Z</time>
      </trkpt>
      <trkpt lat="44.36945" lon="4.83125">
        <ele>236.5</ele>
        <time>2018-04-24T11:26:50Z</time>
      </trkpt>
      <trkpt lat="44.36938" lon="4.83111">
        <ele>236.5</ele>
        <time>2018-04-24T11:26:53Z</time>
      </trkpt>
      <trkpt lat="44.36937" lon="4.83098">
        <ele>236.5</ele>
        <time>2018-04-24T11:26:55Z</time>
      </trkpt>
      <trkpt lat="44.36938" lon="4.83085">
        <ele>236.4</ele>
        <time>2018-04-24T11:26:57Z</time>
      </trkpt>
      <trkpt lat="44.36938" lon="4.83072">
        <ele>236.3</ele>
        <time>2018-04-24T11:26:59Z</time>
      </trkpt>
      <trkpt lat="44.36939" lon="4.83059">
        <ele>236.2</ele>
        <time>2018-04-24T11:27:01Z</time>
      </trkpt>
      <trkpt lat="44.3694" lon="4.83046">
        <ele>235.9</ele>
        <time>2018-04-24T11:27:03Z</time>
      </trkpt>
      <trkpt lat="44.3694" lon="4.83028">
        <ele>235.6</ele>
        <time>2018-04-24T11:27:06Z</time>
      </trkpt>
      <trkpt lat="44.36941" lon="4.83011">
        <ele>235.7</ele>
        <time>2018-04-24T11:27:09Z</time>
      </trkpt>
      <trkpt lat="44.36941" lon="4.82995">
        <ele>236.1</ele>
        <time>2018-04-24T11:27:12Z</time>
      </trkpt>
      <trkpt lat="44.36941" lon="4.8298">
        <ele>236.9</ele>
        <time>2018-04-24T11:27:15Z</time>
      </trkpt>
      <trkpt lat="44.3694" lon="4.82966">
        <ele>237.7</ele>
        <time>2018-04-24T11:27:18Z</time>
      </trkpt>
      <trkpt lat="44.36938" lon="4.82953">
        <ele>238.3</ele>
        <time>2018-04-24T11:27:21Z</time>
      </trkpt>
      <trkpt lat="44.36934" lon="4.8294">
        <ele>239.1</ele>
        <time>2018-04-24T11:27:24Z</time>
      </trkpt>
      <trkpt lat="44.3693" lon="4.82928">
        <ele>239.5</ele>
        <time>2018-04-24T11:27:27Z</time>
      </trkpt>
      <trkpt lat="44.36925" lon="4.82916">
        <ele>239.9</ele>
        <time>2018-04-24T11:27:30Z</time>
      </trkpt>
      <trkpt lat="44.3692" lon="4.82905">
        <ele>240.3</ele>
        <time>2018-04-24T11:27:33Z</time>
      </trkpt>
      <trkpt lat="44.36916" lon="4.82894">
        <ele>240.7</ele>
        <time>2018-04-24T11:27:36Z</time>
      </trkpt>
      <trkpt lat="44.36911" lon="4.82882">
        <ele>241.3</ele>
        <time>2018-04-24T11:27:39Z</time>
      </trkpt>
      <trkpt lat="44.36905" lon="4.82867">
        <ele>242.1</ele>
        <time>2018-04-24T11:27:43Z</time>
      </trkpt>
      <trkpt lat="44.36901" lon="4.82855">
        <ele>242.5</ele>
        <time>2018-04-24T11:27:46Z</time>
      </trkpt>
      <trkpt lat="44.36897" lon="4.82839">
        <ele>243.5</ele>
        <time>2018-04-24T11:27:50Z</time>
      </trkpt>
      <trkpt lat="44.36892" lon="4.82828">
        <ele>243.9</ele>
        <time>2018-04-24T11:27:53Z</time>
      </trkpt>
      <trkpt lat="44.36887" lon="4.82817">
        <ele>244.2</ele>
        <time>2018-04-24T11:27:56Z</time>
      </trkpt>
      <trkpt lat="44.3688" lon="4.82803">
        <ele>244.7</ele>
        <time>2018-04-24T11:28:00Z</time>
      </trkpt>
      <trkpt lat="44.36875" lon="4.82792">
        <ele>245.2</ele>
        <time>2018-04-24T11:28:03Z</time>
      </trkpt>
      <trkpt lat="44.3687" lon="4.8278">
        <ele>245.5</ele>
        <time>2018-04-24T11:28:06Z</time>
      </trkpt>
      <trkpt lat="44.36866" lon="4.82769">
        <ele>246.1</ele>
        <time>2018-04-24T11:28:09Z</time>
      </trkpt>
      <trkpt lat="44.36861" lon="4.82754">
        <ele>246.7</ele>
        <time>2018-04-24T11:28:13Z</time>
      </trkpt>
      <trkpt lat="44.36856" lon="4.82738">
        <ele>247.1</ele>
        <time>2018-04-24T11:28:17Z</time>
      </trkpt>
      <trkpt lat="44.36851" lon="4.82723">
        <ele>247.9</ele>
        <time>2018-04-24T11:28:21Z</time>
      </trkpt>
      <trkpt lat="44.36846" lon="4.82711">
        <ele>248.4</ele>
        <time>2018-04-24T11:28:24Z</time>
      </trkpt>
      <trkpt lat="44.36841" lon="4.82698">
        <ele>248.9</ele>
        <time>2018-04-24T11:28:27Z</time>
      </trkpt>
      <trkpt lat="44.36836" lon="4.82686">
        <ele>249.4</ele>
        <time>2018-04-24T11:28:30Z</time>
      </trkpt>
      <trkpt lat="44.3683" lon="4.82674">
        <ele>250</ele>
        <time>2018-04-24T11:28:33Z</time>
      </trkpt>
      <trkpt lat="44.36824" lon="4.82661">
        <ele>250.4</ele>
        <time>2018-04-24T11:28:36Z</time>
      </trkpt>
      <trkpt lat="44.36819" lon="4.8265">
        <ele>250.8</ele>
        <time>2018-04-24T11:28:39Z</time>
      </trkpt>
      <trkpt lat="44.36812" lon="4.82639">
        <ele>251.3</ele>
        <time>2018-04-24T11:28:42Z</time>
      </trkpt>
      <trkpt lat="44.36805" lon="4.82627">
        <ele>251.8</ele>
        <time>2018-04-24T11:28:45Z</time>
      </trkpt>
      <trkpt lat="44.36798" lon="4.82615">
        <ele>252.2</ele>
        <time>2018-04-24T11:28:48Z</time>
      </trkpt>
      <trkpt lat="44.36791" lon="4.82604">
        <ele>252.2</ele>
        <time>2018-04-24T11:28:51Z</time>
      </trkpt>
      <trkpt lat="44.36785" lon="4.82592">
        <ele>252.8</ele>
        <time>2018-04-24T11:28:54Z</time>
      </trkpt>
      <trkpt lat="44.3678" lon="4.82581">
        <ele>253.4</ele>
        <time>2018-04-24T11:28:57Z</time>
      </trkpt>
      <trkpt lat="44.36775" lon="4.82569">
        <ele>254.1</ele>
        <time>2018-04-24T11:29:00Z</time>
      </trkpt>
      <trkpt lat="44.36771" lon="4.82556">
        <ele>254.9</ele>
        <time>2018-04-24T11:29:03Z</time>
      </trkpt>
      <trkpt lat="44.36768" lon="4.82542">
        <ele>255.7</ele>
        <time>2018-04-24T11:29:06Z</time>
      </trkpt>
      <trkpt lat="44.36767" lon="4.82527">
        <ele>256.3</ele>
        <time>2018-04-24T11:29:09Z</time>
      </trkpt>
      <trkpt lat="44.36767" lon="4.82513">
        <ele>256.9</ele>
        <time>2018-04-24T11:29:12Z</time>
      </trkpt>
      <trkpt lat="44.36766" lon="4.82498">
        <ele>257.1</ele>
        <time>2018-04-24T11:29:15Z</time>
      </trkpt>
      <trkpt lat="44.36766" lon="4.82484">
        <ele>257.3</ele>
        <time>2018-04-24T11:29:18Z</time>
      </trkpt>
      <trkpt lat="44.36766" lon="4.82469">
        <ele>257.5</ele>
        <time>2018-04-24T11:29:21Z</time>
      </trkpt>
      <trkpt lat="44.36769" lon="4.82455">
        <ele>257.7</ele>
        <time>2018-04-24T11:29:24Z</time>
      </trkpt>
      <trkpt lat="44.36771" lon="4.82442">
        <ele>258</ele>
        <time>2018-04-24T11:29:27Z</time>
      </trkpt>
      <trkpt lat="44.36774" lon="4.82429">
        <ele>258.2</ele>
        <time>2018-04-24T11:29:30Z</time>
      </trkpt>
      <trkpt lat="44.36778" lon="4.82417">
        <ele>258.5</ele>
        <time>2018-04-24T11:29:33Z</time>
      </trkpt>
      <trkpt lat="44.36783" lon="4.82404">
        <ele>259.2</ele>
        <time>2018-04-24T11:29:37Z</time>
      </trkpt>
      <trkpt lat="44.36791" lon="4.82394">
        <ele>259.9</ele>
        <time>2018-04-24T11:29:41Z</time>
      </trkpt>
      <trkpt lat="44.36797" lon="4.82384">
        <ele>260.8</ele>
        <time>2018-04-24T11:29:45Z</time>
      </trkpt>
      <trkpt lat="44.36803" lon="4.82375">
        <ele>261.5</ele>
        <time>2018-04-24T11:29:49Z</time>
      </trkpt>
      <trkpt lat="44.36811" lon="4.82364">
        <ele>262.8</ele>
        <time>2018-04-24T11:29:54Z</time>
      </trkpt>
      <trkpt lat="44.36821" lon="4.82358">
        <ele>264.2</ele>
        <time>2018-04-24T11:30:00Z</time>
      </trkpt>
      <trkpt lat="44.3683" lon="4.82353">
        <ele>265.5</ele>
        <time>2018-04-24T11:30:05Z</time>
      </trkpt>
      <trkpt lat="44.36835" lon="4.82341">
        <ele>266.5</ele>
        <time>2018-04-24T11:30:11Z</time>
      </trkpt>
      <trkpt lat="44.36837" lon="4.82327">
        <ele>267.8</ele>
        <time>2018-04-24T11:30:17Z</time>
      </trkpt>
      <trkpt lat="44.36836" lon="4.82313">
        <ele>269.5</ele>
        <time>2018-04-24T11:30:23Z</time>
      </trkpt>
      <trkpt lat="44.36834" lon="4.82299">
        <ele>271.5</ele>
        <time>2018-04-24T11:30:30Z</time>
      </trkpt>
      <trkpt lat="44.36834" lon="4.82284">
        <ele>273.3</ele>
        <time>2018-04-24T11:30:36Z</time>
      </trkpt>
      <trkpt lat="44.36831" lon="4.82272">
        <ele>274.1</ele>
        <time>2018-04-24T11:30:41Z</time>
      </trkpt>
      <trkpt lat="44.3683" lon="4.82258">
        <ele>275.1</ele>
        <time>2018-04-24T11:30:46Z</time>
      </trkpt>
      <trkpt lat="44.36832" lon="4.82245">
        <ele>276.1</ele>
        <time>2018-04-24T11:30:51Z</time>
      </trkpt>
      <trkpt lat="44.36836" lon="4.82232">
        <ele>277.1</ele>
        <time>2018-04-24T11:30:56Z</time>
      </trkpt>
      <trkpt lat="44.3684" lon="4.8222">
        <ele>277.5</ele>
        <time>2018-04-24T11:31:01Z</time>
      </trkpt>
      <trkpt lat="44.36846" lon="4.82208">
        <ele>278.2</ele>
        <time>2018-04-24T11:31:06Z</time>
      </trkpt>
      <trkpt lat="44.36851" lon="4.82194">
        <ele>278.5</ele>
        <time>2018-04-24T11:31:11Z</time>
      </trkpt>
      <trkpt lat="44.36853" lon="4.8218">
        <ele>279</ele>
        <time>2018-04-24T11:31:15Z</time>
      </trkpt>
      <trkpt lat="44.36858" lon="4.82167">
        <ele>279.7</ele>
        <time>2018-04-24T11:31:19Z</time>
      </trkpt>
      <trkpt lat="44.36861" lon="4.82153">
        <ele>280.2</ele>
        <time>2018-04-24T11:31:23Z</time>
      </trkpt>
      <trkpt lat="44.36862" lon="4.8214">
        <ele>281</ele>
        <time>2018-04-24T11:31:27Z</time>
      </trkpt>
      <trkpt lat="44.36862" lon="4.82127">
        <ele>281.6</ele>
        <time>2018-04-24T11:31:31Z</time>
      </trkpt>
      <trkpt lat="44.36861" lon="4.82113">
        <ele>282.1</ele>
        <time>2018-04-24T11:31:35Z</time>
      </trkpt>
      <trkpt lat="44.3686" lon="4.82098">
        <ele>282.7</ele>
        <time>2018-04-24T11:31:39Z</time>
      </trkpt>
      <trkpt lat="44.36858" lon="4.82082">
        <ele>283.3</ele>
        <time>2018-04-24T11:31:43Z</time>
      </trkpt>
      <trkpt lat="44.36855" lon="4.82065">
        <ele>283.9</ele>
        <time>2018-04-24T11:31:47Z</time>
      </trkpt>
      <trkpt lat="44.36853" lon="4.82052">
        <ele>284</ele>
        <time>2018-04-24T11:31:50Z</time>
      </trkpt>
      <trkpt lat="44.36851" lon="4.82037">
        <ele>284.3</ele>
        <time>2018-04-24T11:31:53Z</time>
      </trkpt>
      <trkpt lat="44.3685" lon="4.82022">
        <ele>284.8</ele>
        <time>2018-04-24T11:31:56Z</time>
      </trkpt>
      <trkpt lat="44.36847" lon="4.82007">
        <ele>285</ele>
        <time>2018-04-24T11:31:59Z</time>
      </trkpt>
      <trkpt lat="44.36846" lon="4.81992">
        <ele>285.5</ele>
        <time>2018-04-24T11:32:02Z</time>
      </trkpt>
      <trkpt lat="44.36844" lon="4.81976">
        <ele>285.7</ele>
        <time>2018-04-24T11:32:05Z</time>
      </trkpt>
      <trkpt lat="44.36842" lon="4.81959">
        <ele>285.9</ele>
        <time>2018-04-24T11:32:08Z</time>
      </trkpt>
      <trkpt lat="44.36841" lon="4.81946">
        <ele>285.9</ele>
        <time>2018-04-24T11:32:10Z</time>
      </trkpt>
      <trkpt lat="44.36841" lon="4.81932">
        <ele>286</ele>
        <time>2018-04-24T11:32:12Z</time>
      </trkpt>
      <trkpt lat="44.36841" lon="4.81917">
        <ele>286.1</ele>
        <time>2018-04-24T11:32:14Z</time>
      </trkpt>
      <trkpt lat="44.3684" lon="4.81902">
        <ele>286.1</ele>
        <time>2018-04-24T11:32:16Z</time>
      </trkpt>
      <trkpt lat="44.36841" lon="4.81887">
        <ele>286</ele>
        <time>2018-04-24T11:32:18Z</time>
      </trkpt>
      <trkpt lat="44.36844" lon="4.81872">
        <ele>285.6</ele>
        <time>2018-04-24T11:32:20Z</time>
      </trkpt>
      <trkpt lat="44.36848" lon="4.81857">
        <ele>285.2</ele>
        <time>2018-04-24T11:32:22Z</time>
      </trkpt>
      <trkpt lat="44.36854" lon="4.81843">
        <ele>284.7</ele>
        <time>2018-04-24T11:32:24Z</time>
      </trkpt>
      <trkpt lat="44.36861" lon="4.81828">
        <ele>284.1</ele>
        <time>2018-04-24T11:32:26Z</time>
      </trkpt>
      <trkpt lat="44.36869" lon="4.81816">
        <ele>283.5</ele>
        <time>2018-04-24T11:32:28Z</time>
      </trkpt>
      <trkpt lat="44.36877" lon="4.81803">
        <ele>283.1</ele>
        <time>2018-04-24T11:32:31Z</time>
      </trkpt>
      <trkpt lat="44.36883" lon="4.81793">
        <ele>282.3</ele>
        <time>2018-04-24T11:32:34Z</time>
      </trkpt>
      <trkpt lat="44.36895" lon="4.81789">
        <ele>281.8</ele>
        <time>2018-04-24T11:32:37Z</time>
      </trkpt>
      <trkpt lat="44.36904" lon="4.81786">
        <ele>281.1</ele>
        <time>2018-04-24T11:32:39Z</time>
      </trkpt>
      <trkpt lat="44.36914" lon="4.81783">
        <ele>280.4</ele>
        <time>2018-04-24T11:32:41Z</time>
      </trkpt>
      <trkpt lat="44.36925" lon="4.8178">
        <ele>280.1</ele>
        <time>2018-04-24T11:32:43Z</time>
      </trkpt>
      <trkpt lat="44.36936" lon="4.81778">
        <ele>279</ele>
        <time>2018-04-24T11:32:45Z</time>
      </trkpt>
      <trkpt lat="44.36946" lon="4.81777">
        <ele>278.5</ele>
        <time>2018-04-24T11:32:47Z</time>
      </trkpt>
      <trkpt lat="44.36958" lon="4.81779">
        <ele>276.6</ele>
        <time>2018-04-24T11:32:52Z</time>
      </trkpt>
      <trkpt lat="44.36968" lon="4.81777">
        <ele>276.1</ele>
        <time>2018-04-24T11:32:54Z</time>
      </trkpt>
      <trkpt lat="44.3698" lon="4.81776">
        <ele>275.3</ele>
        <time>2018-04-24T11:32:56Z</time>
      </trkpt>
      <trkpt lat="44.36993" lon="4.81772">
        <ele>274.4</ele>
        <time>2018-04-24T11:32:58Z</time>
      </trkpt>
      <trkpt lat="44.37002" lon="4.81762">
        <ele>273.3</ele>
        <time>2018-04-24T11:33:00Z</time>
      </trkpt>
      <trkpt lat="44.37008" lon="4.81749">
        <ele>271.9</ele>
        <time>2018-04-24T11:33:03Z</time>
      </trkpt>
      <trkpt lat="44.37017" lon="4.81741">
        <ele>270</ele>
        <time>2018-04-24T11:33:07Z</time>
      </trkpt>
      <trkpt lat="44.37027" lon="4.81741">
        <ele>269.2</ele>
        <time>2018-04-24T11:33:09Z</time>
      </trkpt>
      <trkpt lat="44.37038" lon="4.81735">
        <ele>268.3</ele>
        <time>2018-04-24T11:33:11Z</time>
      </trkpt>
      <trkpt lat="44.3705" lon="4.81729">
        <ele>267.3</ele>
        <time>2018-04-24T11:33:13Z</time>
      </trkpt>
      <trkpt lat="44.37061" lon="4.81727">
        <ele>266.3</ele>
        <time>2018-04-24T11:33:15Z</time>
      </trkpt>
      <trkpt lat="44.37073" lon="4.81724">
        <ele>264.1</ele>
        <time>2018-04-24T11:33:18Z</time>
      </trkpt>
      <trkpt lat="44.37086" lon="4.8172">
        <ele>261.8</ele>
        <time>2018-04-24T11:33:21Z</time>
      </trkpt>
      <trkpt lat="44.37099" lon="4.81715">
        <ele>260</ele>
        <time>2018-04-24T11:33:24Z</time>
      </trkpt>
      <trkpt lat="44.37107" lon="4.81711">
        <ele>258.6</ele>
        <time>2018-04-24T11:33:26Z</time>
      </trkpt>
      <trkpt lat="44.37116" lon="4.81705">
        <ele>257.4</ele>
        <time>2018-04-24T11:33:28Z</time>
      </trkpt>
      <trkpt lat="44.37124" lon="4.81697">
        <ele>256</ele>
        <time>2018-04-24T11:33:30Z</time>
      </trkpt>
      <trkpt lat="44.37137" lon="4.81694">
        <ele>254.3</ele>
        <time>2018-04-24T11:33:33Z</time>
      </trkpt>
      <trkpt lat="44.37146" lon="4.8169">
        <ele>253.2</ele>
        <time>2018-04-24T11:33:35Z</time>
      </trkpt>
      <trkpt lat="44.37156" lon="4.81689">
        <ele>252.3</ele>
        <time>2018-04-24T11:33:37Z</time>
      </trkpt>
      <trkpt lat="44.37164" lon="4.81682">
        <ele>251.2</ele>
        <time>2018-04-24T11:33:39Z</time>
      </trkpt>
      <trkpt lat="44.3717" lon="4.81669">
        <ele>250.4</ele>
        <time>2018-04-24T11:33:41Z</time>
      </trkpt>
      <trkpt lat="44.37175" lon="4.81653">
        <ele>249.6</ele>
        <time>2018-04-24T11:33:43Z</time>
      </trkpt>
      <trkpt lat="44.37181" lon="4.81637">
        <ele>248.6</ele>
        <time>2018-04-24T11:33:45Z</time>
      </trkpt>
      <trkpt lat="44.3719" lon="4.81622">
        <ele>247.8</ele>
        <time>2018-04-24T11:33:47Z</time>
      </trkpt>
      <trkpt lat="44.372" lon="4.8161">
        <ele>247.5</ele>
        <time>2018-04-24T11:33:49Z</time>
      </trkpt>
      <trkpt lat="44.37207" lon="4.81594">
        <ele>246.7</ele>
        <time>2018-04-24T11:33:51Z</time>
      </trkpt>
      <trkpt lat="44.37211" lon="4.81577">
        <ele>246</ele>
        <time>2018-04-24T11:33:53Z</time>
      </trkpt>
      <trkpt lat="44.37219" lon="4.81565">
        <ele>245.2</ele>
        <time>2018-04-24T11:33:56Z</time>
      </trkpt>
      <trkpt lat="44.37233" lon="4.81566">
        <ele>244.4</ele>
        <time>2018-04-24T11:33:59Z</time>
      </trkpt>
      <trkpt lat="44.37244" lon="4.81569">
        <ele>243.7</ele>
        <time>2018-04-24T11:34:01Z</time>
      </trkpt>
      <trkpt lat="44.37255" lon="4.81574">
        <ele>243.1</ele>
        <time>2018-04-24T11:34:03Z</time>
      </trkpt>
      <trkpt lat="44.37265" lon="4.8158">
        <ele>242.7</ele>
        <time>2018-04-24T11:34:05Z</time>
      </trkpt>
      <trkpt lat="44.37277" lon="4.81581">
        <ele>242</ele>
        <time>2018-04-24T11:34:07Z</time>
      </trkpt>
      <trkpt lat="44.37286" lon="4.81576">
        <ele>241.5</ele>
        <time>2018-04-24T11:34:09Z</time>
      </trkpt>
      <trkpt lat="44.37294" lon="4.81563">
        <ele>241.1</ele>
        <time>2018-04-24T11:34:12Z</time>
      </trkpt>
      <trkpt lat="44.37295" lon="4.8155">
        <ele>241.1</ele>
        <time>2018-04-24T11:34:14Z</time>
      </trkpt>
      <trkpt lat="44.37296" lon="4.81532">
        <ele>241.3</ele>
        <time>2018-04-24T11:34:17Z</time>
      </trkpt>
      <trkpt lat="44.37289" lon="4.81519">
        <ele>241.7</ele>
        <time>2018-04-24T11:34:20Z</time>
      </trkpt>
      <trkpt lat="44.37278" lon="4.81511">
        <ele>241.8</ele>
        <time>2018-04-24T11:34:23Z</time>
      </trkpt>
      <trkpt lat="44.37267" lon="4.81501">
        <ele>241.9</ele>
        <time>2018-04-24T11:34:26Z</time>
      </trkpt>
      <trkpt lat="44.37262" lon="4.81489">
        <ele>241.8</ele>
        <time>2018-04-24T11:34:28Z</time>
      </trkpt>
      <trkpt lat="44.37264" lon="4.81475">
        <ele>241.7</ele>
        <time>2018-04-24T11:34:30Z</time>
      </trkpt>
      <trkpt lat="44.37264" lon="4.8146">
        <ele>241.3</ele>
        <time>2018-04-24T11:34:32Z</time>
      </trkpt>
      <trkpt lat="44.37264" lon="4.81445">
        <ele>241</ele>
        <time>2018-04-24T11:34:34Z</time>
      </trkpt>
      <trkpt lat="44.37266" lon="4.81431">
        <ele>240.9</ele>
        <time>2018-04-24T11:34:36Z</time>
      </trkpt>
      <trkpt lat="44.37267" lon="4.81418">
        <ele>240.2</ele>
        <time>2018-04-24T11:34:38Z</time>
      </trkpt>
      <trkpt lat="44.37257" lon="4.81408">
        <ele>239.7</ele>
        <time>2018-04-24T11:34:41Z</time>
      </trkpt>
      <trkpt lat="44.37247" lon="4.81408">
        <ele>239.4</ele>
        <time>2018-04-24T11:34:43Z</time>
      </trkpt>
      <trkpt lat="44.37238" lon="4.81402">
        <ele>239.1</ele>
        <time>2018-04-24T11:34:45Z</time>
      </trkpt>
      <trkpt lat="44.37237" lon="4.81389">
        <ele>238.8</ele>
        <time>2018-04-24T11:34:48Z</time>
      </trkpt>
      <trkpt lat="44.37242" lon="4.81371">
        <ele>238.4</ele>
        <time>2018-04-24T11:34:51Z</time>
      </trkpt>
      <trkpt lat="44.37244" lon="4.81357">
        <ele>238.4</ele>
        <time>2018-04-24T11:34:53Z</time>
      </trkpt>
      <trkpt lat="44.37244" lon="4.81344">
        <ele>237.8</ele>
        <time>2018-04-24T11:34:55Z</time>
      </trkpt>
      <trkpt lat="44.37241" lon="4.8133">
        <ele>237.2</ele>
        <time>2018-04-24T11:34:57Z</time>
      </trkpt>
      <trkpt lat="44.37241" lon="4.81316">
        <ele>236.6</ele>
        <time>2018-04-24T11:34:59Z</time>
      </trkpt>
      <trkpt lat="44.37237" lon="4.81298">
        <ele>235.9</ele>
        <time>2018-04-24T11:35:02Z</time>
      </trkpt>
      <trkpt lat="44.37236" lon="4.8128">
        <ele>235.6</ele>
        <time>2018-04-24T11:35:05Z</time>
      </trkpt>
      <trkpt lat="44.37238" lon="4.81264">
        <ele>235.3</ele>
        <time>2018-04-24T11:35:08Z</time>
      </trkpt>
      <trkpt lat="44.37235" lon="4.81251">
        <ele>235.3</ele>
        <time>2018-04-24T11:35:10Z</time>
      </trkpt>
      <trkpt lat="44.37234" lon="4.81237">
        <ele>235.2</ele>
        <time>2018-04-24T11:35:12Z</time>
      </trkpt>
      <trkpt lat="44.37231" lon="4.81223">
        <ele>235.2</ele>
        <time>2018-04-24T11:35:14Z</time>
      </trkpt>
      <trkpt lat="44.37228" lon="4.8121">
        <ele>235.1</ele>
        <time>2018-04-24T11:35:16Z</time>
      </trkpt>
      <trkpt lat="44.37226" lon="4.81197">
        <ele>235.1</ele>
        <time>2018-04-24T11:35:18Z</time>
      </trkpt>
      <trkpt lat="44.37224" lon="4.81183">
        <ele>235.1</ele>
        <time>2018-04-24T11:35:20Z</time>
      </trkpt>
      <trkpt lat="44.37221" lon="4.81169">
        <ele>235.4</ele>
        <time>2018-04-24T11:35:22Z</time>
      </trkpt>
      <trkpt lat="44.3722" lon="4.81156">
        <ele>235.4</ele>
        <time>2018-04-24T11:35:24Z</time>
      </trkpt>
      <trkpt lat="44.37219" lon="4.81143">
        <ele>235.6</ele>
        <time>2018-04-24T11:35:26Z</time>
      </trkpt>
      <trkpt lat="44.37218" lon="4.81127">
        <ele>235.7</ele>
        <time>2018-04-24T11:35:29Z</time>
      </trkpt>
      <trkpt lat="44.37223" lon="4.81115">
        <ele>236</ele>
        <time>2018-04-24T11:35:32Z</time>
      </trkpt>
      <trkpt lat="44.37225" lon="4.81102">
        <ele>236.7</ele>
        <time>2018-04-24T11:35:40Z</time>
      </trkpt>
      <trkpt lat="44.37228" lon="4.81089">
        <ele>236.7</ele>
        <time>2018-04-24T11:35:45Z</time>
      </trkpt>
      <trkpt lat="44.37233" lon="4.81076">
        <ele>236.5</ele>
        <time>2018-04-24T11:35:49Z</time>
      </trkpt>
      <trkpt lat="44.37235" lon="4.81062">
        <ele>235.8</ele>
        <time>2018-04-24T11:35:53Z</time>
      </trkpt>
      <trkpt lat="44.37239" lon="4.81049">
        <ele>235.1</ele>
        <time>2018-04-24T11:35:57Z</time>
      </trkpt>
      <trkpt lat="44.37242" lon="4.81034">
        <ele>234.8</ele>
        <time>2018-04-24T11:36:02Z</time>
      </trkpt>
      <trkpt lat="44.37242" lon="4.81018">
        <ele>234</ele>
        <time>2018-04-24T11:36:07Z</time>
      </trkpt>
      <trkpt lat="44.37247" lon="4.81007">
        <ele>233.3</ele>
        <time>2018-04-24T11:36:10Z</time>
      </trkpt>
      <trkpt lat="44.3725" lon="4.80988">
        <ele>232.8</ele>
        <time>2018-04-24T11:36:13Z</time>
      </trkpt>
      <trkpt lat="44.37248" lon="4.80975">
        <ele>232.4</ele>
        <time>2018-04-24T11:36:15Z</time>
      </trkpt>
      <trkpt lat="44.37243" lon="4.80961">
        <ele>231.7</ele>
        <time>2018-04-24T11:36:17Z</time>
      </trkpt>
      <trkpt lat="44.37236" lon="4.80948">
        <ele>231.2</ele>
        <time>2018-04-24T11:36:19Z</time>
      </trkpt>
      <trkpt lat="44.37227" lon="4.80934">
        <ele>230.5</ele>
        <time>2018-04-24T11:36:21Z</time>
      </trkpt>
      <trkpt lat="44.37218" lon="4.80919">
        <ele>229.9</ele>
        <time>2018-04-24T11:36:23Z</time>
      </trkpt>
      <trkpt lat="44.3721" lon="4.80905">
        <ele>229.4</ele>
        <time>2018-04-24T11:36:25Z</time>
      </trkpt>
      <trkpt lat="44.37201" lon="4.80891">
        <ele>228.9</ele>
        <time>2018-04-24T11:36:27Z</time>
      </trkpt>
      <trkpt lat="44.37192" lon="4.80882">
        <ele>228.4</ele>
        <time>2018-04-24T11:36:29Z</time>
      </trkpt>
      <trkpt lat="44.37191" lon="4.80869">
        <ele>228.1</ele>
        <time>2018-04-24T11:36:33Z</time>
      </trkpt>
      <trkpt lat="44.372" lon="4.8087">
        <ele>228.4</ele>
        <time>2018-04-24T11:36:36Z</time>
      </trkpt>
      <trkpt lat="44.3721" lon="4.80874">
        <ele>228.8</ele>
        <time>2018-04-24T11:36:39Z</time>
      </trkpt>
      <trkpt lat="44.37219" lon="4.80882">
        <ele>229.3</ele>
        <time>2018-04-24T11:36:42Z</time>
      </trkpt>
      <trkpt lat="44.37226" lon="4.80892">
        <ele>229.9</ele>
        <time>2018-04-24T11:36:45Z</time>
      </trkpt>
      <trkpt lat="44.37232" lon="4.80903">
        <ele>230.1</ele>
        <time>2018-04-24T11:36:48Z</time>
      </trkpt>
      <trkpt lat="44.3724" lon="4.80917">
        <ele>230.8</ele>
        <time>2018-04-24T11:36:52Z</time>
      </trkpt>
      <trkpt lat="44.37246" lon="4.80927">
        <ele>231.2</ele>
        <time>2018-04-24T11:36:55Z</time>
      </trkpt>
      <trkpt lat="44.37255" lon="4.80934">
        <ele>231.7</ele>
        <time>2018-04-24T11:36:58Z</time>
      </trkpt>
      <trkpt lat="44.37265" lon="4.80938">
        <ele>232.5</ele>
        <time>2018-04-24T11:37:01Z</time>
      </trkpt>
      <trkpt lat="44.37275" lon="4.8094">
        <ele>233.4</ele>
        <time>2018-04-24T11:37:04Z</time>
      </trkpt>
      <trkpt lat="44.37285" lon="4.80941">
        <ele>234.4</ele>
        <time>2018-04-24T11:37:07Z</time>
      </trkpt>
      <trkpt lat="44.37295" lon="4.80942">
        <ele>235.4</ele>
        <time>2018-04-24T11:37:10Z</time>
      </trkpt>
      <trkpt lat="44.37304" lon="4.80946">
        <ele>236.3</ele>
        <time>2018-04-24T11:37:13Z</time>
      </trkpt>
      <trkpt lat="44.37315" lon="4.80954">
        <ele>237.5</ele>
        <time>2018-04-24T11:37:17Z</time>
      </trkpt>
      <trkpt lat="44.37322" lon="4.80962">
        <ele>238.2</ele>
        <time>2018-04-24T11:37:20Z</time>
      </trkpt>
      <trkpt lat="44.37329" lon="4.80973">
        <ele>238.9</ele>
        <time>2018-04-24T11:37:23Z</time>
      </trkpt>
      <trkpt lat="44.37337" lon="4.80983">
        <ele>239.4</ele>
        <time>2018-04-24T11:37:26Z</time>
      </trkpt>
      <trkpt lat="44.37345" lon="4.80993">
        <ele>239.8</ele>
        <time>2018-04-24T11:37:29Z</time>
      </trkpt>
      <trkpt lat="44.37352" lon="4.81004">
        <ele>240.1</ele>
        <time>2018-04-24T11:37:32Z</time>
      </trkpt>
      <trkpt lat="44.3736" lon="4.81015">
        <ele>240.3</ele>
        <time>2018-04-24T11:37:35Z</time>
      </trkpt>
      <trkpt lat="44.37369" lon="4.81026">
        <ele>240.4</ele>
        <time>2018-04-24T11:37:38Z</time>
      </trkpt>
      <trkpt lat="44.37376" lon="4.81037">
        <ele>240.5</ele>
        <time>2018-04-24T11:37:41Z</time>
      </trkpt>
      <trkpt lat="44.37384" lon="4.81048">
        <ele>240.7</ele>
        <time>2018-04-24T11:37:44Z</time>
      </trkpt>
      <trkpt lat="44.37391" lon="4.81059">
        <ele>240.9</ele>
        <time>2018-04-24T11:37:47Z</time>
      </trkpt>
      <trkpt lat="44.37399" lon="4.8107">
        <ele>241.3</ele>
        <time>2018-04-24T11:37:50Z</time>
      </trkpt>
      <trkpt lat="44.37406" lon="4.8108">
        <ele>241.7</ele>
        <time>2018-04-24T11:37:53Z</time>
      </trkpt>
      <trkpt lat="44.37414" lon="4.81091">
        <ele>241.9</ele>
        <time>2018-04-24T11:37:56Z</time>
      </trkpt>
      <trkpt lat="44.37421" lon="4.81101">
        <ele>242.3</ele>
        <time>2018-04-24T11:37:59Z</time>
      </trkpt>
      <trkpt lat="44.37429" lon="4.81112">
        <ele>242.7</ele>
        <time>2018-04-24T11:38:02Z</time>
      </trkpt>
      <trkpt lat="44.37436" lon="4.81123">
        <ele>243.1</ele>
        <time>2018-04-24T11:38:05Z</time>
      </trkpt>
      <trkpt lat="44.37444" lon="4.81134">
        <ele>243.4</ele>
        <time>2018-04-24T11:38:08Z</time>
      </trkpt>
      <trkpt lat="44.37453" lon="4.81146">
        <ele>243.7</ele>
        <time>2018-04-24T11:38:11Z</time>
      </trkpt>
      <trkpt lat="44.37462" lon="4.81158">
        <ele>243.9</ele>
        <time>2018-04-24T11:38:14Z</time>
      </trkpt>
      <trkpt lat="44.37468" lon="4.81168">
        <ele>244.1</ele>
        <time>2018-04-24T11:38:16Z</time>
      </trkpt>
      <trkpt lat="44.37475" lon="4.81178">
        <ele>244.1</ele>
        <time>2018-04-24T11:38:18Z</time>
      </trkpt>
      <trkpt lat="44.37481" lon="4.81188">
        <ele>244.1</ele>
        <time>2018-04-24T11:38:20Z</time>
      </trkpt>
      <trkpt lat="44.37488" lon="4.81198">
        <ele>244.2</ele>
        <time>2018-04-24T11:38:22Z</time>
      </trkpt>
      <trkpt lat="44.37494" lon="4.8121">
        <ele>244.2</ele>
        <time>2018-04-24T11:38:24Z</time>
      </trkpt>
      <trkpt lat="44.37501" lon="4.81222">
        <ele>244.3</ele>
        <time>2018-04-24T11:38:26Z</time>
      </trkpt>
      <trkpt lat="44.37507" lon="4.81235">
        <ele>244.3</ele>
        <time>2018-04-24T11:38:28Z</time>
      </trkpt>
      <trkpt lat="44.37513" lon="4.81248">
        <ele>244.3</ele>
        <time>2018-04-24T11:38:30Z</time>
      </trkpt>
      <trkpt lat="44.3752" lon="4.8126">
        <ele>244.5</ele>
        <time>2018-04-24T11:38:32Z</time>
      </trkpt>
      <trkpt lat="44.37528" lon="4.81272">
        <ele>244.7</ele>
        <time>2018-04-24T11:38:34Z</time>
      </trkpt>
      <trkpt lat="44.37536" lon="4.81282">
        <ele>244.7</ele>
        <time>2018-04-24T11:38:36Z</time>
      </trkpt>
      <trkpt lat="44.37546" lon="4.81291">
        <ele>244.6</ele>
        <time>2018-04-24T11:38:38Z</time>
      </trkpt>
      <trkpt lat="44.37555" lon="4.813">
        <ele>244.5</ele>
        <time>2018-04-24T11:38:40Z</time>
      </trkpt>
      <trkpt lat="44.37564" lon="4.8131">
        <ele>244.6</ele>
        <time>2018-04-24T11:38:42Z</time>
      </trkpt>
      <trkpt lat="44.37573" lon="4.81319">
        <ele>244.5</ele>
        <time>2018-04-24T11:38:44Z</time>
      </trkpt>
      <trkpt lat="44.37583" lon="4.81328">
        <ele>244.4</ele>
        <time>2018-04-24T11:38:46Z</time>
      </trkpt>
      <trkpt lat="44.37592" lon="4.81336">
        <ele>244.4</ele>
        <time>2018-04-24T11:38:48Z</time>
      </trkpt>
      <trkpt lat="44.376" lon="4.81344">
        <ele>244.6</ele>
        <time>2018-04-24T11:38:50Z</time>
      </trkpt>
      <trkpt lat="44.37608" lon="4.81351">
        <ele>244.8</ele>
        <time>2018-04-24T11:38:52Z</time>
      </trkpt>
      <trkpt lat="44.37619" lon="4.81362">
        <ele>245.3</ele>
        <time>2018-04-24T11:38:55Z</time>
      </trkpt>
      <trkpt lat="44.37629" lon="4.81371">
        <ele>245.9</ele>
        <time>2018-04-24T11:38:58Z</time>
      </trkpt>
      <trkpt lat="44.37639" lon="4.81382">
        <ele>246.7</ele>
        <time>2018-04-24T11:39:01Z</time>
      </trkpt>
      <trkpt lat="44.37649" lon="4.81392">
        <ele>247.4</ele>
        <time>2018-04-24T11:39:04Z</time>
      </trkpt>
      <trkpt lat="44.37657" lon="4.81404">
        <ele>248.2</ele>
        <time>2018-04-24T11:39:07Z</time>
      </trkpt>
      <trkpt lat="44.37664" lon="4.81415">
        <ele>249.3</ele>
        <time>2018-04-24T11:39:10Z</time>
      </trkpt>
      <trkpt lat="44.37671" lon="4.81428">
        <ele>250.1</ele>
        <time>2018-04-24T11:39:13Z</time>
      </trkpt>
      <trkpt lat="44.37679" lon="4.81439">
        <ele>250.8</ele>
        <time>2018-04-24T11:39:16Z</time>
      </trkpt>
      <trkpt lat="44.37686" lon="4.81452">
        <ele>251.4</ele>
        <time>2018-04-24T11:39:19Z</time>
      </trkpt>
      <trkpt lat="44.37694" lon="4.81463">
        <ele>251.9</ele>
        <time>2018-04-24T11:39:22Z</time>
      </trkpt>
      <trkpt lat="44.37702" lon="4.81476">
        <ele>252.2</ele>
        <time>2018-04-24T11:39:25Z</time>
      </trkpt>
      <trkpt lat="44.37711" lon="4.81488">
        <ele>252.3</ele>
        <time>2018-04-24T11:39:28Z</time>
      </trkpt>
      <trkpt lat="44.37718" lon="4.81497">
        <ele>252.4</ele>
        <time>2018-04-24T11:39:30Z</time>
      </trkpt>
      <trkpt lat="44.37725" lon="4.81506">
        <ele>252.5</ele>
        <time>2018-04-24T11:39:32Z</time>
      </trkpt>
      <trkpt lat="44.37732" lon="4.81515">
        <ele>252.5</ele>
        <time>2018-04-24T11:39:34Z</time>
      </trkpt>
      <trkpt lat="44.3774" lon="4.81523">
        <ele>252.5</ele>
        <time>2018-04-24T11:39:36Z</time>
      </trkpt>
      <trkpt lat="44.37747" lon="4.81531">
        <ele>252.7</ele>
        <time>2018-04-24T11:39:38Z</time>
      </trkpt>
      <trkpt lat="44.37754" lon="4.81538">
        <ele>252.7</ele>
        <time>2018-04-24T11:39:40Z</time>
      </trkpt>
      <trkpt lat="44.37762" lon="4.81546">
        <ele>253</ele>
        <time>2018-04-24T11:39:42Z</time>
      </trkpt>
      <trkpt lat="44.37769" lon="4.81553">
        <ele>253.2</ele>
        <time>2018-04-24T11:39:44Z</time>
      </trkpt>
      <trkpt lat="44.37777" lon="4.81561">
        <ele>253.7</ele>
        <time>2018-04-24T11:39:46Z</time>
      </trkpt>
      <trkpt lat="44.37787" lon="4.81572">
        <ele>254.4</ele>
        <time>2018-04-24T11:39:49Z</time>
      </trkpt>
      <trkpt lat="44.37797" lon="4.81583">
        <ele>254.9</ele>
        <time>2018-04-24T11:39:52Z</time>
      </trkpt>
      <trkpt lat="44.37805" lon="4.81591">
        <ele>255.1</ele>
        <time>2018-04-24T11:39:54Z</time>
      </trkpt>
      <trkpt lat="44.37811" lon="4.816">
        <ele>255.3</ele>
        <time>2018-04-24T11:39:56Z</time>
      </trkpt>
      <trkpt lat="44.37819" lon="4.81609">
        <ele>255.5</ele>
        <time>2018-04-24T11:39:58Z</time>
      </trkpt>
      <trkpt lat="44.37827" lon="4.81617">
        <ele>255.8</ele>
        <time>2018-04-24T11:40:00Z</time>
      </trkpt>
      <trkpt lat="44.37835" lon="4.81626">
        <ele>256.1</ele>
        <time>2018-04-24T11:40:02Z</time>
      </trkpt>
      <trkpt lat="44.37844" lon="4.81635">
        <ele>256.1</ele>
        <time>2018-04-24T11:40:04Z</time>
      </trkpt>
      <trkpt lat="44.37853" lon="4.81644">
        <ele>256.2</ele>
        <time>2018-04-24T11:40:06Z</time>
      </trkpt>
      <trkpt lat="44.37863" lon="4.81654">
        <ele>256.3</ele>
        <time>2018-04-24T11:40:08Z</time>
      </trkpt>
      <trkpt lat="44.37874" lon="4.81663">
        <ele>256.2</ele>
        <time>2018-04-24T11:40:10Z</time>
      </trkpt>
      <trkpt lat="44.37885" lon="4.81672">
        <ele>256</ele>
        <time>2018-04-24T11:40:12Z</time>
      </trkpt>
      <trkpt lat="44.37896" lon="4.81681">
        <ele>255.7</ele>
        <time>2018-04-24T11:40:14Z</time>
      </trkpt>
      <trkpt lat="44.37907" lon="4.81689">
        <ele>255.6</ele>
        <time>2018-04-24T11:40:16Z</time>
      </trkpt>
      <trkpt lat="44.37918" lon="4.81698">
        <ele>255.4</ele>
        <time>2018-04-24T11:40:18Z</time>
      </trkpt>
      <trkpt lat="44.37928" lon="4.81707">
        <ele>255.2</ele>
        <time>2018-04-24T11:40:20Z</time>
      </trkpt>
      <trkpt lat="44.3794" lon="4.81716">
        <ele>254.9</ele>
        <time>2018-04-24T11:40:22Z</time>
      </trkpt>
      <trkpt lat="44.37952" lon="4.81726">
        <ele>254.7</ele>
        <time>2018-04-24T11:40:24Z</time>
      </trkpt>
      <trkpt lat="44.37963" lon="4.81735">
        <ele>254.3</ele>
        <time>2018-04-24T11:40:26Z</time>
      </trkpt>
      <trkpt lat="44.37975" lon="4.81744">
        <ele>253.9</ele>
        <time>2018-04-24T11:40:28Z</time>
      </trkpt>
      <trkpt lat="44.37987" lon="4.81751">
        <ele>253.5</ele>
        <time>2018-04-24T11:40:30Z</time>
      </trkpt>
      <trkpt lat="44.38" lon="4.81753">
        <ele>253.2</ele>
        <time>2018-04-24T11:40:32Z</time>
      </trkpt>
      <trkpt lat="44.38012" lon="4.8175">
        <ele>252.8</ele>
        <time>2018-04-24T11:40:34Z</time>
      </trkpt>
      <trkpt lat="44.38023" lon="4.81745">
        <ele>252.5</ele>
        <time>2018-04-24T11:40:36Z</time>
      </trkpt>
      <trkpt lat="44.38034" lon="4.81737">
        <ele>252.1</ele>
        <time>2018-04-24T11:40:38Z</time>
      </trkpt>
      <trkpt lat="44.38045" lon="4.81728">
        <ele>251.9</ele>
        <time>2018-04-24T11:40:40Z</time>
      </trkpt>
      <trkpt lat="44.38055" lon="4.81719">
        <ele>251.7</ele>
        <time>2018-04-24T11:40:42Z</time>
      </trkpt>
      <trkpt lat="44.38065" lon="4.81711">
        <ele>251.5</ele>
        <time>2018-04-24T11:40:44Z</time>
      </trkpt>
      <trkpt lat="44.38075" lon="4.81703">
        <ele>251.2</ele>
        <time>2018-04-24T11:40:46Z</time>
      </trkpt>
      <trkpt lat="44.38084" lon="4.81695">
        <ele>251.2</ele>
        <time>2018-04-24T11:40:48Z</time>
      </trkpt>
      <trkpt lat="44.38093" lon="4.81688">
        <ele>251.1</ele>
        <time>2018-04-24T11:40:50Z</time>
      </trkpt>
      <trkpt lat="44.38102" lon="4.8168">
        <ele>251.1</ele>
        <time>2018-04-24T11:40:52Z</time>
      </trkpt>
      <trkpt lat="44.38111" lon="4.81673">
        <ele>251.2</ele>
        <time>2018-04-24T11:40:54Z</time>
      </trkpt>
      <trkpt lat="44.38119" lon="4.81665">
        <ele>251.4</ele>
        <time>2018-04-24T11:40:56Z</time>
      </trkpt>
      <trkpt lat="44.38128" lon="4.81658">
        <ele>251.7</ele>
        <time>2018-04-24T11:40:58Z</time>
      </trkpt>
      <trkpt lat="44.38136" lon="4.81652">
        <ele>251.8</ele>
        <time>2018-04-24T11:41:00Z</time>
      </trkpt>
      <trkpt lat="44.38144" lon="4.81645">
        <ele>252</ele>
        <time>2018-04-24T11:41:02Z</time>
      </trkpt>
      <trkpt lat="44.38156" lon="4.81636">
        <ele>252.3</ele>
        <time>2018-04-24T11:41:05Z</time>
      </trkpt>
      <trkpt lat="44.38165" lon="4.81631">
        <ele>252.5</ele>
        <time>2018-04-24T11:41:07Z</time>
      </trkpt>
      <trkpt lat="44.38174" lon="4.81627">
        <ele>252.7</ele>
        <time>2018-04-24T11:41:09Z</time>
      </trkpt>
      <trkpt lat="44.38187" lon="4.81624">
        <ele>252.8</ele>
        <time>2018-04-24T11:41:12Z</time>
      </trkpt>
      <trkpt lat="44.382" lon="4.81621">
        <ele>253.3</ele>
        <time>2018-04-24T11:41:15Z</time>
      </trkpt>
      <trkpt lat="44.38213" lon="4.81618">
        <ele>253.7</ele>
        <time>2018-04-24T11:41:18Z</time>
      </trkpt>
      <trkpt lat="44.38226" lon="4.81616">
        <ele>254.1</ele>
        <time>2018-04-24T11:41:21Z</time>
      </trkpt>
      <trkpt lat="44.38239" lon="4.81613">
        <ele>254.4</ele>
        <time>2018-04-24T11:41:24Z</time>
      </trkpt>
      <trkpt lat="44.38252" lon="4.81611">
        <ele>254.5</ele>
        <time>2018-04-24T11:41:27Z</time>
      </trkpt>
      <trkpt lat="44.38261" lon="4.81609">
        <ele>254.8</ele>
        <time>2018-04-24T11:41:29Z</time>
      </trkpt>
      <trkpt lat="44.3827" lon="4.81607">
        <ele>255</ele>
        <time>2018-04-24T11:41:31Z</time>
      </trkpt>
      <trkpt lat="44.38279" lon="4.81605">
        <ele>255.3</ele>
        <time>2018-04-24T11:41:33Z</time>
      </trkpt>
      <trkpt lat="44.38289" lon="4.81604">
        <ele>255.5</ele>
        <time>2018-04-24T11:41:35Z</time>
      </trkpt>
      <trkpt lat="44.38299" lon="4.81602">
        <ele>255.7</ele>
        <time>2018-04-24T11:41:37Z</time>
      </trkpt>
      <trkpt lat="44.38308" lon="4.81602">
        <ele>255.9</ele>
        <time>2018-04-24T11:41:39Z</time>
      </trkpt>
      <trkpt lat="44.38317" lon="4.816">
        <ele>256.2</ele>
        <time>2018-04-24T11:41:41Z</time>
      </trkpt>
      <trkpt lat="44.38327" lon="4.81599">
        <ele>256.5</ele>
        <time>2018-04-24T11:41:43Z</time>
      </trkpt>
      <trkpt lat="44.38337" lon="4.81597">
        <ele>256.7</ele>
        <time>2018-04-24T11:41:45Z</time>
      </trkpt>
      <trkpt lat="44.38346" lon="4.81595">
        <ele>257</ele>
        <time>2018-04-24T11:41:47Z</time>
      </trkpt>
      <trkpt lat="44.38356" lon="4.81593">
        <ele>257.2</ele>
        <time>2018-04-24T11:41:49Z</time>
      </trkpt>
      <trkpt lat="44.38365" lon="4.81592">
        <ele>257.3</ele>
        <time>2018-04-24T11:41:51Z</time>
      </trkpt>
      <trkpt lat="44.38375" lon="4.8159">
        <ele>257.5</ele>
        <time>2018-04-24T11:41:53Z</time>
      </trkpt>
      <trkpt lat="44.38385" lon="4.81589">
        <ele>257.6</ele>
        <time>2018-04-24T11:41:55Z</time>
      </trkpt>
      <trkpt lat="44.38396" lon="4.81587">
        <ele>257.6</ele>
        <time>2018-04-24T11:41:57Z</time>
      </trkpt>
      <trkpt lat="44.38408" lon="4.81585">
        <ele>257.5</ele>
        <time>2018-04-24T11:41:59Z</time>
      </trkpt>
      <trkpt lat="44.3842" lon="4.81582">
        <ele>257.3</ele>
        <time>2018-04-24T11:42:01Z</time>
      </trkpt>
      <trkpt lat="44.38431" lon="4.81579">
        <ele>256.8</ele>
        <time>2018-04-24T11:42:03Z</time>
      </trkpt>
      <trkpt lat="44.38443" lon="4.81576">
        <ele>256.3</ele>
        <time>2018-04-24T11:42:05Z</time>
      </trkpt>
      <trkpt lat="44.38455" lon="4.8157">
        <ele>255.7</ele>
        <time>2018-04-24T11:42:07Z</time>
      </trkpt>
      <trkpt lat="44.38468" lon="4.81562">
        <ele>255.2</ele>
        <time>2018-04-24T11:42:09Z</time>
      </trkpt>
      <trkpt lat="44.3848" lon="4.81552">
        <ele>254.8</ele>
        <time>2018-04-24T11:42:11Z</time>
      </trkpt>
      <trkpt lat="44.38492" lon="4.81543">
        <ele>254.6</ele>
        <time>2018-04-24T11:42:13Z</time>
      </trkpt>
      <trkpt lat="44.38504" lon="4.81533">
        <ele>254.2</ele>
        <time>2018-04-24T11:42:15Z</time>
      </trkpt>
      <trkpt lat="44.38516" lon="4.81522">
        <ele>253.9</ele>
        <time>2018-04-24T11:42:17Z</time>
      </trkpt>
      <trkpt lat="44.38528" lon="4.81512">
        <ele>253.4</ele>
        <time>2018-04-24T11:42:19Z</time>
      </trkpt>
      <trkpt lat="44.3854" lon="4.81503">
        <ele>252.9</ele>
        <time>2018-04-24T11:42:21Z</time>
      </trkpt>
      <trkpt lat="44.38552" lon="4.81492">
        <ele>252.3</ele>
        <time>2018-04-24T11:42:23Z</time>
      </trkpt>
      <trkpt lat="44.38562" lon="4.81479">
        <ele>252</ele>
        <time>2018-04-24T11:42:25Z</time>
      </trkpt>
      <trkpt lat="44.3857" lon="4.81464">
        <ele>251.8</ele>
        <time>2018-04-24T11:42:27Z</time>
      </trkpt>
      <trkpt lat="44.38577" lon="4.81448">
        <ele>251.5</ele>
        <time>2018-04-24T11:42:29Z</time>
      </trkpt>
      <trkpt lat="44.38582" lon="4.81432">
        <ele>251</ele>
        <time>2018-04-24T11:42:31Z</time>
      </trkpt>
      <trkpt lat="44.38588" lon="4.81415">
        <ele>250.8</ele>
        <time>2018-04-24T11:42:33Z</time>
      </trkpt>
      <trkpt lat="44.38595" lon="4.81399">
        <ele>250.4</ele>
        <time>2018-04-24T11:42:35Z</time>
      </trkpt>
      <trkpt lat="44.38602" lon="4.81383">
        <ele>250.1</ele>
        <time>2018-04-24T11:42:37Z</time>
      </trkpt>
      <trkpt lat="44.3861" lon="4.81369">
        <ele>249.6</ele>
        <time>2018-04-24T11:42:39Z</time>
      </trkpt>
      <trkpt lat="44.38617" lon="4.81354">
        <ele>249.2</ele>
        <time>2018-04-24T11:42:41Z</time>
      </trkpt>
      <trkpt lat="44.38625" lon="4.81341">
        <ele>249.2</ele>
        <time>2018-04-24T11:42:43Z</time>
      </trkpt>
      <trkpt lat="44.38633" lon="4.81328">
        <ele>248.8</ele>
        <time>2018-04-24T11:42:45Z</time>
      </trkpt>
      <trkpt lat="44.3864" lon="4.81315">
        <ele>248.6</ele>
        <time>2018-04-24T11:42:47Z</time>
      </trkpt>
      <trkpt lat="44.38648" lon="4.81302">
        <ele>248.6</ele>
        <time>2018-04-24T11:42:49Z</time>
      </trkpt>
      <trkpt lat="44.38655" lon="4.81289">
        <ele>248.5</ele>
        <time>2018-04-24T11:42:51Z</time>
      </trkpt>
      <trkpt lat="44.38662" lon="4.81276">
        <ele>248.4</ele>
        <time>2018-04-24T11:42:53Z</time>
      </trkpt>
      <trkpt lat="44.38669" lon="4.81263">
        <ele>248.4</ele>
        <time>2018-04-24T11:42:55Z</time>
      </trkpt>
      <trkpt lat="44.38675" lon="4.81252">
        <ele>248.3</ele>
        <time>2018-04-24T11:42:57Z</time>
      </trkpt>
      <trkpt lat="44.38681" lon="4.8124">
        <ele>248.3</ele>
        <time>2018-04-24T11:42:59Z</time>
      </trkpt>
      <trkpt lat="44.38686" lon="4.81228">
        <ele>248.3</ele>
        <time>2018-04-24T11:43:01Z</time>
      </trkpt>
      <trkpt lat="44.3869" lon="4.81216">
        <ele>248.5</ele>
        <time>2018-04-24T11:43:03Z</time>
      </trkpt>
      <trkpt lat="44.38693" lon="4.81203">
        <ele>248.8</ele>
        <time>2018-04-24T11:43:05Z</time>
      </trkpt>
      <trkpt lat="44.38696" lon="4.81191">
        <ele>249.1</ele>
        <time>2018-04-24T11:43:07Z</time>
      </trkpt>
      <trkpt lat="44.38699" lon="4.81178">
        <ele>249.4</ele>
        <time>2018-04-24T11:43:09Z</time>
      </trkpt>
      <trkpt lat="44.38702" lon="4.81165">
        <ele>249.7</ele>
        <time>2018-04-24T11:43:11Z</time>
      </trkpt>
      <trkpt lat="44.38705" lon="4.81153">
        <ele>249.9</ele>
        <time>2018-04-24T11:43:13Z</time>
      </trkpt>
      <trkpt lat="44.38707" lon="4.81141">
        <ele>250.2</ele>
        <time>2018-04-24T11:43:15Z</time>
      </trkpt>
      <trkpt lat="44.38712" lon="4.81124">
        <ele>250.4</ele>
        <time>2018-04-24T11:43:18Z</time>
      </trkpt>
      <trkpt lat="44.38716" lon="4.81112">
        <ele>250.5</ele>
        <time>2018-04-24T11:43:20Z</time>
      </trkpt>
      <trkpt lat="44.38722" lon="4.81097">
        <ele>250.6</ele>
        <time>2018-04-24T11:43:23Z</time>
      </trkpt>
      <trkpt lat="44.38731" lon="4.81091">
        <ele>250.6</ele>
        <time>2018-04-24T11:43:26Z</time>
      </trkpt>
      <trkpt lat="44.38741" lon="4.81096">
        <ele>250.6</ele>
        <time>2018-04-24T11:43:29Z</time>
      </trkpt>
      <trkpt lat="44.38749" lon="4.81104">
        <ele>250.5</ele>
        <time>2018-04-24T11:43:33Z</time>
      </trkpt>
      <trkpt lat="44.38759" lon="4.81106">
        <ele>250.6</ele>
        <time>2018-04-24T11:43:36Z</time>
      </trkpt>
      <trkpt lat="44.38769" lon="4.81109">
        <ele>250.9</ele>
        <time>2018-04-24T11:43:39Z</time>
      </trkpt>
      <trkpt lat="44.38779" lon="4.81113">
        <ele>251.3</ele>
        <time>2018-04-24T11:43:42Z</time>
      </trkpt>
      <trkpt lat="44.38791" lon="4.81115">
        <ele>252.1</ele>
        <time>2018-04-24T11:43:46Z</time>
      </trkpt>
      <trkpt lat="44.388" lon="4.81119">
        <ele>252.7</ele>
        <time>2018-04-24T11:43:49Z</time>
      </trkpt>
      <trkpt lat="44.38811" lon="4.81123">
        <ele>253.4</ele>
        <time>2018-04-24T11:43:52Z</time>
      </trkpt>
      <trkpt lat="44.38819" lon="4.81127">
        <ele>253.8</ele>
        <time>2018-04-24T11:43:54Z</time>
      </trkpt>
      <trkpt lat="44.38829" lon="4.81138">
        <ele>254.3</ele>
        <time>2018-04-24T11:43:57Z</time>
      </trkpt>
      <trkpt lat="44.38838" lon="4.81145">
        <ele>254.5</ele>
        <time>2018-04-24T11:43:59Z</time>
      </trkpt>
      <trkpt lat="44.38849" lon="4.81151">
        <ele>255.1</ele>
        <time>2018-04-24T11:44:02Z</time>
      </trkpt>
      <trkpt lat="44.3886" lon="4.81151">
        <ele>255.8</ele>
        <time>2018-04-24T11:44:05Z</time>
      </trkpt>
      <trkpt lat="44.38868" lon="4.81158">
        <ele>256.7</ele>
        <time>2018-04-24T11:44:08Z</time>
      </trkpt>
      <trkpt lat="44.38873" lon="4.81171">
        <ele>257.7</ele>
        <time>2018-04-24T11:44:12Z</time>
      </trkpt>
      <trkpt lat="44.38879" lon="4.81181">
        <ele>258.8</ele>
        <time>2018-04-24T11:44:16Z</time>
      </trkpt>
      <trkpt lat="44.38889" lon="4.81182">
        <ele>259.4</ele>
        <time>2018-04-24T11:44:19Z</time>
      </trkpt>
      <trkpt lat="44.38899" lon="4.81183">
        <ele>259.8</ele>
        <time>2018-04-24T11:44:22Z</time>
      </trkpt>
      <trkpt lat="44.38906" lon="4.8119">
        <ele>260.3</ele>
        <time>2018-04-24T11:44:25Z</time>
      </trkpt>
      <trkpt lat="44.38916" lon="4.81193">
        <ele>260.6</ele>
        <time>2018-04-24T11:44:28Z</time>
      </trkpt>
      <trkpt lat="44.38925" lon="4.81199">
        <ele>261</ele>
        <time>2018-04-24T11:44:31Z</time>
      </trkpt>
      <trkpt lat="44.3893" lon="4.81211">
        <ele>261.1</ele>
        <time>2018-04-24T11:44:34Z</time>
      </trkpt>
      <trkpt lat="44.38936" lon="4.81225">
        <ele>261.2</ele>
        <time>2018-04-24T11:44:37Z</time>
      </trkpt>
      <trkpt lat="44.38943" lon="4.81238">
        <ele>261.3</ele>
        <time>2018-04-24T11:44:40Z</time>
      </trkpt>
      <trkpt lat="44.3895" lon="4.81252">
        <ele>261.1</ele>
        <time>2018-04-24T11:44:43Z</time>
      </trkpt>
      <trkpt lat="44.38957" lon="4.81265">
        <ele>261.2</ele>
        <time>2018-04-24T11:44:46Z</time>
      </trkpt>
      <trkpt lat="44.38964" lon="4.81275">
        <ele>261</ele>
        <time>2018-04-24T11:44:49Z</time>
      </trkpt>
      <trkpt lat="44.38973" lon="4.81283">
        <ele>261.2</ele>
        <time>2018-04-24T11:44:52Z</time>
      </trkpt>
      <trkpt lat="44.38977" lon="4.81296">
        <ele>261.6</ele>
        <time>2018-04-24T11:44:55Z</time>
      </trkpt>
      <trkpt lat="44.38981" lon="4.81313">
        <ele>262.1</ele>
        <time>2018-04-24T11:44:58Z</time>
      </trkpt>
      <trkpt lat="44.38985" lon="4.81326">
        <ele>262.2</ele>
        <time>2018-04-24T11:45:00Z</time>
      </trkpt>
      <trkpt lat="44.38988" lon="4.81339">
        <ele>262.4</ele>
        <time>2018-04-24T11:45:02Z</time>
      </trkpt>
      <trkpt lat="44.38991" lon="4.81356">
        <ele>262.7</ele>
        <time>2018-04-24T11:45:05Z</time>
      </trkpt>
      <trkpt lat="44.38994" lon="4.81372">
        <ele>263.3</ele>
        <time>2018-04-24T11:45:08Z</time>
      </trkpt>
      <trkpt lat="44.38996" lon="4.81385">
        <ele>263.5</ele>
        <time>2018-04-24T11:45:10Z</time>
      </trkpt>
      <trkpt lat="44.38998" lon="4.81403">
        <ele>263.8</ele>
        <time>2018-04-24T11:45:13Z</time>
      </trkpt>
      <trkpt lat="44.39001" lon="4.81419">
        <ele>264.2</ele>
        <time>2018-04-24T11:45:16Z</time>
      </trkpt>
      <trkpt lat="44.39005" lon="4.81437">
        <ele>264.8</ele>
        <time>2018-04-24T11:45:19Z</time>
      </trkpt>
      <trkpt lat="44.39009" lon="4.81452">
        <ele>265.3</ele>
        <time>2018-04-24T11:45:22Z</time>
      </trkpt>
      <trkpt lat="44.3901" lon="4.81467">
        <ele>265.8</ele>
        <time>2018-04-24T11:45:25Z</time>
      </trkpt>
      <trkpt lat="44.39011" lon="4.81482">
        <ele>266.2</ele>
        <time>2018-04-24T11:45:28Z</time>
      </trkpt>
      <trkpt lat="44.3901" lon="4.81495">
        <ele>266.6</ele>
        <time>2018-04-24T11:45:31Z</time>
      </trkpt>
      <trkpt lat="44.39002" lon="4.81503">
        <ele>267.1</ele>
        <time>2018-04-24T11:45:34Z</time>
      </trkpt>
      <trkpt lat="44.38992" lon="4.81512">
        <ele>267.4</ele>
        <time>2018-04-24T11:45:37Z</time>
      </trkpt>
      <trkpt lat="44.38983" lon="4.81524">
        <ele>267.5</ele>
        <time>2018-04-24T11:45:40Z</time>
      </trkpt>
      <trkpt lat="44.3898" lon="4.81539">
        <ele>267.4</ele>
        <time>2018-04-24T11:45:43Z</time>
      </trkpt>
      <trkpt lat="44.38978" lon="4.81554">
        <ele>267.3</ele>
        <time>2018-04-24T11:45:46Z</time>
      </trkpt>
      <trkpt lat="44.38976" lon="4.81573">
        <ele>267</ele>
        <time>2018-04-24T11:45:49Z</time>
      </trkpt>
      <trkpt lat="44.38973" lon="4.81586">
        <ele>266.7</ele>
        <time>2018-04-24T11:45:51Z</time>
      </trkpt>
      <trkpt lat="44.38968" lon="4.816">
        <ele>266.3</ele>
        <time>2018-04-24T11:45:53Z</time>
      </trkpt>
      <trkpt lat="44.38961" lon="4.81613">
        <ele>265.7</ele>
        <time>2018-04-24T11:45:55Z</time>
      </trkpt>
      <trkpt lat="44.38952" lon="4.81625">
        <ele>265.3</ele>
        <time>2018-04-24T11:45:57Z</time>
      </trkpt>
      <trkpt lat="44.38942" lon="4.81636">
        <ele>265</ele>
        <time>2018-04-24T11:45:59Z</time>
      </trkpt>
      <trkpt lat="44.38931" lon="4.81644">
        <ele>264.3</ele>
        <time>2018-04-24T11:46:01Z</time>
      </trkpt>
      <trkpt lat="44.38918" lon="4.8165">
        <ele>263.7</ele>
        <time>2018-04-24T11:46:03Z</time>
      </trkpt>
      <trkpt lat="44.38908" lon="4.8166">
        <ele>263.3</ele>
        <time>2018-04-24T11:46:05Z</time>
      </trkpt>
      <trkpt lat="44.38904" lon="4.81674">
        <ele>262.7</ele>
        <time>2018-04-24T11:46:07Z</time>
      </trkpt>
      <trkpt lat="44.38903" lon="4.81688">
        <ele>262.3</ele>
        <time>2018-04-24T11:46:09Z</time>
      </trkpt>
      <trkpt lat="44.38902" lon="4.81702">
        <ele>261.9</ele>
        <time>2018-04-24T11:46:11Z</time>
      </trkpt>
      <trkpt lat="44.38896" lon="4.81715">
        <ele>261.8</ele>
        <time>2018-04-24T11:46:14Z</time>
      </trkpt>
      <trkpt lat="44.38887" lon="4.81724">
        <ele>262</ele>
        <time>2018-04-24T11:46:17Z</time>
      </trkpt>
      <trkpt lat="44.38878" lon="4.8173">
        <ele>262.2</ele>
        <time>2018-04-24T11:46:20Z</time>
      </trkpt>
      <trkpt lat="44.38868" lon="4.81734">
        <ele>262.1</ele>
        <time>2018-04-24T11:46:23Z</time>
      </trkpt>
      <trkpt lat="44.38869" lon="4.81748">
        <ele>262.4</ele>
        <time>2018-04-24T11:46:29Z</time>
      </trkpt>
      <trkpt lat="44.3888" lon="4.81752">
        <ele>262.5</ele>
        <time>2018-04-24T11:46:32Z</time>
      </trkpt>
      <trkpt lat="44.3889" lon="4.81755">
        <ele>262.7</ele>
        <time>2018-04-24T11:46:35Z</time>
      </trkpt>
      <trkpt lat="44.38898" lon="4.81762">
        <ele>263.3</ele>
        <time>2018-04-24T11:46:38Z</time>
      </trkpt>
      <trkpt lat="44.38905" lon="4.81775">
        <ele>264.5</ele>
        <time>2018-04-24T11:46:42Z</time>
      </trkpt>
      <trkpt lat="44.38909" lon="4.81788">
        <ele>265.3</ele>
        <time>2018-04-24T11:46:45Z</time>
      </trkpt>
      <trkpt lat="44.38913" lon="4.81801">
        <ele>266.2</ele>
        <time>2018-04-24T11:46:48Z</time>
      </trkpt>
      <trkpt lat="44.38916" lon="4.81815">
        <ele>266.8</ele>
        <time>2018-04-24T11:46:51Z</time>
      </trkpt>
      <trkpt lat="44.38921" lon="4.81828">
        <ele>267.2</ele>
        <time>2018-04-24T11:46:54Z</time>
      </trkpt>
      <trkpt lat="44.38926" lon="4.81842">
        <ele>267.6</ele>
        <time>2018-04-24T11:46:57Z</time>
      </trkpt>
      <trkpt lat="44.38931" lon="4.81855">
        <ele>268</ele>
        <time>2018-04-24T11:47:00Z</time>
      </trkpt>
      <trkpt lat="44.38935" lon="4.81868">
        <ele>268.4</ele>
        <time>2018-04-24T11:47:03Z</time>
      </trkpt>
      <trkpt lat="44.38937" lon="4.81881">
        <ele>268.7</ele>
        <time>2018-04-24T11:47:06Z</time>
      </trkpt>
      <trkpt lat="44.38935" lon="4.81894">
        <ele>269.3</ele>
        <time>2018-04-24T11:47:09Z</time>
      </trkpt>
      <trkpt lat="44.38927" lon="4.81902">
        <ele>269.7</ele>
        <time>2018-04-24T11:47:12Z</time>
      </trkpt>
      <trkpt lat="44.38918" lon="4.81909">
        <ele>270</ele>
        <time>2018-04-24T11:47:15Z</time>
      </trkpt>
      <trkpt lat="44.38911" lon="4.8192">
        <ele>270.3</ele>
        <time>2018-04-24T11:47:18Z</time>
      </trkpt>
      <trkpt lat="44.38907" lon="4.81933">
        <ele>270.9</ele>
        <time>2018-04-24T11:47:21Z</time>
      </trkpt>
      <trkpt lat="44.38904" lon="4.81947">
        <ele>271.3</ele>
        <time>2018-04-24T11:47:24Z</time>
      </trkpt>
      <trkpt lat="44.38902" lon="4.81961">
        <ele>271.7</ele>
        <time>2018-04-24T11:47:27Z</time>
      </trkpt>
      <trkpt lat="44.38901" lon="4.81975">
        <ele>272.1</ele>
        <time>2018-04-24T11:47:30Z</time>
      </trkpt>
      <trkpt lat="44.38902" lon="4.81989">
        <ele>272.5</ele>
        <time>2018-04-24T11:47:33Z</time>
      </trkpt>
      <trkpt lat="44.38902" lon="4.82002">
        <ele>272.7</ele>
        <time>2018-04-24T11:47:36Z</time>
      </trkpt>
      <trkpt lat="44.38904" lon="4.82016">
        <ele>273</ele>
        <time>2018-04-24T11:47:39Z</time>
      </trkpt>
      <trkpt lat="44.38906" lon="4.82029">
        <ele>273.5</ele>
        <time>2018-04-24T11:47:42Z</time>
      </trkpt>
      <trkpt lat="44.38908" lon="4.82044">
        <ele>274.5</ele>
        <time>2018-04-24T11:47:46Z</time>
      </trkpt>
      <trkpt lat="44.38911" lon="4.82059">
        <ele>275.3</ele>
        <time>2018-04-24T11:47:50Z</time>
      </trkpt>
      <trkpt lat="44.38914" lon="4.82073">
        <ele>276.4</ele>
        <time>2018-04-24T11:47:54Z</time>
      </trkpt>
      <trkpt lat="44.38918" lon="4.82085">
        <ele>277.4</ele>
        <time>2018-04-24T11:47:58Z</time>
      </trkpt>
      <trkpt lat="44.38909" lon="4.82087">
        <ele>281</ele>
        <time>2018-04-24T11:48:08Z</time>
      </trkpt>
      <trkpt lat="44.389" lon="4.82077">
        <ele>281.8</ele>
        <time>2018-04-24T11:48:11Z</time>
      </trkpt>
      <trkpt lat="44.38892" lon="4.82066">
        <ele>282.5</ele>
        <time>2018-04-24T11:48:14Z</time>
      </trkpt>
      <trkpt lat="44.38882" lon="4.82057">
        <ele>282.8</ele>
        <time>2018-04-24T11:48:17Z</time>
      </trkpt>
      <trkpt lat="44.3887" lon="4.82052">
        <ele>283</ele>
        <time>2018-04-24T11:48:20Z</time>
      </trkpt>
      <trkpt lat="44.38858" lon="4.82044">
        <ele>283.1</ele>
        <time>2018-04-24T11:48:23Z</time>
      </trkpt>
      <trkpt lat="44.38848" lon="4.82032">
        <ele>283</ele>
        <time>2018-04-24T11:48:26Z</time>
      </trkpt>
      <trkpt lat="44.38843" lon="4.82015">
        <ele>282.8</ele>
        <time>2018-04-24T11:48:29Z</time>
      </trkpt>
      <trkpt lat="44.38833" lon="4.82004">
        <ele>282.6</ele>
        <time>2018-04-24T11:48:32Z</time>
      </trkpt>
      <trkpt lat="44.38824" lon="4.81996">
        <ele>282.4</ele>
        <time>2018-04-24T11:48:34Z</time>
      </trkpt>
      <trkpt lat="44.38815" lon="4.81988">
        <ele>282.2</ele>
        <time>2018-04-24T11:48:36Z</time>
      </trkpt>
      <trkpt lat="44.38808" lon="4.8198">
        <ele>282</ele>
        <time>2018-04-24T11:48:38Z</time>
      </trkpt>
      <trkpt lat="44.38799" lon="4.81975">
        <ele>281.9</ele>
        <time>2018-04-24T11:48:40Z</time>
      </trkpt>
      <trkpt lat="44.3879" lon="4.8197">
        <ele>281.7</ele>
        <time>2018-04-24T11:48:42Z</time>
      </trkpt>
      <trkpt lat="44.38781" lon="4.81964">
        <ele>281.4</ele>
        <time>2018-04-24T11:48:44Z</time>
      </trkpt>
      <trkpt lat="44.3877" lon="4.81958">
        <ele>281.3</ele>
        <time>2018-04-24T11:48:46Z</time>
      </trkpt>
      <trkpt lat="44.38759" lon="4.81955">
        <ele>281.3</ele>
        <time>2018-04-24T11:48:48Z</time>
      </trkpt>
      <trkpt lat="44.38747" lon="4.81953">
        <ele>281</ele>
        <time>2018-04-24T11:48:50Z</time>
      </trkpt>
      <trkpt lat="44.38736" lon="4.81951">
        <ele>280.8</ele>
        <time>2018-04-24T11:48:52Z</time>
      </trkpt>
      <trkpt lat="44.38724" lon="4.81948">
        <ele>280.4</ele>
        <time>2018-04-24T11:48:54Z</time>
      </trkpt>
      <trkpt lat="44.38714" lon="4.81944">
        <ele>280</ele>
        <time>2018-04-24T11:48:56Z</time>
      </trkpt>
      <trkpt lat="44.38702" lon="4.81943">
        <ele>279.8</ele>
        <time>2018-04-24T11:48:58Z</time>
      </trkpt>
      <trkpt lat="44.38691" lon="4.81942">
        <ele>279.5</ele>
        <time>2018-04-24T11:49:00Z</time>
      </trkpt>
      <trkpt lat="44.38679" lon="4.8194">
        <ele>279.2</ele>
        <time>2018-04-24T11:49:02Z</time>
      </trkpt>
      <trkpt lat="44.38667" lon="4.81939">
        <ele>279</ele>
        <time>2018-04-24T11:49:04Z</time>
      </trkpt>
      <trkpt lat="44.38655" lon="4.81937">
        <ele>278.7</ele>
        <time>2018-04-24T11:49:06Z</time>
      </trkpt>
      <trkpt lat="44.38642" lon="4.81937">
        <ele>278.1</ele>
        <time>2018-04-24T11:49:08Z</time>
      </trkpt>
      <trkpt lat="44.38628" lon="4.81941">
        <ele>277.3</ele>
        <time>2018-04-24T11:49:10Z</time>
      </trkpt>
      <trkpt lat="44.38616" lon="4.81942">
        <ele>276.6</ele>
        <time>2018-04-24T11:49:12Z</time>
      </trkpt>
      <trkpt lat="44.38604" lon="4.81947">
        <ele>276</ele>
        <time>2018-04-24T11:49:14Z</time>
      </trkpt>
      <trkpt lat="44.38591" lon="4.81952">
        <ele>275.4</ele>
        <time>2018-04-24T11:49:16Z</time>
      </trkpt>
      <trkpt lat="44.38579" lon="4.8196">
        <ele>274.5</ele>
        <time>2018-04-24T11:49:18Z</time>
      </trkpt>
      <trkpt lat="44.38565" lon="4.81967">
        <ele>273.8</ele>
        <time>2018-04-24T11:49:20Z</time>
      </trkpt>
      <trkpt lat="44.38553" lon="4.81974">
        <ele>272.9</ele>
        <time>2018-04-24T11:49:22Z</time>
      </trkpt>
      <trkpt lat="44.3854" lon="4.81979">
        <ele>272.2</ele>
        <time>2018-04-24T11:49:24Z</time>
      </trkpt>
      <trkpt lat="44.38527" lon="4.81981">
        <ele>271.7</ele>
        <time>2018-04-24T11:49:26Z</time>
      </trkpt>
      <trkpt lat="44.38514" lon="4.81982">
        <ele>271.2</ele>
        <time>2018-04-24T11:49:28Z</time>
      </trkpt>
      <trkpt lat="44.38503" lon="4.81982">
        <ele>270.9</ele>
        <time>2018-04-24T11:49:30Z</time>
      </trkpt>
      <trkpt lat="44.38494" lon="4.81985">
        <ele>270.8</ele>
        <time>2018-04-24T11:49:32Z</time>
      </trkpt>
      <trkpt lat="44.38485" lon="4.8199">
        <ele>270.8</ele>
        <time>2018-04-24T11:49:34Z</time>
      </trkpt>
      <trkpt lat="44.38475" lon="4.82">
        <ele>270.9</ele>
        <time>2018-04-24T11:49:37Z</time>
      </trkpt>
      <trkpt lat="44.38465" lon="4.82007">
        <ele>271.3</ele>
        <time>2018-04-24T11:49:40Z</time>
      </trkpt>
      <trkpt lat="44.38454" lon="4.82012">
        <ele>271.9</ele>
        <time>2018-04-24T11:49:43Z</time>
      </trkpt>
      <trkpt lat="44.38445" lon="4.82019">
        <ele>272.4</ele>
        <time>2018-04-24T11:49:46Z</time>
      </trkpt>
      <trkpt lat="44.38434" lon="4.82025">
        <ele>272.8</ele>
        <time>2018-04-24T11:49:49Z</time>
      </trkpt>
      <trkpt lat="44.38424" lon="4.82034">
        <ele>273.2</ele>
        <time>2018-04-24T11:49:52Z</time>
      </trkpt>
      <trkpt lat="44.38416" lon="4.82044">
        <ele>273.9</ele>
        <time>2018-04-24T11:49:55Z</time>
      </trkpt>
      <trkpt lat="44.38409" lon="4.82054">
        <ele>274.4</ele>
        <time>2018-04-24T11:49:58Z</time>
      </trkpt>
      <trkpt lat="44.38403" lon="4.82064">
        <ele>275.1</ele>
        <time>2018-04-24T11:50:01Z</time>
      </trkpt>
      <trkpt lat="44.38399" lon="4.82075">
        <ele>275.8</ele>
        <time>2018-04-24T11:50:04Z</time>
      </trkpt>
      <trkpt lat="44.38393" lon="4.82085">
        <ele>276.5</ele>
        <time>2018-04-24T11:50:07Z</time>
      </trkpt>
      <trkpt lat="44.38385" lon="4.82097">
        <ele>277.7</ele>
        <time>2018-04-24T11:50:11Z</time>
      </trkpt>
      <trkpt lat="44.3838" lon="4.8211">
        <ele>279.3</ele>
        <time>2018-04-24T11:50:15Z</time>
      </trkpt>
      <trkpt lat="44.38377" lon="4.82125">
        <ele>280.4</ele>
        <time>2018-04-24T11:50:19Z</time>
      </trkpt>
      <trkpt lat="44.38376" lon="4.82138">
        <ele>281.1</ele>
        <time>2018-04-24T11:50:22Z</time>
      </trkpt>
      <trkpt lat="44.38376" lon="4.82151">
        <ele>281.8</ele>
        <time>2018-04-24T11:50:25Z</time>
      </trkpt>
      <trkpt lat="44.38376" lon="4.82165">
        <ele>282.3</ele>
        <time>2018-04-24T11:50:28Z</time>
      </trkpt>
      <trkpt lat="44.38378" lon="4.82178">
        <ele>282.4</ele>
        <time>2018-04-24T11:50:31Z</time>
      </trkpt>
      <trkpt lat="44.38386" lon="4.82189">
        <ele>282.5</ele>
        <time>2018-04-24T11:50:35Z</time>
      </trkpt>
      <trkpt lat="44.38396" lon="4.82192">
        <ele>283.1</ele>
        <time>2018-04-24T11:50:38Z</time>
      </trkpt>
      <trkpt lat="44.38406" lon="4.82194">
        <ele>283.6</ele>
        <time>2018-04-24T11:50:41Z</time>
      </trkpt>
      <trkpt lat="44.38416" lon="4.82196">
        <ele>284.3</ele>
        <time>2018-04-24T11:50:44Z</time>
      </trkpt>
      <trkpt lat="44.38426" lon="4.82197">
        <ele>285.3</ele>
        <time>2018-04-24T11:50:47Z</time>
      </trkpt>
      <trkpt lat="44.38435" lon="4.82199">
        <ele>286</ele>
        <time>2018-04-24T11:50:50Z</time>
      </trkpt>
      <trkpt lat="44.38444" lon="4.822">
        <ele>286.9</ele>
        <time>2018-04-24T11:50:53Z</time>
      </trkpt>
      <trkpt lat="44.38453" lon="4.82194">
        <ele>287.7</ele>
        <time>2018-04-24T11:50:56Z</time>
      </trkpt>
      <trkpt lat="44.3846" lon="4.82185">
        <ele>288.3</ele>
        <time>2018-04-24T11:50:59Z</time>
      </trkpt>
      <trkpt lat="44.38465" lon="4.82174">
        <ele>288.9</ele>
        <time>2018-04-24T11:51:02Z</time>
      </trkpt>
      <trkpt lat="44.38471" lon="4.82163">
        <ele>289.4</ele>
        <time>2018-04-24T11:51:05Z</time>
      </trkpt>
      <trkpt lat="44.38481" lon="4.82155">
        <ele>290</ele>
        <time>2018-04-24T11:51:09Z</time>
      </trkpt>
      <trkpt lat="44.38491" lon="4.82155">
        <ele>290.3</ele>
        <time>2018-04-24T11:51:13Z</time>
      </trkpt>
      <trkpt lat="44.385" lon="4.82154">
        <ele>290.5</ele>
        <time>2018-04-24T11:51:17Z</time>
      </trkpt>
      <trkpt lat="44.3851" lon="4.82155">
        <ele>291.4</ele>
        <time>2018-04-24T11:51:21Z</time>
      </trkpt>
      <trkpt lat="44.38519" lon="4.82154">
        <ele>292.4</ele>
        <time>2018-04-24T11:51:25Z</time>
      </trkpt>
      <trkpt lat="44.38529" lon="4.82154">
        <ele>293.5</ele>
        <time>2018-04-24T11:51:29Z</time>
      </trkpt>
      <trkpt lat="44.38539" lon="4.82155">
        <ele>294.5</ele>
        <time>2018-04-24T11:51:33Z</time>
      </trkpt>
      <trkpt lat="44.38549" lon="4.82155">
        <ele>295.9</ele>
        <time>2018-04-24T11:51:37Z</time>
      </trkpt>
      <trkpt lat="44.38558" lon="4.82156">
        <ele>297.2</ele>
        <time>2018-04-24T11:51:41Z</time>
      </trkpt>
      <trkpt lat="44.38567" lon="4.82158">
        <ele>298.7</ele>
        <time>2018-04-24T11:51:45Z</time>
      </trkpt>
      <trkpt lat="44.38578" lon="4.8216">
        <ele>299.8</ele>
        <time>2018-04-24T11:51:49Z</time>
      </trkpt>
      <trkpt lat="44.3859" lon="4.82164">
        <ele>300.2</ele>
        <time>2018-04-24T11:51:53Z</time>
      </trkpt>
      <trkpt lat="44.38599" lon="4.82168">
        <ele>300.1</ele>
        <time>2018-04-24T11:51:56Z</time>
      </trkpt>
      <trkpt lat="44.3861" lon="4.82172">
        <ele>300.3</ele>
        <time>2018-04-24T11:51:59Z</time>
      </trkpt>
      <trkpt lat="44.38621" lon="4.82175">
        <ele>300.5</ele>
        <time>2018-04-24T11:52:02Z</time>
      </trkpt>
      <trkpt lat="44.3863" lon="4.82179">
        <ele>300.5</ele>
        <time>2018-04-24T11:52:05Z</time>
      </trkpt>
      <trkpt lat="44.3864" lon="4.82181">
        <ele>300.7</ele>
        <time>2018-04-24T11:52:08Z</time>
      </trkpt>
      <trkpt lat="44.38651" lon="4.82184">
        <ele>301</ele>
        <time>2018-04-24T11:52:12Z</time>
      </trkpt>
      <trkpt lat="44.38662" lon="4.82188">
        <ele>301.8</ele>
        <time>2018-04-24T11:52:16Z</time>
      </trkpt>
      <trkpt lat="44.38673" lon="4.82193">
        <ele>302.4</ele>
        <time>2018-04-24T11:52:20Z</time>
      </trkpt>
      <trkpt lat="44.38684" lon="4.82195">
        <ele>303.3</ele>
        <time>2018-04-24T11:52:24Z</time>
      </trkpt>
      <trkpt lat="44.38695" lon="4.82192">
        <ele>304.7</ele>
        <time>2018-04-24T11:52:28Z</time>
      </trkpt>
      <trkpt lat="44.38704" lon="4.82186">
        <ele>305.2</ele>
        <time>2018-04-24T11:52:31Z</time>
      </trkpt>
      <trkpt lat="44.38712" lon="4.82178">
        <ele>305.5</ele>
        <time>2018-04-24T11:52:34Z</time>
      </trkpt>
      <trkpt lat="44.3872" lon="4.82169">
        <ele>305.8</ele>
        <time>2018-04-24T11:52:37Z</time>
      </trkpt>
      <trkpt lat="44.38727" lon="4.82161">
        <ele>305.7</ele>
        <time>2018-04-24T11:52:40Z</time>
      </trkpt>
      <trkpt lat="44.38735" lon="4.82155">
        <ele>305.7</ele>
        <time>2018-04-24T11:52:43Z</time>
      </trkpt>
      <trkpt lat="44.38744" lon="4.82152">
        <ele>305.7</ele>
        <time>2018-04-24T11:52:46Z</time>
      </trkpt>
      <trkpt lat="44.38756" lon="4.82153">
        <ele>306</ele>
        <time>2018-04-24T11:52:50Z</time>
      </trkpt>
      <trkpt lat="44.38765" lon="4.82153">
        <ele>306.2</ele>
        <time>2018-04-24T11:52:53Z</time>
      </trkpt>
      <trkpt lat="44.38775" lon="4.82154">
        <ele>306.5</ele>
        <time>2018-04-24T11:52:56Z</time>
      </trkpt>
      <trkpt lat="44.38786" lon="4.82154">
        <ele>306.7</ele>
        <time>2018-04-24T11:52:59Z</time>
      </trkpt>
      <trkpt lat="44.38796" lon="4.82155">
        <ele>307</ele>
        <time>2018-04-24T11:53:02Z</time>
      </trkpt>
      <trkpt lat="44.38807" lon="4.82154">
        <ele>307.1</ele>
        <time>2018-04-24T11:53:05Z</time>
      </trkpt>
      <trkpt lat="44.38819" lon="4.82154">
        <ele>307.3</ele>
        <time>2018-04-24T11:53:08Z</time>
      </trkpt>
      <trkpt lat="44.38828" lon="4.82153">
        <ele>307.4</ele>
        <time>2018-04-24T11:53:10Z</time>
      </trkpt>
      <trkpt lat="44.38838" lon="4.82154">
        <ele>307.4</ele>
        <time>2018-04-24T11:53:12Z</time>
      </trkpt>
      <trkpt lat="44.38847" lon="4.82158">
        <ele>307.1</ele>
        <time>2018-04-24T11:53:14Z</time>
      </trkpt>
      <trkpt lat="44.38856" lon="4.82164">
        <ele>306.8</ele>
        <time>2018-04-24T11:53:16Z</time>
      </trkpt>
      <trkpt lat="44.38863" lon="4.82171">
        <ele>306.7</ele>
        <time>2018-04-24T11:53:18Z</time>
      </trkpt>
      <trkpt lat="44.38874" lon="4.82181">
        <ele>306.4</ele>
        <time>2018-04-24T11:53:21Z</time>
      </trkpt>
      <trkpt lat="44.38883" lon="4.82186">
        <ele>306.6</ele>
        <time>2018-04-24T11:53:23Z</time>
      </trkpt>
      <trkpt lat="44.38892" lon="4.82192">
        <ele>306.5</ele>
        <time>2018-04-24T11:53:25Z</time>
      </trkpt>
      <trkpt lat="44.38902" lon="4.82199">
        <ele>306.4</ele>
        <time>2018-04-24T11:53:27Z</time>
      </trkpt>
      <trkpt lat="44.38912" lon="4.82206">
        <ele>306.4</ele>
        <time>2018-04-24T11:53:29Z</time>
      </trkpt>
      <trkpt lat="44.38921" lon="4.82214">
        <ele>306.3</ele>
        <time>2018-04-24T11:53:31Z</time>
      </trkpt>
      <trkpt lat="44.38931" lon="4.82222">
        <ele>306.1</ele>
        <time>2018-04-24T11:53:33Z</time>
      </trkpt>
      <trkpt lat="44.3894" lon="4.8223">
        <ele>306</ele>
        <time>2018-04-24T11:53:35Z</time>
      </trkpt>
      <trkpt lat="44.3895" lon="4.82237">
        <ele>305.8</ele>
        <time>2018-04-24T11:53:37Z</time>
      </trkpt>
      <trkpt lat="44.38961" lon="4.82245">
        <ele>305.7</ele>
        <time>2018-04-24T11:53:39Z</time>
      </trkpt>
      <trkpt lat="44.38971" lon="4.82251">
        <ele>305.8</ele>
        <time>2018-04-24T11:53:41Z</time>
      </trkpt>
      <trkpt lat="44.38982" lon="4.82258">
        <ele>305.8</ele>
        <time>2018-04-24T11:53:43Z</time>
      </trkpt>
      <trkpt lat="44.38991" lon="4.82265">
        <ele>305.4</ele>
        <time>2018-04-24T11:53:45Z</time>
      </trkpt>
      <trkpt lat="44.39" lon="4.82272">
        <ele>305.5</ele>
        <time>2018-04-24T11:53:47Z</time>
      </trkpt>
      <trkpt lat="44.39008" lon="4.82281">
        <ele>305.6</ele>
        <time>2018-04-24T11:53:49Z</time>
      </trkpt>
      <trkpt lat="44.39015" lon="4.82289">
        <ele>305.6</ele>
        <time>2018-04-24T11:53:51Z</time>
      </trkpt>
      <trkpt lat="44.3902" lon="4.82306">
        <ele>305.6</ele>
        <time>2018-04-24T11:53:54Z</time>
      </trkpt>
      <trkpt lat="44.39019" lon="4.82318">
        <ele>305.8</ele>
        <time>2018-04-24T11:53:56Z</time>
      </trkpt>
      <trkpt lat="44.39017" lon="4.82331">
        <ele>306</ele>
        <time>2018-04-24T11:53:58Z</time>
      </trkpt>
      <trkpt lat="44.39014" lon="4.82345">
        <ele>306.2</ele>
        <time>2018-04-24T11:54:00Z</time>
      </trkpt>
      <trkpt lat="44.39011" lon="4.82359">
        <ele>306.4</ele>
        <time>2018-04-24T11:54:02Z</time>
      </trkpt>
      <trkpt lat="44.39007" lon="4.82374">
        <ele>306.4</ele>
        <time>2018-04-24T11:54:04Z</time>
      </trkpt>
      <trkpt lat="44.39004" lon="4.82387">
        <ele>306</ele>
        <time>2018-04-24T11:54:06Z</time>
      </trkpt>
      <trkpt lat="44.38999" lon="4.82399">
        <ele>305.8</ele>
        <time>2018-04-24T11:54:08Z</time>
      </trkpt>
      <trkpt lat="44.38993" lon="4.82409">
        <ele>305.8</ele>
        <time>2018-04-24T11:54:10Z</time>
      </trkpt>
      <trkpt lat="44.38986" lon="4.82419">
        <ele>305.9</ele>
        <time>2018-04-24T11:54:12Z</time>
      </trkpt>
      <trkpt lat="44.38979" lon="4.82429">
        <ele>306.3</ele>
        <time>2018-04-24T11:54:14Z</time>
      </trkpt>
      <trkpt lat="44.38973" lon="4.8244">
        <ele>306.5</ele>
        <time>2018-04-24T11:54:16Z</time>
      </trkpt>
      <trkpt lat="44.38966" lon="4.82451">
        <ele>306.4</ele>
        <time>2018-04-24T11:54:18Z</time>
      </trkpt>
      <trkpt lat="44.38961" lon="4.82465">
        <ele>306</ele>
        <time>2018-04-24T11:54:20Z</time>
      </trkpt>
      <trkpt lat="44.38954" lon="4.8248">
        <ele>305.8</ele>
        <time>2018-04-24T11:54:22Z</time>
      </trkpt>
      <trkpt lat="44.38947" lon="4.82495">
        <ele>304.9</ele>
        <time>2018-04-24T11:54:24Z</time>
      </trkpt>
      <trkpt lat="44.3894" lon="4.8251">
        <ele>304.8</ele>
        <time>2018-04-24T11:54:26Z</time>
      </trkpt>
      <trkpt lat="44.38937" lon="4.82531">
        <ele>304.4</ele>
        <time>2018-04-24T11:54:28Z</time>
      </trkpt>
      <trkpt lat="44.38931" lon="4.8255">
        <ele>303.6</ele>
        <time>2018-04-24T11:54:30Z</time>
      </trkpt>
      <trkpt lat="44.38926" lon="4.82569">
        <ele>303</ele>
        <time>2018-04-24T11:54:32Z</time>
      </trkpt>
      <trkpt lat="44.38924" lon="4.82588">
        <ele>302.1</ele>
        <time>2018-04-24T11:54:34Z</time>
      </trkpt>
      <trkpt lat="44.38924" lon="4.82609">
        <ele>301.7</ele>
        <time>2018-04-24T11:54:36Z</time>
      </trkpt>
      <trkpt lat="44.38922" lon="4.82629">
        <ele>300.7</ele>
        <time>2018-04-24T11:54:38Z</time>
      </trkpt>
      <trkpt lat="44.38919" lon="4.8265">
        <ele>300.2</ele>
        <time>2018-04-24T11:54:40Z</time>
      </trkpt>
      <trkpt lat="44.38917" lon="4.8267">
        <ele>299.6</ele>
        <time>2018-04-24T11:54:42Z</time>
      </trkpt>
      <trkpt lat="44.38914" lon="4.82689">
        <ele>298.9</ele>
        <time>2018-04-24T11:54:44Z</time>
      </trkpt>
      <trkpt lat="44.38912" lon="4.82708">
        <ele>298.6</ele>
        <time>2018-04-24T11:54:46Z</time>
      </trkpt>
      <trkpt lat="44.38912" lon="4.82726">
        <ele>298.6</ele>
        <time>2018-04-24T11:54:48Z</time>
      </trkpt>
      <trkpt lat="44.38911" lon="4.82744">
        <ele>298.6</ele>
        <time>2018-04-24T11:54:50Z</time>
      </trkpt>
      <trkpt lat="44.38911" lon="4.82764">
        <ele>298.4</ele>
        <time>2018-04-24T11:54:52Z</time>
      </trkpt>
      <trkpt lat="44.38909" lon="4.82785">
        <ele>298.2</ele>
        <time>2018-04-24T11:54:54Z</time>
      </trkpt>
      <trkpt lat="44.38908" lon="4.82805">
        <ele>297.8</ele>
        <time>2018-04-24T11:54:56Z</time>
      </trkpt>
      <trkpt lat="44.38907" lon="4.82823">
        <ele>297.3</ele>
        <time>2018-04-24T11:54:58Z</time>
      </trkpt>
      <trkpt lat="44.38912" lon="4.82841">
        <ele>297</ele>
        <time>2018-04-24T11:55:00Z</time>
      </trkpt>
      <trkpt lat="44.3892" lon="4.82855">
        <ele>296.5</ele>
        <time>2018-04-24T11:55:02Z</time>
      </trkpt>
      <trkpt lat="44.38926" lon="4.82871">
        <ele>296</ele>
        <time>2018-04-24T11:55:04Z</time>
      </trkpt>
      <trkpt lat="44.38929" lon="4.8289">
        <ele>295.6</ele>
        <time>2018-04-24T11:55:06Z</time>
      </trkpt>
      <trkpt lat="44.38931" lon="4.82907">
        <ele>295.1</ele>
        <time>2018-04-24T11:55:08Z</time>
      </trkpt>
      <trkpt lat="44.38937" lon="4.82925">
        <ele>294.4</ele>
        <time>2018-04-24T11:55:10Z</time>
      </trkpt>
      <trkpt lat="44.38944" lon="4.82941">
        <ele>293.7</ele>
        <time>2018-04-24T11:55:12Z</time>
      </trkpt>
      <trkpt lat="44.3895" lon="4.82959">
        <ele>293.3</ele>
        <time>2018-04-24T11:55:14Z</time>
      </trkpt>
      <trkpt lat="44.38955" lon="4.82978">
        <ele>292.8</ele>
        <time>2018-04-24T11:55:16Z</time>
      </trkpt>
      <trkpt lat="44.38961" lon="4.82995">
        <ele>292.2</ele>
        <time>2018-04-24T11:55:18Z</time>
      </trkpt>
      <trkpt lat="44.38967" lon="4.83012">
        <ele>291.6</ele>
        <time>2018-04-24T11:55:20Z</time>
      </trkpt>
      <trkpt lat="44.38973" lon="4.83029">
        <ele>291.2</ele>
        <time>2018-04-24T11:55:22Z</time>
      </trkpt>
      <trkpt lat="44.38978" lon="4.83046">
        <ele>290.6</ele>
        <time>2018-04-24T11:55:24Z</time>
      </trkpt>
      <trkpt lat="44.38984" lon="4.83063">
        <ele>290.5</ele>
        <time>2018-04-24T11:55:26Z</time>
      </trkpt>
      <trkpt lat="44.38989" lon="4.83079">
        <ele>290.6</ele>
        <time>2018-04-24T11:55:28Z</time>
      </trkpt>
      <trkpt lat="44.38993" lon="4.83092">
        <ele>290.4</ele>
        <time>2018-04-24T11:55:30Z</time>
      </trkpt>
      <trkpt lat="44.38984" lon="4.831">
        <ele>290.6</ele>
        <time>2018-04-24T11:55:35Z</time>
      </trkpt>
      <trkpt lat="44.38972" lon="4.83101">
        <ele>291.3</ele>
        <time>2018-04-24T11:55:38Z</time>
      </trkpt>
      <trkpt lat="44.38959" lon="4.83103">
        <ele>291.6</ele>
        <time>2018-04-24T11:55:41Z</time>
      </trkpt>
      <trkpt lat="44.38949" lon="4.83103">
        <ele>291.9</ele>
        <time>2018-04-24T11:55:43Z</time>
      </trkpt>
      <trkpt lat="44.38936" lon="4.83101">
        <ele>292</ele>
        <time>2018-04-24T11:55:46Z</time>
      </trkpt>
      <trkpt lat="44.38928" lon="4.83114">
        <ele>291.8</ele>
        <time>2018-04-24T11:55:49Z</time>
      </trkpt>
      <trkpt lat="44.38925" lon="4.83126">
        <ele>291.5</ele>
        <time>2018-04-24T11:55:51Z</time>
      </trkpt>
      <trkpt lat="44.3892" lon="4.83139">
        <ele>291.6</ele>
        <time>2018-04-24T11:55:53Z</time>
      </trkpt>
      <trkpt lat="44.38915" lon="4.83152">
        <ele>291.7</ele>
        <time>2018-04-24T11:55:55Z</time>
      </trkpt>
      <trkpt lat="44.38911" lon="4.83164">
        <ele>291.8</ele>
        <time>2018-04-24T11:55:57Z</time>
      </trkpt>
      <trkpt lat="44.38909" lon="4.8318">
        <ele>291.7</ele>
        <time>2018-04-24T11:55:59Z</time>
      </trkpt>
      <trkpt lat="44.38905" lon="4.83194">
        <ele>291.5</ele>
        <time>2018-04-24T11:56:01Z</time>
      </trkpt>
      <trkpt lat="44.38901" lon="4.83206">
        <ele>291.7</ele>
        <time>2018-04-24T11:56:03Z</time>
      </trkpt>
      <trkpt lat="44.389" lon="4.83222">
        <ele>291.3</ele>
        <time>2018-04-24T11:56:05Z</time>
      </trkpt>
      <trkpt lat="44.38895" lon="4.83238">
        <ele>290.8</ele>
        <time>2018-04-24T11:56:07Z</time>
      </trkpt>
      <trkpt lat="44.38889" lon="4.8325">
        <ele>290.4</ele>
        <time>2018-04-24T11:56:09Z</time>
      </trkpt>
      <trkpt lat="44.38882" lon="4.83264">
        <ele>290</ele>
        <time>2018-04-24T11:56:11Z</time>
      </trkpt>
      <trkpt lat="44.38875" lon="4.83278">
        <ele>289.6</ele>
        <time>2018-04-24T11:56:13Z</time>
      </trkpt>
      <trkpt lat="44.38867" lon="4.83285">
        <ele>289.4</ele>
        <time>2018-04-24T11:56:15Z</time>
      </trkpt>
      <trkpt lat="44.3886" lon="4.83297">
        <ele>288.8</ele>
        <time>2018-04-24T11:56:17Z</time>
      </trkpt>
      <trkpt lat="44.38853" lon="4.83308">
        <ele>288.7</ele>
        <time>2018-04-24T11:56:19Z</time>
      </trkpt>
      <trkpt lat="44.38844" lon="4.83309">
        <ele>288.1</ele>
        <time>2018-04-24T11:56:24Z</time>
      </trkpt>
      <trkpt lat="44.38839" lon="4.83294">
        <ele>287.8</ele>
        <time>2018-04-24T11:56:27Z</time>
      </trkpt>
      <trkpt lat="44.38826" lon="4.8329">
        <ele>287.6</ele>
        <time>2018-04-24T11:56:30Z</time>
      </trkpt>
      <trkpt lat="44.38816" lon="4.83295">
        <ele>287.5</ele>
        <time>2018-04-24T11:56:32Z</time>
      </trkpt>
      <trkpt lat="44.38806" lon="4.83303">
        <ele>287.4</ele>
        <time>2018-04-24T11:56:34Z</time>
      </trkpt>
      <trkpt lat="44.38795" lon="4.83312">
        <ele>287.2</ele>
        <time>2018-04-24T11:56:36Z</time>
      </trkpt>
      <trkpt lat="44.38785" lon="4.83318">
        <ele>287</ele>
        <time>2018-04-24T11:56:38Z</time>
      </trkpt>
      <trkpt lat="44.38773" lon="4.83325">
        <ele>286.5</ele>
        <time>2018-04-24T11:56:41Z</time>
      </trkpt>
      <trkpt lat="44.38764" lon="4.83331">
        <ele>286</ele>
        <time>2018-04-24T11:56:43Z</time>
      </trkpt>
      <trkpt lat="44.38753" lon="4.83334">
        <ele>285.8</ele>
        <time>2018-04-24T11:56:45Z</time>
      </trkpt>
      <trkpt lat="44.38745" lon="4.83327">
        <ele>285.5</ele>
        <time>2018-04-24T11:56:47Z</time>
      </trkpt>
      <trkpt lat="44.38739" lon="4.83314">
        <ele>285.2</ele>
        <time>2018-04-24T11:56:49Z</time>
      </trkpt>
      <trkpt lat="44.38732" lon="4.83302">
        <ele>284.8</ele>
        <time>2018-04-24T11:56:51Z</time>
      </trkpt>
      <trkpt lat="44.38726" lon="4.8329">
        <ele>284.7</ele>
        <time>2018-04-24T11:56:53Z</time>
      </trkpt>
      <trkpt lat="44.38719" lon="4.83277">
        <ele>284.9</ele>
        <time>2018-04-24T11:56:55Z</time>
      </trkpt>
      <trkpt lat="44.38712" lon="4.83263">
        <ele>284.9</ele>
        <time>2018-04-24T11:56:57Z</time>
      </trkpt>
      <trkpt lat="44.38707" lon="4.8325">
        <ele>284.9</ele>
        <time>2018-04-24T11:56:59Z</time>
      </trkpt>
      <trkpt lat="44.387" lon="4.83236">
        <ele>285.1</ele>
        <time>2018-04-24T11:57:01Z</time>
      </trkpt>
      <trkpt lat="44.38694" lon="4.83223">
        <ele>285.2</ele>
        <time>2018-04-24T11:57:03Z</time>
      </trkpt>
      <trkpt lat="44.38688" lon="4.83209">
        <ele>285.4</ele>
        <time>2018-04-24T11:57:05Z</time>
      </trkpt>
      <trkpt lat="44.38682" lon="4.83196">
        <ele>285.7</ele>
        <time>2018-04-24T11:57:07Z</time>
      </trkpt>
      <trkpt lat="44.38675" lon="4.83185">
        <ele>285.9</ele>
        <time>2018-04-24T11:57:09Z</time>
      </trkpt>
      <trkpt lat="44.38671" lon="4.83173">
        <ele>286.1</ele>
        <time>2018-04-24T11:57:11Z</time>
      </trkpt>
      <trkpt lat="44.38666" lon="4.8316">
        <ele>286.2</ele>
        <time>2018-04-24T11:57:13Z</time>
      </trkpt>
      <trkpt lat="44.3866" lon="4.83147">
        <ele>286.3</ele>
        <time>2018-04-24T11:57:15Z</time>
      </trkpt>
      <trkpt lat="44.38652" lon="4.83138">
        <ele>286.3</ele>
        <time>2018-04-24T11:57:17Z</time>
      </trkpt>
      <trkpt lat="44.3864" lon="4.83134">
        <ele>286.2</ele>
        <time>2018-04-24T11:57:19Z</time>
      </trkpt>
      <trkpt lat="44.38627" lon="4.8313">
        <ele>286</ele>
        <time>2018-04-24T11:57:21Z</time>
      </trkpt>
      <trkpt lat="44.38615" lon="4.83121">
        <ele>285.9</ele>
        <time>2018-04-24T11:57:23Z</time>
      </trkpt>
      <trkpt lat="44.38603" lon="4.83112">
        <ele>285.7</ele>
        <time>2018-04-24T11:57:25Z</time>
      </trkpt>
      <trkpt lat="44.38594" lon="4.83106">
        <ele>285</ele>
        <time>2018-04-24T11:57:27Z</time>
      </trkpt>
      <trkpt lat="44.38581" lon="4.83097">
        <ele>283.7</ele>
        <time>2018-04-24T11:57:30Z</time>
      </trkpt>
      <trkpt lat="44.38574" lon="4.83091">
        <ele>282.9</ele>
        <time>2018-04-24T11:57:32Z</time>
      </trkpt>
      <trkpt lat="44.38561" lon="4.83083">
        <ele>281.8</ele>
        <time>2018-04-24T11:57:35Z</time>
      </trkpt>
      <trkpt lat="44.3855" lon="4.83078">
        <ele>280.9</ele>
        <time>2018-04-24T11:57:37Z</time>
      </trkpt>
      <trkpt lat="44.38539" lon="4.83074">
        <ele>280.1</ele>
        <time>2018-04-24T11:57:39Z</time>
      </trkpt>
      <trkpt lat="44.3853" lon="4.83071">
        <ele>279.2</ele>
        <time>2018-04-24T11:57:41Z</time>
      </trkpt>
      <trkpt lat="44.38518" lon="4.83065">
        <ele>278.5</ele>
        <time>2018-04-24T11:57:43Z</time>
      </trkpt>
      <trkpt lat="44.38508" lon="4.83053">
        <ele>277.7</ele>
        <time>2018-04-24T11:57:45Z</time>
      </trkpt>
      <trkpt lat="44.38498" lon="4.83044">
        <ele>277.2</ele>
        <time>2018-04-24T11:57:47Z</time>
      </trkpt>
      <trkpt lat="44.38486" lon="4.83032">
        <ele>276.3</ele>
        <time>2018-04-24T11:57:50Z</time>
      </trkpt>
      <trkpt lat="44.38477" lon="4.83025">
        <ele>275.7</ele>
        <time>2018-04-24T11:57:52Z</time>
      </trkpt>
      <trkpt lat="44.38464" lon="4.83015">
        <ele>275.2</ele>
        <time>2018-04-24T11:57:54Z</time>
      </trkpt>
      <trkpt lat="44.38451" lon="4.83008">
        <ele>274.8</ele>
        <time>2018-04-24T11:57:56Z</time>
      </trkpt>
      <trkpt lat="44.38437" lon="4.83004">
        <ele>274.6</ele>
        <time>2018-04-24T11:57:58Z</time>
      </trkpt>
      <trkpt lat="44.38424" lon="4.82997">
        <ele>274.3</ele>
        <time>2018-04-24T11:58:00Z</time>
      </trkpt>
      <trkpt lat="44.38412" lon="4.82986">
        <ele>274</ele>
        <time>2018-04-24T11:58:02Z</time>
      </trkpt>
      <trkpt lat="44.384" lon="4.82972">
        <ele>273.7</ele>
        <time>2018-04-24T11:58:04Z</time>
      </trkpt>
      <trkpt lat="44.38389" lon="4.8296">
        <ele>273.3</ele>
        <time>2018-04-24T11:58:06Z</time>
      </trkpt>
      <trkpt lat="44.38379" lon="4.82949">
        <ele>273.1</ele>
        <time>2018-04-24T11:58:08Z</time>
      </trkpt>
      <trkpt lat="44.38369" lon="4.82938">
        <ele>272.9</ele>
        <time>2018-04-24T11:58:10Z</time>
      </trkpt>
      <trkpt lat="44.3836" lon="4.82927">
        <ele>272.7</ele>
        <time>2018-04-24T11:58:12Z</time>
      </trkpt>
      <trkpt lat="44.38351" lon="4.82917">
        <ele>272.6</ele>
        <time>2018-04-24T11:58:14Z</time>
      </trkpt>
      <trkpt lat="44.38342" lon="4.82907">
        <ele>272.4</ele>
        <time>2018-04-24T11:58:16Z</time>
      </trkpt>
      <trkpt lat="44.38333" lon="4.82897">
        <ele>272.4</ele>
        <time>2018-04-24T11:58:18Z</time>
      </trkpt>
      <trkpt lat="44.38325" lon="4.82888">
        <ele>272.2</ele>
        <time>2018-04-24T11:58:20Z</time>
      </trkpt>
      <trkpt lat="44.38317" lon="4.82877">
        <ele>272.1</ele>
        <time>2018-04-24T11:58:22Z</time>
      </trkpt>
      <trkpt lat="44.38309" lon="4.82867">
        <ele>271.9</ele>
        <time>2018-04-24T11:58:24Z</time>
      </trkpt>
      <trkpt lat="44.38302" lon="4.82855">
        <ele>272</ele>
        <time>2018-04-24T11:58:26Z</time>
      </trkpt>
      <trkpt lat="44.38295" lon="4.82844">
        <ele>272.2</ele>
        <time>2018-04-24T11:58:28Z</time>
      </trkpt>
      <trkpt lat="44.3829" lon="4.82832">
        <ele>272.5</ele>
        <time>2018-04-24T11:58:30Z</time>
      </trkpt>
      <trkpt lat="44.38285" lon="4.82821">
        <ele>272.9</ele>
        <time>2018-04-24T11:58:32Z</time>
      </trkpt>
      <trkpt lat="44.3828" lon="4.82809">
        <ele>273.1</ele>
        <time>2018-04-24T11:58:34Z</time>
      </trkpt>
      <trkpt lat="44.38273" lon="4.82794">
        <ele>273.7</ele>
        <time>2018-04-24T11:58:37Z</time>
      </trkpt>
      <trkpt lat="44.38266" lon="4.8278">
        <ele>274.2</ele>
        <time>2018-04-24T11:58:40Z</time>
      </trkpt>
      <trkpt lat="44.38253" lon="4.82778">
        <ele>274.8</ele>
        <time>2018-04-24T11:58:43Z</time>
      </trkpt>
      <trkpt lat="44.38243" lon="4.82779">
        <ele>275.1</ele>
        <time>2018-04-24T11:58:45Z</time>
      </trkpt>
      <trkpt lat="44.38233" lon="4.8278">
        <ele>275.3</ele>
        <time>2018-04-24T11:58:47Z</time>
      </trkpt>
      <trkpt lat="44.38223" lon="4.82781">
        <ele>275.3</ele>
        <time>2018-04-24T11:58:49Z</time>
      </trkpt>
      <trkpt lat="44.38213" lon="4.82782">
        <ele>275.4</ele>
        <time>2018-04-24T11:58:51Z</time>
      </trkpt>
      <trkpt lat="44.38203" lon="4.82785">
        <ele>275.5</ele>
        <time>2018-04-24T11:58:53Z</time>
      </trkpt>
      <trkpt lat="44.38196" lon="4.82794">
        <ele>275.6</ele>
        <time>2018-04-24T11:58:55Z</time>
      </trkpt>
      <trkpt lat="44.3819" lon="4.82806">
        <ele>275.6</ele>
        <time>2018-04-24T11:58:57Z</time>
      </trkpt>
      <trkpt lat="44.38185" lon="4.82819">
        <ele>275.7</ele>
        <time>2018-04-24T11:58:59Z</time>
      </trkpt>
      <trkpt lat="44.3818" lon="4.82832">
        <ele>275.8</ele>
        <time>2018-04-24T11:59:01Z</time>
      </trkpt>
      <trkpt lat="44.38174" lon="4.82845">
        <ele>275.9</ele>
        <time>2018-04-24T11:59:03Z</time>
      </trkpt>
      <trkpt lat="44.38167" lon="4.82858">
        <ele>276.1</ele>
        <time>2018-04-24T11:59:05Z</time>
      </trkpt>
      <trkpt lat="44.38161" lon="4.8287">
        <ele>276.4</ele>
        <time>2018-04-24T11:59:07Z</time>
      </trkpt>
      <trkpt lat="44.38156" lon="4.82883">
        <ele>276.8</ele>
        <time>2018-04-24T11:59:09Z</time>
      </trkpt>
      <trkpt lat="44.3815" lon="4.82894">
        <ele>277.3</ele>
        <time>2018-04-24T11:59:11Z</time>
      </trkpt>
      <trkpt lat="44.38145" lon="4.82904">
        <ele>277.8</ele>
        <time>2018-04-24T11:59:13Z</time>
      </trkpt>
      <trkpt lat="44.38136" lon="4.82918">
        <ele>278.8</ele>
        <time>2018-04-24T11:59:16Z</time>
      </trkpt>
      <trkpt lat="44.38129" lon="4.82934">
        <ele>279.5</ele>
        <time>2018-04-24T11:59:19Z</time>
      </trkpt>
      <trkpt lat="44.38126" lon="4.82946">
        <ele>280</ele>
        <time>2018-04-24T11:59:21Z</time>
      </trkpt>
      <trkpt lat="44.38121" lon="4.82962">
        <ele>280.6</ele>
        <time>2018-04-24T11:59:24Z</time>
      </trkpt>
      <trkpt lat="44.38116" lon="4.82977">
        <ele>281.3</ele>
        <time>2018-04-24T11:59:27Z</time>
      </trkpt>
      <trkpt lat="44.38109" lon="4.82986">
        <ele>281.8</ele>
        <time>2018-04-24T11:59:29Z</time>
      </trkpt>
      <trkpt lat="44.38099" lon="4.82988">
        <ele>281.7</ele>
        <time>2018-04-24T11:59:31Z</time>
      </trkpt>
      <trkpt lat="44.3809" lon="4.8298">
        <ele>281.7</ele>
        <time>2018-04-24T11:59:33Z</time>
      </trkpt>
      <trkpt lat="44.38084" lon="4.82969">
        <ele>281.6</ele>
        <time>2018-04-24T11:59:35Z</time>
      </trkpt>
      <trkpt lat="44.38078" lon="4.82957">
        <ele>281.4</ele>
        <time>2018-04-24T11:59:37Z</time>
      </trkpt>
      <trkpt lat="44.38071" lon="4.82944">
        <ele>281.2</ele>
        <time>2018-04-24T11:59:39Z</time>
      </trkpt>
      <trkpt lat="44.38063" lon="4.82934">
        <ele>280.9</ele>
        <time>2018-04-24T11:59:41Z</time>
      </trkpt>
      <trkpt lat="44.38054" lon="4.82923">
        <ele>280.9</ele>
        <time>2018-04-24T11:59:43Z</time>
      </trkpt>
      <trkpt lat="44.38045" lon="4.82912">
        <ele>280.8</ele>
        <time>2018-04-24T11:59:45Z</time>
      </trkpt>
      <trkpt lat="44.38037" lon="4.829">
        <ele>280.8</ele>
        <time>2018-04-24T11:59:47Z</time>
      </trkpt>
      <trkpt lat="44.38029" lon="4.82889">
        <ele>280.8</ele>
        <time>2018-04-24T11:59:49Z</time>
      </trkpt>
      <trkpt lat="44.38021" lon="4.82878">
        <ele>280.9</ele>
        <time>2018-04-24T11:59:51Z</time>
      </trkpt>
      <trkpt lat="44.38013" lon="4.82869">
        <ele>280.8</ele>
        <time>2018-04-24T11:59:53Z</time>
      </trkpt>
      <trkpt lat="44.38004" lon="4.82859">
        <ele>281.1</ele>
        <time>2018-04-24T11:59:55Z</time>
      </trkpt>
      <trkpt lat="44.37997" lon="4.82847">
        <ele>281.2</ele>
        <time>2018-04-24T11:59:57Z</time>
      </trkpt>
      <trkpt lat="44.3799" lon="4.82835">
        <ele>281.5</ele>
        <time>2018-04-24T11:59:59Z</time>
      </trkpt>
      <trkpt lat="44.37985" lon="4.82822">
        <ele>281.5</ele>
        <time>2018-04-24T12:00:01Z</time>
      </trkpt>
      <trkpt lat="44.37979" lon="4.82809">
        <ele>281.6</ele>
        <time>2018-04-24T12:00:03Z</time>
      </trkpt>
      <trkpt lat="44.37973" lon="4.82796">
        <ele>281.8</ele>
        <time>2018-04-24T12:00:05Z</time>
      </trkpt>
      <trkpt lat="44.37967" lon="4.82784">
        <ele>282.1</ele>
        <time>2018-04-24T12:00:07Z</time>
      </trkpt>
      <trkpt lat="44.37961" lon="4.82771">
        <ele>281.9</ele>
        <time>2018-04-24T12:00:09Z</time>
      </trkpt>
      <trkpt lat="44.37955" lon="4.82759">
        <ele>282.2</ele>
        <time>2018-04-24T12:00:11Z</time>
      </trkpt>
      <trkpt lat="44.3795" lon="4.82748">
        <ele>282.3</ele>
        <time>2018-04-24T12:00:13Z</time>
      </trkpt>
      <trkpt lat="44.37944" lon="4.82735">
        <ele>282.9</ele>
        <time>2018-04-24T12:00:15Z</time>
      </trkpt>
      <trkpt lat="44.37938" lon="4.82723">
        <ele>283.1</ele>
        <time>2018-04-24T12:00:17Z</time>
      </trkpt>
      <trkpt lat="44.37932" lon="4.82711">
        <ele>283.3</ele>
        <time>2018-04-24T12:00:19Z</time>
      </trkpt>
      <trkpt lat="44.37927" lon="4.82698">
        <ele>283.6</ele>
        <time>2018-04-24T12:00:21Z</time>
      </trkpt>
      <trkpt lat="44.37923" lon="4.82686">
        <ele>283.7</ele>
        <time>2018-04-24T12:00:23Z</time>
      </trkpt>
      <trkpt lat="44.37918" lon="4.82674">
        <ele>284</ele>
        <time>2018-04-24T12:00:25Z</time>
      </trkpt>
      <trkpt lat="44.37913" lon="4.82661">
        <ele>284.2</ele>
        <time>2018-04-24T12:00:27Z</time>
      </trkpt>
      <trkpt lat="44.37909" lon="4.82649">
        <ele>284.5</ele>
        <time>2018-04-24T12:00:29Z</time>
      </trkpt>
      <trkpt lat="44.37904" lon="4.82637">
        <ele>284.7</ele>
        <time>2018-04-24T12:00:31Z</time>
      </trkpt>
      <trkpt lat="44.37899" lon="4.82625">
        <ele>284.9</ele>
        <time>2018-04-24T12:00:33Z</time>
      </trkpt>
      <trkpt lat="44.37894" lon="4.82613">
        <ele>285.1</ele>
        <time>2018-04-24T12:00:35Z</time>
      </trkpt>
      <trkpt lat="44.37889" lon="4.82601">
        <ele>285.5</ele>
        <time>2018-04-24T12:00:37Z</time>
      </trkpt>
      <trkpt lat="44.37884" lon="4.82589">
        <ele>285.7</ele>
        <time>2018-04-24T12:00:39Z</time>
      </trkpt>
      <trkpt lat="44.37879" lon="4.82579">
        <ele>286</ele>
        <time>2018-04-24T12:00:41Z</time>
      </trkpt>
      <trkpt lat="44.37872" lon="4.82567">
        <ele>286.2</ele>
        <time>2018-04-24T12:00:43Z</time>
      </trkpt>
      <trkpt lat="44.37865" lon="4.82556">
        <ele>286.6</ele>
        <time>2018-04-24T12:00:45Z</time>
      </trkpt>
      <trkpt lat="44.37857" lon="4.82545">
        <ele>286.8</ele>
        <time>2018-04-24T12:00:47Z</time>
      </trkpt>
      <trkpt lat="44.37849" lon="4.82534">
        <ele>286.9</ele>
        <time>2018-04-24T12:00:49Z</time>
      </trkpt>
      <trkpt lat="44.37842" lon="4.82522">
        <ele>287</ele>
        <time>2018-04-24T12:00:51Z</time>
      </trkpt>
      <trkpt lat="44.37834" lon="4.8251">
        <ele>287.1</ele>
        <time>2018-04-24T12:00:53Z</time>
      </trkpt>
      <trkpt lat="44.37826" lon="4.82497">
        <ele>287.2</ele>
        <time>2018-04-24T12:00:55Z</time>
      </trkpt>
      <trkpt lat="44.37817" lon="4.82483">
        <ele>287.3</ele>
        <time>2018-04-24T12:00:57Z</time>
      </trkpt>
      <trkpt lat="44.37809" lon="4.8247">
        <ele>287.1</ele>
        <time>2018-04-24T12:00:59Z</time>
      </trkpt>
      <trkpt lat="44.378" lon="4.82457">
        <ele>286.8</ele>
        <time>2018-04-24T12:01:01Z</time>
      </trkpt>
      <trkpt lat="44.37789" lon="4.82448">
        <ele>286.6</ele>
        <time>2018-04-24T12:01:03Z</time>
      </trkpt>
      <trkpt lat="44.37774" lon="4.82444">
        <ele>286.4</ele>
        <time>2018-04-24T12:01:05Z</time>
      </trkpt>
      <trkpt lat="44.37759" lon="4.82445">
        <ele>286.1</ele>
        <time>2018-04-24T12:01:07Z</time>
      </trkpt>
      <trkpt lat="44.37744" lon="4.82445">
        <ele>285.5</ele>
        <time>2018-04-24T12:01:09Z</time>
      </trkpt>
      <trkpt lat="44.37731" lon="4.82438">
        <ele>284.7</ele>
        <time>2018-04-24T12:01:11Z</time>
      </trkpt>
      <trkpt lat="44.37723" lon="4.82425">
        <ele>284.2</ele>
        <time>2018-04-24T12:01:13Z</time>
      </trkpt>
      <trkpt lat="44.37717" lon="4.82408">
        <ele>283.8</ele>
        <time>2018-04-24T12:01:15Z</time>
      </trkpt>
      <trkpt lat="44.37712" lon="4.82389">
        <ele>283.4</ele>
        <time>2018-04-24T12:01:17Z</time>
      </trkpt>
      <trkpt lat="44.37706" lon="4.8237">
        <ele>282.9</ele>
        <time>2018-04-24T12:01:19Z</time>
      </trkpt>
      <trkpt lat="44.37698" lon="4.82352">
        <ele>282.2</ele>
        <time>2018-04-24T12:01:21Z</time>
      </trkpt>
      <trkpt lat="44.37687" lon="4.82337">
        <ele>281.6</ele>
        <time>2018-04-24T12:01:23Z</time>
      </trkpt>
      <trkpt lat="44.37675" lon="4.82325">
        <ele>281.1</ele>
        <time>2018-04-24T12:01:25Z</time>
      </trkpt>
      <trkpt lat="44.37662" lon="4.82316">
        <ele>280.6</ele>
        <time>2018-04-24T12:01:27Z</time>
      </trkpt>
      <trkpt lat="44.37648" lon="4.82308">
        <ele>280.5</ele>
        <time>2018-04-24T12:01:29Z</time>
      </trkpt>
      <trkpt lat="44.37636" lon="4.82299">
        <ele>280.1</ele>
        <time>2018-04-24T12:01:31Z</time>
      </trkpt>
      <trkpt lat="44.37622" lon="4.82292">
        <ele>279.8</ele>
        <time>2018-04-24T12:01:33Z</time>
      </trkpt>
      <trkpt lat="44.37609" lon="4.82287">
        <ele>279.5</ele>
        <time>2018-04-24T12:01:35Z</time>
      </trkpt>
      <trkpt lat="44.37596" lon="4.82283">
        <ele>279.2</ele>
        <time>2018-04-24T12:01:37Z</time>
      </trkpt>
      <trkpt lat="44.37584" lon="4.8228">
        <ele>279</ele>
        <time>2018-04-24T12:01:39Z</time>
      </trkpt>
      <trkpt lat="44.37572" lon="4.82281">
        <ele>278.3</ele>
        <time>2018-04-24T12:01:41Z</time>
      </trkpt>
      <trkpt lat="44.37563" lon="4.82287">
        <ele>278.3</ele>
        <time>2018-04-24T12:01:43Z</time>
      </trkpt>
      <trkpt lat="44.37552" lon="4.82295">
        <ele>278.5</ele>
        <time>2018-04-24T12:01:46Z</time>
      </trkpt>
      <trkpt lat="44.37543" lon="4.82298">
        <ele>279.2</ele>
        <time>2018-04-24T12:01:49Z</time>
      </trkpt>
      <trkpt lat="44.37532" lon="4.82294">
        <ele>279.6</ele>
        <time>2018-04-24T12:01:52Z</time>
      </trkpt>
      <trkpt lat="44.37522" lon="4.82295">
        <ele>279.9</ele>
        <time>2018-04-24T12:01:55Z</time>
      </trkpt>
      <trkpt lat="44.37515" lon="4.82305">
        <ele>280.6</ele>
        <time>2018-04-24T12:01:59Z</time>
      </trkpt>
      <trkpt lat="44.37513" lon="4.82321">
        <ele>280.5</ele>
        <time>2018-04-24T12:02:02Z</time>
      </trkpt>
      <trkpt lat="44.37508" lon="4.82333">
        <ele>281.5</ele>
        <time>2018-04-24T12:02:05Z</time>
      </trkpt>
      <trkpt lat="44.37502" lon="4.82342">
        <ele>281.8</ele>
        <time>2018-04-24T12:02:08Z</time>
      </trkpt>
      <trkpt lat="44.37509" lon="4.82358">
        <ele>282.6</ele>
        <time>2018-04-24T12:02:12Z</time>
      </trkpt>
      <trkpt lat="44.37509" lon="4.82374">
        <ele>283.1</ele>
        <time>2018-04-24T12:02:15Z</time>
      </trkpt>
      <trkpt lat="44.37508" lon="4.82393">
        <ele>283.2</ele>
        <time>2018-04-24T12:02:18Z</time>
      </trkpt>
      <trkpt lat="44.37509" lon="4.82406">
        <ele>283.6</ele>
        <time>2018-04-24T12:02:20Z</time>
      </trkpt>
      <trkpt lat="44.3751" lon="4.82419">
        <ele>283.7</ele>
        <time>2018-04-24T12:02:22Z</time>
      </trkpt>
      <trkpt lat="44.37511" lon="4.82433">
        <ele>283.7</ele>
        <time>2018-04-24T12:02:24Z</time>
      </trkpt>
      <trkpt lat="44.37509" lon="4.82446">
        <ele>283.8</ele>
        <time>2018-04-24T12:02:26Z</time>
      </trkpt>
      <trkpt lat="44.37502" lon="4.82461">
        <ele>283.7</ele>
        <time>2018-04-24T12:02:29Z</time>
      </trkpt>
      <trkpt lat="44.37498" lon="4.82475">
        <ele>283.7</ele>
        <time>2018-04-24T12:02:31Z</time>
      </trkpt>
      <trkpt lat="44.37495" lon="4.82488">
        <ele>283.8</ele>
        <time>2018-04-24T12:02:33Z</time>
      </trkpt>
      <trkpt lat="44.37492" lon="4.82503">
        <ele>283.9</ele>
        <time>2018-04-24T12:02:35Z</time>
      </trkpt>
      <trkpt lat="44.37487" lon="4.82515">
        <ele>284.1</ele>
        <time>2018-04-24T12:02:37Z</time>
      </trkpt>
      <trkpt lat="44.37481" lon="4.82528">
        <ele>284.2</ele>
        <time>2018-04-24T12:02:39Z</time>
      </trkpt>
      <trkpt lat="44.37473" lon="4.82536">
        <ele>284.2</ele>
        <time>2018-04-24T12:02:41Z</time>
      </trkpt>
      <trkpt lat="44.37468" lon="4.82547">
        <ele>284.5</ele>
        <time>2018-04-24T12:02:43Z</time>
      </trkpt>
      <trkpt lat="44.37463" lon="4.82557">
        <ele>284.3</ele>
        <time>2018-04-24T12:02:45Z</time>
      </trkpt>
      <trkpt lat="44.3745" lon="4.8256">
        <ele>283.9</ele>
        <time>2018-04-24T12:02:48Z</time>
      </trkpt>
      <trkpt lat="44.37441" lon="4.82562">
        <ele>283.9</ele>
        <time>2018-04-24T12:02:50Z</time>
      </trkpt>
      <trkpt lat="44.37428" lon="4.82563">
        <ele>283.9</ele>
        <time>2018-04-24T12:02:53Z</time>
      </trkpt>
      <trkpt lat="44.37419" lon="4.82563">
        <ele>284</ele>
        <time>2018-04-24T12:02:55Z</time>
      </trkpt>
      <trkpt lat="44.3741" lon="4.82565">
        <ele>284</ele>
        <time>2018-04-24T12:02:57Z</time>
      </trkpt>
      <trkpt lat="44.37397" lon="4.82571">
        <ele>283.9</ele>
        <time>2018-04-24T12:03:00Z</time>
      </trkpt>
      <trkpt lat="44.37388" lon="4.82576">
        <ele>283.6</ele>
        <time>2018-04-24T12:03:02Z</time>
      </trkpt>
      <trkpt lat="44.37376" lon="4.82583">
        <ele>284.2</ele>
        <time>2018-04-24T12:03:05Z</time>
      </trkpt>
      <trkpt lat="44.37366" lon="4.82583">
        <ele>284.3</ele>
        <time>2018-04-24T12:03:07Z</time>
      </trkpt>
      <trkpt lat="44.37357" lon="4.82579">
        <ele>284.5</ele>
        <time>2018-04-24T12:03:09Z</time>
      </trkpt>
      <trkpt lat="44.37349" lon="4.82571">
        <ele>284.7</ele>
        <time>2018-04-24T12:03:11Z</time>
      </trkpt>
      <trkpt lat="44.37342" lon="4.82563">
        <ele>284.9</ele>
        <time>2018-04-24T12:03:13Z</time>
      </trkpt>
      <trkpt lat="44.37334" lon="4.82555">
        <ele>284.9</ele>
        <time>2018-04-24T12:03:15Z</time>
      </trkpt>
      <trkpt lat="44.37325" lon="4.82548">
        <ele>284.9</ele>
        <time>2018-04-24T12:03:17Z</time>
      </trkpt>
      <trkpt lat="44.37314" lon="4.82546">
        <ele>285.3</ele>
        <time>2018-04-24T12:03:19Z</time>
      </trkpt>
      <trkpt lat="44.37304" lon="4.82551">
        <ele>285.3</ele>
        <time>2018-04-24T12:03:21Z</time>
      </trkpt>
      <trkpt lat="44.37294" lon="4.8256">
        <ele>285.3</ele>
        <time>2018-04-24T12:03:23Z</time>
      </trkpt>
      <trkpt lat="44.37285" lon="4.82568">
        <ele>285.5</ele>
        <time>2018-04-24T12:03:25Z</time>
      </trkpt>
      <trkpt lat="44.37276" lon="4.82575">
        <ele>285.5</ele>
        <time>2018-04-24T12:03:27Z</time>
      </trkpt>
      <trkpt lat="44.37267" lon="4.82581">
        <ele>285.4</ele>
        <time>2018-04-24T12:03:29Z</time>
      </trkpt>
      <trkpt lat="44.37257" lon="4.8259">
        <ele>285.4</ele>
        <time>2018-04-24T12:03:31Z</time>
      </trkpt>
      <trkpt lat="44.37248" lon="4.82598">
        <ele>285.1</ele>
        <time>2018-04-24T12:03:33Z</time>
      </trkpt>
      <trkpt lat="44.3724" lon="4.82606">
        <ele>285</ele>
        <time>2018-04-24T12:03:35Z</time>
      </trkpt>
      <trkpt lat="44.37232" lon="4.82613">
        <ele>284.4</ele>
        <time>2018-04-24T12:03:37Z</time>
      </trkpt>
      <trkpt lat="44.37222" lon="4.82619">
        <ele>283.9</ele>
        <time>2018-04-24T12:03:39Z</time>
      </trkpt>
      <trkpt lat="44.37212" lon="4.82622">
        <ele>283.6</ele>
        <time>2018-04-24T12:03:41Z</time>
      </trkpt>
      <trkpt lat="44.37202" lon="4.82621">
        <ele>283.4</ele>
        <time>2018-04-24T12:03:43Z</time>
      </trkpt>
      <trkpt lat="44.37193" lon="4.82625">
        <ele>282.9</ele>
        <time>2018-04-24T12:03:45Z</time>
      </trkpt>
      <trkpt lat="44.37183" lon="4.82627">
        <ele>282.3</ele>
        <time>2018-04-24T12:03:47Z</time>
      </trkpt>
      <trkpt lat="44.37172" lon="4.82625">
        <ele>281.7</ele>
        <time>2018-04-24T12:03:49Z</time>
      </trkpt>
      <trkpt lat="44.37161" lon="4.82622">
        <ele>281</ele>
        <time>2018-04-24T12:03:51Z</time>
      </trkpt>
      <trkpt lat="44.3715" lon="4.82615">
        <ele>280.8</ele>
        <time>2018-04-24T12:03:53Z</time>
      </trkpt>
      <trkpt lat="44.37139" lon="4.82606">
        <ele>280.3</ele>
        <time>2018-04-24T12:03:56Z</time>
      </trkpt>
      <trkpt lat="44.3713" lon="4.82594">
        <ele>280</ele>
        <time>2018-04-24T12:03:58Z</time>
      </trkpt>
      <trkpt lat="44.3712" lon="4.82581">
        <ele>279.9</ele>
        <time>2018-04-24T12:04:00Z</time>
      </trkpt>
      <trkpt lat="44.3711" lon="4.82568">
        <ele>279.8</ele>
        <time>2018-04-24T12:04:02Z</time>
      </trkpt>
      <trkpt lat="44.37102" lon="4.82559">
        <ele>279.7</ele>
        <time>2018-04-24T12:04:04Z</time>
      </trkpt>
      <trkpt lat="44.37091" lon="4.82549">
        <ele>279.7</ele>
        <time>2018-04-24T12:04:06Z</time>
      </trkpt>
      <trkpt lat="44.37077" lon="4.82543">
        <ele>279.4</ele>
        <time>2018-04-24T12:04:08Z</time>
      </trkpt>
      <trkpt lat="44.37061" lon="4.82546">
        <ele>279</ele>
        <time>2018-04-24T12:04:10Z</time>
      </trkpt>
      <trkpt lat="44.37047" lon="4.82553">
        <ele>278.9</ele>
        <time>2018-04-24T12:04:12Z</time>
      </trkpt>
      <trkpt lat="44.37034" lon="4.8256">
        <ele>278.2</ele>
        <time>2018-04-24T12:04:14Z</time>
      </trkpt>
      <trkpt lat="44.3702" lon="4.82565">
        <ele>277.8</ele>
        <time>2018-04-24T12:04:16Z</time>
      </trkpt>
      <trkpt lat="44.37005" lon="4.82563">
        <ele>277.6</ele>
        <time>2018-04-24T12:04:18Z</time>
      </trkpt>
      <trkpt lat="44.36993" lon="4.82554">
        <ele>277.3</ele>
        <time>2018-04-24T12:04:20Z</time>
      </trkpt>
      <trkpt lat="44.36984" lon="4.82541">
        <ele>277.1</ele>
        <time>2018-04-24T12:04:22Z</time>
      </trkpt>
      <trkpt lat="44.36976" lon="4.82527">
        <ele>276.9</ele>
        <time>2018-04-24T12:04:24Z</time>
      </trkpt>
      <trkpt lat="44.3697" lon="4.82514">
        <ele>277</ele>
        <time>2018-04-24T12:04:26Z</time>
      </trkpt>
      <trkpt lat="44.36963" lon="4.82506">
        <ele>276.8</ele>
        <time>2018-04-24T12:04:28Z</time>
      </trkpt>
      <trkpt lat="44.36955" lon="4.82496">
        <ele>276.7</ele>
        <time>2018-04-24T12:04:30Z</time>
      </trkpt>
      <trkpt lat="44.36949" lon="4.82485">
        <ele>276.6</ele>
        <time>2018-04-24T12:04:32Z</time>
      </trkpt>
      <trkpt lat="44.36944" lon="4.82473">
        <ele>276.6</ele>
        <time>2018-04-24T12:04:34Z</time>
      </trkpt>
      <trkpt lat="44.36938" lon="4.82462">
        <ele>276.6</ele>
        <time>2018-04-24T12:04:36Z</time>
      </trkpt>
      <trkpt lat="44.36933" lon="4.82451">
        <ele>276.5</ele>
        <time>2018-04-24T12:04:38Z</time>
      </trkpt>
      <trkpt lat="44.36927" lon="4.8244">
        <ele>276.7</ele>
        <time>2018-04-24T12:04:40Z</time>
      </trkpt>
      <trkpt lat="44.3692" lon="4.82431">
        <ele>276.8</ele>
        <time>2018-04-24T12:04:42Z</time>
      </trkpt>
      <trkpt lat="44.36911" lon="4.82423">
        <ele>276.8</ele>
        <time>2018-04-24T12:04:44Z</time>
      </trkpt>
      <trkpt lat="44.36902" lon="4.82413">
        <ele>276.7</ele>
        <time>2018-04-24T12:04:46Z</time>
      </trkpt>
      <trkpt lat="44.36892" lon="4.82402">
        <ele>276.1</ele>
        <time>2018-04-24T12:04:48Z</time>
      </trkpt>
      <trkpt lat="44.36879" lon="4.82392">
        <ele>275.9</ele>
        <time>2018-04-24T12:04:50Z</time>
      </trkpt>
      <trkpt lat="44.36866" lon="4.8238">
        <ele>275.4</ele>
        <time>2018-04-24T12:04:52Z</time>
      </trkpt>
      <trkpt lat="44.36852" lon="4.8237">
        <ele>274.9</ele>
        <time>2018-04-24T12:04:54Z</time>
      </trkpt>
      <trkpt lat="44.36843" lon="4.82359">
        <ele>274.2</ele>
        <time>2018-04-24T12:04:56Z</time>
      </trkpt>
      <trkpt lat="44.36837" lon="4.82348">
        <ele>273.7</ele>
        <time>2018-04-24T12:04:58Z</time>
      </trkpt>
      <trkpt lat="44.36832" lon="4.82337">
        <ele>273</ele>
        <time>2018-04-24T12:05:00Z</time>
      </trkpt>
      <trkpt lat="44.36823" lon="4.82326">
        <ele>272.4</ele>
        <time>2018-04-24T12:05:02Z</time>
      </trkpt>
      <trkpt lat="44.36814" lon="4.82318">
        <ele>272.2</ele>
        <time>2018-04-24T12:05:04Z</time>
      </trkpt>
      <trkpt lat="44.36801" lon="4.82314">
        <ele>272</ele>
        <time>2018-04-24T12:05:06Z</time>
      </trkpt>
      <trkpt lat="44.36789" lon="4.82309">
        <ele>271.6</ele>
        <time>2018-04-24T12:05:08Z</time>
      </trkpt>
      <trkpt lat="44.36776" lon="4.82302">
        <ele>271.1</ele>
        <time>2018-04-24T12:05:10Z</time>
      </trkpt>
      <trkpt lat="44.36764" lon="4.82294">
        <ele>270.5</ele>
        <time>2018-04-24T12:05:12Z</time>
      </trkpt>
      <trkpt lat="44.36754" lon="4.82292">
        <ele>269.8</ele>
        <time>2018-04-24T12:05:14Z</time>
      </trkpt>
      <trkpt lat="44.36741" lon="4.82289">
        <ele>268.3</ele>
        <time>2018-04-24T12:05:17Z</time>
      </trkpt>
      <trkpt lat="44.36732" lon="4.82281">
        <ele>267.6</ele>
        <time>2018-04-24T12:05:19Z</time>
      </trkpt>
      <trkpt lat="44.36725" lon="4.82272">
        <ele>266.9</ele>
        <time>2018-04-24T12:05:21Z</time>
      </trkpt>
      <trkpt lat="44.36718" lon="4.82263">
        <ele>266.3</ele>
        <time>2018-04-24T12:05:23Z</time>
      </trkpt>
      <trkpt lat="44.36711" lon="4.82254">
        <ele>265.9</ele>
        <time>2018-04-24T12:05:25Z</time>
      </trkpt>
      <trkpt lat="44.36704" lon="4.82245">
        <ele>265.5</ele>
        <time>2018-04-24T12:05:27Z</time>
      </trkpt>
      <trkpt lat="44.36697" lon="4.82235">
        <ele>265.1</ele>
        <time>2018-04-24T12:05:29Z</time>
      </trkpt>
      <trkpt lat="44.36689" lon="4.82224">
        <ele>264.6</ele>
        <time>2018-04-24T12:05:31Z</time>
      </trkpt>
      <trkpt lat="44.36682" lon="4.82211">
        <ele>264.3</ele>
        <time>2018-04-24T12:05:33Z</time>
      </trkpt>
      <trkpt lat="44.36675" lon="4.82197">
        <ele>264.1</ele>
        <time>2018-04-24T12:05:35Z</time>
      </trkpt>
      <trkpt lat="44.36669" lon="4.82184">
        <ele>263.8</ele>
        <time>2018-04-24T12:05:37Z</time>
      </trkpt>
      <trkpt lat="44.36663" lon="4.82171">
        <ele>263.5</ele>
        <time>2018-04-24T12:05:39Z</time>
      </trkpt>
      <trkpt lat="44.36657" lon="4.82158">
        <ele>263.3</ele>
        <time>2018-04-24T12:05:41Z</time>
      </trkpt>
      <trkpt lat="44.36651" lon="4.82144">
        <ele>263.2</ele>
        <time>2018-04-24T12:05:43Z</time>
      </trkpt>
      <trkpt lat="44.36644" lon="4.82131">
        <ele>263</ele>
        <time>2018-04-24T12:05:45Z</time>
      </trkpt>
      <trkpt lat="44.36638" lon="4.82118">
        <ele>263</ele>
        <time>2018-04-24T12:05:47Z</time>
      </trkpt>
      <trkpt lat="44.3663" lon="4.82105">
        <ele>262.9</ele>
        <time>2018-04-24T12:05:49Z</time>
      </trkpt>
      <trkpt lat="44.36624" lon="4.82093">
        <ele>262.8</ele>
        <time>2018-04-24T12:05:51Z</time>
      </trkpt>
      <trkpt lat="44.36618" lon="4.8208">
        <ele>262.8</ele>
        <time>2018-04-24T12:05:53Z</time>
      </trkpt>
      <trkpt lat="44.36612" lon="4.82067">
        <ele>262.9</ele>
        <time>2018-04-24T12:05:55Z</time>
      </trkpt>
      <trkpt lat="44.36606" lon="4.82054">
        <ele>262.6</ele>
        <time>2018-04-24T12:05:57Z</time>
      </trkpt>
      <trkpt lat="44.366" lon="4.8204">
        <ele>262.5</ele>
        <time>2018-04-24T12:05:59Z</time>
      </trkpt>
      <trkpt lat="44.36593" lon="4.82026">
        <ele>262.4</ele>
        <time>2018-04-24T12:06:01Z</time>
      </trkpt>
      <trkpt lat="44.36588" lon="4.82012">
        <ele>262.4</ele>
        <time>2018-04-24T12:06:03Z</time>
      </trkpt>
      <trkpt lat="44.36585" lon="4.81997">
        <ele>262.5</ele>
        <time>2018-04-24T12:06:05Z</time>
      </trkpt>
      <trkpt lat="44.36582" lon="4.81983">
        <ele>262.5</ele>
        <time>2018-04-24T12:06:07Z</time>
      </trkpt>
      <trkpt lat="44.36579" lon="4.81969">
        <ele>262.6</ele>
        <time>2018-04-24T12:06:09Z</time>
      </trkpt>
      <trkpt lat="44.36577" lon="4.81954">
        <ele>262.4</ele>
        <time>2018-04-24T12:06:11Z</time>
      </trkpt>
      <trkpt lat="44.36575" lon="4.81939">
        <ele>262.3</ele>
        <time>2018-04-24T12:06:13Z</time>
      </trkpt>
      <trkpt lat="44.36572" lon="4.81925">
        <ele>262.3</ele>
        <time>2018-04-24T12:06:15Z</time>
      </trkpt>
      <trkpt lat="44.3657" lon="4.8191">
        <ele>262.4</ele>
        <time>2018-04-24T12:06:17Z</time>
      </trkpt>
      <trkpt lat="44.36568" lon="4.81897">
        <ele>262.6</ele>
        <time>2018-04-24T12:06:19Z</time>
      </trkpt>
      <trkpt lat="44.36566" lon="4.81883">
        <ele>262.7</ele>
        <time>2018-04-24T12:06:21Z</time>
      </trkpt>
      <trkpt lat="44.36564" lon="4.81869">
        <ele>262.9</ele>
        <time>2018-04-24T12:06:23Z</time>
      </trkpt>
      <trkpt lat="44.36562" lon="4.81855">
        <ele>263.2</ele>
        <time>2018-04-24T12:06:25Z</time>
      </trkpt>
      <trkpt lat="44.36561" lon="4.81842">
        <ele>263.7</ele>
        <time>2018-04-24T12:06:27Z</time>
      </trkpt>
      <trkpt lat="44.3656" lon="4.81829">
        <ele>264</ele>
        <time>2018-04-24T12:06:29Z</time>
      </trkpt>
      <trkpt lat="44.36558" lon="4.81816">
        <ele>264.4</ele>
        <time>2018-04-24T12:06:31Z</time>
      </trkpt>
      <trkpt lat="44.36557" lon="4.81803">
        <ele>264.5</ele>
        <time>2018-04-24T12:06:33Z</time>
      </trkpt>
      <trkpt lat="44.36554" lon="4.81791">
        <ele>264.7</ele>
        <time>2018-04-24T12:06:35Z</time>
      </trkpt>
      <trkpt lat="44.36552" lon="4.81775">
        <ele>265.1</ele>
        <time>2018-04-24T12:06:38Z</time>
      </trkpt>
      <trkpt lat="44.36562" lon="4.81769">
        <ele>265.9</ele>
        <time>2018-04-24T12:06:42Z</time>
      </trkpt>
      <trkpt lat="44.36571" lon="4.81773">
        <ele>266.5</ele>
        <time>2018-04-24T12:06:45Z</time>
      </trkpt>
      <trkpt lat="44.36581" lon="4.81777">
        <ele>267.5</ele>
        <time>2018-04-24T12:06:48Z</time>
      </trkpt>
      <trkpt lat="44.3659" lon="4.81782">
        <ele>268.4</ele>
        <time>2018-04-24T12:06:51Z</time>
      </trkpt>
      <trkpt lat="44.36599" lon="4.81785">
        <ele>269.4</ele>
        <time>2018-04-24T12:06:54Z</time>
      </trkpt>
      <trkpt lat="44.3661" lon="4.81791">
        <ele>270.9</ele>
        <time>2018-04-24T12:06:58Z</time>
      </trkpt>
      <trkpt lat="44.3662" lon="4.81795">
        <ele>272.5</ele>
        <time>2018-04-24T12:07:02Z</time>
      </trkpt>
      <trkpt lat="44.3663" lon="4.81799">
        <ele>273.8</ele>
        <time>2018-04-24T12:07:06Z</time>
      </trkpt>
      <trkpt lat="44.36638" lon="4.81805">
        <ele>275.3</ele>
        <time>2018-04-24T12:07:10Z</time>
      </trkpt>
      <trkpt lat="44.36648" lon="4.8181">
        <ele>276.8</ele>
        <time>2018-04-24T12:07:14Z</time>
      </trkpt>
      <trkpt lat="44.36657" lon="4.81815">
        <ele>278.5</ele>
        <time>2018-04-24T12:07:18Z</time>
      </trkpt>
      <trkpt lat="44.36667" lon="4.81818">
        <ele>279.8</ele>
        <time>2018-04-24T12:07:22Z</time>
      </trkpt>
      <trkpt lat="44.36676" lon="4.81814">
        <ele>281</ele>
        <time>2018-04-24T12:07:26Z</time>
      </trkpt>
      <trkpt lat="44.36685" lon="4.81809">
        <ele>282.4</ele>
        <time>2018-04-24T12:07:30Z</time>
      </trkpt>
      <trkpt lat="44.36696" lon="4.81806">
        <ele>283.8</ele>
        <time>2018-04-24T12:07:35Z</time>
      </trkpt>
      <trkpt lat="44.36702" lon="4.81795">
        <ele>284.6</ele>
        <time>2018-04-24T12:07:41Z</time>
      </trkpt>
      <trkpt lat="44.36702" lon="4.8178">
        <ele>285.1</ele>
        <time>2018-04-24T12:07:46Z</time>
      </trkpt>
      <trkpt lat="44.36703" lon="4.81764">
        <ele>285.4</ele>
        <time>2018-04-24T12:07:50Z</time>
      </trkpt>
      <trkpt lat="44.36702" lon="4.81748">
        <ele>285.8</ele>
        <time>2018-04-24T12:07:53Z</time>
      </trkpt>
      <trkpt lat="44.36699" lon="4.81732">
        <ele>286.5</ele>
        <time>2018-04-24T12:07:57Z</time>
      </trkpt>
      <trkpt lat="44.36694" lon="4.81716">
        <ele>287.1</ele>
        <time>2018-04-24T12:08:00Z</time>
      </trkpt>
      <trkpt lat="44.36688" lon="4.81701">
        <ele>287.2</ele>
        <time>2018-04-24T12:08:03Z</time>
      </trkpt>
      <trkpt lat="44.36678" lon="4.81688">
        <ele>287.5</ele>
        <time>2018-04-24T12:08:06Z</time>
      </trkpt>
      <trkpt lat="44.36669" lon="4.81683">
        <ele>287.6</ele>
        <time>2018-04-24T12:08:08Z</time>
      </trkpt>
      <trkpt lat="44.3666" lon="4.81677">
        <ele>287.5</ele>
        <time>2018-04-24T12:08:10Z</time>
      </trkpt>
      <trkpt lat="44.36652" lon="4.8167">
        <ele>287.3</ele>
        <time>2018-04-24T12:08:12Z</time>
      </trkpt>
      <trkpt lat="44.36636" lon="4.81658">
        <ele>286.9</ele>
        <time>2018-04-24T12:08:14Z</time>
      </trkpt>
      <trkpt lat="44.36625" lon="4.81651">
        <ele>286.7</ele>
        <time>2018-04-24T12:08:16Z</time>
      </trkpt>
      <trkpt lat="44.36615" lon="4.81641">
        <ele>286.4</ele>
        <time>2018-04-24T12:08:18Z</time>
      </trkpt>
      <trkpt lat="44.36606" lon="4.81631">
        <ele>286.5</ele>
        <time>2018-04-24T12:08:20Z</time>
      </trkpt>
      <trkpt lat="44.36598" lon="4.8162">
        <ele>285.6</ele>
        <time>2018-04-24T12:08:22Z</time>
      </trkpt>
      <trkpt lat="44.36591" lon="4.81607">
        <ele>285.1</ele>
        <time>2018-04-24T12:08:24Z</time>
      </trkpt>
      <trkpt lat="44.36586" lon="4.81594">
        <ele>284.4</ele>
        <time>2018-04-24T12:08:26Z</time>
      </trkpt>
      <trkpt lat="44.36579" lon="4.8158">
        <ele>284.5</ele>
        <time>2018-04-24T12:08:28Z</time>
      </trkpt>
      <trkpt lat="44.36574" lon="4.81568">
        <ele>284.5</ele>
        <time>2018-04-24T12:08:30Z</time>
      </trkpt>
      <trkpt lat="44.36569" lon="4.81552">
        <ele>283.5</ele>
        <time>2018-04-24T12:08:33Z</time>
      </trkpt>
      <trkpt lat="44.3656" lon="4.8154">
        <ele>282.8</ele>
        <time>2018-04-24T12:08:36Z</time>
      </trkpt>
      <trkpt lat="44.36551" lon="4.81528">
        <ele>282.3</ele>
        <time>2018-04-24T12:08:39Z</time>
      </trkpt>
      <trkpt lat="44.36541" lon="4.81522">
        <ele>281.8</ele>
        <time>2018-04-24T12:08:41Z</time>
      </trkpt>
      <trkpt lat="44.3653" lon="4.81517">
        <ele>281.2</ele>
        <time>2018-04-24T12:08:43Z</time>
      </trkpt>
      <trkpt lat="44.36517" lon="4.81511">
        <ele>280.6</ele>
        <time>2018-04-24T12:08:45Z</time>
      </trkpt>
      <trkpt lat="44.36502" lon="4.81503">
        <ele>279.7</ele>
        <time>2018-04-24T12:08:47Z</time>
      </trkpt>
      <trkpt lat="44.36488" lon="4.81497">
        <ele>278.9</ele>
        <time>2018-04-24T12:08:49Z</time>
      </trkpt>
      <trkpt lat="44.36473" lon="4.8149">
        <ele>277.9</ele>
        <time>2018-04-24T12:08:51Z</time>
      </trkpt>
      <trkpt lat="44.36459" lon="4.81481">
        <ele>276.9</ele>
        <time>2018-04-24T12:08:53Z</time>
      </trkpt>
      <trkpt lat="44.36444" lon="4.8147">
        <ele>276.2</ele>
        <time>2018-04-24T12:08:55Z</time>
      </trkpt>
      <trkpt lat="44.36431" lon="4.8146">
        <ele>275.6</ele>
        <time>2018-04-24T12:08:57Z</time>
      </trkpt>
      <trkpt lat="44.36417" lon="4.81452">
        <ele>275</ele>
        <time>2018-04-24T12:08:59Z</time>
      </trkpt>
      <trkpt lat="44.36402" lon="4.81445">
        <ele>274.3</ele>
        <time>2018-04-24T12:09:01Z</time>
      </trkpt>
      <trkpt lat="44.36387" lon="4.81437">
        <ele>273.6</ele>
        <time>2018-04-24T12:09:03Z</time>
      </trkpt>
      <trkpt lat="44.36372" lon="4.8143">
        <ele>273.1</ele>
        <time>2018-04-24T12:09:05Z</time>
      </trkpt>
      <trkpt lat="44.36356" lon="4.81428">
        <ele>272.2</ele>
        <time>2018-04-24T12:09:07Z</time>
      </trkpt>
      <trkpt lat="44.36341" lon="4.81423">
        <ele>271.5</ele>
        <time>2018-04-24T12:09:09Z</time>
      </trkpt>
      <trkpt lat="44.36326" lon="4.81415">
        <ele>270.4</ele>
        <time>2018-04-24T12:09:11Z</time>
      </trkpt>
      <trkpt lat="44.36313" lon="4.81407">
        <ele>269.7</ele>
        <time>2018-04-24T12:09:13Z</time>
      </trkpt>
      <trkpt lat="44.363" lon="4.814">
        <ele>269.2</ele>
        <time>2018-04-24T12:09:15Z</time>
      </trkpt>
      <trkpt lat="44.36288" lon="4.81393">
        <ele>268.6</ele>
        <time>2018-04-24T12:09:17Z</time>
      </trkpt>
      <trkpt lat="44.36277" lon="4.81386">
        <ele>268.3</ele>
        <time>2018-04-24T12:09:19Z</time>
      </trkpt>
      <trkpt lat="44.36265" lon="4.81379">
        <ele>268</ele>
        <time>2018-04-24T12:09:21Z</time>
      </trkpt>
      <trkpt lat="44.36253" lon="4.81372">
        <ele>267.5</ele>
        <time>2018-04-24T12:09:23Z</time>
      </trkpt>
      <trkpt lat="44.36241" lon="4.81365">
        <ele>267.2</ele>
        <time>2018-04-24T12:09:25Z</time>
      </trkpt>
      <trkpt lat="44.36229" lon="4.81363">
        <ele>267</ele>
        <time>2018-04-24T12:09:27Z</time>
      </trkpt>
      <trkpt lat="44.36216" lon="4.81367">
        <ele>266.7</ele>
        <time>2018-04-24T12:09:29Z</time>
      </trkpt>
      <trkpt lat="44.36204" lon="4.81372">
        <ele>266.7</ele>
        <time>2018-04-24T12:09:31Z</time>
      </trkpt>
      <trkpt lat="44.36196" lon="4.81366">
        <ele>266.4</ele>
        <time>2018-04-24T12:09:33Z</time>
      </trkpt>
      <trkpt lat="44.36188" lon="4.81354">
        <ele>265.8</ele>
        <time>2018-04-24T12:09:35Z</time>
      </trkpt>
      <trkpt lat="44.36184" lon="4.81339">
        <ele>265.6</ele>
        <time>2018-04-24T12:09:37Z</time>
      </trkpt>
      <trkpt lat="44.36181" lon="4.81324">
        <ele>265.4</ele>
        <time>2018-04-24T12:09:39Z</time>
      </trkpt>
      <trkpt lat="44.36177" lon="4.81308">
        <ele>265</ele>
        <time>2018-04-24T12:09:41Z</time>
      </trkpt>
      <trkpt lat="44.36174" lon="4.81292">
        <ele>264.7</ele>
        <time>2018-04-24T12:09:43Z</time>
      </trkpt>
      <trkpt lat="44.36167" lon="4.81277">
        <ele>264.6</ele>
        <time>2018-04-24T12:09:45Z</time>
      </trkpt>
      <trkpt lat="44.36159" lon="4.81263">
        <ele>264.3</ele>
        <time>2018-04-24T12:09:47Z</time>
      </trkpt>
      <trkpt lat="44.36149" lon="4.81251">
        <ele>264.3</ele>
        <time>2018-04-24T12:09:49Z</time>
      </trkpt>
      <trkpt lat="44.36139" lon="4.81238">
        <ele>264.1</ele>
        <time>2018-04-24T12:09:51Z</time>
      </trkpt>
      <trkpt lat="44.36132" lon="4.81227">
        <ele>263.9</ele>
        <time>2018-04-24T12:09:53Z</time>
      </trkpt>
      <trkpt lat="44.36124" lon="4.81216">
        <ele>263.5</ele>
        <time>2018-04-24T12:09:55Z</time>
      </trkpt>
      <trkpt lat="44.36116" lon="4.81207">
        <ele>263.5</ele>
        <time>2018-04-24T12:09:57Z</time>
      </trkpt>
      <trkpt lat="44.36108" lon="4.81198">
        <ele>263.7</ele>
        <time>2018-04-24T12:09:59Z</time>
      </trkpt>
      <trkpt lat="44.36099" lon="4.81187">
        <ele>264.1</ele>
        <time>2018-04-24T12:10:01Z</time>
      </trkpt>
      <trkpt lat="44.36093" lon="4.81174">
        <ele>264.2</ele>
        <time>2018-04-24T12:10:03Z</time>
      </trkpt>
      <trkpt lat="44.36088" lon="4.81161">
        <ele>264</ele>
        <time>2018-04-24T12:10:05Z</time>
      </trkpt>
      <trkpt lat="44.36083" lon="4.81146">
        <ele>263.9</ele>
        <time>2018-04-24T12:10:07Z</time>
      </trkpt>
      <trkpt lat="44.3608" lon="4.81131">
        <ele>263.3</ele>
        <time>2018-04-24T12:10:09Z</time>
      </trkpt>
      <trkpt lat="44.36078" lon="4.81115">
        <ele>262.9</ele>
        <time>2018-04-24T12:10:11Z</time>
      </trkpt>
      <trkpt lat="44.36074" lon="4.811">
        <ele>262.7</ele>
        <time>2018-04-24T12:10:13Z</time>
      </trkpt>
      <trkpt lat="44.36067" lon="4.81089">
        <ele>262.4</ele>
        <time>2018-04-24T12:10:15Z</time>
      </trkpt>
      <trkpt lat="44.36057" lon="4.81086">
        <ele>261.8</ele>
        <time>2018-04-24T12:10:17Z</time>
      </trkpt>
      <trkpt lat="44.36045" lon="4.81092">
        <ele>260.8</ele>
        <time>2018-04-24T12:10:20Z</time>
      </trkpt>
      <trkpt lat="44.36039" lon="4.81104">
        <ele>259</ele>
        <time>2018-04-24T12:10:23Z</time>
      </trkpt>
      <trkpt lat="44.36028" lon="4.81105">
        <ele>257.3</ele>
        <time>2018-04-24T12:10:27Z</time>
      </trkpt>
      <trkpt lat="44.36019" lon="4.811">
        <ele>257</ele>
        <time>2018-04-24T12:10:29Z</time>
      </trkpt>
      <trkpt lat="44.36008" lon="4.8109">
        <ele>255.5</ele>
        <time>2018-04-24T12:10:32Z</time>
      </trkpt>
      <trkpt lat="44.35997" lon="4.81093">
        <ele>254.2</ele>
        <time>2018-04-24T12:10:35Z</time>
      </trkpt>
      <trkpt lat="44.35992" lon="4.81107">
        <ele>253.1</ele>
        <time>2018-04-24T12:10:38Z</time>
      </trkpt>
      <trkpt lat="44.3598" lon="4.81106">
        <ele>251.4</ele>
        <time>2018-04-24T12:10:42Z</time>
      </trkpt>
      <trkpt lat="44.35969" lon="4.81099">
        <ele>249.5</ele>
        <time>2018-04-24T12:10:45Z</time>
      </trkpt>
      <trkpt lat="44.35964" lon="4.81088">
        <ele>248.2</ele>
        <time>2018-04-24T12:10:47Z</time>
      </trkpt>
      <trkpt lat="44.35958" lon="4.81074">
        <ele>247.3</ele>
        <time>2018-04-24T12:10:49Z</time>
      </trkpt>
      <trkpt lat="44.35951" lon="4.81062">
        <ele>246.5</ele>
        <time>2018-04-24T12:10:51Z</time>
      </trkpt>
      <trkpt lat="44.35943" lon="4.81051">
        <ele>245.8</ele>
        <time>2018-04-24T12:10:53Z</time>
      </trkpt>
      <trkpt lat="44.35935" lon="4.81041">
        <ele>245.2</ele>
        <time>2018-04-24T12:10:55Z</time>
      </trkpt>
      <trkpt lat="44.35923" lon="4.81034">
        <ele>244.3</ele>
        <time>2018-04-24T12:10:57Z</time>
      </trkpt>
      <trkpt lat="44.35912" lon="4.81027">
        <ele>243.8</ele>
        <time>2018-04-24T12:10:59Z</time>
      </trkpt>
      <trkpt lat="44.359" lon="4.8102">
        <ele>243</ele>
        <time>2018-04-24T12:11:01Z</time>
      </trkpt>
      <trkpt lat="44.35893" lon="4.81006">
        <ele>242.2</ele>
        <time>2018-04-24T12:11:04Z</time>
      </trkpt>
      <trkpt lat="44.35888" lon="4.80995">
        <ele>241.7</ele>
        <time>2018-04-24T12:11:06Z</time>
      </trkpt>
      <trkpt lat="44.35881" lon="4.80981">
        <ele>240.2</ele>
        <time>2018-04-24T12:11:09Z</time>
      </trkpt>
      <trkpt lat="44.35873" lon="4.80967">
        <ele>238.8</ele>
        <time>2018-04-24T12:11:12Z</time>
      </trkpt>
      <trkpt lat="44.35864" lon="4.80955">
        <ele>237.5</ele>
        <time>2018-04-24T12:11:15Z</time>
      </trkpt>
      <trkpt lat="44.35855" lon="4.80941">
        <ele>235.8</ele>
        <time>2018-04-24T12:11:18Z</time>
      </trkpt>
      <trkpt lat="44.35849" lon="4.8093">
        <ele>234.6</ele>
        <time>2018-04-24T12:11:20Z</time>
      </trkpt>
      <trkpt lat="44.35842" lon="4.80919">
        <ele>233.6</ele>
        <time>2018-04-24T12:11:22Z</time>
      </trkpt>
      <trkpt lat="44.35837" lon="4.80909">
        <ele>232.6</ele>
        <time>2018-04-24T12:11:24Z</time>
      </trkpt>
      <trkpt lat="44.35828" lon="4.80894">
        <ele>231</ele>
        <time>2018-04-24T12:11:27Z</time>
      </trkpt>
      <trkpt lat="44.35823" lon="4.80882">
        <ele>229.7</ele>
        <time>2018-04-24T12:11:29Z</time>
      </trkpt>
      <trkpt lat="44.35819" lon="4.80871">
        <ele>228.9</ele>
        <time>2018-04-24T12:11:31Z</time>
      </trkpt>
      <trkpt lat="44.35812" lon="4.80857">
        <ele>227</ele>
        <time>2018-04-24T12:11:34Z</time>
      </trkpt>
      <trkpt lat="44.35807" lon="4.80841">
        <ele>225.6</ele>
        <time>2018-04-24T12:11:37Z</time>
      </trkpt>
      <trkpt lat="44.35803" lon="4.8083">
        <ele>224.4</ele>
        <time>2018-04-24T12:11:39Z</time>
      </trkpt>
      <trkpt lat="44.358" lon="4.80814">
        <ele>222.8</ele>
        <time>2018-04-24T12:11:42Z</time>
      </trkpt>
      <trkpt lat="44.35794" lon="4.80802">
        <ele>221.7</ele>
        <time>2018-04-24T12:11:44Z</time>
      </trkpt>
      <trkpt lat="44.35787" lon="4.80792">
        <ele>221</ele>
        <time>2018-04-24T12:11:46Z</time>
      </trkpt>
      <trkpt lat="44.35778" lon="4.80782">
        <ele>220.1</ele>
        <time>2018-04-24T12:11:48Z</time>
      </trkpt>
      <trkpt lat="44.35768" lon="4.80773">
        <ele>218.4</ele>
        <time>2018-04-24T12:11:51Z</time>
      </trkpt>
      <trkpt lat="44.35756" lon="4.80769">
        <ele>217</ele>
        <time>2018-04-24T12:11:54Z</time>
      </trkpt>
      <trkpt lat="44.35745" lon="4.80763">
        <ele>216</ele>
        <time>2018-04-24T12:11:57Z</time>
      </trkpt>
      <trkpt lat="44.35734" lon="4.80757">
        <ele>214.2</ele>
        <time>2018-04-24T12:12:00Z</time>
      </trkpt>
      <trkpt lat="44.35726" lon="4.8075">
        <ele>212.9</ele>
        <time>2018-04-24T12:12:02Z</time>
      </trkpt>
      <trkpt lat="44.35715" lon="4.80744">
        <ele>211.9</ele>
        <time>2018-04-24T12:12:04Z</time>
      </trkpt>
      <trkpt lat="44.35704" lon="4.80738">
        <ele>210.5</ele>
        <time>2018-04-24T12:12:06Z</time>
      </trkpt>
      <trkpt lat="44.35694" lon="4.80731">
        <ele>209.2</ele>
        <time>2018-04-24T12:12:08Z</time>
      </trkpt>
      <trkpt lat="44.35686" lon="4.80723">
        <ele>208.2</ele>
        <time>2018-04-24T12:12:10Z</time>
      </trkpt>
      <trkpt lat="44.35679" lon="4.80708">
        <ele>206.7</ele>
        <time>2018-04-24T12:12:13Z</time>
      </trkpt>
      <trkpt lat="44.35674" lon="4.80693">
        <ele>205.6</ele>
        <time>2018-04-24T12:12:15Z</time>
      </trkpt>
      <trkpt lat="44.35669" lon="4.8068">
        <ele>204.4</ele>
        <time>2018-04-24T12:12:17Z</time>
      </trkpt>
      <trkpt lat="44.35667" lon="4.80667">
        <ele>202.9</ele>
        <time>2018-04-24T12:12:19Z</time>
      </trkpt>
      <trkpt lat="44.35665" lon="4.80654">
        <ele>201.8</ele>
        <time>2018-04-24T12:12:21Z</time>
      </trkpt>
      <trkpt lat="44.35661" lon="4.80641">
        <ele>200.7</ele>
        <time>2018-04-24T12:12:23Z</time>
      </trkpt>
      <trkpt lat="44.35656" lon="4.8063">
        <ele>199.8</ele>
        <time>2018-04-24T12:12:25Z</time>
      </trkpt>
      <trkpt lat="44.35649" lon="4.80618">
        <ele>198.8</ele>
        <time>2018-04-24T12:12:27Z</time>
      </trkpt>
      <trkpt lat="44.35643" lon="4.80606">
        <ele>198</ele>
        <time>2018-04-24T12:12:29Z</time>
      </trkpt>
      <trkpt lat="44.35639" lon="4.80588">
        <ele>196.2</ele>
        <time>2018-04-24T12:12:32Z</time>
      </trkpt>
      <trkpt lat="44.35634" lon="4.80574">
        <ele>195</ele>
        <time>2018-04-24T12:12:34Z</time>
      </trkpt>
      <trkpt lat="44.35628" lon="4.80559">
        <ele>194.2</ele>
        <time>2018-04-24T12:12:36Z</time>
      </trkpt>
      <trkpt lat="44.35625" lon="4.80546">
        <ele>193.4</ele>
        <time>2018-04-24T12:12:38Z</time>
      </trkpt>
      <trkpt lat="44.35626" lon="4.80531">
        <ele>192.5</ele>
        <time>2018-04-24T12:12:41Z</time>
      </trkpt>
      <trkpt lat="44.35624" lon="4.80518">
        <ele>191.7</ele>
        <time>2018-04-24T12:12:43Z</time>
      </trkpt>
      <trkpt lat="44.35619" lon="4.80504">
        <ele>190.9</ele>
        <time>2018-04-24T12:12:45Z</time>
      </trkpt>
      <trkpt lat="44.35612" lon="4.80492">
        <ele>190.4</ele>
        <time>2018-04-24T12:12:47Z</time>
      </trkpt>
      <trkpt lat="44.35605" lon="4.80479">
        <ele>189.8</ele>
        <time>2018-04-24T12:12:49Z</time>
      </trkpt>
      <trkpt lat="44.35597" lon="4.80467">
        <ele>189.2</ele>
        <time>2018-04-24T12:12:51Z</time>
      </trkpt>
      <trkpt lat="44.3559" lon="4.80453">
        <ele>188.9</ele>
        <time>2018-04-24T12:12:53Z</time>
      </trkpt>
      <trkpt lat="44.35584" lon="4.80441">
        <ele>188.7</ele>
        <time>2018-04-24T12:12:55Z</time>
      </trkpt>
      <trkpt lat="44.3558" lon="4.80429">
        <ele>188.2</ele>
        <time>2018-04-24T12:12:57Z</time>
      </trkpt>
      <trkpt lat="44.35574" lon="4.80418">
        <ele>187.9</ele>
        <time>2018-04-24T12:12:59Z</time>
      </trkpt>
      <trkpt lat="44.35568" lon="4.80401">
        <ele>187</ele>
        <time>2018-04-24T12:13:02Z</time>
      </trkpt>
      <trkpt lat="44.35561" lon="4.80391">
        <ele>187</ele>
        <time>2018-04-24T12:13:04Z</time>
      </trkpt>
      <trkpt lat="44.35553" lon="4.80377">
        <ele>186.1</ele>
        <time>2018-04-24T12:13:06Z</time>
      </trkpt>
      <trkpt lat="44.35548" lon="4.80361">
        <ele>185.8</ele>
        <time>2018-04-24T12:13:08Z</time>
      </trkpt>
      <trkpt lat="44.35543" lon="4.80349">
        <ele>185.5</ele>
        <time>2018-04-24T12:13:10Z</time>
      </trkpt>
      <trkpt lat="44.35543" lon="4.80335">
        <ele>185.2</ele>
        <time>2018-04-24T12:13:12Z</time>
      </trkpt>
      <trkpt lat="44.35542" lon="4.8032">
        <ele>185</ele>
        <time>2018-04-24T12:13:14Z</time>
      </trkpt>
      <trkpt lat="44.35534" lon="4.80307">
        <ele>184.7</ele>
        <time>2018-04-24T12:13:16Z</time>
      </trkpt>
      <trkpt lat="44.35527" lon="4.80295">
        <ele>184.3</ele>
        <time>2018-04-24T12:13:18Z</time>
      </trkpt>
      <trkpt lat="44.35523" lon="4.80281">
        <ele>183.9</ele>
        <time>2018-04-24T12:13:20Z</time>
      </trkpt>
      <trkpt lat="44.35518" lon="4.8027">
        <ele>183.8</ele>
        <time>2018-04-24T12:13:22Z</time>
      </trkpt>
      <trkpt lat="44.35511" lon="4.80259">
        <ele>183.5</ele>
        <time>2018-04-24T12:13:24Z</time>
      </trkpt>
      <trkpt lat="44.35501" lon="4.80252">
        <ele>183.4</ele>
        <time>2018-04-24T12:13:27Z</time>
      </trkpt>
      <trkpt lat="44.35493" lon="4.8024">
        <ele>183.3</ele>
        <time>2018-04-24T12:13:30Z</time>
      </trkpt>
      <trkpt lat="44.3549" lon="4.80226">
        <ele>183.2</ele>
        <time>2018-04-24T12:13:32Z</time>
      </trkpt>
      <trkpt lat="44.35481" lon="4.80212">
        <ele>183.2</ele>
        <time>2018-04-24T12:13:34Z</time>
      </trkpt>
      <trkpt lat="44.35471" lon="4.80203">
        <ele>183.1</ele>
        <time>2018-04-24T12:13:36Z</time>
      </trkpt>
      <trkpt lat="44.35463" lon="4.80195">
        <ele>183</ele>
        <time>2018-04-24T12:13:38Z</time>
      </trkpt>
      <trkpt lat="44.35458" lon="4.80184">
        <ele>182.8</ele>
        <time>2018-04-24T12:13:40Z</time>
      </trkpt>
      <trkpt lat="44.35451" lon="4.80173">
        <ele>182.5</ele>
        <time>2018-04-24T12:13:42Z</time>
      </trkpt>
      <trkpt lat="44.35442" lon="4.80163">
        <ele>181.8</ele>
        <time>2018-04-24T12:13:45Z</time>
      </trkpt>
      <trkpt lat="44.35438" lon="4.80149">
        <ele>180.3</ele>
        <time>2018-04-24T12:13:55Z</time>
      </trkpt>
      <trkpt lat="44.35431" lon="4.80137">
        <ele>179.7</ele>
        <time>2018-04-24T12:13:59Z</time>
      </trkpt>
      <trkpt lat="44.35421" lon="4.80126">
        <ele>179</ele>
        <time>2018-04-24T12:14:02Z</time>
      </trkpt>
      <trkpt lat="44.35417" lon="4.80114">
        <ele>178.4</ele>
        <time>2018-04-24T12:14:04Z</time>
      </trkpt>
      <trkpt lat="44.35414" lon="4.80101">
        <ele>177.9</ele>
        <time>2018-04-24T12:14:06Z</time>
      </trkpt>
      <trkpt lat="44.3541" lon="4.80088">
        <ele>177.5</ele>
        <time>2018-04-24T12:14:08Z</time>
      </trkpt>
      <trkpt lat="44.35406" lon="4.80075">
        <ele>177.1</ele>
        <time>2018-04-24T12:14:10Z</time>
      </trkpt>
      <trkpt lat="44.354" lon="4.80062">
        <ele>176.6</ele>
        <time>2018-04-24T12:14:12Z</time>
      </trkpt>
      <trkpt lat="44.35395" lon="4.80051">
        <ele>176.4</ele>
        <time>2018-04-24T12:14:14Z</time>
      </trkpt>
      <trkpt lat="44.35388" lon="4.80039">
        <ele>176.3</ele>
        <time>2018-04-24T12:14:17Z</time>
      </trkpt>
      <trkpt lat="44.35381" lon="4.80024">
        <ele>176</ele>
        <time>2018-04-24T12:14:20Z</time>
      </trkpt>
      <trkpt lat="44.35372" lon="4.80011">
        <ele>175.8</ele>
        <time>2018-04-24T12:14:23Z</time>
      </trkpt>
      <trkpt lat="44.35365" lon="4.80001">
        <ele>175.8</ele>
        <time>2018-04-24T12:14:25Z</time>
      </trkpt>
      <trkpt lat="44.35358" lon="4.79991">
        <ele>175.7</ele>
        <time>2018-04-24T12:14:27Z</time>
      </trkpt>
      <trkpt lat="44.35353" lon="4.79979">
        <ele>175.9</ele>
        <time>2018-04-24T12:14:29Z</time>
      </trkpt>
      <trkpt lat="44.35351" lon="4.79967">
        <ele>176</ele>
        <time>2018-04-24T12:14:31Z</time>
      </trkpt>
      <trkpt lat="44.35347" lon="4.79954">
        <ele>176.1</ele>
        <time>2018-04-24T12:14:33Z</time>
      </trkpt>
      <trkpt lat="44.35343" lon="4.79941">
        <ele>176.1</ele>
        <time>2018-04-24T12:14:35Z</time>
      </trkpt>
      <trkpt lat="44.3534" lon="4.79927">
        <ele>176</ele>
        <time>2018-04-24T12:14:37Z</time>
      </trkpt>
      <trkpt lat="44.35338" lon="4.79913">
        <ele>176</ele>
        <time>2018-04-24T12:14:39Z</time>
      </trkpt>
      <trkpt lat="44.35336" lon="4.79899">
        <ele>175.9</ele>
        <time>2018-04-24T12:14:41Z</time>
      </trkpt>
      <trkpt lat="44.35329" lon="4.79885">
        <ele>175.5</ele>
        <time>2018-04-24T12:14:44Z</time>
      </trkpt>
      <trkpt lat="44.35328" lon="4.79866">
        <ele>175.5</ele>
        <time>2018-04-24T12:14:47Z</time>
      </trkpt>
      <trkpt lat="44.35328" lon="4.79852">
        <ele>175.5</ele>
        <time>2018-04-24T12:14:49Z</time>
      </trkpt>
      <trkpt lat="44.35326" lon="4.79839">
        <ele>175.6</ele>
        <time>2018-04-24T12:14:51Z</time>
      </trkpt>
      <trkpt lat="44.35327" lon="4.79822">
        <ele>175.5</ele>
        <time>2018-04-24T12:14:54Z</time>
      </trkpt>
      <trkpt lat="44.3532" lon="4.79811">
        <ele>176.1</ele>
        <time>2018-04-24T12:14:59Z</time>
      </trkpt>
      <trkpt lat="44.35313" lon="4.79819">
        <ele>175.9</ele>
        <time>2018-04-24T12:15:02Z</time>
      </trkpt>
      <trkpt lat="44.35303" lon="4.79827">
        <ele>175.4</ele>
        <time>2018-04-24T12:15:07Z</time>
      </trkpt>
      <trkpt lat="44.35295" lon="4.79835">
        <ele>174.8</ele>
        <time>2018-04-24T12:15:10Z</time>
      </trkpt>
      <trkpt lat="44.35287" lon="4.79849">
        <ele>173.7</ele>
        <time>2018-04-24T12:15:13Z</time>
      </trkpt>
      <trkpt lat="44.35281" lon="4.7986">
        <ele>172.8</ele>
        <time>2018-04-24T12:15:15Z</time>
      </trkpt>
      <trkpt lat="44.3527" lon="4.79866">
        <ele>171.4</ele>
        <time>2018-04-24T12:15:19Z</time>
      </trkpt>
      <trkpt lat="44.35259" lon="4.79871">
        <ele>170.8</ele>
        <time>2018-04-24T12:15:22Z</time>
      </trkpt>
      <trkpt lat="44.35251" lon="4.79881">
        <ele>170.4</ele>
        <time>2018-04-24T12:15:25Z</time>
      </trkpt>
      <trkpt lat="44.35242" lon="4.79885">
        <ele>170.4</ele>
        <time>2018-04-24T12:15:28Z</time>
      </trkpt>
      <trkpt lat="44.3523" lon="4.7989">
        <ele>170.4</ele>
        <time>2018-04-24T12:15:31Z</time>
      </trkpt>
      <trkpt lat="44.35221" lon="4.79901">
        <ele>170.5</ele>
        <time>2018-04-24T12:15:34Z</time>
      </trkpt>
      <trkpt lat="44.3521" lon="4.79904">
        <ele>170.5</ele>
        <time>2018-04-24T12:15:37Z</time>
      </trkpt>
      <trkpt lat="44.352" lon="4.79906">
        <ele>170.7</ele>
        <time>2018-04-24T12:15:40Z</time>
      </trkpt>
      <trkpt lat="44.3519" lon="4.79908">
        <ele>171</ele>
        <time>2018-04-24T12:15:44Z</time>
      </trkpt>
      <trkpt lat="44.35192" lon="4.79891">
        <ele>171</ele>
        <time>2018-04-24T12:15:49Z</time>
      </trkpt>
      <trkpt lat="44.35184" lon="4.79881">
        <ele>170.5</ele>
        <time>2018-04-24T12:15:53Z</time>
      </trkpt>
      <trkpt lat="44.35176" lon="4.79873">
        <ele>170.5</ele>
        <time>2018-04-24T12:15:56Z</time>
      </trkpt>
      <trkpt lat="44.35167" lon="4.7987">
        <ele>171.6</ele>
        <time>2018-04-24T12:16:09Z</time>
      </trkpt>
      <trkpt lat="44.35158" lon="4.79868">
        <ele>173.5</ele>
        <time>2018-04-24T12:16:52Z</time>
      </trkpt>
      <trkpt lat="44.35149" lon="4.79865">
        <ele>174.3</ele>
        <time>2018-04-24T12:17:21Z</time>
      </trkpt>
      <trkpt lat="44.35137" lon="4.79864">
        <ele>175</ele>
        <time>2018-04-24T12:17:26Z</time>
      </trkpt>
      <trkpt lat="44.35127" lon="4.79869">
        <ele>175.1</ele>
        <time>2018-04-24T12:17:30Z</time>
      </trkpt>
      <trkpt lat="44.35117" lon="4.79874">
        <ele>175</ele>
        <time>2018-04-24T12:17:34Z</time>
      </trkpt>
      <trkpt lat="44.35107" lon="4.79869">
        <ele>174.9</ele>
        <time>2018-04-24T12:17:38Z</time>
      </trkpt>
      <trkpt lat="44.35098" lon="4.79868">
        <ele>174.7</ele>
        <time>2018-04-24T12:17:41Z</time>
      </trkpt>
      <trkpt lat="44.35086" lon="4.79867">
        <ele>174.5</ele>
        <time>2018-04-24T12:17:44Z</time>
      </trkpt>
      <trkpt lat="44.35075" lon="4.7986">
        <ele>174.4</ele>
        <time>2018-04-24T12:17:47Z</time>
      </trkpt>
      <trkpt lat="44.35062" lon="4.79856">
        <ele>173.9</ele>
        <time>2018-04-24T12:17:50Z</time>
      </trkpt>
      <trkpt lat="44.35053" lon="4.79851">
        <ele>173.4</ele>
        <time>2018-04-24T12:17:52Z</time>
      </trkpt>
      <trkpt lat="44.35041" lon="4.79852">
        <ele>172.9</ele>
        <time>2018-04-24T12:17:55Z</time>
      </trkpt>
      <trkpt lat="44.35031" lon="4.79846">
        <ele>172.8</ele>
        <time>2018-04-24T12:17:58Z</time>
      </trkpt>
      <trkpt lat="44.35017" lon="4.79841">
        <ele>172.5</ele>
        <time>2018-04-24T12:18:01Z</time>
      </trkpt>
      <trkpt lat="44.35005" lon="4.79838">
        <ele>171.9</ele>
        <time>2018-04-24T12:18:03Z</time>
      </trkpt>
      <trkpt lat="44.34998" lon="4.79829">
        <ele>171.3</ele>
        <time>2018-04-24T12:18:09Z</time>
      </trkpt>
      <trkpt lat="44.34995" lon="4.79816">
        <ele>171.4</ele>
        <time>2018-04-24T12:18:13Z</time>
      </trkpt>
      <trkpt lat="44.34994" lon="4.79799">
        <ele>171.8</ele>
        <time>2018-04-24T12:18:17Z</time>
      </trkpt>
      <trkpt lat="44.34985" lon="4.79791">
        <ele>171.9</ele>
        <time>2018-04-24T12:18:20Z</time>
      </trkpt>
      <trkpt lat="44.34976" lon="4.79783">
        <ele>172.1</ele>
        <time>2018-04-24T12:18:23Z</time>
      </trkpt>
      <trkpt lat="44.34967" lon="4.79775">
        <ele>173.8</ele>
        <time>2018-04-24T12:18:31Z</time>
      </trkpt>
      <trkpt lat="44.34962" lon="4.79764">
        <ele>174.5</ele>
        <time>2018-04-24T12:18:35Z</time>
      </trkpt>
      <trkpt lat="44.34956" lon="4.79753">
        <ele>175</ele>
        <time>2018-04-24T12:18:38Z</time>
      </trkpt>
      <trkpt lat="44.34947" lon="4.79748">
        <ele>175.7</ele>
        <time>2018-04-24T12:18:43Z</time>
      </trkpt>
      <trkpt lat="44.34938" lon="4.7974">
        <ele>176.4</ele>
        <time>2018-04-24T12:18:49Z</time>
      </trkpt>
      <trkpt lat="44.34929" lon="4.79737">
        <ele>176.3</ele>
        <time>2018-04-24T12:18:58Z</time>
      </trkpt>
      <trkpt lat="44.34919" lon="4.79742">
        <ele>178</ele>
        <time>2018-04-24T12:21:48Z</time>
      </trkpt>
      <trkpt lat="44.34914" lon="4.79755">
        <ele>178.7</ele>
        <time>2018-04-24T12:21:53Z</time>
      </trkpt>
      <trkpt lat="44.34912" lon="4.79771">
        <ele>178.8</ele>
        <time>2018-04-24T12:21:57Z</time>
      </trkpt>
      <trkpt lat="44.34908" lon="4.79783">
        <ele>178.7</ele>
        <time>2018-04-24T12:22:00Z</time>
      </trkpt>
      <trkpt lat="44.34904" lon="4.79799">
        <ele>178.6</ele>
        <time>2018-04-24T12:22:03Z</time>
      </trkpt>
      <trkpt lat="44.34899" lon="4.7981">
        <ele>178.4</ele>
        <time>2018-04-24T12:22:06Z</time>
      </trkpt>
      <trkpt lat="44.3489" lon="4.79816">
        <ele>178.4</ele>
        <time>2018-04-24T12:22:09Z</time>
      </trkpt>
      <trkpt lat="44.34881" lon="4.79818">
        <ele>178.3</ele>
        <time>2018-04-24T12:22:12Z</time>
      </trkpt>
      <trkpt lat="44.34871" lon="4.79819">
        <ele>178.3</ele>
        <time>2018-04-24T12:22:15Z</time>
      </trkpt>
      <trkpt lat="44.34861" lon="4.79823">
        <ele>178.2</ele>
        <time>2018-04-24T12:22:18Z</time>
      </trkpt>
      <trkpt lat="44.3485" lon="4.79821">
        <ele>178.1</ele>
        <time>2018-04-24T12:22:21Z</time>
      </trkpt>
      <trkpt lat="44.34842" lon="4.79811">
        <ele>178</ele>
        <time>2018-04-24T12:22:25Z</time>
      </trkpt>
      <trkpt lat="44.34843" lon="4.79796">
        <ele>178.3</ele>
        <time>2018-04-24T12:22:29Z</time>
      </trkpt>
      <trkpt lat="44.34844" lon="4.7978">
        <ele>178.7</ele>
        <time>2018-04-24T12:22:33Z</time>
      </trkpt>
      <trkpt lat="44.34847" lon="4.79767">
        <ele>179.3</ele>
        <time>2018-04-24T12:22:37Z</time>
      </trkpt>
      <trkpt lat="44.3485" lon="4.79754">
        <ele>179.5</ele>
        <time>2018-04-24T12:22:40Z</time>
      </trkpt>
      <trkpt lat="44.34848" lon="4.7974">
        <ele>179.9</ele>
        <time>2018-04-24T12:22:44Z</time>
      </trkpt>
      <trkpt lat="44.34844" lon="4.79729">
        <ele>180.3</ele>
        <time>2018-04-24T12:22:47Z</time>
      </trkpt>
      <trkpt lat="44.34835" lon="4.79718">
        <ele>180.8</ele>
        <time>2018-04-24T12:22:51Z</time>
      </trkpt>
      <trkpt lat="44.34827" lon="4.79711">
        <ele>181.7</ele>
        <time>2018-04-24T12:22:55Z</time>
      </trkpt>
      <trkpt lat="44.34817" lon="4.79704">
        <ele>183</ele>
        <time>2018-04-24T12:23:00Z</time>
      </trkpt>
      <trkpt lat="44.34808" lon="4.797">
        <ele>184.2</ele>
        <time>2018-04-24T12:23:04Z</time>
      </trkpt>
      <trkpt lat="44.34797" lon="4.79697">
        <ele>185.7</ele>
        <time>2018-04-24T12:23:09Z</time>
      </trkpt>
      <trkpt lat="44.34788" lon="4.79693">
        <ele>187.1</ele>
        <time>2018-04-24T12:23:13Z</time>
      </trkpt>
      <trkpt lat="44.34779" lon="4.79687">
        <ele>188.3</ele>
        <time>2018-04-24T12:23:17Z</time>
      </trkpt>
      <trkpt lat="44.34769" lon="4.79685">
        <ele>189.9</ele>
        <time>2018-04-24T12:23:22Z</time>
      </trkpt>
      <trkpt lat="44.34758" lon="4.79682">
        <ele>191.1</ele>
        <time>2018-04-24T12:23:27Z</time>
      </trkpt>
      <trkpt lat="44.34749" lon="4.7968">
        <ele>192.4</ele>
        <time>2018-04-24T12:23:32Z</time>
      </trkpt>
      <trkpt lat="44.34739" lon="4.79675">
        <ele>193</ele>
        <time>2018-04-24T12:23:36Z</time>
      </trkpt>
      <trkpt lat="44.34728" lon="4.7967">
        <ele>193.5</ele>
        <time>2018-04-24T12:23:40Z</time>
      </trkpt>
      <trkpt lat="44.34718" lon="4.79664">
        <ele>193.8</ele>
        <time>2018-04-24T12:23:44Z</time>
      </trkpt>
      <trkpt lat="44.34708" lon="4.79657">
        <ele>194.3</ele>
        <time>2018-04-24T12:23:48Z</time>
      </trkpt>
      <trkpt lat="44.34701" lon="4.79646">
        <ele>194.2</ele>
        <time>2018-04-24T12:23:51Z</time>
      </trkpt>
      <trkpt lat="44.34693" lon="4.79636">
        <ele>193.9</ele>
        <time>2018-04-24T12:23:53Z</time>
      </trkpt>
      <trkpt lat="44.34687" lon="4.79625">
        <ele>193.8</ele>
        <time>2018-04-24T12:23:55Z</time>
      </trkpt>
      <trkpt lat="44.34675" lon="4.79616">
        <ele>193.3</ele>
        <time>2018-04-24T12:23:58Z</time>
      </trkpt>
      <trkpt lat="44.34666" lon="4.79609">
        <ele>193.3</ele>
        <time>2018-04-24T12:24:01Z</time>
      </trkpt>
      <trkpt lat="44.34659" lon="4.79601">
        <ele>193.6</ele>
        <time>2018-04-24T12:24:04Z</time>
      </trkpt>
      <trkpt lat="44.3465" lon="4.7959">
        <ele>193.9</ele>
        <time>2018-04-24T12:24:08Z</time>
      </trkpt>
      <trkpt lat="44.34643" lon="4.79577">
        <ele>194.1</ele>
        <time>2018-04-24T12:24:11Z</time>
      </trkpt>
      <trkpt lat="44.34638" lon="4.79566">
        <ele>194.2</ele>
        <time>2018-04-24T12:24:13Z</time>
      </trkpt>
      <trkpt lat="44.34628" lon="4.79563">
        <ele>194.8</ele>
        <time>2018-04-24T12:24:17Z</time>
      </trkpt>
      <trkpt lat="44.34618" lon="4.79556">
        <ele>196.2</ele>
        <time>2018-04-24T12:24:22Z</time>
      </trkpt>
      <trkpt lat="44.34614" lon="4.79543">
        <ele>197.7</ele>
        <time>2018-04-24T12:24:27Z</time>
      </trkpt>
      <trkpt lat="44.34609" lon="4.79528">
        <ele>198</ele>
        <time>2018-04-24T12:24:30Z</time>
      </trkpt>
      <trkpt lat="44.34606" lon="4.79514">
        <ele>197.6</ele>
        <time>2018-04-24T12:24:32Z</time>
      </trkpt>
      <trkpt lat="44.346" lon="4.79504">
        <ele>196.9</ele>
        <time>2018-04-24T12:24:34Z</time>
      </trkpt>
      <trkpt lat="44.34592" lon="4.79498">
        <ele>195.9</ele>
        <time>2018-04-24T12:24:36Z</time>
      </trkpt>
      <trkpt lat="44.34585" lon="4.79488">
        <ele>194.7</ele>
        <time>2018-04-24T12:24:38Z</time>
      </trkpt>
      <trkpt lat="44.34577" lon="4.79478">
        <ele>193.5</ele>
        <time>2018-04-24T12:24:40Z</time>
      </trkpt>
      <trkpt lat="44.34568" lon="4.79469">
        <ele>191.4</ele>
        <time>2018-04-24T12:24:43Z</time>
      </trkpt>
      <trkpt lat="44.34562" lon="4.79458">
        <ele>187.4</ele>
        <time>2018-04-24T12:24:50Z</time>
      </trkpt>
      <trkpt lat="44.34552" lon="4.7945">
        <ele>185.8</ele>
        <time>2018-04-24T12:24:54Z</time>
      </trkpt>
      <trkpt lat="44.34544" lon="4.79441">
        <ele>184.3</ele>
        <time>2018-04-24T12:24:58Z</time>
      </trkpt>
      <trkpt lat="44.34535" lon="4.79448">
        <ele>177.3</ele>
        <time>2018-04-24T12:26:15Z</time>
      </trkpt>
      <trkpt lat="44.34526" lon="4.79436">
        <ele>176.5</ele>
        <time>2018-04-24T12:26:21Z</time>
      </trkpt>
      <trkpt lat="44.34523" lon="4.79424">
        <ele>175.8</ele>
        <time>2018-04-24T12:26:24Z</time>
      </trkpt>
      <trkpt lat="44.3452" lon="4.79411">
        <ele>175.2</ele>
        <time>2018-04-24T12:26:27Z</time>
      </trkpt>
      <trkpt lat="44.34518" lon="4.79397">
        <ele>174.9</ele>
        <time>2018-04-24T12:26:30Z</time>
      </trkpt>
      <trkpt lat="44.34518" lon="4.79383">
        <ele>174.7</ele>
        <time>2018-04-24T12:26:35Z</time>
      </trkpt>
      <trkpt lat="44.34508" lon="4.79375">
        <ele>174.6</ele>
        <time>2018-04-24T12:26:40Z</time>
      </trkpt>
      <trkpt lat="44.34501" lon="4.79365">
        <ele>173.2</ele>
        <time>2018-04-24T12:26:44Z</time>
      </trkpt>
      <trkpt lat="44.345" lon="4.79351">
        <ele>171.4</ele>
        <time>2018-04-24T12:26:48Z</time>
      </trkpt>
      <trkpt lat="44.34495" lon="4.7934">
        <ele>167.3</ele>
        <time>2018-04-24T12:27:11Z</time>
      </trkpt>
      <trkpt lat="44.34487" lon="4.79334">
        <ele>162.7</ele>
        <time>2018-04-24T12:27:42Z</time>
      </trkpt>
      <trkpt lat="44.34478" lon="4.79325">
        <ele>159.5</ele>
        <time>2018-04-24T12:27:57Z</time>
      </trkpt>
      <trkpt lat="44.34469" lon="4.79325">
        <ele>158.2</ele>
        <time>2018-04-24T12:28:01Z</time>
      </trkpt>
      <trkpt lat="44.34461" lon="4.79314">
        <ele>156.8</ele>
        <time>2018-04-24T12:28:05Z</time>
      </trkpt>
      <trkpt lat="44.34458" lon="4.79302">
        <ele>155.6</ele>
        <time>2018-04-24T12:28:08Z</time>
      </trkpt>
      <trkpt lat="44.34456" lon="4.79288">
        <ele>153.9</ele>
        <time>2018-04-24T12:28:12Z</time>
      </trkpt>
      <trkpt lat="44.34447" lon="4.79282">
        <ele>151.7</ele>
        <time>2018-04-24T12:28:16Z</time>
      </trkpt>
      <trkpt lat="44.34438" lon="4.79274">
        <ele>149.5</ele>
        <time>2018-04-24T12:28:20Z</time>
      </trkpt>
      <trkpt lat="44.3444" lon="4.79261">
        <ele>145.7</ele>
        <time>2018-04-24T12:28:28Z</time>
      </trkpt>
      <trkpt lat="44.34445" lon="4.7925">
        <ele>144.7</ele>
        <time>2018-04-24T12:28:31Z</time>
      </trkpt>
      <trkpt lat="44.34451" lon="4.79237">
        <ele>143.7</ele>
        <time>2018-04-24T12:28:34Z</time>
      </trkpt>
      <trkpt lat="44.34459" lon="4.79225">
        <ele>142.9</ele>
        <time>2018-04-24T12:28:37Z</time>
      </trkpt>
      <trkpt lat="44.34465" lon="4.79214">
        <ele>142.5</ele>
        <time>2018-04-24T12:28:40Z</time>
      </trkpt>
      <trkpt lat="44.34471" lon="4.79203">
        <ele>141.8</ele>
        <time>2018-04-24T12:28:44Z</time>
      </trkpt>
      <trkpt lat="44.34468" lon="4.7919">
        <ele>140.9</ele>
        <time>2018-04-24T12:28:49Z</time>
      </trkpt>
      <trkpt lat="44.34459" lon="4.79179">
        <ele>139</ele>
        <time>2018-04-24T12:28:56Z</time>
      </trkpt>
      <trkpt lat="44.3445" lon="4.79173">
        <ele>138</ele>
        <time>2018-04-24T12:28:59Z</time>
      </trkpt>
      <trkpt lat="44.3444" lon="4.79162">
        <ele>136.9</ele>
        <time>2018-04-24T12:29:03Z</time>
      </trkpt>
      <trkpt lat="44.34431" lon="4.7916">
        <ele>135.8</ele>
        <time>2018-04-24T12:29:05Z</time>
      </trkpt>
      <trkpt lat="44.3442" lon="4.79158">
        <ele>135.1</ele>
        <time>2018-04-24T12:29:07Z</time>
      </trkpt>
      <trkpt lat="44.34408" lon="4.79154">
        <ele>134.4</ele>
        <time>2018-04-24T12:29:09Z</time>
      </trkpt>
      <trkpt lat="44.34395" lon="4.79149">
        <ele>133.4</ele>
        <time>2018-04-24T12:29:11Z</time>
      </trkpt>
      <trkpt lat="44.34382" lon="4.79145">
        <ele>132.5</ele>
        <time>2018-04-24T12:29:13Z</time>
      </trkpt>
      <trkpt lat="44.34371" lon="4.79137">
        <ele>131.6</ele>
        <time>2018-04-24T12:29:15Z</time>
      </trkpt>
      <trkpt lat="44.3436" lon="4.79126">
        <ele>130.7</ele>
        <time>2018-04-24T12:29:17Z</time>
      </trkpt>
      <trkpt lat="44.34346" lon="4.79113">
        <ele>129.6</ele>
        <time>2018-04-24T12:29:19Z</time>
      </trkpt>
      <trkpt lat="44.3433" lon="4.791">
        <ele>128.4</ele>
        <time>2018-04-24T12:29:21Z</time>
      </trkpt>
      <trkpt lat="44.34316" lon="4.7909">
        <ele>127.1</ele>
        <time>2018-04-24T12:29:23Z</time>
      </trkpt>
      <trkpt lat="44.34301" lon="4.79083">
        <ele>126</ele>
        <time>2018-04-24T12:29:25Z</time>
      </trkpt>
      <trkpt lat="44.34284" lon="4.79079">
        <ele>124.8</ele>
        <time>2018-04-24T12:29:27Z</time>
      </trkpt>
      <trkpt lat="44.34274" lon="4.79077">
        <ele>124.1</ele>
        <time>2018-04-24T12:29:28Z</time>
      </trkpt>
      <trkpt lat="44.34266" lon="4.79076">
        <ele>123.4</ele>
        <time>2018-04-24T12:29:29Z</time>
      </trkpt>
      <trkpt lat="44.34247" lon="4.79073">
        <ele>121.8</ele>
        <time>2018-04-24T12:29:31Z</time>
      </trkpt>
      <trkpt lat="44.34238" lon="4.79072">
        <ele>121.1</ele>
        <time>2018-04-24T12:29:32Z</time>
      </trkpt>
      <trkpt lat="44.34224" lon="4.79065">
        <ele>119.6</ele>
        <time>2018-04-24T12:29:34Z</time>
      </trkpt>
      <trkpt lat="44.34213" lon="4.79054">
        <ele>118.3</ele>
        <time>2018-04-24T12:29:36Z</time>
      </trkpt>
      <trkpt lat="44.34207" lon="4.79044">
        <ele>117.1</ele>
        <time>2018-04-24T12:29:38Z</time>
      </trkpt>
      <trkpt lat="44.3421" lon="4.79031">
        <ele>115.4</ele>
        <time>2018-04-24T12:29:41Z</time>
      </trkpt>
      <trkpt lat="44.34216" lon="4.79018">
        <ele>114.4</ele>
        <time>2018-04-24T12:29:44Z</time>
      </trkpt>
      <trkpt lat="44.34223" lon="4.79006">
        <ele>113.8</ele>
        <time>2018-04-24T12:29:47Z</time>
      </trkpt>
      <trkpt lat="44.34232" lon="4.78994">
        <ele>113</ele>
        <time>2018-04-24T12:29:50Z</time>
      </trkpt>
      <trkpt lat="44.3424" lon="4.78985">
        <ele>112.5</ele>
        <time>2018-04-24T12:29:52Z</time>
      </trkpt>
      <trkpt lat="44.34249" lon="4.78976">
        <ele>111.8</ele>
        <time>2018-04-24T12:29:54Z</time>
      </trkpt>
      <trkpt lat="44.34258" lon="4.78968">
        <ele>110.9</ele>
        <time>2018-04-24T12:29:56Z</time>
      </trkpt>
      <trkpt lat="44.34269" lon="4.78962">
        <ele>110.3</ele>
        <time>2018-04-24T12:29:58Z</time>
      </trkpt>
      <trkpt lat="44.34281" lon="4.78955">
        <ele>109.9</ele>
        <time>2018-04-24T12:30:00Z</time>
      </trkpt>
      <trkpt lat="44.34295" lon="4.78949">
        <ele>109.5</ele>
        <time>2018-04-24T12:30:02Z</time>
      </trkpt>
      <trkpt lat="44.34308" lon="4.78944">
        <ele>109.1</ele>
        <time>2018-04-24T12:30:04Z</time>
      </trkpt>
      <trkpt lat="44.34321" lon="4.78937">
        <ele>108.8</ele>
        <time>2018-04-24T12:30:06Z</time>
      </trkpt>
      <trkpt lat="44.34332" lon="4.7893">
        <ele>108.7</ele>
        <time>2018-04-24T12:30:08Z</time>
      </trkpt>
      <trkpt lat="44.34343" lon="4.78924">
        <ele>108.6</ele>
        <time>2018-04-24T12:30:10Z</time>
      </trkpt>
      <trkpt lat="44.34354" lon="4.78918">
        <ele>108.5</ele>
        <time>2018-04-24T12:30:12Z</time>
      </trkpt>
      <trkpt lat="44.34365" lon="4.78913">
        <ele>108.5</ele>
        <time>2018-04-24T12:30:14Z</time>
      </trkpt>
      <trkpt lat="44.34377" lon="4.78909">
        <ele>108.6</ele>
        <time>2018-04-24T12:30:16Z</time>
      </trkpt>
      <trkpt lat="44.34386" lon="4.78907">
        <ele>108.5</ele>
        <time>2018-04-24T12:30:18Z</time>
      </trkpt>
      <trkpt lat="44.34396" lon="4.78904">
        <ele>108.5</ele>
        <time>2018-04-24T12:30:20Z</time>
      </trkpt>
      <trkpt lat="44.34405" lon="4.78898">
        <ele>108.5</ele>
        <time>2018-04-24T12:30:23Z</time>
      </trkpt>
      <trkpt lat="44.344" lon="4.78887">
        <ele>108.7</ele>
        <time>2018-04-24T12:30:28Z</time>
      </trkpt>
      <trkpt lat="44.34392" lon="4.78882">
        <ele>108.6</ele>
        <time>2018-04-24T12:30:31Z</time>
      </trkpt>
      <trkpt lat="44.34381" lon="4.78876">
        <ele>108.9</ele>
        <time>2018-04-24T12:30:34Z</time>
      </trkpt>
      <trkpt lat="44.34372" lon="4.78873">
        <ele>108.7</ele>
        <time>2018-04-24T12:30:36Z</time>
      </trkpt>
      <trkpt lat="44.34362" lon="4.78861">
        <ele>108.9</ele>
        <time>2018-04-24T12:30:39Z</time>
      </trkpt>
      <trkpt lat="44.34357" lon="4.7885">
        <ele>109.1</ele>
        <time>2018-04-24T12:30:41Z</time>
      </trkpt>
      <trkpt lat="44.34352" lon="4.78837">
        <ele>109.2</ele>
        <time>2018-04-24T12:30:43Z</time>
      </trkpt>
      <trkpt lat="44.34346" lon="4.78823">
        <ele>109.3</ele>
        <time>2018-04-24T12:30:45Z</time>
      </trkpt>
      <trkpt lat="44.3434" lon="4.78809">
        <ele>109.3</ele>
        <time>2018-04-24T12:30:47Z</time>
      </trkpt>
      <trkpt lat="44.34334" lon="4.78794">
        <ele>109.6</ele>
        <time>2018-04-24T12:30:49Z</time>
      </trkpt>
      <trkpt lat="44.34328" lon="4.7878">
        <ele>110</ele>
        <time>2018-04-24T12:30:51Z</time>
      </trkpt>
      <trkpt lat="44.34321" lon="4.78765">
        <ele>110</ele>
        <time>2018-04-24T12:30:53Z</time>
      </trkpt>
      <trkpt lat="44.34314" lon="4.78751">
        <ele>110.1</ele>
        <time>2018-04-24T12:30:55Z</time>
      </trkpt>
      <trkpt lat="44.34309" lon="4.78737">
        <ele>110.2</ele>
        <time>2018-04-24T12:30:57Z</time>
      </trkpt>
      <trkpt lat="44.34303" lon="4.78724">
        <ele>110.3</ele>
        <time>2018-04-24T12:30:59Z</time>
      </trkpt>
      <trkpt lat="44.34297" lon="4.7871">
        <ele>110.5</ele>
        <time>2018-04-24T12:31:01Z</time>
      </trkpt>
      <trkpt lat="44.3429" lon="4.78693">
        <ele>110.5</ele>
        <time>2018-04-24T12:31:03Z</time>
      </trkpt>
      <trkpt lat="44.34282" lon="4.78673">
        <ele>110.4</ele>
        <time>2018-04-24T12:31:05Z</time>
      </trkpt>
      <trkpt lat="44.34276" lon="4.78656">
        <ele>110.1</ele>
        <time>2018-04-24T12:31:07Z</time>
      </trkpt>
      <trkpt lat="44.34274" lon="4.7864">
        <ele>109.6</ele>
        <time>2018-04-24T12:31:09Z</time>
      </trkpt>
      <trkpt lat="44.34272" lon="4.78623">
        <ele>109.7</ele>
        <time>2018-04-24T12:31:11Z</time>
      </trkpt>
      <trkpt lat="44.34271" lon="4.78606">
        <ele>109.6</ele>
        <time>2018-04-24T12:31:13Z</time>
      </trkpt>
      <trkpt lat="44.34271" lon="4.78591">
        <ele>109.4</ele>
        <time>2018-04-24T12:31:15Z</time>
      </trkpt>
      <trkpt lat="44.3427" lon="4.78575">
        <ele>109.3</ele>
        <time>2018-04-24T12:31:17Z</time>
      </trkpt>
      <trkpt lat="44.3427" lon="4.7856">
        <ele>109.2</ele>
        <time>2018-04-24T12:31:19Z</time>
      </trkpt>
      <trkpt lat="44.34269" lon="4.78544">
        <ele>108.9</ele>
        <time>2018-04-24T12:31:21Z</time>
      </trkpt>
      <trkpt lat="44.34269" lon="4.78529">
        <ele>108.8</ele>
        <time>2018-04-24T12:31:23Z</time>
      </trkpt>
      <trkpt lat="44.3427" lon="4.78513">
        <ele>108.2</ele>
        <time>2018-04-24T12:31:25Z</time>
      </trkpt>
      <trkpt lat="44.34275" lon="4.78501">
        <ele>108</ele>
        <time>2018-04-24T12:31:27Z</time>
      </trkpt>
      <trkpt lat="44.34282" lon="4.78491">
        <ele>107.5</ele>
        <time>2018-04-24T12:31:29Z</time>
      </trkpt>
      <trkpt lat="44.34291" lon="4.7848">
        <ele>106.8</ele>
        <time>2018-04-24T12:31:32Z</time>
      </trkpt>
      <trkpt lat="44.34285" lon="4.7847">
        <ele>106.6</ele>
        <time>2018-04-24T12:31:36Z</time>
      </trkpt>
      <trkpt lat="44.34275" lon="4.78464">
        <ele>106.5</ele>
        <time>2018-04-24T12:31:39Z</time>
      </trkpt>
      <trkpt lat="44.34263" lon="4.78457">
        <ele>106.4</ele>
        <time>2018-04-24T12:31:42Z</time>
      </trkpt>
      <trkpt lat="44.34252" lon="4.78449">
        <ele>106.1</ele>
        <time>2018-04-24T12:31:45Z</time>
      </trkpt>
      <trkpt lat="44.34243" lon="4.78443">
        <ele>106.3</ele>
        <time>2018-04-24T12:31:48Z</time>
      </trkpt>
      <trkpt lat="44.34236" lon="4.7843">
        <ele>106.7</ele>
        <time>2018-04-24T12:31:51Z</time>
      </trkpt>
      <trkpt lat="44.34227" lon="4.78417">
        <ele>107.3</ele>
        <time>2018-04-24T12:31:54Z</time>
      </trkpt>
      <trkpt lat="44.34218" lon="4.78418">
        <ele>107.6</ele>
        <time>2018-04-24T12:31:56Z</time>
      </trkpt>
      <trkpt lat="44.34208" lon="4.78422">
        <ele>108</ele>
        <time>2018-04-24T12:31:58Z</time>
      </trkpt>
      <trkpt lat="44.34198" lon="4.78429">
        <ele>108.1</ele>
        <time>2018-04-24T12:32:00Z</time>
      </trkpt>
      <trkpt lat="44.34188" lon="4.78437">
        <ele>108.3</ele>
        <time>2018-04-24T12:32:02Z</time>
      </trkpt>
      <trkpt lat="44.3418" lon="4.78446">
        <ele>108.3</ele>
        <time>2018-04-24T12:32:04Z</time>
      </trkpt>
      <trkpt lat="44.34171" lon="4.78455">
        <ele>108.4</ele>
        <time>2018-04-24T12:32:06Z</time>
      </trkpt>
      <trkpt lat="44.34163" lon="4.78463">
        <ele>108.4</ele>
        <time>2018-04-24T12:32:08Z</time>
      </trkpt>
      <trkpt lat="44.34155" lon="4.78469">
        <ele>108.4</ele>
        <time>2018-04-24T12:32:10Z</time>
      </trkpt>
      <trkpt lat="44.34144" lon="4.78479">
        <ele>108.6</ele>
        <time>2018-04-24T12:32:13Z</time>
      </trkpt>
      <trkpt lat="44.34133" lon="4.78477">
        <ele>108.4</ele>
        <time>2018-04-24T12:32:16Z</time>
      </trkpt>
      <trkpt lat="44.34123" lon="4.78467">
        <ele>108.6</ele>
        <time>2018-04-24T12:32:19Z</time>
      </trkpt>
      <trkpt lat="44.34112" lon="4.78459">
        <ele>108.8</ele>
        <time>2018-04-24T12:32:22Z</time>
      </trkpt>
      <trkpt lat="44.341" lon="4.78451">
        <ele>109.1</ele>
        <time>2018-04-24T12:32:25Z</time>
      </trkpt>
      <trkpt lat="44.34088" lon="4.78444">
        <ele>109.5</ele>
        <time>2018-04-24T12:32:28Z</time>
      </trkpt>
      <trkpt lat="44.3408" lon="4.78439">
        <ele>109.7</ele>
        <time>2018-04-24T12:32:30Z</time>
      </trkpt>
      <trkpt lat="44.34071" lon="4.78434">
        <ele>109.9</ele>
        <time>2018-04-24T12:32:32Z</time>
      </trkpt>
      <trkpt lat="44.34059" lon="4.78427">
        <ele>110.3</ele>
        <time>2018-04-24T12:32:35Z</time>
      </trkpt>
      <trkpt lat="44.34048" lon="4.7842">
        <ele>110.5</ele>
        <time>2018-04-24T12:32:38Z</time>
      </trkpt>
      <trkpt lat="44.34038" lon="4.78414">
        <ele>111.1</ele>
        <time>2018-04-24T12:32:41Z</time>
      </trkpt>
      <trkpt lat="44.34027" lon="4.78407">
        <ele>111.5</ele>
        <time>2018-04-24T12:32:44Z</time>
      </trkpt>
      <trkpt lat="44.34017" lon="4.78401">
        <ele>111.9</ele>
        <time>2018-04-24T12:32:47Z</time>
      </trkpt>
      <trkpt lat="44.34006" lon="4.78394">
        <ele>112.3</ele>
        <time>2018-04-24T12:32:50Z</time>
      </trkpt>
      <trkpt lat="44.33996" lon="4.78388">
        <ele>112.6</ele>
        <time>2018-04-24T12:32:53Z</time>
      </trkpt>
      <trkpt lat="44.33986" lon="4.78381">
        <ele>113.1</ele>
        <time>2018-04-24T12:32:56Z</time>
      </trkpt>
      <trkpt lat="44.33976" lon="4.78375">
        <ele>113.3</ele>
        <time>2018-04-24T12:32:59Z</time>
      </trkpt>
      <trkpt lat="44.33966" lon="4.7837">
        <ele>113.8</ele>
        <time>2018-04-24T12:33:02Z</time>
      </trkpt>
      <trkpt lat="44.33957" lon="4.78364">
        <ele>114.4</ele>
        <time>2018-04-24T12:33:05Z</time>
      </trkpt>
      <trkpt lat="44.33946" lon="4.78359">
        <ele>114.5</ele>
        <time>2018-04-24T12:33:08Z</time>
      </trkpt>
      <trkpt lat="44.33938" lon="4.78354">
        <ele>114.7</ele>
        <time>2018-04-24T12:33:11Z</time>
      </trkpt>
      <trkpt lat="44.33927" lon="4.78348">
        <ele>114.9</ele>
        <time>2018-04-24T12:33:15Z</time>
      </trkpt>
      <trkpt lat="44.33917" lon="4.78349">
        <ele>115</ele>
        <time>2018-04-24T12:33:19Z</time>
      </trkpt>
      <trkpt lat="44.33909" lon="4.78343">
        <ele>115.5</ele>
        <time>2018-04-24T12:33:24Z</time>
      </trkpt>
      <trkpt lat="44.33905" lon="4.78331">
        <ele>115.9</ele>
        <time>2018-04-24T12:33:29Z</time>
      </trkpt>
      <trkpt lat="44.3391" lon="4.7832">
        <ele>116.2</ele>
        <time>2018-04-24T12:33:32Z</time>
      </trkpt>
      <trkpt lat="44.33916" lon="4.78305">
        <ele>116.3</ele>
        <time>2018-04-24T12:33:35Z</time>
      </trkpt>
      <trkpt lat="44.33921" lon="4.78294">
        <ele>116.3</ele>
        <time>2018-04-24T12:33:37Z</time>
      </trkpt>
      <trkpt lat="44.33928" lon="4.78283">
        <ele>116.2</ele>
        <time>2018-04-24T12:33:39Z</time>
      </trkpt>
      <trkpt lat="44.33935" lon="4.78272">
        <ele>116.1</ele>
        <time>2018-04-24T12:33:41Z</time>
      </trkpt>
      <trkpt lat="44.33943" lon="4.78261">
        <ele>116</ele>
        <time>2018-04-24T12:33:43Z</time>
      </trkpt>
      <trkpt lat="44.33951" lon="4.78251">
        <ele>115.6</ele>
        <time>2018-04-24T12:33:45Z</time>
      </trkpt>
      <trkpt lat="44.33959" lon="4.78241">
        <ele>115.4</ele>
        <time>2018-04-24T12:33:47Z</time>
      </trkpt>
      <trkpt lat="44.33967" lon="4.78231">
        <ele>115.3</ele>
        <time>2018-04-24T12:33:49Z</time>
      </trkpt>
      <trkpt lat="44.33975" lon="4.7822">
        <ele>115.2</ele>
        <time>2018-04-24T12:33:51Z</time>
      </trkpt>
      <trkpt lat="44.33984" lon="4.7821">
        <ele>115.2</ele>
        <time>2018-04-24T12:33:53Z</time>
      </trkpt>
      <trkpt lat="44.33993" lon="4.782">
        <ele>115.2</ele>
        <time>2018-04-24T12:33:55Z</time>
      </trkpt>
      <trkpt lat="44.34002" lon="4.78193">
        <ele>115.2</ele>
        <time>2018-04-24T12:33:57Z</time>
      </trkpt>
      <trkpt lat="44.34013" lon="4.7819">
        <ele>115</ele>
        <time>2018-04-24T12:33:59Z</time>
      </trkpt>
      <trkpt lat="44.34024" lon="4.78184">
        <ele>114.9</ele>
        <time>2018-04-24T12:34:01Z</time>
      </trkpt>
      <trkpt lat="44.34027" lon="4.7817">
        <ele>114.9</ele>
        <time>2018-04-24T12:34:03Z</time>
      </trkpt>
      <trkpt lat="44.34028" lon="4.78156">
        <ele>115</ele>
        <time>2018-04-24T12:34:05Z</time>
      </trkpt>
      <trkpt lat="44.34033" lon="4.78144">
        <ele>115.1</ele>
        <time>2018-04-24T12:34:07Z</time>
      </trkpt>
      <trkpt lat="44.3404" lon="4.78133">
        <ele>115.2</ele>
        <time>2018-04-24T12:34:09Z</time>
      </trkpt>
      <trkpt lat="44.34049" lon="4.78122">
        <ele>115.2</ele>
        <time>2018-04-24T12:34:11Z</time>
      </trkpt>
      <trkpt lat="44.34058" lon="4.78111">
        <ele>115.1</ele>
        <time>2018-04-24T12:34:13Z</time>
      </trkpt>
      <trkpt lat="44.34066" lon="4.781">
        <ele>115.1</ele>
        <time>2018-04-24T12:34:15Z</time>
      </trkpt>
      <trkpt lat="44.34075" lon="4.78089">
        <ele>115</ele>
        <time>2018-04-24T12:34:17Z</time>
      </trkpt>
      <trkpt lat="44.34083" lon="4.78078">
        <ele>114.9</ele>
        <time>2018-04-24T12:34:19Z</time>
      </trkpt>
      <trkpt lat="44.34093" lon="4.78066">
        <ele>114.9</ele>
        <time>2018-04-24T12:34:21Z</time>
      </trkpt>
      <trkpt lat="44.34103" lon="4.78056">
        <ele>115.1</ele>
        <time>2018-04-24T12:34:23Z</time>
      </trkpt>
      <trkpt lat="44.34115" lon="4.78047">
        <ele>114.9</ele>
        <time>2018-04-24T12:34:25Z</time>
      </trkpt>
      <trkpt lat="44.34127" lon="4.78039">
        <ele>114.5</ele>
        <time>2018-04-24T12:34:27Z</time>
      </trkpt>
      <trkpt lat="44.3414" lon="4.78031">
        <ele>114.2</ele>
        <time>2018-04-24T12:34:29Z</time>
      </trkpt>
      <trkpt lat="44.34152" lon="4.78024">
        <ele>113.9</ele>
        <time>2018-04-24T12:34:31Z</time>
      </trkpt>
      <trkpt lat="44.34165" lon="4.78016">
        <ele>113.6</ele>
        <time>2018-04-24T12:34:33Z</time>
      </trkpt>
      <trkpt lat="44.34178" lon="4.78008">
        <ele>113.3</ele>
        <time>2018-04-24T12:34:35Z</time>
      </trkpt>
      <trkpt lat="44.34192" lon="4.78002">
        <ele>112.8</ele>
        <time>2018-04-24T12:34:37Z</time>
      </trkpt>
      <trkpt lat="44.34205" lon="4.77995">
        <ele>112.4</ele>
        <time>2018-04-24T12:34:39Z</time>
      </trkpt>
      <trkpt lat="44.34218" lon="4.77989">
        <ele>111.9</ele>
        <time>2018-04-24T12:34:41Z</time>
      </trkpt>
      <trkpt lat="44.34231" lon="4.77982">
        <ele>111.7</ele>
        <time>2018-04-24T12:34:43Z</time>
      </trkpt>
      <trkpt lat="44.34243" lon="4.77977">
        <ele>111.5</ele>
        <time>2018-04-24T12:34:45Z</time>
      </trkpt>
      <trkpt lat="44.34255" lon="4.77971">
        <ele>111.1</ele>
        <time>2018-04-24T12:34:47Z</time>
      </trkpt>
      <trkpt lat="44.34267" lon="4.77965">
        <ele>110.8</ele>
        <time>2018-04-24T12:34:49Z</time>
      </trkpt>
      <trkpt lat="44.3428" lon="4.7796">
        <ele>110.6</ele>
        <time>2018-04-24T12:34:51Z</time>
      </trkpt>
      <trkpt lat="44.34292" lon="4.77954">
        <ele>110.3</ele>
        <time>2018-04-24T12:34:53Z</time>
      </trkpt>
      <trkpt lat="44.34304" lon="4.77948">
        <ele>110</ele>
        <time>2018-04-24T12:34:55Z</time>
      </trkpt>
      <trkpt lat="44.34316" lon="4.77942">
        <ele>109.8</ele>
        <time>2018-04-24T12:34:57Z</time>
      </trkpt>
      <trkpt lat="44.34328" lon="4.77937">
        <ele>109.5</ele>
        <time>2018-04-24T12:34:59Z</time>
      </trkpt>
      <trkpt lat="44.34338" lon="4.77932">
        <ele>109.2</ele>
        <time>2018-04-24T12:35:01Z</time>
      </trkpt>
      <trkpt lat="44.34347" lon="4.77927">
        <ele>109.1</ele>
        <time>2018-04-24T12:35:03Z</time>
      </trkpt>
      <trkpt lat="44.34356" lon="4.77916">
        <ele>109.1</ele>
        <time>2018-04-24T12:35:06Z</time>
      </trkpt>
      <trkpt lat="44.34348" lon="4.77904">
        <ele>109.2</ele>
        <time>2018-04-24T12:35:09Z</time>
      </trkpt>
      <trkpt lat="44.34341" lon="4.77896">
        <ele>109.5</ele>
        <time>2018-04-24T12:35:11Z</time>
      </trkpt>
      <trkpt lat="44.34333" lon="4.77887">
        <ele>109.7</ele>
        <time>2018-04-24T12:35:13Z</time>
      </trkpt>
      <trkpt lat="44.34326" lon="4.77879">
        <ele>109.9</ele>
        <time>2018-04-24T12:35:15Z</time>
      </trkpt>
      <trkpt lat="44.34319" lon="4.77871">
        <ele>110</ele>
        <time>2018-04-24T12:35:17Z</time>
      </trkpt>
      <trkpt lat="44.34312" lon="4.77863">
        <ele>110</ele>
        <time>2018-04-24T12:35:19Z</time>
      </trkpt>
      <trkpt lat="44.34305" lon="4.77855">
        <ele>110.1</ele>
        <time>2018-04-24T12:35:21Z</time>
      </trkpt>
      <trkpt lat="44.34295" lon="4.77843">
        <ele>110.4</ele>
        <time>2018-04-24T12:35:24Z</time>
      </trkpt>
      <trkpt lat="44.34287" lon="4.7783">
        <ele>110.8</ele>
        <time>2018-04-24T12:35:27Z</time>
      </trkpt>
      <trkpt lat="44.3428" lon="4.77819">
        <ele>111.2</ele>
        <time>2018-04-24T12:35:30Z</time>
      </trkpt>
      <trkpt lat="44.34273" lon="4.77807">
        <ele>111.7</ele>
        <time>2018-04-24T12:35:33Z</time>
      </trkpt>
      <trkpt lat="44.34267" lon="4.77796">
        <ele>112.3</ele>
        <time>2018-04-24T12:35:36Z</time>
      </trkpt>
      <trkpt lat="44.34262" lon="4.77783">
        <ele>113.1</ele>
        <time>2018-04-24T12:35:40Z</time>
      </trkpt>
      <trkpt lat="44.34257" lon="4.77771">
        <ele>113.9</ele>
        <time>2018-04-24T12:35:43Z</time>
      </trkpt>
      <trkpt lat="44.34252" lon="4.77757">
        <ele>115.1</ele>
        <time>2018-04-24T12:35:47Z</time>
      </trkpt>
      <trkpt lat="44.34247" lon="4.77743">
        <ele>116.2</ele>
        <time>2018-04-24T12:35:51Z</time>
      </trkpt>
      <trkpt lat="44.3424" lon="4.77731">
        <ele>117.2</ele>
        <time>2018-04-24T12:35:55Z</time>
      </trkpt>
      <trkpt lat="44.34234" lon="4.77719">
        <ele>118.2</ele>
        <time>2018-04-24T12:35:59Z</time>
      </trkpt>
      <trkpt lat="44.34228" lon="4.77707">
        <ele>119.2</ele>
        <time>2018-04-24T12:36:03Z</time>
      </trkpt>
      <trkpt lat="44.34221" lon="4.77695">
        <ele>120.6</ele>
        <time>2018-04-24T12:36:08Z</time>
      </trkpt>
      <trkpt lat="44.34218" lon="4.77682">
        <ele>122.8</ele>
        <time>2018-04-24T12:36:13Z</time>
      </trkpt>
      <trkpt lat="44.34215" lon="4.77668">
        <ele>124.7</ele>
        <time>2018-04-24T12:36:18Z</time>
      </trkpt>
      <trkpt lat="44.34214" lon="4.77653">
        <ele>126.6</ele>
        <time>2018-04-24T12:36:23Z</time>
      </trkpt>
      <trkpt lat="44.34213" lon="4.77639">
        <ele>128.8</ele>
        <time>2018-04-24T12:36:28Z</time>
      </trkpt>
      <trkpt lat="44.34208" lon="4.77625">
        <ele>130.4</ele>
        <time>2018-04-24T12:36:33Z</time>
      </trkpt>
      <trkpt lat="44.34202" lon="4.77613">
        <ele>131.7</ele>
        <time>2018-04-24T12:36:38Z</time>
      </trkpt>
      <trkpt lat="44.34196" lon="4.77601">
        <ele>132.7</ele>
        <time>2018-04-24T12:36:43Z</time>
      </trkpt>
      <trkpt lat="44.34192" lon="4.77589">
        <ele>133.7</ele>
        <time>2018-04-24T12:36:48Z</time>
      </trkpt>
      <trkpt lat="44.34188" lon="4.77576">
        <ele>134.3</ele>
        <time>2018-04-24T12:36:52Z</time>
      </trkpt>
      <trkpt lat="44.34185" lon="4.7756">
        <ele>134.5</ele>
        <time>2018-04-24T12:36:55Z</time>
      </trkpt>
      <trkpt lat="44.34187" lon="4.77542">
        <ele>134.2</ele>
        <time>2018-04-24T12:36:58Z</time>
      </trkpt>
      <trkpt lat="44.34189" lon="4.77529">
        <ele>133.9</ele>
        <time>2018-04-24T12:37:00Z</time>
      </trkpt>
      <trkpt lat="44.34199" lon="4.77519">
        <ele>133.2</ele>
        <time>2018-04-24T12:37:03Z</time>
      </trkpt>
      <trkpt lat="44.34214" lon="4.77522">
        <ele>132.8</ele>
        <time>2018-04-24T12:37:06Z</time>
      </trkpt>
      <trkpt lat="44.34228" lon="4.77523">
        <ele>132.5</ele>
        <time>2018-04-24T12:37:08Z</time>
      </trkpt>
      <trkpt lat="44.34242" lon="4.77524">
        <ele>132</ele>
        <time>2018-04-24T12:37:10Z</time>
      </trkpt>
      <trkpt lat="44.34255" lon="4.77518">
        <ele>131.8</ele>
        <time>2018-04-24T12:37:12Z</time>
      </trkpt>
      <trkpt lat="44.34266" lon="4.77509">
        <ele>131.6</ele>
        <time>2018-04-24T12:37:14Z</time>
      </trkpt>
      <trkpt lat="44.34277" lon="4.775">
        <ele>131.2</ele>
        <time>2018-04-24T12:37:16Z</time>
      </trkpt>
      <trkpt lat="44.34288" lon="4.77491">
        <ele>130.4</ele>
        <time>2018-04-24T12:37:18Z</time>
      </trkpt>
      <trkpt lat="44.34299" lon="4.77482">
        <ele>129.8</ele>
        <time>2018-04-24T12:37:20Z</time>
      </trkpt>
      <trkpt lat="44.34307" lon="4.77476">
        <ele>129.1</ele>
        <time>2018-04-24T12:37:23Z</time>
      </trkpt>
      <trkpt lat="44.34318" lon="4.77472">
        <ele>128.1</ele>
        <time>2018-04-24T12:37:34Z</time>
      </trkpt>
      <trkpt lat="44.34327" lon="4.77465">
        <ele>127.9</ele>
        <time>2018-04-24T12:37:37Z</time>
      </trkpt>
      <trkpt lat="44.34336" lon="4.77457">
        <ele>127.7</ele>
        <time>2018-04-24T12:37:39Z</time>
      </trkpt>
      <trkpt lat="44.34346" lon="4.77447">
        <ele>127.3</ele>
        <time>2018-04-24T12:37:41Z</time>
      </trkpt>
      <trkpt lat="44.34355" lon="4.77438">
        <ele>126.6</ele>
        <time>2018-04-24T12:37:43Z</time>
      </trkpt>
      <trkpt lat="44.34363" lon="4.77426">
        <ele>126.1</ele>
        <time>2018-04-24T12:37:45Z</time>
      </trkpt>
      <trkpt lat="44.34372" lon="4.77415">
        <ele>125.7</ele>
        <time>2018-04-24T12:37:47Z</time>
      </trkpt>
      <trkpt lat="44.34379" lon="4.77404">
        <ele>125.1</ele>
        <time>2018-04-24T12:37:49Z</time>
      </trkpt>
      <trkpt lat="44.34386" lon="4.77392">
        <ele>124.8</ele>
        <time>2018-04-24T12:37:51Z</time>
      </trkpt>
      <trkpt lat="44.34396" lon="4.7738">
        <ele>124.4</ele>
        <time>2018-04-24T12:37:53Z</time>
      </trkpt>
      <trkpt lat="44.34405" lon="4.77367">
        <ele>123.8</ele>
        <time>2018-04-24T12:37:55Z</time>
      </trkpt>
      <trkpt lat="44.34417" lon="4.77354">
        <ele>123.1</ele>
        <time>2018-04-24T12:37:57Z</time>
      </trkpt>
      <trkpt lat="44.34428" lon="4.77341">
        <ele>122.4</ele>
        <time>2018-04-24T12:37:59Z</time>
      </trkpt>
      <trkpt lat="44.34443" lon="4.77328">
        <ele>121.5</ele>
        <time>2018-04-24T12:38:01Z</time>
      </trkpt>
      <trkpt lat="44.34455" lon="4.77314">
        <ele>120.6</ele>
        <time>2018-04-24T12:38:03Z</time>
      </trkpt>
      <trkpt lat="44.34465" lon="4.773">
        <ele>120</ele>
        <time>2018-04-24T12:38:05Z</time>
      </trkpt>
      <trkpt lat="44.34478" lon="4.77285">
        <ele>119</ele>
        <time>2018-04-24T12:38:07Z</time>
      </trkpt>
      <trkpt lat="44.34485" lon="4.77268">
        <ele>118.4</ele>
        <time>2018-04-24T12:38:09Z</time>
      </trkpt>
      <trkpt lat="44.34488" lon="4.7725">
        <ele>117.8</ele>
        <time>2018-04-24T12:38:11Z</time>
      </trkpt>
      <trkpt lat="44.34492" lon="4.77232">
        <ele>117.2</ele>
        <time>2018-04-24T12:38:13Z</time>
      </trkpt>
      <trkpt lat="44.34499" lon="4.77214">
        <ele>116.7</ele>
        <time>2018-04-24T12:38:15Z</time>
      </trkpt>
      <trkpt lat="44.34507" lon="4.77199">
        <ele>116.1</ele>
        <time>2018-04-24T12:38:17Z</time>
      </trkpt>
      <trkpt lat="44.34517" lon="4.77186">
        <ele>115.4</ele>
        <time>2018-04-24T12:38:19Z</time>
      </trkpt>
      <trkpt lat="44.34528" lon="4.77172">
        <ele>114.9</ele>
        <time>2018-04-24T12:38:21Z</time>
      </trkpt>
      <trkpt lat="44.34542" lon="4.77161">
        <ele>114.5</ele>
        <time>2018-04-24T12:38:23Z</time>
      </trkpt>
      <trkpt lat="44.34556" lon="4.77152">
        <ele>114</ele>
        <time>2018-04-24T12:38:25Z</time>
      </trkpt>
      <trkpt lat="44.3457" lon="4.77139">
        <ele>113.3</ele>
        <time>2018-04-24T12:38:27Z</time>
      </trkpt>
      <trkpt lat="44.34581" lon="4.77125">
        <ele>112.6</ele>
        <time>2018-04-24T12:38:29Z</time>
      </trkpt>
      <trkpt lat="44.3459" lon="4.77115">
        <ele>111.9</ele>
        <time>2018-04-24T12:38:31Z</time>
      </trkpt>
      <trkpt lat="44.346" lon="4.77117">
        <ele>111.1</ele>
        <time>2018-04-24T12:38:33Z</time>
      </trkpt>
      <trkpt lat="44.34609" lon="4.77122">
        <ele>110.6</ele>
        <time>2018-04-24T12:38:35Z</time>
      </trkpt>
      <trkpt lat="44.34621" lon="4.77119">
        <ele>110.2</ele>
        <time>2018-04-24T12:38:37Z</time>
      </trkpt>
      <trkpt lat="44.34633" lon="4.77116">
        <ele>109.7</ele>
        <time>2018-04-24T12:38:39Z</time>
      </trkpt>
      <trkpt lat="44.34648" lon="4.77115">
        <ele>109.3</ele>
        <time>2018-04-24T12:38:41Z</time>
      </trkpt>
      <trkpt lat="44.34663" lon="4.77116">
        <ele>108.7</ele>
        <time>2018-04-24T12:38:43Z</time>
      </trkpt>
      <trkpt lat="44.34678" lon="4.77117">
        <ele>108.1</ele>
        <time>2018-04-24T12:38:45Z</time>
      </trkpt>
      <trkpt lat="44.34693" lon="4.77118">
        <ele>107.6</ele>
        <time>2018-04-24T12:38:47Z</time>
      </trkpt>
      <trkpt lat="44.34708" lon="4.7712">
        <ele>107.1</ele>
        <time>2018-04-24T12:38:49Z</time>
      </trkpt>
      <trkpt lat="44.34722" lon="4.77122">
        <ele>106.5</ele>
        <time>2018-04-24T12:38:51Z</time>
      </trkpt>
      <trkpt lat="44.34736" lon="4.77124">
        <ele>105.8</ele>
        <time>2018-04-24T12:38:53Z</time>
      </trkpt>
      <trkpt lat="44.3475" lon="4.77126">
        <ele>105.3</ele>
        <time>2018-04-24T12:38:55Z</time>
      </trkpt>
      <trkpt lat="44.34763" lon="4.77128">
        <ele>105</ele>
        <time>2018-04-24T12:38:57Z</time>
      </trkpt>
      <trkpt lat="44.34775" lon="4.77123">
        <ele>104.7</ele>
        <time>2018-04-24T12:38:59Z</time>
      </trkpt>
      <trkpt lat="44.34781" lon="4.77107">
        <ele>104.6</ele>
        <time>2018-04-24T12:39:01Z</time>
      </trkpt>
      <trkpt lat="44.34782" lon="4.77091">
        <ele>104.6</ele>
        <time>2018-04-24T12:39:03Z</time>
      </trkpt>
      <trkpt lat="44.34784" lon="4.77074">
        <ele>104.6</ele>
        <time>2018-04-24T12:39:05Z</time>
      </trkpt>
      <trkpt lat="44.34785" lon="4.77058">
        <ele>104.5</ele>
        <time>2018-04-24T12:39:07Z</time>
      </trkpt>
      <trkpt lat="44.34786" lon="4.77041">
        <ele>104.3</ele>
        <time>2018-04-24T12:39:09Z</time>
      </trkpt>
      <trkpt lat="44.34785" lon="4.77028">
        <ele>103.9</ele>
        <time>2018-04-24T12:39:11Z</time>
      </trkpt>
      <trkpt lat="44.34784" lon="4.77011">
        <ele>103.5</ele>
        <time>2018-04-24T12:39:14Z</time>
      </trkpt>
      <trkpt lat="44.34783" lon="4.76996">
        <ele>103.1</ele>
        <time>2018-04-24T12:39:18Z</time>
      </trkpt>
      <trkpt lat="44.34787" lon="4.76988">
        <ele>102.8</ele>
        <time>2018-04-24T12:39:23Z</time>
      </trkpt>
    </trkseg>
  </trk>
</gpx>